<?xml version="1.0" encoding="UTF-8" standalone="no" ?>
<gpx xmlns="http://www.topografix.com/GPX/1/1" xmlns:xsi="http://www.w3.org/2001/XMLSchema-instance" xsi:schemaLocation="http://www.topografix.com/GPX/1/1 http://www.topografix.com/GPX/1/1/gpx.xsd" version="1.1" creator="VisuGPX - https://www.visugpx.com">
  <metadata>
    <name>Cime du Sambuis</name>
    <desc><![CDATA[Boucle Valmaure - Mont Rond - Cime du Sambuis - Combe de la Croix]]></desc>
  </metadata>
  <trk>
    <name><![CDATA[2019-03-30 07-38]]></name>
    <trkseg>
      <trkpt lat="45.2822" lon="6.21122">
        <ele>1203</ele>
        <time>2019-03-30T06:45:33Z</time>
      </trkpt>
      <trkpt lat="45.28219" lon="6.21121">
        <ele>1202.2</ele>
        <time>2019-03-30T06:45:38Z</time>
      </trkpt>
      <trkpt lat="45.2822" lon="6.21119">
        <ele>1201.8</ele>
        <time>2019-03-30T06:45:43Z</time>
      </trkpt>
      <trkpt lat="45.28223" lon="6.21116">
        <ele>1206.2</ele>
        <time>2019-03-30T06:45:48Z</time>
      </trkpt>
      <trkpt lat="45.28225" lon="6.21112">
        <ele>1211</ele>
        <time>2019-03-30T06:45:53Z</time>
      </trkpt>
      <trkpt lat="45.28226" lon="6.21111">
        <ele>1207</ele>
        <time>2019-03-30T06:45:58Z</time>
      </trkpt>
      <trkpt lat="45.28226" lon="6.21111">
        <ele>1204.6</ele>
        <time>2019-03-30T06:46:13Z</time>
      </trkpt>
      <trkpt lat="45.28227" lon="6.21107">
        <ele>1202.4</ele>
        <time>2019-03-30T06:46:23Z</time>
      </trkpt>
      <trkpt lat="45.28229" lon="6.21103">
        <ele>1203.2</ele>
        <time>2019-03-30T06:46:28Z</time>
      </trkpt>
      <trkpt lat="45.28229" lon="6.21099">
        <ele>1201</ele>
        <time>2019-03-30T06:46:33Z</time>
      </trkpt>
      <trkpt lat="45.28229" lon="6.21097">
        <ele>1204</ele>
        <time>2019-03-30T06:46:38Z</time>
      </trkpt>
      <trkpt lat="45.2823" lon="6.21098">
        <ele>1203</ele>
        <time>2019-03-30T06:46:53Z</time>
      </trkpt>
      <trkpt lat="45.28231" lon="6.21094">
        <ele>1203.8</ele>
        <time>2019-03-30T06:46:58Z</time>
      </trkpt>
      <trkpt lat="45.28233" lon="6.21091">
        <ele>1204.4</ele>
        <time>2019-03-30T06:47:03Z</time>
      </trkpt>
      <trkpt lat="45.28235" lon="6.21087">
        <ele>1203.4</ele>
        <time>2019-03-30T06:47:08Z</time>
      </trkpt>
      <trkpt lat="45.28237" lon="6.21084">
        <ele>1207.4</ele>
        <time>2019-03-30T06:47:13Z</time>
      </trkpt>
      <trkpt lat="45.28239" lon="6.2108">
        <ele>1203.4</ele>
        <time>2019-03-30T06:47:18Z</time>
      </trkpt>
      <trkpt lat="45.28241" lon="6.21075">
        <ele>1205.4</ele>
        <time>2019-03-30T06:47:23Z</time>
      </trkpt>
      <trkpt lat="45.28243" lon="6.2107">
        <ele>1204.8</ele>
        <time>2019-03-30T06:47:28Z</time>
      </trkpt>
      <trkpt lat="45.28245" lon="6.21066">
        <ele>1202.2</ele>
        <time>2019-03-30T06:47:33Z</time>
      </trkpt>
      <trkpt lat="45.28248" lon="6.21061">
        <ele>1207.2</ele>
        <time>2019-03-30T06:47:38Z</time>
      </trkpt>
      <trkpt lat="45.28249" lon="6.21056">
        <ele>1205.6</ele>
        <time>2019-03-30T06:47:43Z</time>
      </trkpt>
      <trkpt lat="45.28252" lon="6.21052">
        <ele>1207.2</ele>
        <time>2019-03-30T06:47:48Z</time>
      </trkpt>
      <trkpt lat="45.28253" lon="6.21051">
        <ele>1207.6</ele>
        <time>2019-03-30T06:48:28Z</time>
      </trkpt>
      <trkpt lat="45.28253" lon="6.2105">
        <ele>1208.6</ele>
        <time>2019-03-30T06:48:33Z</time>
      </trkpt>
      <trkpt lat="45.28254" lon="6.21049">
        <ele>1207.4</ele>
        <time>2019-03-30T06:49:03Z</time>
      </trkpt>
      <trkpt lat="45.28253" lon="6.21047">
        <ele>1208</ele>
        <time>2019-03-30T06:49:08Z</time>
      </trkpt>
      <trkpt lat="45.28254" lon="6.21043">
        <ele>1210.4</ele>
        <time>2019-03-30T06:49:13Z</time>
      </trkpt>
      <trkpt lat="45.28255" lon="6.21039">
        <ele>1209.8</ele>
        <time>2019-03-30T06:49:18Z</time>
      </trkpt>
      <trkpt lat="45.28256" lon="6.21033">
        <ele>1209</ele>
        <time>2019-03-30T06:49:23Z</time>
      </trkpt>
      <trkpt lat="45.28257" lon="6.21028">
        <ele>1206.2</ele>
        <time>2019-03-30T06:49:28Z</time>
      </trkpt>
      <trkpt lat="45.28258" lon="6.21024">
        <ele>1208.4</ele>
        <time>2019-03-30T06:49:33Z</time>
      </trkpt>
      <trkpt lat="45.28259" lon="6.21018">
        <ele>1207.2</ele>
        <time>2019-03-30T06:49:38Z</time>
      </trkpt>
      <trkpt lat="45.28261" lon="6.21012">
        <ele>1209</ele>
        <time>2019-03-30T06:49:43Z</time>
      </trkpt>
      <trkpt lat="45.28264" lon="6.21007">
        <ele>1208.6</ele>
        <time>2019-03-30T06:49:48Z</time>
      </trkpt>
      <trkpt lat="45.28269" lon="6.21003">
        <ele>1212.8</ele>
        <time>2019-03-30T06:49:53Z</time>
      </trkpt>
      <trkpt lat="45.28271" lon="6.20997">
        <ele>1211.2</ele>
        <time>2019-03-30T06:49:58Z</time>
      </trkpt>
      <trkpt lat="45.28274" lon="6.20994">
        <ele>1210.8</ele>
        <time>2019-03-30T06:50:03Z</time>
      </trkpt>
      <trkpt lat="45.28275" lon="6.20992">
        <ele>1211.6</ele>
        <time>2019-03-30T06:50:08Z</time>
      </trkpt>
      <trkpt lat="45.2828" lon="6.20989">
        <ele>1210.4</ele>
        <time>2019-03-30T06:50:13Z</time>
      </trkpt>
      <trkpt lat="45.28281" lon="6.20988">
        <ele>1211.6</ele>
        <time>2019-03-30T06:50:18Z</time>
      </trkpt>
      <trkpt lat="45.28282" lon="6.20987">
        <ele>1208.2</ele>
        <time>2019-03-30T06:50:23Z</time>
      </trkpt>
      <trkpt lat="45.28282" lon="6.20983">
        <ele>1214</ele>
        <time>2019-03-30T06:50:48Z</time>
      </trkpt>
      <trkpt lat="45.28282" lon="6.20982">
        <ele>1214.6</ele>
        <time>2019-03-30T06:51:13Z</time>
      </trkpt>
      <trkpt lat="45.28282" lon="6.2098">
        <ele>1214.4</ele>
        <time>2019-03-30T06:51:18Z</time>
      </trkpt>
      <trkpt lat="45.28283" lon="6.2098">
        <ele>1214.2</ele>
        <time>2019-03-30T06:51:33Z</time>
      </trkpt>
      <trkpt lat="45.28282" lon="6.20979">
        <ele>1213.2</ele>
        <time>2019-03-30T06:51:38Z</time>
      </trkpt>
      <trkpt lat="45.2828" lon="6.20975">
        <ele>1210</ele>
        <time>2019-03-30T06:54:13Z</time>
      </trkpt>
      <trkpt lat="45.28279" lon="6.20974">
        <ele>1211.8</ele>
        <time>2019-03-30T06:54:23Z</time>
      </trkpt>
      <trkpt lat="45.28277" lon="6.2097">
        <ele>1210.2</ele>
        <time>2019-03-30T06:54:28Z</time>
      </trkpt>
      <trkpt lat="45.28275" lon="6.20967">
        <ele>1211.4</ele>
        <time>2019-03-30T06:54:33Z</time>
      </trkpt>
      <trkpt lat="45.28272" lon="6.20965">
        <ele>1213</ele>
        <time>2019-03-30T06:54:38Z</time>
      </trkpt>
      <trkpt lat="45.28271" lon="6.20963">
        <ele>1215.2</ele>
        <time>2019-03-30T06:54:43Z</time>
      </trkpt>
      <trkpt lat="45.28269" lon="6.20959">
        <ele>1216.8</ele>
        <time>2019-03-30T06:54:48Z</time>
      </trkpt>
      <trkpt lat="45.28267" lon="6.20954">
        <ele>1216.6</ele>
        <time>2019-03-30T06:54:53Z</time>
      </trkpt>
      <trkpt lat="45.28264" lon="6.20951">
        <ele>1218</ele>
        <time>2019-03-30T06:54:58Z</time>
      </trkpt>
      <trkpt lat="45.28261" lon="6.20948">
        <ele>1219.4</ele>
        <time>2019-03-30T06:55:03Z</time>
      </trkpt>
      <trkpt lat="45.28259" lon="6.20948">
        <ele>1222.4</ele>
        <time>2019-03-30T06:55:08Z</time>
      </trkpt>
      <trkpt lat="45.28257" lon="6.20949">
        <ele>1222.4</ele>
        <time>2019-03-30T06:55:13Z</time>
      </trkpt>
      <trkpt lat="45.28254" lon="6.20948">
        <ele>1224.4</ele>
        <time>2019-03-30T06:55:18Z</time>
      </trkpt>
      <trkpt lat="45.28251" lon="6.20944">
        <ele>1223.8</ele>
        <time>2019-03-30T06:55:23Z</time>
      </trkpt>
      <trkpt lat="45.28249" lon="6.20941">
        <ele>1227.4</ele>
        <time>2019-03-30T06:55:28Z</time>
      </trkpt>
      <trkpt lat="45.28249" lon="6.20937">
        <ele>1223.4</ele>
        <time>2019-03-30T06:55:33Z</time>
      </trkpt>
      <trkpt lat="45.28249" lon="6.20935">
        <ele>1223.8</ele>
        <time>2019-03-30T06:55:38Z</time>
      </trkpt>
      <trkpt lat="45.28247" lon="6.20937">
        <ele>1223.8</ele>
        <time>2019-03-30T06:55:43Z</time>
      </trkpt>
      <trkpt lat="45.28243" lon="6.20942">
        <ele>1224.8</ele>
        <time>2019-03-30T06:55:48Z</time>
      </trkpt>
      <trkpt lat="45.2824" lon="6.20947">
        <ele>1224.6</ele>
        <time>2019-03-30T06:55:53Z</time>
      </trkpt>
      <trkpt lat="45.28238" lon="6.20948">
        <ele>1224.8</ele>
        <time>2019-03-30T06:55:58Z</time>
      </trkpt>
      <trkpt lat="45.28237" lon="6.20949">
        <ele>1227.4</ele>
        <time>2019-03-30T06:56:03Z</time>
      </trkpt>
      <trkpt lat="45.28235" lon="6.2095">
        <ele>1229.2</ele>
        <time>2019-03-30T06:56:08Z</time>
      </trkpt>
      <trkpt lat="45.28233" lon="6.20951">
        <ele>1230</ele>
        <time>2019-03-30T06:56:13Z</time>
      </trkpt>
      <trkpt lat="45.2823" lon="6.20952">
        <ele>1231.6</ele>
        <time>2019-03-30T06:56:18Z</time>
      </trkpt>
      <trkpt lat="45.2823" lon="6.2095">
        <ele>1232.2</ele>
        <time>2019-03-30T06:56:23Z</time>
      </trkpt>
      <trkpt lat="45.28231" lon="6.20946">
        <ele>1230.8</ele>
        <time>2019-03-30T06:56:28Z</time>
      </trkpt>
      <trkpt lat="45.28232" lon="6.20945">
        <ele>1231</ele>
        <time>2019-03-30T06:56:33Z</time>
      </trkpt>
      <trkpt lat="45.28236" lon="6.20942">
        <ele>1230</ele>
        <time>2019-03-30T06:57:03Z</time>
      </trkpt>
      <trkpt lat="45.28239" lon="6.20937">
        <ele>1234.2</ele>
        <time>2019-03-30T06:57:08Z</time>
      </trkpt>
      <trkpt lat="45.28243" lon="6.20933">
        <ele>1235</ele>
        <time>2019-03-30T06:57:13Z</time>
      </trkpt>
      <trkpt lat="45.28244" lon="6.20929">
        <ele>1238</ele>
        <time>2019-03-30T06:57:18Z</time>
      </trkpt>
      <trkpt lat="45.28244" lon="6.20925">
        <ele>1236.8</ele>
        <time>2019-03-30T06:57:23Z</time>
      </trkpt>
      <trkpt lat="45.28245" lon="6.20922">
        <ele>1237.2</ele>
        <time>2019-03-30T06:57:28Z</time>
      </trkpt>
      <trkpt lat="45.28246" lon="6.20915">
        <ele>1240.2</ele>
        <time>2019-03-30T06:57:38Z</time>
      </trkpt>
      <trkpt lat="45.28247" lon="6.20911">
        <ele>1242.4</ele>
        <time>2019-03-30T06:57:43Z</time>
      </trkpt>
      <trkpt lat="45.28247" lon="6.20907">
        <ele>1244.4</ele>
        <time>2019-03-30T06:57:48Z</time>
      </trkpt>
      <trkpt lat="45.28248" lon="6.20903">
        <ele>1244.6</ele>
        <time>2019-03-30T06:57:53Z</time>
      </trkpt>
      <trkpt lat="45.28247" lon="6.209">
        <ele>1247.2</ele>
        <time>2019-03-30T06:57:58Z</time>
      </trkpt>
      <trkpt lat="45.28247" lon="6.20896">
        <ele>1249.6</ele>
        <time>2019-03-30T06:58:03Z</time>
      </trkpt>
      <trkpt lat="45.28246" lon="6.20892">
        <ele>1249.6</ele>
        <time>2019-03-30T06:58:08Z</time>
      </trkpt>
      <trkpt lat="45.28245" lon="6.20888">
        <ele>1250</ele>
        <time>2019-03-30T06:58:13Z</time>
      </trkpt>
      <trkpt lat="45.28244" lon="6.20884">
        <ele>1249.4</ele>
        <time>2019-03-30T06:58:18Z</time>
      </trkpt>
      <trkpt lat="45.28244" lon="6.20881">
        <ele>1251</ele>
        <time>2019-03-30T06:58:23Z</time>
      </trkpt>
      <trkpt lat="45.28242" lon="6.20879">
        <ele>1253.4</ele>
        <time>2019-03-30T06:58:28Z</time>
      </trkpt>
      <trkpt lat="45.2824" lon="6.20876">
        <ele>1253.2</ele>
        <time>2019-03-30T06:58:33Z</time>
      </trkpt>
      <trkpt lat="45.2824" lon="6.20875">
        <ele>1252.2</ele>
        <time>2019-03-30T06:58:38Z</time>
      </trkpt>
      <trkpt lat="45.2824" lon="6.20875">
        <ele>1253.4</ele>
        <time>2019-03-30T06:58:43Z</time>
      </trkpt>
      <trkpt lat="45.2824" lon="6.20873">
        <ele>1255.8</ele>
        <time>2019-03-30T06:58:48Z</time>
      </trkpt>
      <trkpt lat="45.2824" lon="6.20868">
        <ele>1255</ele>
        <time>2019-03-30T06:58:53Z</time>
      </trkpt>
      <trkpt lat="45.28239" lon="6.20863">
        <ele>1254.6</ele>
        <time>2019-03-30T06:58:58Z</time>
      </trkpt>
      <trkpt lat="45.28238" lon="6.20859">
        <ele>1259.4</ele>
        <time>2019-03-30T06:59:03Z</time>
      </trkpt>
      <trkpt lat="45.28235" lon="6.20856">
        <ele>1257.6</ele>
        <time>2019-03-30T06:59:08Z</time>
      </trkpt>
      <trkpt lat="45.28232" lon="6.20854">
        <ele>1260.2</ele>
        <time>2019-03-30T06:59:13Z</time>
      </trkpt>
      <trkpt lat="45.28232" lon="6.20851">
        <ele>1261.6</ele>
        <time>2019-03-30T06:59:18Z</time>
      </trkpt>
      <trkpt lat="45.28233" lon="6.20848">
        <ele>1261.4</ele>
        <time>2019-03-30T06:59:23Z</time>
      </trkpt>
      <trkpt lat="45.28233" lon="6.20846">
        <ele>1261.6</ele>
        <time>2019-03-30T06:59:28Z</time>
      </trkpt>
      <trkpt lat="45.28235" lon="6.20843">
        <ele>1257.8</ele>
        <time>2019-03-30T06:59:33Z</time>
      </trkpt>
      <trkpt lat="45.28235" lon="6.20841">
        <ele>1258.8</ele>
        <time>2019-03-30T06:59:38Z</time>
      </trkpt>
      <trkpt lat="45.28235" lon="6.20841">
        <ele>1259.8</ele>
        <time>2019-03-30T06:59:48Z</time>
      </trkpt>
      <trkpt lat="45.28234" lon="6.20841">
        <ele>1260.2</ele>
        <time>2019-03-30T06:59:53Z</time>
      </trkpt>
      <trkpt lat="45.28232" lon="6.20838">
        <ele>1262.8</ele>
        <time>2019-03-30T07:00:38Z</time>
      </trkpt>
      <trkpt lat="45.28232" lon="6.20838">
        <ele>1262.6</ele>
        <time>2019-03-30T07:01:28Z</time>
      </trkpt>
      <trkpt lat="45.2823" lon="6.20835">
        <ele>1266.2</ele>
        <time>2019-03-30T07:01:33Z</time>
      </trkpt>
      <trkpt lat="45.28229" lon="6.20832">
        <ele>1263.2</ele>
        <time>2019-03-30T07:01:38Z</time>
      </trkpt>
      <trkpt lat="45.28226" lon="6.2083">
        <ele>1265.6</ele>
        <time>2019-03-30T07:01:43Z</time>
      </trkpt>
      <trkpt lat="45.28226" lon="6.20826">
        <ele>1265.8</ele>
        <time>2019-03-30T07:01:48Z</time>
      </trkpt>
      <trkpt lat="45.28227" lon="6.20823">
        <ele>1266.8</ele>
        <time>2019-03-30T07:01:53Z</time>
      </trkpt>
      <trkpt lat="45.28225" lon="6.20821">
        <ele>1268</ele>
        <time>2019-03-30T07:01:58Z</time>
      </trkpt>
      <trkpt lat="45.28223" lon="6.20818">
        <ele>1269</ele>
        <time>2019-03-30T07:02:03Z</time>
      </trkpt>
      <trkpt lat="45.28222" lon="6.20817">
        <ele>1269.8</ele>
        <time>2019-03-30T07:02:08Z</time>
      </trkpt>
      <trkpt lat="45.28221" lon="6.20814">
        <ele>1272.8</ele>
        <time>2019-03-30T07:02:13Z</time>
      </trkpt>
      <trkpt lat="45.28223" lon="6.20809">
        <ele>1272.6</ele>
        <time>2019-03-30T07:02:18Z</time>
      </trkpt>
      <trkpt lat="45.28224" lon="6.20805">
        <ele>1275.2</ele>
        <time>2019-03-30T07:02:23Z</time>
      </trkpt>
      <trkpt lat="45.28226" lon="6.20802">
        <ele>1274</ele>
        <time>2019-03-30T07:02:28Z</time>
      </trkpt>
      <trkpt lat="45.28227" lon="6.20797">
        <ele>1276.8</ele>
        <time>2019-03-30T07:02:33Z</time>
      </trkpt>
      <trkpt lat="45.28227" lon="6.20796">
        <ele>1277.4</ele>
        <time>2019-03-30T07:02:38Z</time>
      </trkpt>
      <trkpt lat="45.28227" lon="6.20796">
        <ele>1276</ele>
        <time>2019-03-30T07:02:53Z</time>
      </trkpt>
      <trkpt lat="45.28228" lon="6.20795">
        <ele>1275.8</ele>
        <time>2019-03-30T07:02:58Z</time>
      </trkpt>
      <trkpt lat="45.28229" lon="6.20795">
        <ele>1275.8</ele>
        <time>2019-03-30T07:03:18Z</time>
      </trkpt>
      <trkpt lat="45.2823" lon="6.20795">
        <ele>1275.8</ele>
        <time>2019-03-30T07:03:33Z</time>
      </trkpt>
      <trkpt lat="45.2823" lon="6.20795">
        <ele>1278.6</ele>
        <time>2019-03-30T07:04:28Z</time>
      </trkpt>
      <trkpt lat="45.28231" lon="6.20794">
        <ele>1278.8</ele>
        <time>2019-03-30T07:04:53Z</time>
      </trkpt>
      <trkpt lat="45.28232" lon="6.20793">
        <ele>1278.8</ele>
        <time>2019-03-30T07:05:03Z</time>
      </trkpt>
      <trkpt lat="45.28232" lon="6.20792">
        <ele>1279</ele>
        <time>2019-03-30T07:05:23Z</time>
      </trkpt>
      <trkpt lat="45.28231" lon="6.2079">
        <ele>1279.8</ele>
        <time>2019-03-30T07:05:28Z</time>
      </trkpt>
      <trkpt lat="45.28231" lon="6.20786">
        <ele>1279.6</ele>
        <time>2019-03-30T07:05:38Z</time>
      </trkpt>
      <trkpt lat="45.28232" lon="6.20784">
        <ele>1278</ele>
        <time>2019-03-30T07:05:48Z</time>
      </trkpt>
      <trkpt lat="45.28232" lon="6.20783">
        <ele>1275.6</ele>
        <time>2019-03-30T07:06:08Z</time>
      </trkpt>
      <trkpt lat="45.28232" lon="6.20781">
        <ele>1275.4</ele>
        <time>2019-03-30T07:06:13Z</time>
      </trkpt>
      <trkpt lat="45.28232" lon="6.20779">
        <ele>1275.4</ele>
        <time>2019-03-30T07:06:18Z</time>
      </trkpt>
      <trkpt lat="45.28231" lon="6.20779">
        <ele>1275</ele>
        <time>2019-03-30T07:06:33Z</time>
      </trkpt>
      <trkpt lat="45.28231" lon="6.20778">
        <ele>1275</ele>
        <time>2019-03-30T07:06:38Z</time>
      </trkpt>
      <trkpt lat="45.28231" lon="6.20778">
        <ele>1275.2</ele>
        <time>2019-03-30T07:06:43Z</time>
      </trkpt>
      <trkpt lat="45.28229" lon="6.20778">
        <ele>1276.8</ele>
        <time>2019-03-30T07:07:18Z</time>
      </trkpt>
      <trkpt lat="45.28227" lon="6.20777">
        <ele>1276.6</ele>
        <time>2019-03-30T07:07:23Z</time>
      </trkpt>
      <trkpt lat="45.28225" lon="6.20775">
        <ele>1276.8</ele>
        <time>2019-03-30T07:07:28Z</time>
      </trkpt>
      <trkpt lat="45.28225" lon="6.20774">
        <ele>1276.6</ele>
        <time>2019-03-30T07:07:33Z</time>
      </trkpt>
      <trkpt lat="45.28225" lon="6.20773">
        <ele>1275.4</ele>
        <time>2019-03-30T07:07:38Z</time>
      </trkpt>
      <trkpt lat="45.28225" lon="6.20772">
        <ele>1275.4</ele>
        <time>2019-03-30T07:07:43Z</time>
      </trkpt>
      <trkpt lat="45.28227" lon="6.2077">
        <ele>1274.8</ele>
        <time>2019-03-30T07:07:48Z</time>
      </trkpt>
      <trkpt lat="45.2823" lon="6.20765">
        <ele>1273.6</ele>
        <time>2019-03-30T07:07:53Z</time>
      </trkpt>
      <trkpt lat="45.28231" lon="6.2076">
        <ele>1274</ele>
        <time>2019-03-30T07:07:58Z</time>
      </trkpt>
      <trkpt lat="45.28231" lon="6.20758">
        <ele>1272.8</ele>
        <time>2019-03-30T07:08:03Z</time>
      </trkpt>
      <trkpt lat="45.2823" lon="6.20756">
        <ele>1274.4</ele>
        <time>2019-03-30T07:08:08Z</time>
      </trkpt>
      <trkpt lat="45.28229" lon="6.20755">
        <ele>1273.2</ele>
        <time>2019-03-30T07:08:13Z</time>
      </trkpt>
      <trkpt lat="45.2823" lon="6.20753">
        <ele>1272.2</ele>
        <time>2019-03-30T07:08:18Z</time>
      </trkpt>
      <trkpt lat="45.28231" lon="6.20748">
        <ele>1271.6</ele>
        <time>2019-03-30T07:08:23Z</time>
      </trkpt>
      <trkpt lat="45.28232" lon="6.2074">
        <ele>1272.8</ele>
        <time>2019-03-30T07:08:28Z</time>
      </trkpt>
      <trkpt lat="45.28231" lon="6.20735">
        <ele>1272.4</ele>
        <time>2019-03-30T07:08:33Z</time>
      </trkpt>
      <trkpt lat="45.28231" lon="6.20731">
        <ele>1272.6</ele>
        <time>2019-03-30T07:08:38Z</time>
      </trkpt>
      <trkpt lat="45.2823" lon="6.20727">
        <ele>1275.8</ele>
        <time>2019-03-30T07:08:43Z</time>
      </trkpt>
      <trkpt lat="45.28231" lon="6.20722">
        <ele>1269.4</ele>
        <time>2019-03-30T07:08:48Z</time>
      </trkpt>
      <trkpt lat="45.28231" lon="6.20716">
        <ele>1271</ele>
        <time>2019-03-30T07:08:53Z</time>
      </trkpt>
      <trkpt lat="45.28231" lon="6.2071">
        <ele>1273</ele>
        <time>2019-03-30T07:08:58Z</time>
      </trkpt>
      <trkpt lat="45.28232" lon="6.20706">
        <ele>1273.6</ele>
        <time>2019-03-30T07:09:03Z</time>
      </trkpt>
      <trkpt lat="45.28232" lon="6.20702">
        <ele>1270.6</ele>
        <time>2019-03-30T07:09:08Z</time>
      </trkpt>
      <trkpt lat="45.28231" lon="6.20699">
        <ele>1271.8</ele>
        <time>2019-03-30T07:09:13Z</time>
      </trkpt>
      <trkpt lat="45.2823" lon="6.20694">
        <ele>1270.6</ele>
        <time>2019-03-30T07:09:18Z</time>
      </trkpt>
      <trkpt lat="45.28229" lon="6.20689">
        <ele>1272.4</ele>
        <time>2019-03-30T07:09:23Z</time>
      </trkpt>
      <trkpt lat="45.28229" lon="6.20685">
        <ele>1273.8</ele>
        <time>2019-03-30T07:09:28Z</time>
      </trkpt>
      <trkpt lat="45.28226" lon="6.20683">
        <ele>1278.8</ele>
        <time>2019-03-30T07:09:33Z</time>
      </trkpt>
      <trkpt lat="45.28226" lon="6.2068">
        <ele>1278.2</ele>
        <time>2019-03-30T07:09:38Z</time>
      </trkpt>
      <trkpt lat="45.28224" lon="6.20676">
        <ele>1283.2</ele>
        <time>2019-03-30T07:09:43Z</time>
      </trkpt>
      <trkpt lat="45.28224" lon="6.2067">
        <ele>1280.6</ele>
        <time>2019-03-30T07:09:48Z</time>
      </trkpt>
      <trkpt lat="45.28225" lon="6.20663">
        <ele>1281.4</ele>
        <time>2019-03-30T07:09:53Z</time>
      </trkpt>
      <trkpt lat="45.28223" lon="6.20654">
        <ele>1282.4</ele>
        <time>2019-03-30T07:09:58Z</time>
      </trkpt>
      <trkpt lat="45.28221" lon="6.2065">
        <ele>1286.2</ele>
        <time>2019-03-30T07:10:03Z</time>
      </trkpt>
      <trkpt lat="45.2822" lon="6.20647">
        <ele>1286.4</ele>
        <time>2019-03-30T07:10:08Z</time>
      </trkpt>
      <trkpt lat="45.2822" lon="6.20644">
        <ele>1285.8</ele>
        <time>2019-03-30T07:10:13Z</time>
      </trkpt>
      <trkpt lat="45.28222" lon="6.20639">
        <ele>1281.4</ele>
        <time>2019-03-30T07:10:18Z</time>
      </trkpt>
      <trkpt lat="45.28222" lon="6.20635">
        <ele>1282.8</ele>
        <time>2019-03-30T07:10:23Z</time>
      </trkpt>
      <trkpt lat="45.28226" lon="6.2063">
        <ele>1285.6</ele>
        <time>2019-03-30T07:10:28Z</time>
      </trkpt>
      <trkpt lat="45.28228" lon="6.20625">
        <ele>1288.4</ele>
        <time>2019-03-30T07:10:33Z</time>
      </trkpt>
      <trkpt lat="45.28232" lon="6.20621">
        <ele>1286.8</ele>
        <time>2019-03-30T07:10:38Z</time>
      </trkpt>
      <trkpt lat="45.28234" lon="6.20617">
        <ele>1286</ele>
        <time>2019-03-30T07:10:43Z</time>
      </trkpt>
      <trkpt lat="45.28233" lon="6.20615">
        <ele>1288.2</ele>
        <time>2019-03-30T07:10:48Z</time>
      </trkpt>
      <trkpt lat="45.2823" lon="6.20612">
        <ele>1292.6</ele>
        <time>2019-03-30T07:10:53Z</time>
      </trkpt>
      <trkpt lat="45.28228" lon="6.20608">
        <ele>1296</ele>
        <time>2019-03-30T07:10:58Z</time>
      </trkpt>
      <trkpt lat="45.28226" lon="6.20604">
        <ele>1299.4</ele>
        <time>2019-03-30T07:11:03Z</time>
      </trkpt>
      <trkpt lat="45.28225" lon="6.20602">
        <ele>1303.2</ele>
        <time>2019-03-30T07:11:08Z</time>
      </trkpt>
      <trkpt lat="45.28224" lon="6.20602">
        <ele>1298.8</ele>
        <time>2019-03-30T07:11:43Z</time>
      </trkpt>
      <trkpt lat="45.28224" lon="6.20601">
        <ele>1299.2</ele>
        <time>2019-03-30T07:11:58Z</time>
      </trkpt>
      <trkpt lat="45.28223" lon="6.20598">
        <ele>1301.6</ele>
        <time>2019-03-30T07:12:03Z</time>
      </trkpt>
      <trkpt lat="45.28222" lon="6.20596">
        <ele>1299.8</ele>
        <time>2019-03-30T07:12:08Z</time>
      </trkpt>
      <trkpt lat="45.28222" lon="6.20596">
        <ele>1300.8</ele>
        <time>2019-03-30T07:12:18Z</time>
      </trkpt>
      <trkpt lat="45.28222" lon="6.20594">
        <ele>1302.6</ele>
        <time>2019-03-30T07:12:23Z</time>
      </trkpt>
      <trkpt lat="45.28222" lon="6.2059">
        <ele>1301.8</ele>
        <time>2019-03-30T07:12:28Z</time>
      </trkpt>
      <trkpt lat="45.2822" lon="6.20586">
        <ele>1301.8</ele>
        <time>2019-03-30T07:12:33Z</time>
      </trkpt>
      <trkpt lat="45.28218" lon="6.20582">
        <ele>1303.4</ele>
        <time>2019-03-30T07:12:38Z</time>
      </trkpt>
      <trkpt lat="45.28221" lon="6.20577">
        <ele>1307.2</ele>
        <time>2019-03-30T07:12:43Z</time>
      </trkpt>
      <trkpt lat="45.28223" lon="6.20573">
        <ele>1304.8</ele>
        <time>2019-03-30T07:12:48Z</time>
      </trkpt>
      <trkpt lat="45.28224" lon="6.20567">
        <ele>1306.6</ele>
        <time>2019-03-30T07:12:53Z</time>
      </trkpt>
      <trkpt lat="45.28223" lon="6.20563">
        <ele>1306.8</ele>
        <time>2019-03-30T07:12:58Z</time>
      </trkpt>
      <trkpt lat="45.28223" lon="6.20558">
        <ele>1308.8</ele>
        <time>2019-03-30T07:13:03Z</time>
      </trkpt>
      <trkpt lat="45.28221" lon="6.20552">
        <ele>1308.2</ele>
        <time>2019-03-30T07:13:08Z</time>
      </trkpt>
      <trkpt lat="45.2822" lon="6.20548">
        <ele>1311</ele>
        <time>2019-03-30T07:13:13Z</time>
      </trkpt>
      <trkpt lat="45.2822" lon="6.20541">
        <ele>1309.6</ele>
        <time>2019-03-30T07:13:18Z</time>
      </trkpt>
      <trkpt lat="45.28219" lon="6.20535">
        <ele>1312.2</ele>
        <time>2019-03-30T07:13:23Z</time>
      </trkpt>
      <trkpt lat="45.28219" lon="6.20529">
        <ele>1311</ele>
        <time>2019-03-30T07:13:28Z</time>
      </trkpt>
      <trkpt lat="45.2822" lon="6.20523">
        <ele>1310.2</ele>
        <time>2019-03-30T07:13:33Z</time>
      </trkpt>
      <trkpt lat="45.28223" lon="6.20519">
        <ele>1309.6</ele>
        <time>2019-03-30T07:13:38Z</time>
      </trkpt>
      <trkpt lat="45.28224" lon="6.20516">
        <ele>1310.6</ele>
        <time>2019-03-30T07:13:43Z</time>
      </trkpt>
      <trkpt lat="45.28224" lon="6.20511">
        <ele>1312.6</ele>
        <time>2019-03-30T07:13:48Z</time>
      </trkpt>
      <trkpt lat="45.28224" lon="6.20507">
        <ele>1309.8</ele>
        <time>2019-03-30T07:13:53Z</time>
      </trkpt>
      <trkpt lat="45.28223" lon="6.20503">
        <ele>1311.2</ele>
        <time>2019-03-30T07:13:58Z</time>
      </trkpt>
      <trkpt lat="45.28222" lon="6.205">
        <ele>1310.4</ele>
        <time>2019-03-30T07:14:03Z</time>
      </trkpt>
      <trkpt lat="45.28219" lon="6.20497">
        <ele>1312.2</ele>
        <time>2019-03-30T07:14:08Z</time>
      </trkpt>
      <trkpt lat="45.28219" lon="6.20494">
        <ele>1310.8</ele>
        <time>2019-03-30T07:14:13Z</time>
      </trkpt>
      <trkpt lat="45.28218" lon="6.20491">
        <ele>1314.8</ele>
        <time>2019-03-30T07:14:18Z</time>
      </trkpt>
      <trkpt lat="45.28216" lon="6.20489">
        <ele>1318.6</ele>
        <time>2019-03-30T07:14:23Z</time>
      </trkpt>
      <trkpt lat="45.28215" lon="6.20487">
        <ele>1319.8</ele>
        <time>2019-03-30T07:15:28Z</time>
      </trkpt>
      <trkpt lat="45.28215" lon="6.20487">
        <ele>1319.8</ele>
        <time>2019-03-30T07:15:33Z</time>
      </trkpt>
      <trkpt lat="45.28215" lon="6.20486">
        <ele>1317.4</ele>
        <time>2019-03-30T07:17:28Z</time>
      </trkpt>
      <trkpt lat="45.28215" lon="6.20484">
        <ele>1318.6</ele>
        <time>2019-03-30T07:17:38Z</time>
      </trkpt>
      <trkpt lat="45.28216" lon="6.20479">
        <ele>1318.2</ele>
        <time>2019-03-30T07:17:43Z</time>
      </trkpt>
      <trkpt lat="45.28217" lon="6.20476">
        <ele>1316.4</ele>
        <time>2019-03-30T07:17:48Z</time>
      </trkpt>
      <trkpt lat="45.28217" lon="6.20472">
        <ele>1319</ele>
        <time>2019-03-30T07:17:53Z</time>
      </trkpt>
      <trkpt lat="45.28215" lon="6.20467">
        <ele>1318.4</ele>
        <time>2019-03-30T07:17:58Z</time>
      </trkpt>
      <trkpt lat="45.28215" lon="6.20464">
        <ele>1321.4</ele>
        <time>2019-03-30T07:18:03Z</time>
      </trkpt>
      <trkpt lat="45.28216" lon="6.20458">
        <ele>1320.8</ele>
        <time>2019-03-30T07:18:13Z</time>
      </trkpt>
      <trkpt lat="45.28217" lon="6.20451">
        <ele>1322</ele>
        <time>2019-03-30T07:18:18Z</time>
      </trkpt>
      <trkpt lat="45.28216" lon="6.20447">
        <ele>1321.8</ele>
        <time>2019-03-30T07:18:23Z</time>
      </trkpt>
      <trkpt lat="45.28218" lon="6.20442">
        <ele>1319.4</ele>
        <time>2019-03-30T07:18:28Z</time>
      </trkpt>
      <trkpt lat="45.28216" lon="6.20435">
        <ele>1322.6</ele>
        <time>2019-03-30T07:18:38Z</time>
      </trkpt>
      <trkpt lat="45.28215" lon="6.20433">
        <ele>1324.6</ele>
        <time>2019-03-30T07:18:43Z</time>
      </trkpt>
      <trkpt lat="45.28216" lon="6.2043">
        <ele>1325.8</ele>
        <time>2019-03-30T07:18:48Z</time>
      </trkpt>
      <trkpt lat="45.28215" lon="6.20426">
        <ele>1325</ele>
        <time>2019-03-30T07:18:53Z</time>
      </trkpt>
      <trkpt lat="45.28212" lon="6.20424">
        <ele>1329</ele>
        <time>2019-03-30T07:18:58Z</time>
      </trkpt>
      <trkpt lat="45.28209" lon="6.2042">
        <ele>1331</ele>
        <time>2019-03-30T07:19:04Z</time>
      </trkpt>
      <trkpt lat="45.28209" lon="6.20417">
        <ele>1327.8</ele>
        <time>2019-03-30T07:19:09Z</time>
      </trkpt>
      <trkpt lat="45.28209" lon="6.20414">
        <ele>1329.4</ele>
        <time>2019-03-30T07:19:14Z</time>
      </trkpt>
      <trkpt lat="45.28209" lon="6.2041">
        <ele>1331.2</ele>
        <time>2019-03-30T07:19:19Z</time>
      </trkpt>
      <trkpt lat="45.28207" lon="6.20407">
        <ele>1328.2</ele>
        <time>2019-03-30T07:19:24Z</time>
      </trkpt>
      <trkpt lat="45.28204" lon="6.20406">
        <ele>1327.6</ele>
        <time>2019-03-30T07:19:29Z</time>
      </trkpt>
      <trkpt lat="45.28201" lon="6.20403">
        <ele>1327.6</ele>
        <time>2019-03-30T07:19:34Z</time>
      </trkpt>
      <trkpt lat="45.282" lon="6.20401">
        <ele>1327.8</ele>
        <time>2019-03-30T07:19:39Z</time>
      </trkpt>
      <trkpt lat="45.28199" lon="6.20399">
        <ele>1328.2</ele>
        <time>2019-03-30T07:19:44Z</time>
      </trkpt>
      <trkpt lat="45.28196" lon="6.20399">
        <ele>1329.4</ele>
        <time>2019-03-30T07:19:49Z</time>
      </trkpt>
      <trkpt lat="45.28189" lon="6.20391">
        <ele>1332.2</ele>
        <time>2019-03-30T07:19:59Z</time>
      </trkpt>
      <trkpt lat="45.28187" lon="6.2039">
        <ele>1335.2</ele>
        <time>2019-03-30T07:20:04Z</time>
      </trkpt>
      <trkpt lat="45.28184" lon="6.20388">
        <ele>1336</ele>
        <time>2019-03-30T07:20:09Z</time>
      </trkpt>
      <trkpt lat="45.28183" lon="6.20386">
        <ele>1338.8</ele>
        <time>2019-03-30T07:20:14Z</time>
      </trkpt>
      <trkpt lat="45.28181" lon="6.20384">
        <ele>1339</ele>
        <time>2019-03-30T07:20:19Z</time>
      </trkpt>
      <trkpt lat="45.28181" lon="6.20378">
        <ele>1337.2</ele>
        <time>2019-03-30T07:20:24Z</time>
      </trkpt>
      <trkpt lat="45.2818" lon="6.20374">
        <ele>1339.6</ele>
        <time>2019-03-30T07:20:29Z</time>
      </trkpt>
      <trkpt lat="45.2818" lon="6.20369">
        <ele>1340.2</ele>
        <time>2019-03-30T07:20:34Z</time>
      </trkpt>
      <trkpt lat="45.28182" lon="6.20363">
        <ele>1339.6</ele>
        <time>2019-03-30T07:20:39Z</time>
      </trkpt>
      <trkpt lat="45.28183" lon="6.20359">
        <ele>1337.8</ele>
        <time>2019-03-30T07:20:44Z</time>
      </trkpt>
      <trkpt lat="45.28182" lon="6.20356">
        <ele>1337.6</ele>
        <time>2019-03-30T07:20:49Z</time>
      </trkpt>
      <trkpt lat="45.28177" lon="6.20353">
        <ele>1340</ele>
        <time>2019-03-30T07:20:54Z</time>
      </trkpt>
      <trkpt lat="45.28174" lon="6.20349">
        <ele>1341</ele>
        <time>2019-03-30T07:20:59Z</time>
      </trkpt>
      <trkpt lat="45.28171" lon="6.20345">
        <ele>1340.6</ele>
        <time>2019-03-30T07:21:04Z</time>
      </trkpt>
      <trkpt lat="45.28171" lon="6.20339">
        <ele>1340.2</ele>
        <time>2019-03-30T07:21:09Z</time>
      </trkpt>
      <trkpt lat="45.28171" lon="6.20332">
        <ele>1342.2</ele>
        <time>2019-03-30T07:21:14Z</time>
      </trkpt>
      <trkpt lat="45.28166" lon="6.20327">
        <ele>1341.6</ele>
        <time>2019-03-30T07:21:19Z</time>
      </trkpt>
      <trkpt lat="45.28165" lon="6.20322">
        <ele>1343</ele>
        <time>2019-03-30T07:21:24Z</time>
      </trkpt>
      <trkpt lat="45.28164" lon="6.20317">
        <ele>1344.6</ele>
        <time>2019-03-30T07:21:29Z</time>
      </trkpt>
      <trkpt lat="45.28163" lon="6.20314">
        <ele>1346.8</ele>
        <time>2019-03-30T07:21:34Z</time>
      </trkpt>
      <trkpt lat="45.28161" lon="6.2031">
        <ele>1344.6</ele>
        <time>2019-03-30T07:21:39Z</time>
      </trkpt>
      <trkpt lat="45.2816" lon="6.20306">
        <ele>1347.6</ele>
        <time>2019-03-30T07:21:44Z</time>
      </trkpt>
      <trkpt lat="45.28158" lon="6.20301">
        <ele>1346.6</ele>
        <time>2019-03-30T07:21:49Z</time>
      </trkpt>
      <trkpt lat="45.28157" lon="6.20296">
        <ele>1349</ele>
        <time>2019-03-30T07:21:54Z</time>
      </trkpt>
      <trkpt lat="45.28156" lon="6.20291">
        <ele>1348.6</ele>
        <time>2019-03-30T07:21:59Z</time>
      </trkpt>
      <trkpt lat="45.28155" lon="6.20286">
        <ele>1349.6</ele>
        <time>2019-03-30T07:22:04Z</time>
      </trkpt>
      <trkpt lat="45.28152" lon="6.20283">
        <ele>1349</ele>
        <time>2019-03-30T07:22:09Z</time>
      </trkpt>
      <trkpt lat="45.2815" lon="6.2028">
        <ele>1352.2</ele>
        <time>2019-03-30T07:22:14Z</time>
      </trkpt>
      <trkpt lat="45.28149" lon="6.20275">
        <ele>1351.8</ele>
        <time>2019-03-30T07:22:19Z</time>
      </trkpt>
      <trkpt lat="45.28149" lon="6.20272">
        <ele>1350.4</ele>
        <time>2019-03-30T07:22:24Z</time>
      </trkpt>
      <trkpt lat="45.28149" lon="6.20272">
        <ele>1350.6</ele>
        <time>2019-03-30T07:22:34Z</time>
      </trkpt>
      <trkpt lat="45.28147" lon="6.2027">
        <ele>1351.4</ele>
        <time>2019-03-30T07:23:59Z</time>
      </trkpt>
      <trkpt lat="45.28147" lon="6.20269">
        <ele>1351.2</ele>
        <time>2019-03-30T07:24:04Z</time>
      </trkpt>
      <trkpt lat="45.28143" lon="6.20262">
        <ele>1353.4</ele>
        <time>2019-03-30T07:24:14Z</time>
      </trkpt>
      <trkpt lat="45.28139" lon="6.2026">
        <ele>1350.8</ele>
        <time>2019-03-30T07:24:19Z</time>
      </trkpt>
      <trkpt lat="45.28135" lon="6.20256">
        <ele>1349.4</ele>
        <time>2019-03-30T07:24:24Z</time>
      </trkpt>
      <trkpt lat="45.28133" lon="6.20252">
        <ele>1346.2</ele>
        <time>2019-03-30T07:24:29Z</time>
      </trkpt>
      <trkpt lat="45.2813" lon="6.20248">
        <ele>1346.4</ele>
        <time>2019-03-30T07:24:34Z</time>
      </trkpt>
      <trkpt lat="45.28126" lon="6.20245">
        <ele>1348.8</ele>
        <time>2019-03-30T07:24:39Z</time>
      </trkpt>
      <trkpt lat="45.28123" lon="6.20243">
        <ele>1348.8</ele>
        <time>2019-03-30T07:24:44Z</time>
      </trkpt>
      <trkpt lat="45.2812" lon="6.20241">
        <ele>1348</ele>
        <time>2019-03-30T07:24:49Z</time>
      </trkpt>
      <trkpt lat="45.28114" lon="6.20238">
        <ele>1351.4</ele>
        <time>2019-03-30T07:24:54Z</time>
      </trkpt>
      <trkpt lat="45.2811" lon="6.20234">
        <ele>1349.2</ele>
        <time>2019-03-30T07:24:59Z</time>
      </trkpt>
      <trkpt lat="45.28108" lon="6.20229">
        <ele>1351.8</ele>
        <time>2019-03-30T07:25:04Z</time>
      </trkpt>
      <trkpt lat="45.28108" lon="6.20226">
        <ele>1350.2</ele>
        <time>2019-03-30T07:25:09Z</time>
      </trkpt>
      <trkpt lat="45.2811" lon="6.20223">
        <ele>1353.2</ele>
        <time>2019-03-30T07:25:14Z</time>
      </trkpt>
      <trkpt lat="45.28112" lon="6.2022">
        <ele>1352.6</ele>
        <time>2019-03-30T07:25:19Z</time>
      </trkpt>
      <trkpt lat="45.28109" lon="6.20214">
        <ele>1356</ele>
        <time>2019-03-30T07:25:34Z</time>
      </trkpt>
      <trkpt lat="45.28104" lon="6.20211">
        <ele>1355.8</ele>
        <time>2019-03-30T07:25:39Z</time>
      </trkpt>
      <trkpt lat="45.281" lon="6.20208">
        <ele>1354.6</ele>
        <time>2019-03-30T07:25:44Z</time>
      </trkpt>
      <trkpt lat="45.28096" lon="6.20203">
        <ele>1355.4</ele>
        <time>2019-03-30T07:25:49Z</time>
      </trkpt>
      <trkpt lat="45.28094" lon="6.202">
        <ele>1355.8</ele>
        <time>2019-03-30T07:25:54Z</time>
      </trkpt>
      <trkpt lat="45.28092" lon="6.20195">
        <ele>1349.8</ele>
        <time>2019-03-30T07:25:59Z</time>
      </trkpt>
      <trkpt lat="45.28092" lon="6.20191">
        <ele>1349.4</ele>
        <time>2019-03-30T07:26:04Z</time>
      </trkpt>
      <trkpt lat="45.28092" lon="6.20187">
        <ele>1348.4</ele>
        <time>2019-03-30T07:26:09Z</time>
      </trkpt>
      <trkpt lat="45.28095" lon="6.20181">
        <ele>1351.6</ele>
        <time>2019-03-30T07:26:14Z</time>
      </trkpt>
      <trkpt lat="45.28097" lon="6.20176">
        <ele>1352</ele>
        <time>2019-03-30T07:26:19Z</time>
      </trkpt>
      <trkpt lat="45.28097" lon="6.2017">
        <ele>1356.2</ele>
        <time>2019-03-30T07:26:24Z</time>
      </trkpt>
      <trkpt lat="45.28097" lon="6.20165">
        <ele>1354.6</ele>
        <time>2019-03-30T07:26:29Z</time>
      </trkpt>
      <trkpt lat="45.28098" lon="6.20159">
        <ele>1356.8</ele>
        <time>2019-03-30T07:26:34Z</time>
      </trkpt>
      <trkpt lat="45.28096" lon="6.20153">
        <ele>1355.4</ele>
        <time>2019-03-30T07:26:39Z</time>
      </trkpt>
      <trkpt lat="45.28096" lon="6.20147">
        <ele>1358.2</ele>
        <time>2019-03-30T07:26:44Z</time>
      </trkpt>
      <trkpt lat="45.28093" lon="6.20142">
        <ele>1355.8</ele>
        <time>2019-03-30T07:26:49Z</time>
      </trkpt>
      <trkpt lat="45.28093" lon="6.20137">
        <ele>1358.2</ele>
        <time>2019-03-30T07:26:54Z</time>
      </trkpt>
      <trkpt lat="45.2809" lon="6.20132">
        <ele>1356</ele>
        <time>2019-03-30T07:26:59Z</time>
      </trkpt>
      <trkpt lat="45.28082" lon="6.20126">
        <ele>1355.6</ele>
        <time>2019-03-30T07:27:04Z</time>
      </trkpt>
      <trkpt lat="45.28077" lon="6.20123">
        <ele>1353</ele>
        <time>2019-03-30T07:27:09Z</time>
      </trkpt>
      <trkpt lat="45.28072" lon="6.20121">
        <ele>1355.6</ele>
        <time>2019-03-30T07:27:14Z</time>
      </trkpt>
      <trkpt lat="45.28069" lon="6.20118">
        <ele>1354</ele>
        <time>2019-03-30T07:27:19Z</time>
      </trkpt>
      <trkpt lat="45.28066" lon="6.20116">
        <ele>1355.8</ele>
        <time>2019-03-30T07:27:24Z</time>
      </trkpt>
      <trkpt lat="45.28064" lon="6.20113">
        <ele>1356</ele>
        <time>2019-03-30T07:27:29Z</time>
      </trkpt>
      <trkpt lat="45.2806" lon="6.2011">
        <ele>1351</ele>
        <time>2019-03-30T07:27:34Z</time>
      </trkpt>
      <trkpt lat="45.28058" lon="6.20107">
        <ele>1356.4</ele>
        <time>2019-03-30T07:27:39Z</time>
      </trkpt>
      <trkpt lat="45.28057" lon="6.20101">
        <ele>1354.4</ele>
        <time>2019-03-30T07:27:44Z</time>
      </trkpt>
      <trkpt lat="45.28056" lon="6.20094">
        <ele>1352.8</ele>
        <time>2019-03-30T07:27:49Z</time>
      </trkpt>
      <trkpt lat="45.28054" lon="6.20085">
        <ele>1354</ele>
        <time>2019-03-30T07:27:54Z</time>
      </trkpt>
      <trkpt lat="45.28052" lon="6.20079">
        <ele>1351.4</ele>
        <time>2019-03-30T07:27:59Z</time>
      </trkpt>
      <trkpt lat="45.28052" lon="6.20075">
        <ele>1353.4</ele>
        <time>2019-03-30T07:28:04Z</time>
      </trkpt>
      <trkpt lat="45.28051" lon="6.2007">
        <ele>1354.8</ele>
        <time>2019-03-30T07:28:09Z</time>
      </trkpt>
      <trkpt lat="45.28049" lon="6.20066">
        <ele>1352.6</ele>
        <time>2019-03-30T07:28:14Z</time>
      </trkpt>
      <trkpt lat="45.28045" lon="6.20062">
        <ele>1353</ele>
        <time>2019-03-30T07:28:19Z</time>
      </trkpt>
      <trkpt lat="45.28044" lon="6.20057">
        <ele>1353.2</ele>
        <time>2019-03-30T07:28:24Z</time>
      </trkpt>
      <trkpt lat="45.28042" lon="6.20053">
        <ele>1351.4</ele>
        <time>2019-03-30T07:28:29Z</time>
      </trkpt>
      <trkpt lat="45.2804" lon="6.20049">
        <ele>1351.8</ele>
        <time>2019-03-30T07:28:34Z</time>
      </trkpt>
      <trkpt lat="45.28037" lon="6.2004">
        <ele>1352.6</ele>
        <time>2019-03-30T07:28:44Z</time>
      </trkpt>
      <trkpt lat="45.28036" lon="6.20034">
        <ele>1351.4</ele>
        <time>2019-03-30T07:28:49Z</time>
      </trkpt>
      <trkpt lat="45.28032" lon="6.20029">
        <ele>1351.6</ele>
        <time>2019-03-30T07:28:54Z</time>
      </trkpt>
      <trkpt lat="45.28029" lon="6.20025">
        <ele>1353.6</ele>
        <time>2019-03-30T07:28:59Z</time>
      </trkpt>
      <trkpt lat="45.28024" lon="6.20021">
        <ele>1355.8</ele>
        <time>2019-03-30T07:29:04Z</time>
      </trkpt>
      <trkpt lat="45.28019" lon="6.20017">
        <ele>1356.2</ele>
        <time>2019-03-30T07:29:09Z</time>
      </trkpt>
      <trkpt lat="45.28017" lon="6.20014">
        <ele>1355.6</ele>
        <time>2019-03-30T07:29:14Z</time>
      </trkpt>
      <trkpt lat="45.28017" lon="6.20009">
        <ele>1353.4</ele>
        <time>2019-03-30T07:29:19Z</time>
      </trkpt>
      <trkpt lat="45.28016" lon="6.20004">
        <ele>1357.4</ele>
        <time>2019-03-30T07:29:24Z</time>
      </trkpt>
      <trkpt lat="45.28013" lon="6.2">
        <ele>1357</ele>
        <time>2019-03-30T07:29:29Z</time>
      </trkpt>
      <trkpt lat="45.28011" lon="6.19997">
        <ele>1354.6</ele>
        <time>2019-03-30T07:29:34Z</time>
      </trkpt>
      <trkpt lat="45.2801" lon="6.19993">
        <ele>1357.8</ele>
        <time>2019-03-30T07:29:39Z</time>
      </trkpt>
      <trkpt lat="45.28005" lon="6.19991">
        <ele>1357.8</ele>
        <time>2019-03-30T07:29:44Z</time>
      </trkpt>
      <trkpt lat="45.28001" lon="6.19987">
        <ele>1358.8</ele>
        <time>2019-03-30T07:29:49Z</time>
      </trkpt>
      <trkpt lat="45.27997" lon="6.19981">
        <ele>1357</ele>
        <time>2019-03-30T07:29:54Z</time>
      </trkpt>
      <trkpt lat="45.27995" lon="6.19975">
        <ele>1359.2</ele>
        <time>2019-03-30T07:29:59Z</time>
      </trkpt>
      <trkpt lat="45.27994" lon="6.1997">
        <ele>1359</ele>
        <time>2019-03-30T07:30:04Z</time>
      </trkpt>
      <trkpt lat="45.27993" lon="6.19964">
        <ele>1360.6</ele>
        <time>2019-03-30T07:30:09Z</time>
      </trkpt>
      <trkpt lat="45.27994" lon="6.19959">
        <ele>1362.8</ele>
        <time>2019-03-30T07:30:14Z</time>
      </trkpt>
      <trkpt lat="45.27992" lon="6.19954">
        <ele>1365</ele>
        <time>2019-03-30T07:30:19Z</time>
      </trkpt>
      <trkpt lat="45.27988" lon="6.1995">
        <ele>1364</ele>
        <time>2019-03-30T07:30:24Z</time>
      </trkpt>
      <trkpt lat="45.27986" lon="6.19946">
        <ele>1362.4</ele>
        <time>2019-03-30T07:30:29Z</time>
      </trkpt>
      <trkpt lat="45.27985" lon="6.19941">
        <ele>1364.8</ele>
        <time>2019-03-30T07:30:34Z</time>
      </trkpt>
      <trkpt lat="45.27983" lon="6.19938">
        <ele>1366.2</ele>
        <time>2019-03-30T07:30:39Z</time>
      </trkpt>
      <trkpt lat="45.27983" lon="6.19934">
        <ele>1365.2</ele>
        <time>2019-03-30T07:30:44Z</time>
      </trkpt>
      <trkpt lat="45.27985" lon="6.19926">
        <ele>1368.2</ele>
        <time>2019-03-30T07:30:49Z</time>
      </trkpt>
      <trkpt lat="45.27986" lon="6.1992">
        <ele>1368.8</ele>
        <time>2019-03-30T07:30:54Z</time>
      </trkpt>
      <trkpt lat="45.27984" lon="6.19913">
        <ele>1365.6</ele>
        <time>2019-03-30T07:30:59Z</time>
      </trkpt>
      <trkpt lat="45.27981" lon="6.19907">
        <ele>1367.8</ele>
        <time>2019-03-30T07:31:04Z</time>
      </trkpt>
      <trkpt lat="45.27977" lon="6.19897">
        <ele>1365.8</ele>
        <time>2019-03-30T07:32:24Z</time>
      </trkpt>
      <trkpt lat="45.27977" lon="6.19891">
        <ele>1364.8</ele>
        <time>2019-03-30T07:32:29Z</time>
      </trkpt>
      <trkpt lat="45.27977" lon="6.19887">
        <ele>1366.8</ele>
        <time>2019-03-30T07:32:34Z</time>
      </trkpt>
      <trkpt lat="45.27977" lon="6.1988">
        <ele>1366.2</ele>
        <time>2019-03-30T07:32:39Z</time>
      </trkpt>
      <trkpt lat="45.27974" lon="6.19875">
        <ele>1367</ele>
        <time>2019-03-30T07:32:44Z</time>
      </trkpt>
      <trkpt lat="45.2797" lon="6.1987">
        <ele>1367.8</ele>
        <time>2019-03-30T07:32:49Z</time>
      </trkpt>
      <trkpt lat="45.2797" lon="6.19865">
        <ele>1369.2</ele>
        <time>2019-03-30T07:32:54Z</time>
      </trkpt>
      <trkpt lat="45.2797" lon="6.1986">
        <ele>1367.6</ele>
        <time>2019-03-30T07:32:59Z</time>
      </trkpt>
      <trkpt lat="45.27969" lon="6.19854">
        <ele>1369</ele>
        <time>2019-03-30T07:33:04Z</time>
      </trkpt>
      <trkpt lat="45.27968" lon="6.1985">
        <ele>1371.4</ele>
        <time>2019-03-30T07:33:09Z</time>
      </trkpt>
      <trkpt lat="45.27967" lon="6.19845">
        <ele>1371.6</ele>
        <time>2019-03-30T07:33:14Z</time>
      </trkpt>
      <trkpt lat="45.27964" lon="6.19839">
        <ele>1372</ele>
        <time>2019-03-30T07:33:19Z</time>
      </trkpt>
      <trkpt lat="45.27965" lon="6.19831">
        <ele>1371</ele>
        <time>2019-03-30T07:33:24Z</time>
      </trkpt>
      <trkpt lat="45.27966" lon="6.19824">
        <ele>1372.6</ele>
        <time>2019-03-30T07:33:29Z</time>
      </trkpt>
      <trkpt lat="45.27964" lon="6.19818">
        <ele>1370.6</ele>
        <time>2019-03-30T07:33:34Z</time>
      </trkpt>
      <trkpt lat="45.27962" lon="6.19811">
        <ele>1369.8</ele>
        <time>2019-03-30T07:33:39Z</time>
      </trkpt>
      <trkpt lat="45.27961" lon="6.19811">
        <ele>1369.8</ele>
        <time>2019-03-30T07:34:19Z</time>
      </trkpt>
      <trkpt lat="45.27958" lon="6.19809">
        <ele>1368.4</ele>
        <time>2019-03-30T07:34:24Z</time>
      </trkpt>
      <trkpt lat="45.27955" lon="6.19808">
        <ele>1368.2</ele>
        <time>2019-03-30T07:34:29Z</time>
      </trkpt>
      <trkpt lat="45.27951" lon="6.19805">
        <ele>1370.2</ele>
        <time>2019-03-30T07:34:34Z</time>
      </trkpt>
      <trkpt lat="45.2795" lon="6.19802">
        <ele>1371.4</ele>
        <time>2019-03-30T07:34:39Z</time>
      </trkpt>
      <trkpt lat="45.27948" lon="6.19797">
        <ele>1370.4</ele>
        <time>2019-03-30T07:34:44Z</time>
      </trkpt>
      <trkpt lat="45.27947" lon="6.19792">
        <ele>1375.4</ele>
        <time>2019-03-30T07:34:49Z</time>
      </trkpt>
      <trkpt lat="45.27945" lon="6.19788">
        <ele>1374.4</ele>
        <time>2019-03-30T07:34:54Z</time>
      </trkpt>
      <trkpt lat="45.27944" lon="6.19785">
        <ele>1376.8</ele>
        <time>2019-03-30T07:34:59Z</time>
      </trkpt>
      <trkpt lat="45.27943" lon="6.19777">
        <ele>1377</ele>
        <time>2019-03-30T07:35:04Z</time>
      </trkpt>
      <trkpt lat="45.27943" lon="6.1977">
        <ele>1377.4</ele>
        <time>2019-03-30T07:35:09Z</time>
      </trkpt>
      <trkpt lat="45.2794" lon="6.19766">
        <ele>1378.8</ele>
        <time>2019-03-30T07:35:14Z</time>
      </trkpt>
      <trkpt lat="45.27938" lon="6.19761">
        <ele>1377.4</ele>
        <time>2019-03-30T07:35:19Z</time>
      </trkpt>
      <trkpt lat="45.27935" lon="6.19754">
        <ele>1378.6</ele>
        <time>2019-03-30T07:35:24Z</time>
      </trkpt>
      <trkpt lat="45.27934" lon="6.19747">
        <ele>1380.4</ele>
        <time>2019-03-30T07:35:29Z</time>
      </trkpt>
      <trkpt lat="45.27934" lon="6.19741">
        <ele>1380.6</ele>
        <time>2019-03-30T07:35:34Z</time>
      </trkpt>
      <trkpt lat="45.27933" lon="6.19736">
        <ele>1377.8</ele>
        <time>2019-03-30T07:35:39Z</time>
      </trkpt>
      <trkpt lat="45.27928" lon="6.1973">
        <ele>1380.4</ele>
        <time>2019-03-30T07:35:45Z</time>
      </trkpt>
      <trkpt lat="45.27925" lon="6.19729">
        <ele>1380.8</ele>
        <time>2019-03-30T07:35:50Z</time>
      </trkpt>
      <trkpt lat="45.27922" lon="6.19727">
        <ele>1384.6</ele>
        <time>2019-03-30T07:35:55Z</time>
      </trkpt>
      <trkpt lat="45.27918" lon="6.19726">
        <ele>1385.2</ele>
        <time>2019-03-30T07:36:00Z</time>
      </trkpt>
      <trkpt lat="45.27916" lon="6.19725">
        <ele>1385</ele>
        <time>2019-03-30T07:36:05Z</time>
      </trkpt>
      <trkpt lat="45.27915" lon="6.19725">
        <ele>1384.2</ele>
        <time>2019-03-30T07:36:10Z</time>
      </trkpt>
      <trkpt lat="45.27914" lon="6.19726">
        <ele>1388.2</ele>
        <time>2019-03-30T07:36:15Z</time>
      </trkpt>
      <trkpt lat="45.27912" lon="6.19727">
        <ele>1385.8</ele>
        <time>2019-03-30T07:36:20Z</time>
      </trkpt>
      <trkpt lat="45.27908" lon="6.19726">
        <ele>1387.6</ele>
        <time>2019-03-30T07:36:25Z</time>
      </trkpt>
      <trkpt lat="45.27904" lon="6.19725">
        <ele>1390.2</ele>
        <time>2019-03-30T07:36:30Z</time>
      </trkpt>
      <trkpt lat="45.27902" lon="6.19723">
        <ele>1389.6</ele>
        <time>2019-03-30T07:36:35Z</time>
      </trkpt>
      <trkpt lat="45.27901" lon="6.19721">
        <ele>1390.6</ele>
        <time>2019-03-30T07:36:40Z</time>
      </trkpt>
      <trkpt lat="45.27899" lon="6.19718">
        <ele>1391.2</ele>
        <time>2019-03-30T07:36:45Z</time>
      </trkpt>
      <trkpt lat="45.27898" lon="6.19713">
        <ele>1392.2</ele>
        <time>2019-03-30T07:36:50Z</time>
      </trkpt>
      <trkpt lat="45.27894" lon="6.19711">
        <ele>1395.4</ele>
        <time>2019-03-30T07:36:55Z</time>
      </trkpt>
      <trkpt lat="45.2789" lon="6.19708">
        <ele>1396.6</ele>
        <time>2019-03-30T07:37:00Z</time>
      </trkpt>
      <trkpt lat="45.27889" lon="6.19704">
        <ele>1395.6</ele>
        <time>2019-03-30T07:37:05Z</time>
      </trkpt>
      <trkpt lat="45.27888" lon="6.19702">
        <ele>1396.8</ele>
        <time>2019-03-30T07:37:10Z</time>
      </trkpt>
      <trkpt lat="45.27885" lon="6.19698">
        <ele>1397</ele>
        <time>2019-03-30T07:37:15Z</time>
      </trkpt>
      <trkpt lat="45.2788" lon="6.19696">
        <ele>1400.6</ele>
        <time>2019-03-30T07:37:20Z</time>
      </trkpt>
      <trkpt lat="45.27877" lon="6.19693">
        <ele>1400.6</ele>
        <time>2019-03-30T07:37:25Z</time>
      </trkpt>
      <trkpt lat="45.27874" lon="6.19691">
        <ele>1401.4</ele>
        <time>2019-03-30T07:37:30Z</time>
      </trkpt>
      <trkpt lat="45.27873" lon="6.19688">
        <ele>1400</ele>
        <time>2019-03-30T07:37:35Z</time>
      </trkpt>
      <trkpt lat="45.27873" lon="6.19682">
        <ele>1398.8</ele>
        <time>2019-03-30T07:37:40Z</time>
      </trkpt>
      <trkpt lat="45.27872" lon="6.19677">
        <ele>1400.6</ele>
        <time>2019-03-30T07:37:45Z</time>
      </trkpt>
      <trkpt lat="45.2787" lon="6.19674">
        <ele>1401.2</ele>
        <time>2019-03-30T07:37:50Z</time>
      </trkpt>
      <trkpt lat="45.27868" lon="6.19674">
        <ele>1401.2</ele>
        <time>2019-03-30T07:37:55Z</time>
      </trkpt>
      <trkpt lat="45.27867" lon="6.19671">
        <ele>1403.8</ele>
        <time>2019-03-30T07:38:00Z</time>
      </trkpt>
      <trkpt lat="45.27867" lon="6.19669">
        <ele>1402.2</ele>
        <time>2019-03-30T07:38:05Z</time>
      </trkpt>
      <trkpt lat="45.27866" lon="6.19664">
        <ele>1403.8</ele>
        <time>2019-03-30T07:38:10Z</time>
      </trkpt>
      <trkpt lat="45.27866" lon="6.19659">
        <ele>1405.8</ele>
        <time>2019-03-30T07:38:15Z</time>
      </trkpt>
      <trkpt lat="45.27867" lon="6.19656">
        <ele>1410.8</ele>
        <time>2019-03-30T07:38:20Z</time>
      </trkpt>
      <trkpt lat="45.27866" lon="6.19651">
        <ele>1410.2</ele>
        <time>2019-03-30T07:38:25Z</time>
      </trkpt>
      <trkpt lat="45.27864" lon="6.19645">
        <ele>1412.4</ele>
        <time>2019-03-30T07:38:30Z</time>
      </trkpt>
      <trkpt lat="45.27862" lon="6.19642">
        <ele>1411.4</ele>
        <time>2019-03-30T07:38:35Z</time>
      </trkpt>
      <trkpt lat="45.27859" lon="6.1964">
        <ele>1412.6</ele>
        <time>2019-03-30T07:38:40Z</time>
      </trkpt>
      <trkpt lat="45.27856" lon="6.19638">
        <ele>1413.6</ele>
        <time>2019-03-30T07:38:45Z</time>
      </trkpt>
      <trkpt lat="45.27852" lon="6.19638">
        <ele>1414.2</ele>
        <time>2019-03-30T07:38:50Z</time>
      </trkpt>
      <trkpt lat="45.27849" lon="6.19637">
        <ele>1413.8</ele>
        <time>2019-03-30T07:38:55Z</time>
      </trkpt>
      <trkpt lat="45.27847" lon="6.19636">
        <ele>1415.6</ele>
        <time>2019-03-30T07:39:05Z</time>
      </trkpt>
      <trkpt lat="45.27844" lon="6.19637">
        <ele>1417.6</ele>
        <time>2019-03-30T07:39:10Z</time>
      </trkpt>
      <trkpt lat="45.27841" lon="6.19639">
        <ele>1417.2</ele>
        <time>2019-03-30T07:39:15Z</time>
      </trkpt>
      <trkpt lat="45.2784" lon="6.19641">
        <ele>1419.6</ele>
        <time>2019-03-30T07:39:20Z</time>
      </trkpt>
      <trkpt lat="45.27839" lon="6.19643">
        <ele>1420.4</ele>
        <time>2019-03-30T07:39:25Z</time>
      </trkpt>
      <trkpt lat="45.27838" lon="6.19644">
        <ele>1419.6</ele>
        <time>2019-03-30T07:39:30Z</time>
      </trkpt>
      <trkpt lat="45.27835" lon="6.19644">
        <ele>1418.4</ele>
        <time>2019-03-30T07:39:35Z</time>
      </trkpt>
      <trkpt lat="45.27833" lon="6.19645">
        <ele>1419.8</ele>
        <time>2019-03-30T07:39:40Z</time>
      </trkpt>
      <trkpt lat="45.27832" lon="6.19645">
        <ele>1421.2</ele>
        <time>2019-03-30T07:39:45Z</time>
      </trkpt>
      <trkpt lat="45.27829" lon="6.19647">
        <ele>1425</ele>
        <time>2019-03-30T07:39:50Z</time>
      </trkpt>
      <trkpt lat="45.27825" lon="6.19648">
        <ele>1425.8</ele>
        <time>2019-03-30T07:39:55Z</time>
      </trkpt>
      <trkpt lat="45.27821" lon="6.19646">
        <ele>1425.2</ele>
        <time>2019-03-30T07:40:00Z</time>
      </trkpt>
      <trkpt lat="45.27817" lon="6.19644">
        <ele>1424</ele>
        <time>2019-03-30T07:40:05Z</time>
      </trkpt>
      <trkpt lat="45.27816" lon="6.19641">
        <ele>1428.8</ele>
        <time>2019-03-30T07:40:10Z</time>
      </trkpt>
      <trkpt lat="45.27814" lon="6.19639">
        <ele>1427.6</ele>
        <time>2019-03-30T07:40:15Z</time>
      </trkpt>
      <trkpt lat="45.2781" lon="6.19639">
        <ele>1428.6</ele>
        <time>2019-03-30T07:40:20Z</time>
      </trkpt>
      <trkpt lat="45.27806" lon="6.19638">
        <ele>1428.4</ele>
        <time>2019-03-30T07:40:25Z</time>
      </trkpt>
      <trkpt lat="45.27803" lon="6.1964">
        <ele>1427</ele>
        <time>2019-03-30T07:40:30Z</time>
      </trkpt>
      <trkpt lat="45.27799" lon="6.19642">
        <ele>1423.8</ele>
        <time>2019-03-30T07:40:36Z</time>
      </trkpt>
      <trkpt lat="45.27799" lon="6.19643">
        <ele>1425.6</ele>
        <time>2019-03-30T07:40:41Z</time>
      </trkpt>
      <trkpt lat="45.27797" lon="6.19647">
        <ele>1425.4</ele>
        <time>2019-03-30T07:41:06Z</time>
      </trkpt>
      <trkpt lat="45.27793" lon="6.19649">
        <ele>1428</ele>
        <time>2019-03-30T07:41:11Z</time>
      </trkpt>
      <trkpt lat="45.27789" lon="6.19654">
        <ele>1428.2</ele>
        <time>2019-03-30T07:41:16Z</time>
      </trkpt>
      <trkpt lat="45.27788" lon="6.19658">
        <ele>1426.4</ele>
        <time>2019-03-30T07:41:21Z</time>
      </trkpt>
      <trkpt lat="45.27785" lon="6.1966">
        <ele>1428.8</ele>
        <time>2019-03-30T07:41:26Z</time>
      </trkpt>
      <trkpt lat="45.2778" lon="6.1966">
        <ele>1427.6</ele>
        <time>2019-03-30T07:41:31Z</time>
      </trkpt>
      <trkpt lat="45.27778" lon="6.19662">
        <ele>1428.6</ele>
        <time>2019-03-30T07:41:36Z</time>
      </trkpt>
      <trkpt lat="45.27776" lon="6.19662">
        <ele>1428.6</ele>
        <time>2019-03-30T07:41:41Z</time>
      </trkpt>
      <trkpt lat="45.27775" lon="6.19664">
        <ele>1431.2</ele>
        <time>2019-03-30T07:41:46Z</time>
      </trkpt>
      <trkpt lat="45.27773" lon="6.19666">
        <ele>1432.2</ele>
        <time>2019-03-30T07:41:51Z</time>
      </trkpt>
      <trkpt lat="45.27773" lon="6.19669">
        <ele>1432.4</ele>
        <time>2019-03-30T07:41:56Z</time>
      </trkpt>
      <trkpt lat="45.27773" lon="6.19671">
        <ele>1438</ele>
        <time>2019-03-30T07:42:01Z</time>
      </trkpt>
      <trkpt lat="45.27772" lon="6.19672">
        <ele>1439.2</ele>
        <time>2019-03-30T07:42:06Z</time>
      </trkpt>
      <trkpt lat="45.2777" lon="6.19674">
        <ele>1438.8</ele>
        <time>2019-03-30T07:42:11Z</time>
      </trkpt>
      <trkpt lat="45.2777" lon="6.19678">
        <ele>1441.4</ele>
        <time>2019-03-30T07:42:16Z</time>
      </trkpt>
      <trkpt lat="45.27768" lon="6.19682">
        <ele>1441.4</ele>
        <time>2019-03-30T07:42:21Z</time>
      </trkpt>
      <trkpt lat="45.27767" lon="6.19686">
        <ele>1443.6</ele>
        <time>2019-03-30T07:42:26Z</time>
      </trkpt>
      <trkpt lat="45.27768" lon="6.19692">
        <ele>1445.8</ele>
        <time>2019-03-30T07:42:31Z</time>
      </trkpt>
      <trkpt lat="45.27769" lon="6.19697">
        <ele>1448.6</ele>
        <time>2019-03-30T07:42:36Z</time>
      </trkpt>
      <trkpt lat="45.27768" lon="6.19701">
        <ele>1447</ele>
        <time>2019-03-30T07:42:41Z</time>
      </trkpt>
      <trkpt lat="45.27767" lon="6.19704">
        <ele>1448.4</ele>
        <time>2019-03-30T07:42:46Z</time>
      </trkpt>
      <trkpt lat="45.27768" lon="6.19706">
        <ele>1449.2</ele>
        <time>2019-03-30T07:42:51Z</time>
      </trkpt>
      <trkpt lat="45.27769" lon="6.19711">
        <ele>1449.6</ele>
        <time>2019-03-30T07:42:56Z</time>
      </trkpt>
      <trkpt lat="45.2777" lon="6.19717">
        <ele>1449.8</ele>
        <time>2019-03-30T07:43:01Z</time>
      </trkpt>
      <trkpt lat="45.27772" lon="6.19722">
        <ele>1451</ele>
        <time>2019-03-30T07:43:06Z</time>
      </trkpt>
      <trkpt lat="45.27772" lon="6.19727">
        <ele>1449.4</ele>
        <time>2019-03-30T07:43:11Z</time>
      </trkpt>
      <trkpt lat="45.2777" lon="6.1973">
        <ele>1452.4</ele>
        <time>2019-03-30T07:43:16Z</time>
      </trkpt>
      <trkpt lat="45.27769" lon="6.19734">
        <ele>1452.6</ele>
        <time>2019-03-30T07:43:21Z</time>
      </trkpt>
      <trkpt lat="45.27769" lon="6.19736">
        <ele>1452.8</ele>
        <time>2019-03-30T07:43:26Z</time>
      </trkpt>
      <trkpt lat="45.27768" lon="6.19739">
        <ele>1454.2</ele>
        <time>2019-03-30T07:43:31Z</time>
      </trkpt>
      <trkpt lat="45.2777" lon="6.19742">
        <ele>1457</ele>
        <time>2019-03-30T07:43:36Z</time>
      </trkpt>
      <trkpt lat="45.27772" lon="6.1975">
        <ele>1457</ele>
        <time>2019-03-30T07:43:41Z</time>
      </trkpt>
      <trkpt lat="45.27775" lon="6.19756">
        <ele>1458</ele>
        <time>2019-03-30T07:43:46Z</time>
      </trkpt>
      <trkpt lat="45.27778" lon="6.19762">
        <ele>1459.2</ele>
        <time>2019-03-30T07:43:51Z</time>
      </trkpt>
      <trkpt lat="45.27781" lon="6.19766">
        <ele>1461</ele>
        <time>2019-03-30T07:43:56Z</time>
      </trkpt>
      <trkpt lat="45.27781" lon="6.19769">
        <ele>1460.4</ele>
        <time>2019-03-30T07:44:01Z</time>
      </trkpt>
      <trkpt lat="45.27782" lon="6.19772">
        <ele>1461</ele>
        <time>2019-03-30T07:44:06Z</time>
      </trkpt>
      <trkpt lat="45.27783" lon="6.19777">
        <ele>1463.2</ele>
        <time>2019-03-30T07:44:11Z</time>
      </trkpt>
      <trkpt lat="45.27783" lon="6.19782">
        <ele>1464</ele>
        <time>2019-03-30T07:44:16Z</time>
      </trkpt>
      <trkpt lat="45.27782" lon="6.19785">
        <ele>1463.8</ele>
        <time>2019-03-30T07:44:21Z</time>
      </trkpt>
      <trkpt lat="45.2778" lon="6.19788">
        <ele>1465.4</ele>
        <time>2019-03-30T07:44:26Z</time>
      </trkpt>
      <trkpt lat="45.27781" lon="6.19793">
        <ele>1466.4</ele>
        <time>2019-03-30T07:44:31Z</time>
      </trkpt>
      <trkpt lat="45.27782" lon="6.19798">
        <ele>1466</ele>
        <time>2019-03-30T07:44:36Z</time>
      </trkpt>
      <trkpt lat="45.27782" lon="6.19801">
        <ele>1463.8</ele>
        <time>2019-03-30T07:44:41Z</time>
      </trkpt>
      <trkpt lat="45.27782" lon="6.19804">
        <ele>1464</ele>
        <time>2019-03-30T07:44:46Z</time>
      </trkpt>
      <trkpt lat="45.27781" lon="6.19806">
        <ele>1464.2</ele>
        <time>2019-03-30T07:44:51Z</time>
      </trkpt>
      <trkpt lat="45.27782" lon="6.19809">
        <ele>1462.8</ele>
        <time>2019-03-30T07:44:56Z</time>
      </trkpt>
      <trkpt lat="45.27783" lon="6.19812">
        <ele>1463.8</ele>
        <time>2019-03-30T07:45:01Z</time>
      </trkpt>
      <trkpt lat="45.27784" lon="6.19817">
        <ele>1466.2</ele>
        <time>2019-03-30T07:45:06Z</time>
      </trkpt>
      <trkpt lat="45.27786" lon="6.19824">
        <ele>1466.2</ele>
        <time>2019-03-30T07:45:11Z</time>
      </trkpt>
      <trkpt lat="45.27788" lon="6.1983">
        <ele>1470.8</ele>
        <time>2019-03-30T07:45:16Z</time>
      </trkpt>
      <trkpt lat="45.27789" lon="6.19834">
        <ele>1470</ele>
        <time>2019-03-30T07:45:21Z</time>
      </trkpt>
      <trkpt lat="45.27789" lon="6.19839">
        <ele>1469</ele>
        <time>2019-03-30T07:45:26Z</time>
      </trkpt>
      <trkpt lat="45.2779" lon="6.19844">
        <ele>1471.2</ele>
        <time>2019-03-30T07:45:31Z</time>
      </trkpt>
      <trkpt lat="45.2779" lon="6.19848">
        <ele>1473.2</ele>
        <time>2019-03-30T07:45:36Z</time>
      </trkpt>
      <trkpt lat="45.27792" lon="6.19854">
        <ele>1473.2</ele>
        <time>2019-03-30T07:45:41Z</time>
      </trkpt>
      <trkpt lat="45.27793" lon="6.19859">
        <ele>1474.8</ele>
        <time>2019-03-30T07:45:46Z</time>
      </trkpt>
      <trkpt lat="45.27795" lon="6.19861">
        <ele>1474.8</ele>
        <time>2019-03-30T07:45:51Z</time>
      </trkpt>
      <trkpt lat="45.27795" lon="6.19862">
        <ele>1475</ele>
        <time>2019-03-30T07:45:56Z</time>
      </trkpt>
      <trkpt lat="45.27795" lon="6.19864">
        <ele>1475</ele>
        <time>2019-03-30T07:46:01Z</time>
      </trkpt>
      <trkpt lat="45.27795" lon="6.19865">
        <ele>1475.6</ele>
        <time>2019-03-30T07:47:26Z</time>
      </trkpt>
      <trkpt lat="45.27795" lon="6.19865">
        <ele>1475.4</ele>
        <time>2019-03-30T07:48:06Z</time>
      </trkpt>
      <trkpt lat="45.27795" lon="6.19867">
        <ele>1475</ele>
        <time>2019-03-30T07:48:26Z</time>
      </trkpt>
      <trkpt lat="45.27795" lon="6.19867">
        <ele>1475</ele>
        <time>2019-03-30T07:48:31Z</time>
      </trkpt>
      <trkpt lat="45.27794" lon="6.1987">
        <ele>1474.8</ele>
        <time>2019-03-30T07:48:36Z</time>
      </trkpt>
      <trkpt lat="45.27794" lon="6.19873">
        <ele>1478.4</ele>
        <time>2019-03-30T07:48:41Z</time>
      </trkpt>
      <trkpt lat="45.27795" lon="6.19877">
        <ele>1473.2</ele>
        <time>2019-03-30T07:48:46Z</time>
      </trkpt>
      <trkpt lat="45.27796" lon="6.19882">
        <ele>1474.4</ele>
        <time>2019-03-30T07:48:51Z</time>
      </trkpt>
      <trkpt lat="45.27799" lon="6.19889">
        <ele>1476.4</ele>
        <time>2019-03-30T07:48:56Z</time>
      </trkpt>
      <trkpt lat="45.27802" lon="6.19897">
        <ele>1476.6</ele>
        <time>2019-03-30T07:49:01Z</time>
      </trkpt>
      <trkpt lat="45.27803" lon="6.19903">
        <ele>1478.6</ele>
        <time>2019-03-30T07:49:06Z</time>
      </trkpt>
      <trkpt lat="45.27803" lon="6.19907">
        <ele>1478</ele>
        <time>2019-03-30T07:49:11Z</time>
      </trkpt>
      <trkpt lat="45.27803" lon="6.19912">
        <ele>1478.4</ele>
        <time>2019-03-30T07:49:16Z</time>
      </trkpt>
      <trkpt lat="45.27804" lon="6.19916">
        <ele>1483.2</ele>
        <time>2019-03-30T07:49:21Z</time>
      </trkpt>
      <trkpt lat="45.27806" lon="6.19921">
        <ele>1481.6</ele>
        <time>2019-03-30T07:49:26Z</time>
      </trkpt>
      <trkpt lat="45.27809" lon="6.19924">
        <ele>1480.4</ele>
        <time>2019-03-30T07:49:31Z</time>
      </trkpt>
      <trkpt lat="45.2781" lon="6.19927">
        <ele>1482</ele>
        <time>2019-03-30T07:49:36Z</time>
      </trkpt>
      <trkpt lat="45.27811" lon="6.19929">
        <ele>1482.8</ele>
        <time>2019-03-30T07:49:41Z</time>
      </trkpt>
      <trkpt lat="45.27812" lon="6.19933">
        <ele>1485.8</ele>
        <time>2019-03-30T07:49:46Z</time>
      </trkpt>
      <trkpt lat="45.27811" lon="6.19935">
        <ele>1485.8</ele>
        <time>2019-03-30T07:49:51Z</time>
      </trkpt>
      <trkpt lat="45.27811" lon="6.19938">
        <ele>1485.6</ele>
        <time>2019-03-30T07:49:56Z</time>
      </trkpt>
      <trkpt lat="45.27812" lon="6.19942">
        <ele>1483.6</ele>
        <time>2019-03-30T07:50:01Z</time>
      </trkpt>
      <trkpt lat="45.27808" lon="6.19951">
        <ele>1489.4</ele>
        <time>2019-03-30T07:50:21Z</time>
      </trkpt>
      <trkpt lat="45.27808" lon="6.19955">
        <ele>1488</ele>
        <time>2019-03-30T07:50:26Z</time>
      </trkpt>
      <trkpt lat="45.27809" lon="6.1996">
        <ele>1491.8</ele>
        <time>2019-03-30T07:50:31Z</time>
      </trkpt>
      <trkpt lat="45.27808" lon="6.19964">
        <ele>1487.2</ele>
        <time>2019-03-30T07:50:36Z</time>
      </trkpt>
      <trkpt lat="45.27808" lon="6.19969">
        <ele>1487.4</ele>
        <time>2019-03-30T07:50:41Z</time>
      </trkpt>
      <trkpt lat="45.27809" lon="6.19972">
        <ele>1486.8</ele>
        <time>2019-03-30T07:50:46Z</time>
      </trkpt>
      <trkpt lat="45.27811" lon="6.19974">
        <ele>1485.2</ele>
        <time>2019-03-30T07:50:51Z</time>
      </trkpt>
      <trkpt lat="45.27813" lon="6.19982">
        <ele>1486.8</ele>
        <time>2019-03-30T07:50:56Z</time>
      </trkpt>
      <trkpt lat="45.27814" lon="6.19986">
        <ele>1489.4</ele>
        <time>2019-03-30T07:51:01Z</time>
      </trkpt>
      <trkpt lat="45.27814" lon="6.1999">
        <ele>1487.2</ele>
        <time>2019-03-30T07:51:06Z</time>
      </trkpt>
      <trkpt lat="45.27814" lon="6.19995">
        <ele>1491.6</ele>
        <time>2019-03-30T07:51:11Z</time>
      </trkpt>
      <trkpt lat="45.27815" lon="6.2">
        <ele>1494.4</ele>
        <time>2019-03-30T07:51:16Z</time>
      </trkpt>
      <trkpt lat="45.27816" lon="6.20006">
        <ele>1495.6</ele>
        <time>2019-03-30T07:51:21Z</time>
      </trkpt>
      <trkpt lat="45.27818" lon="6.20013">
        <ele>1496.6</ele>
        <time>2019-03-30T07:51:26Z</time>
      </trkpt>
      <trkpt lat="45.27819" lon="6.20019">
        <ele>1494.2</ele>
        <time>2019-03-30T07:51:31Z</time>
      </trkpt>
      <trkpt lat="45.27817" lon="6.20024">
        <ele>1495.6</ele>
        <time>2019-03-30T07:51:36Z</time>
      </trkpt>
      <trkpt lat="45.27817" lon="6.2003">
        <ele>1497.6</ele>
        <time>2019-03-30T07:51:41Z</time>
      </trkpt>
      <trkpt lat="45.27818" lon="6.20035">
        <ele>1498.8</ele>
        <time>2019-03-30T07:51:46Z</time>
      </trkpt>
      <trkpt lat="45.27817" lon="6.2004">
        <ele>1499.2</ele>
        <time>2019-03-30T07:51:51Z</time>
      </trkpt>
      <trkpt lat="45.27817" lon="6.20043">
        <ele>1498.8</ele>
        <time>2019-03-30T07:51:56Z</time>
      </trkpt>
      <trkpt lat="45.27818" lon="6.20046">
        <ele>1499.4</ele>
        <time>2019-03-30T07:52:01Z</time>
      </trkpt>
      <trkpt lat="45.2782" lon="6.20052">
        <ele>1500.8</ele>
        <time>2019-03-30T07:52:06Z</time>
      </trkpt>
      <trkpt lat="45.27823" lon="6.20058">
        <ele>1502.4</ele>
        <time>2019-03-30T07:52:11Z</time>
      </trkpt>
      <trkpt lat="45.27824" lon="6.20062">
        <ele>1507.6</ele>
        <time>2019-03-30T07:52:16Z</time>
      </trkpt>
      <trkpt lat="45.27824" lon="6.20065">
        <ele>1506.8</ele>
        <time>2019-03-30T07:52:21Z</time>
      </trkpt>
      <trkpt lat="45.27825" lon="6.2007">
        <ele>1510.2</ele>
        <time>2019-03-30T07:52:26Z</time>
      </trkpt>
      <trkpt lat="45.27826" lon="6.20073">
        <ele>1507.8</ele>
        <time>2019-03-30T07:52:31Z</time>
      </trkpt>
      <trkpt lat="45.27828" lon="6.20078">
        <ele>1508</ele>
        <time>2019-03-30T07:52:36Z</time>
      </trkpt>
      <trkpt lat="45.2783" lon="6.20082">
        <ele>1511</ele>
        <time>2019-03-30T07:52:41Z</time>
      </trkpt>
      <trkpt lat="45.2783" lon="6.20088">
        <ele>1511.6</ele>
        <time>2019-03-30T07:52:47Z</time>
      </trkpt>
      <trkpt lat="45.2783" lon="6.2009">
        <ele>1512.6</ele>
        <time>2019-03-30T07:52:52Z</time>
      </trkpt>
      <trkpt lat="45.2783" lon="6.20093">
        <ele>1514.8</ele>
        <time>2019-03-30T07:52:58Z</time>
      </trkpt>
      <trkpt lat="45.2783" lon="6.20096">
        <ele>1513.6</ele>
        <time>2019-03-30T07:53:03Z</time>
      </trkpt>
      <trkpt lat="45.27831" lon="6.201">
        <ele>1518.4</ele>
        <time>2019-03-30T07:53:08Z</time>
      </trkpt>
      <trkpt lat="45.27831" lon="6.20104">
        <ele>1517</ele>
        <time>2019-03-30T07:53:13Z</time>
      </trkpt>
      <trkpt lat="45.27832" lon="6.20108">
        <ele>1519.4</ele>
        <time>2019-03-30T07:53:18Z</time>
      </trkpt>
      <trkpt lat="45.27831" lon="6.20109">
        <ele>1517.2</ele>
        <time>2019-03-30T07:53:23Z</time>
      </trkpt>
      <trkpt lat="45.27831" lon="6.20111">
        <ele>1517.2</ele>
        <time>2019-03-30T07:53:28Z</time>
      </trkpt>
      <trkpt lat="45.27832" lon="6.20115">
        <ele>1517</ele>
        <time>2019-03-30T07:53:33Z</time>
      </trkpt>
      <trkpt lat="45.27833" lon="6.2012">
        <ele>1519.2</ele>
        <time>2019-03-30T07:53:38Z</time>
      </trkpt>
      <trkpt lat="45.27835" lon="6.20126">
        <ele>1519</ele>
        <time>2019-03-30T07:53:43Z</time>
      </trkpt>
      <trkpt lat="45.27836" lon="6.20133">
        <ele>1517.2</ele>
        <time>2019-03-30T07:53:48Z</time>
      </trkpt>
      <trkpt lat="45.27837" lon="6.20139">
        <ele>1520.2</ele>
        <time>2019-03-30T07:53:53Z</time>
      </trkpt>
      <trkpt lat="45.27838" lon="6.20142">
        <ele>1522.4</ele>
        <time>2019-03-30T07:53:58Z</time>
      </trkpt>
      <trkpt lat="45.2784" lon="6.20147">
        <ele>1519</ele>
        <time>2019-03-30T07:54:03Z</time>
      </trkpt>
      <trkpt lat="45.2784" lon="6.20152">
        <ele>1517.8</ele>
        <time>2019-03-30T07:54:08Z</time>
      </trkpt>
      <trkpt lat="45.27841" lon="6.20155">
        <ele>1518.8</ele>
        <time>2019-03-30T07:54:13Z</time>
      </trkpt>
      <trkpt lat="45.27842" lon="6.20158">
        <ele>1519.4</ele>
        <time>2019-03-30T07:54:18Z</time>
      </trkpt>
      <trkpt lat="45.27843" lon="6.20161">
        <ele>1519.8</ele>
        <time>2019-03-30T07:54:23Z</time>
      </trkpt>
      <trkpt lat="45.27843" lon="6.20165">
        <ele>1519.6</ele>
        <time>2019-03-30T07:54:28Z</time>
      </trkpt>
      <trkpt lat="45.27844" lon="6.20168">
        <ele>1520</ele>
        <time>2019-03-30T07:54:33Z</time>
      </trkpt>
      <trkpt lat="45.27845" lon="6.20172">
        <ele>1519.6</ele>
        <time>2019-03-30T07:54:38Z</time>
      </trkpt>
      <trkpt lat="45.27846" lon="6.20175">
        <ele>1519</ele>
        <time>2019-03-30T07:54:43Z</time>
      </trkpt>
      <trkpt lat="45.27847" lon="6.20179">
        <ele>1518.2</ele>
        <time>2019-03-30T07:54:48Z</time>
      </trkpt>
      <trkpt lat="45.27848" lon="6.20183">
        <ele>1517</ele>
        <time>2019-03-30T07:54:53Z</time>
      </trkpt>
      <trkpt lat="45.2785" lon="6.20185">
        <ele>1519.8</ele>
        <time>2019-03-30T07:54:58Z</time>
      </trkpt>
      <trkpt lat="45.27852" lon="6.20188">
        <ele>1522.6</ele>
        <time>2019-03-30T07:55:03Z</time>
      </trkpt>
      <trkpt lat="45.27854" lon="6.20191">
        <ele>1524</ele>
        <time>2019-03-30T07:55:08Z</time>
      </trkpt>
      <trkpt lat="45.27854" lon="6.20194">
        <ele>1528</ele>
        <time>2019-03-30T07:55:13Z</time>
      </trkpt>
      <trkpt lat="45.27855" lon="6.20198">
        <ele>1526.8</ele>
        <time>2019-03-30T07:55:18Z</time>
      </trkpt>
      <trkpt lat="45.27853" lon="6.202">
        <ele>1530.6</ele>
        <time>2019-03-30T07:55:23Z</time>
      </trkpt>
      <trkpt lat="45.27852" lon="6.20203">
        <ele>1529</ele>
        <time>2019-03-30T07:55:28Z</time>
      </trkpt>
      <trkpt lat="45.2785" lon="6.20206">
        <ele>1531.2</ele>
        <time>2019-03-30T07:55:33Z</time>
      </trkpt>
      <trkpt lat="45.27847" lon="6.20208">
        <ele>1532.2</ele>
        <time>2019-03-30T07:55:38Z</time>
      </trkpt>
      <trkpt lat="45.27844" lon="6.2021">
        <ele>1530</ele>
        <time>2019-03-30T07:55:43Z</time>
      </trkpt>
      <trkpt lat="45.27841" lon="6.20209">
        <ele>1530.4</ele>
        <time>2019-03-30T07:55:48Z</time>
      </trkpt>
      <trkpt lat="45.27837" lon="6.20208">
        <ele>1530.4</ele>
        <time>2019-03-30T07:55:53Z</time>
      </trkpt>
      <trkpt lat="45.27835" lon="6.20208">
        <ele>1529.6</ele>
        <time>2019-03-30T07:55:58Z</time>
      </trkpt>
      <trkpt lat="45.27834" lon="6.20208">
        <ele>1527.8</ele>
        <time>2019-03-30T07:59:18Z</time>
      </trkpt>
      <trkpt lat="45.27834" lon="6.20205">
        <ele>1530</ele>
        <time>2019-03-30T08:00:53Z</time>
      </trkpt>
      <trkpt lat="45.27829" lon="6.20198">
        <ele>1528.8</ele>
        <time>2019-03-30T08:01:59Z</time>
      </trkpt>
      <trkpt lat="45.27825" lon="6.20194">
        <ele>1529.4</ele>
        <time>2019-03-30T08:02:04Z</time>
      </trkpt>
      <trkpt lat="45.27822" lon="6.2019">
        <ele>1530</ele>
        <time>2019-03-30T08:02:09Z</time>
      </trkpt>
      <trkpt lat="45.27818" lon="6.20186">
        <ele>1531</ele>
        <time>2019-03-30T08:02:14Z</time>
      </trkpt>
      <trkpt lat="45.27815" lon="6.20182">
        <ele>1532.8</ele>
        <time>2019-03-30T08:02:19Z</time>
      </trkpt>
      <trkpt lat="45.27812" lon="6.20179">
        <ele>1531.6</ele>
        <time>2019-03-30T08:02:24Z</time>
      </trkpt>
      <trkpt lat="45.27809" lon="6.20175">
        <ele>1531.4</ele>
        <time>2019-03-30T08:02:29Z</time>
      </trkpt>
      <trkpt lat="45.27806" lon="6.20171">
        <ele>1532</ele>
        <time>2019-03-30T08:02:34Z</time>
      </trkpt>
      <trkpt lat="45.27802" lon="6.20167">
        <ele>1529.8</ele>
        <time>2019-03-30T08:02:39Z</time>
      </trkpt>
      <trkpt lat="45.27798" lon="6.20163">
        <ele>1533</ele>
        <time>2019-03-30T08:02:44Z</time>
      </trkpt>
      <trkpt lat="45.27796" lon="6.20159">
        <ele>1531</ele>
        <time>2019-03-30T08:02:49Z</time>
      </trkpt>
      <trkpt lat="45.27793" lon="6.20156">
        <ele>1533.4</ele>
        <time>2019-03-30T08:02:54Z</time>
      </trkpt>
      <trkpt lat="45.2779" lon="6.20152">
        <ele>1536</ele>
        <time>2019-03-30T08:02:59Z</time>
      </trkpt>
      <trkpt lat="45.27787" lon="6.20148">
        <ele>1532</ele>
        <time>2019-03-30T08:03:04Z</time>
      </trkpt>
      <trkpt lat="45.27784" lon="6.20145">
        <ele>1537.8</ele>
        <time>2019-03-30T08:03:09Z</time>
      </trkpt>
      <trkpt lat="45.27782" lon="6.20141">
        <ele>1537.6</ele>
        <time>2019-03-30T08:03:14Z</time>
      </trkpt>
      <trkpt lat="45.2778" lon="6.20136">
        <ele>1535.8</ele>
        <time>2019-03-30T08:03:19Z</time>
      </trkpt>
      <trkpt lat="45.27777" lon="6.20131">
        <ele>1538.8</ele>
        <time>2019-03-30T08:03:24Z</time>
      </trkpt>
      <trkpt lat="45.27775" lon="6.20126">
        <ele>1539</ele>
        <time>2019-03-30T08:03:29Z</time>
      </trkpt>
      <trkpt lat="45.27774" lon="6.20123">
        <ele>1537.2</ele>
        <time>2019-03-30T08:03:34Z</time>
      </trkpt>
      <trkpt lat="45.27773" lon="6.20119">
        <ele>1536.4</ele>
        <time>2019-03-30T08:03:39Z</time>
      </trkpt>
      <trkpt lat="45.27771" lon="6.20113">
        <ele>1537</ele>
        <time>2019-03-30T08:03:44Z</time>
      </trkpt>
      <trkpt lat="45.27769" lon="6.20107">
        <ele>1542.4</ele>
        <time>2019-03-30T08:03:49Z</time>
      </trkpt>
      <trkpt lat="45.27767" lon="6.20102">
        <ele>1541.8</ele>
        <time>2019-03-30T08:03:54Z</time>
      </trkpt>
      <trkpt lat="45.27764" lon="6.20097">
        <ele>1540.8</ele>
        <time>2019-03-30T08:03:59Z</time>
      </trkpt>
      <trkpt lat="45.27761" lon="6.20093">
        <ele>1541.2</ele>
        <time>2019-03-30T08:04:04Z</time>
      </trkpt>
      <trkpt lat="45.27758" lon="6.20088">
        <ele>1542.2</ele>
        <time>2019-03-30T08:04:09Z</time>
      </trkpt>
      <trkpt lat="45.27756" lon="6.20083">
        <ele>1544.8</ele>
        <time>2019-03-30T08:04:14Z</time>
      </trkpt>
      <trkpt lat="45.27753" lon="6.20079">
        <ele>1543.4</ele>
        <time>2019-03-30T08:04:19Z</time>
      </trkpt>
      <trkpt lat="45.2775" lon="6.20075">
        <ele>1543.4</ele>
        <time>2019-03-30T08:04:24Z</time>
      </trkpt>
      <trkpt lat="45.27747" lon="6.20071">
        <ele>1546.6</ele>
        <time>2019-03-30T08:04:29Z</time>
      </trkpt>
      <trkpt lat="45.27744" lon="6.20066">
        <ele>1545.4</ele>
        <time>2019-03-30T08:04:34Z</time>
      </trkpt>
      <trkpt lat="45.27741" lon="6.20061">
        <ele>1549</ele>
        <time>2019-03-30T08:04:39Z</time>
      </trkpt>
      <trkpt lat="45.27739" lon="6.20055">
        <ele>1547.2</ele>
        <time>2019-03-30T08:04:44Z</time>
      </trkpt>
      <trkpt lat="45.27736" lon="6.20051">
        <ele>1550.6</ele>
        <time>2019-03-30T08:04:49Z</time>
      </trkpt>
      <trkpt lat="45.27732" lon="6.20048">
        <ele>1549.2</ele>
        <time>2019-03-30T08:04:54Z</time>
      </trkpt>
      <trkpt lat="45.27728" lon="6.20044">
        <ele>1550.6</ele>
        <time>2019-03-30T08:04:59Z</time>
      </trkpt>
      <trkpt lat="45.27725" lon="6.2004">
        <ele>1548.2</ele>
        <time>2019-03-30T08:05:04Z</time>
      </trkpt>
      <trkpt lat="45.27722" lon="6.20038">
        <ele>1549.6</ele>
        <time>2019-03-30T08:05:09Z</time>
      </trkpt>
      <trkpt lat="45.27719" lon="6.20035">
        <ele>1551.4</ele>
        <time>2019-03-30T08:05:14Z</time>
      </trkpt>
      <trkpt lat="45.27716" lon="6.20032">
        <ele>1548.8</ele>
        <time>2019-03-30T08:05:19Z</time>
      </trkpt>
      <trkpt lat="45.27714" lon="6.20028">
        <ele>1551.4</ele>
        <time>2019-03-30T08:05:24Z</time>
      </trkpt>
      <trkpt lat="45.27713" lon="6.20025">
        <ele>1553.4</ele>
        <time>2019-03-30T08:05:29Z</time>
      </trkpt>
      <trkpt lat="45.27712" lon="6.20021">
        <ele>1554.8</ele>
        <time>2019-03-30T08:05:34Z</time>
      </trkpt>
      <trkpt lat="45.27711" lon="6.20016">
        <ele>1555.2</ele>
        <time>2019-03-30T08:05:39Z</time>
      </trkpt>
      <trkpt lat="45.27711" lon="6.20013">
        <ele>1556.4</ele>
        <time>2019-03-30T08:05:44Z</time>
      </trkpt>
      <trkpt lat="45.2771" lon="6.20011">
        <ele>1555</ele>
        <time>2019-03-30T08:05:49Z</time>
      </trkpt>
      <trkpt lat="45.27706" lon="6.2001">
        <ele>1553.6</ele>
        <time>2019-03-30T08:05:54Z</time>
      </trkpt>
      <trkpt lat="45.27704" lon="6.20004">
        <ele>1552.6</ele>
        <time>2019-03-30T08:05:59Z</time>
      </trkpt>
      <trkpt lat="45.277" lon="6.19999">
        <ele>1553.6</ele>
        <time>2019-03-30T08:06:04Z</time>
      </trkpt>
      <trkpt lat="45.27697" lon="6.19993">
        <ele>1555.4</ele>
        <time>2019-03-30T08:06:09Z</time>
      </trkpt>
      <trkpt lat="45.27694" lon="6.19987">
        <ele>1554.8</ele>
        <time>2019-03-30T08:06:14Z</time>
      </trkpt>
      <trkpt lat="45.27691" lon="6.1998">
        <ele>1549.8</ele>
        <time>2019-03-30T08:06:19Z</time>
      </trkpt>
      <trkpt lat="45.27688" lon="6.19973">
        <ele>1555.6</ele>
        <time>2019-03-30T08:06:24Z</time>
      </trkpt>
      <trkpt lat="45.27685" lon="6.19968">
        <ele>1555</ele>
        <time>2019-03-30T08:06:29Z</time>
      </trkpt>
      <trkpt lat="45.27683" lon="6.19961">
        <ele>1555</ele>
        <time>2019-03-30T08:06:34Z</time>
      </trkpt>
      <trkpt lat="45.27681" lon="6.19955">
        <ele>1552</ele>
        <time>2019-03-30T08:06:39Z</time>
      </trkpt>
      <trkpt lat="45.27679" lon="6.19949">
        <ele>1552.2</ele>
        <time>2019-03-30T08:06:44Z</time>
      </trkpt>
      <trkpt lat="45.27677" lon="6.19943">
        <ele>1551.6</ele>
        <time>2019-03-30T08:06:49Z</time>
      </trkpt>
      <trkpt lat="45.27676" lon="6.19936">
        <ele>1550.8</ele>
        <time>2019-03-30T08:06:54Z</time>
      </trkpt>
      <trkpt lat="45.27673" lon="6.19933">
        <ele>1547.6</ele>
        <time>2019-03-30T08:06:59Z</time>
      </trkpt>
      <trkpt lat="45.2767" lon="6.19929">
        <ele>1551.4</ele>
        <time>2019-03-30T08:07:04Z</time>
      </trkpt>
      <trkpt lat="45.27667" lon="6.19923">
        <ele>1552.6</ele>
        <time>2019-03-30T08:07:09Z</time>
      </trkpt>
      <trkpt lat="45.27665" lon="6.19917">
        <ele>1555</ele>
        <time>2019-03-30T08:07:14Z</time>
      </trkpt>
      <trkpt lat="45.27663" lon="6.19913">
        <ele>1551.8</ele>
        <time>2019-03-30T08:07:19Z</time>
      </trkpt>
      <trkpt lat="45.27659" lon="6.19908">
        <ele>1554</ele>
        <time>2019-03-30T08:07:24Z</time>
      </trkpt>
      <trkpt lat="45.27656" lon="6.19902">
        <ele>1554.8</ele>
        <time>2019-03-30T08:07:29Z</time>
      </trkpt>
      <trkpt lat="45.27654" lon="6.19898">
        <ele>1552</ele>
        <time>2019-03-30T08:07:34Z</time>
      </trkpt>
      <trkpt lat="45.27651" lon="6.19893">
        <ele>1554.8</ele>
        <time>2019-03-30T08:07:39Z</time>
      </trkpt>
      <trkpt lat="45.27648" lon="6.19889">
        <ele>1557.2</ele>
        <time>2019-03-30T08:07:44Z</time>
      </trkpt>
      <trkpt lat="45.27646" lon="6.19886">
        <ele>1554.8</ele>
        <time>2019-03-30T08:07:49Z</time>
      </trkpt>
      <trkpt lat="45.27644" lon="6.19883">
        <ele>1555</ele>
        <time>2019-03-30T08:07:54Z</time>
      </trkpt>
      <trkpt lat="45.27641" lon="6.19879">
        <ele>1557</ele>
        <time>2019-03-30T08:07:59Z</time>
      </trkpt>
      <trkpt lat="45.27636" lon="6.19874">
        <ele>1558.6</ele>
        <time>2019-03-30T08:08:04Z</time>
      </trkpt>
      <trkpt lat="45.27633" lon="6.1987">
        <ele>1557.2</ele>
        <time>2019-03-30T08:08:09Z</time>
      </trkpt>
      <trkpt lat="45.2763" lon="6.19866">
        <ele>1554.8</ele>
        <time>2019-03-30T08:08:14Z</time>
      </trkpt>
      <trkpt lat="45.27626" lon="6.19862">
        <ele>1556.6</ele>
        <time>2019-03-30T08:08:19Z</time>
      </trkpt>
      <trkpt lat="45.27624" lon="6.19859">
        <ele>1553.8</ele>
        <time>2019-03-30T08:08:24Z</time>
      </trkpt>
      <trkpt lat="45.27621" lon="6.19854">
        <ele>1559</ele>
        <time>2019-03-30T08:08:29Z</time>
      </trkpt>
      <trkpt lat="45.27619" lon="6.19849">
        <ele>1558</ele>
        <time>2019-03-30T08:08:34Z</time>
      </trkpt>
      <trkpt lat="45.27618" lon="6.19843">
        <ele>1555.2</ele>
        <time>2019-03-30T08:08:39Z</time>
      </trkpt>
      <trkpt lat="45.27617" lon="6.19839">
        <ele>1557.8</ele>
        <time>2019-03-30T08:08:44Z</time>
      </trkpt>
      <trkpt lat="45.27615" lon="6.19834">
        <ele>1555.8</ele>
        <time>2019-03-30T08:08:49Z</time>
      </trkpt>
      <trkpt lat="45.27613" lon="6.19829">
        <ele>1561.2</ele>
        <time>2019-03-30T08:08:54Z</time>
      </trkpt>
      <trkpt lat="45.27611" lon="6.19825">
        <ele>1562.4</ele>
        <time>2019-03-30T08:08:59Z</time>
      </trkpt>
      <trkpt lat="45.27609" lon="6.1982">
        <ele>1560.8</ele>
        <time>2019-03-30T08:09:04Z</time>
      </trkpt>
      <trkpt lat="45.27606" lon="6.19816">
        <ele>1559.4</ele>
        <time>2019-03-30T08:09:09Z</time>
      </trkpt>
      <trkpt lat="45.27603" lon="6.19812">
        <ele>1562.6</ele>
        <time>2019-03-30T08:09:14Z</time>
      </trkpt>
      <trkpt lat="45.27602" lon="6.19807">
        <ele>1561.4</ele>
        <time>2019-03-30T08:09:19Z</time>
      </trkpt>
      <trkpt lat="45.27601" lon="6.19802">
        <ele>1564.2</ele>
        <time>2019-03-30T08:09:24Z</time>
      </trkpt>
      <trkpt lat="45.276" lon="6.19797">
        <ele>1559.6</ele>
        <time>2019-03-30T08:09:29Z</time>
      </trkpt>
      <trkpt lat="45.27599" lon="6.19791">
        <ele>1563.2</ele>
        <time>2019-03-30T08:09:34Z</time>
      </trkpt>
      <trkpt lat="45.27596" lon="6.19787">
        <ele>1565.4</ele>
        <time>2019-03-30T08:09:39Z</time>
      </trkpt>
      <trkpt lat="45.27594" lon="6.19783">
        <ele>1562.6</ele>
        <time>2019-03-30T08:09:44Z</time>
      </trkpt>
      <trkpt lat="45.27591" lon="6.1978">
        <ele>1565.2</ele>
        <time>2019-03-30T08:09:49Z</time>
      </trkpt>
      <trkpt lat="45.27589" lon="6.19776">
        <ele>1566.6</ele>
        <time>2019-03-30T08:09:54Z</time>
      </trkpt>
      <trkpt lat="45.27587" lon="6.19772">
        <ele>1564.2</ele>
        <time>2019-03-30T08:09:59Z</time>
      </trkpt>
      <trkpt lat="45.27585" lon="6.19768">
        <ele>1563.8</ele>
        <time>2019-03-30T08:10:04Z</time>
      </trkpt>
      <trkpt lat="45.27582" lon="6.19764">
        <ele>1565.8</ele>
        <time>2019-03-30T08:10:09Z</time>
      </trkpt>
      <trkpt lat="45.27579" lon="6.19761">
        <ele>1566.4</ele>
        <time>2019-03-30T08:10:14Z</time>
      </trkpt>
      <trkpt lat="45.27577" lon="6.19758">
        <ele>1568</ele>
        <time>2019-03-30T08:10:20Z</time>
      </trkpt>
      <trkpt lat="45.27575" lon="6.19755">
        <ele>1568.2</ele>
        <time>2019-03-30T08:10:26Z</time>
      </trkpt>
      <trkpt lat="45.27573" lon="6.19751">
        <ele>1571</ele>
        <time>2019-03-30T08:10:31Z</time>
      </trkpt>
      <trkpt lat="45.2757" lon="6.19747">
        <ele>1569.4</ele>
        <time>2019-03-30T08:10:36Z</time>
      </trkpt>
      <trkpt lat="45.27567" lon="6.19742">
        <ele>1571.4</ele>
        <time>2019-03-30T08:10:41Z</time>
      </trkpt>
      <trkpt lat="45.27564" lon="6.19736">
        <ele>1573.4</ele>
        <time>2019-03-30T08:10:46Z</time>
      </trkpt>
      <trkpt lat="45.27561" lon="6.19733">
        <ele>1572.2</ele>
        <time>2019-03-30T08:10:51Z</time>
      </trkpt>
      <trkpt lat="45.27558" lon="6.19731">
        <ele>1573.2</ele>
        <time>2019-03-30T08:10:56Z</time>
      </trkpt>
      <trkpt lat="45.27555" lon="6.1973">
        <ele>1573.4</ele>
        <time>2019-03-30T08:11:01Z</time>
      </trkpt>
      <trkpt lat="45.27552" lon="6.19729">
        <ele>1576.6</ele>
        <time>2019-03-30T08:11:06Z</time>
      </trkpt>
      <trkpt lat="45.27549" lon="6.19728">
        <ele>1577.2</ele>
        <time>2019-03-30T08:11:11Z</time>
      </trkpt>
      <trkpt lat="45.27546" lon="6.19726">
        <ele>1578</ele>
        <time>2019-03-30T08:11:16Z</time>
      </trkpt>
      <trkpt lat="45.27543" lon="6.19725">
        <ele>1575.4</ele>
        <time>2019-03-30T08:11:21Z</time>
      </trkpt>
      <trkpt lat="45.2754" lon="6.19724">
        <ele>1576</ele>
        <time>2019-03-30T08:11:26Z</time>
      </trkpt>
      <trkpt lat="45.27537" lon="6.19721">
        <ele>1574.2</ele>
        <time>2019-03-30T08:11:31Z</time>
      </trkpt>
      <trkpt lat="45.27534" lon="6.19719">
        <ele>1575.4</ele>
        <time>2019-03-30T08:11:36Z</time>
      </trkpt>
      <trkpt lat="45.27531" lon="6.19717">
        <ele>1576.2</ele>
        <time>2019-03-30T08:11:41Z</time>
      </trkpt>
      <trkpt lat="45.27528" lon="6.19716">
        <ele>1579.8</ele>
        <time>2019-03-30T08:11:46Z</time>
      </trkpt>
      <trkpt lat="45.27526" lon="6.19715">
        <ele>1581.4</ele>
        <time>2019-03-30T08:11:51Z</time>
      </trkpt>
      <trkpt lat="45.27522" lon="6.19713">
        <ele>1580.8</ele>
        <time>2019-03-30T08:11:56Z</time>
      </trkpt>
      <trkpt lat="45.27519" lon="6.19711">
        <ele>1580.2</ele>
        <time>2019-03-30T08:12:01Z</time>
      </trkpt>
      <trkpt lat="45.27516" lon="6.1971">
        <ele>1581.8</ele>
        <time>2019-03-30T08:12:06Z</time>
      </trkpt>
      <trkpt lat="45.27513" lon="6.19709">
        <ele>1581.2</ele>
        <time>2019-03-30T08:12:11Z</time>
      </trkpt>
      <trkpt lat="45.27511" lon="6.19708">
        <ele>1582.4</ele>
        <time>2019-03-30T08:12:16Z</time>
      </trkpt>
      <trkpt lat="45.27507" lon="6.19707">
        <ele>1584.4</ele>
        <time>2019-03-30T08:12:21Z</time>
      </trkpt>
      <trkpt lat="45.27505" lon="6.19705">
        <ele>1583</ele>
        <time>2019-03-30T08:12:26Z</time>
      </trkpt>
      <trkpt lat="45.27503" lon="6.19704">
        <ele>1584.8</ele>
        <time>2019-03-30T08:12:31Z</time>
      </trkpt>
      <trkpt lat="45.27502" lon="6.19702">
        <ele>1585</ele>
        <time>2019-03-30T08:12:36Z</time>
      </trkpt>
      <trkpt lat="45.27503" lon="6.197">
        <ele>1586.6</ele>
        <time>2019-03-30T08:12:41Z</time>
      </trkpt>
      <trkpt lat="45.27504" lon="6.19698">
        <ele>1585.2</ele>
        <time>2019-03-30T08:12:46Z</time>
      </trkpt>
      <trkpt lat="45.27504" lon="6.19697">
        <ele>1586.4</ele>
        <time>2019-03-30T08:12:51Z</time>
      </trkpt>
      <trkpt lat="45.27503" lon="6.19695">
        <ele>1587.4</ele>
        <time>2019-03-30T08:12:56Z</time>
      </trkpt>
      <trkpt lat="45.27504" lon="6.19692">
        <ele>1588.6</ele>
        <time>2019-03-30T08:13:01Z</time>
      </trkpt>
      <trkpt lat="45.27504" lon="6.19689">
        <ele>1590.2</ele>
        <time>2019-03-30T08:13:06Z</time>
      </trkpt>
      <trkpt lat="45.27505" lon="6.19687">
        <ele>1591.4</ele>
        <time>2019-03-30T08:13:11Z</time>
      </trkpt>
      <trkpt lat="45.27505" lon="6.19686">
        <ele>1592.6</ele>
        <time>2019-03-30T08:13:16Z</time>
      </trkpt>
      <trkpt lat="45.27504" lon="6.19683">
        <ele>1593.4</ele>
        <time>2019-03-30T08:13:21Z</time>
      </trkpt>
      <trkpt lat="45.27502" lon="6.1968">
        <ele>1594.6</ele>
        <time>2019-03-30T08:13:26Z</time>
      </trkpt>
      <trkpt lat="45.27503" lon="6.19676">
        <ele>1595.8</ele>
        <time>2019-03-30T08:13:31Z</time>
      </trkpt>
      <trkpt lat="45.27505" lon="6.19674">
        <ele>1593.2</ele>
        <time>2019-03-30T08:13:36Z</time>
      </trkpt>
      <trkpt lat="45.27506" lon="6.19672">
        <ele>1595.4</ele>
        <time>2019-03-30T08:13:41Z</time>
      </trkpt>
      <trkpt lat="45.27507" lon="6.19669">
        <ele>1597.4</ele>
        <time>2019-03-30T08:13:46Z</time>
      </trkpt>
      <trkpt lat="45.27508" lon="6.19668">
        <ele>1599.2</ele>
        <time>2019-03-30T08:13:51Z</time>
      </trkpt>
      <trkpt lat="45.27505" lon="6.19665">
        <ele>1600.6</ele>
        <time>2019-03-30T08:13:56Z</time>
      </trkpt>
      <trkpt lat="45.27499" lon="6.19664">
        <ele>1603.6</ele>
        <time>2019-03-30T08:14:01Z</time>
      </trkpt>
      <trkpt lat="45.27493" lon="6.19662">
        <ele>1600.8</ele>
        <time>2019-03-30T08:14:06Z</time>
      </trkpt>
      <trkpt lat="45.2749" lon="6.1966">
        <ele>1601.2</ele>
        <time>2019-03-30T08:14:11Z</time>
      </trkpt>
      <trkpt lat="45.2749" lon="6.19657">
        <ele>1603.2</ele>
        <time>2019-03-30T08:14:16Z</time>
      </trkpt>
      <trkpt lat="45.27491" lon="6.19655">
        <ele>1602.8</ele>
        <time>2019-03-30T08:14:21Z</time>
      </trkpt>
      <trkpt lat="45.27493" lon="6.19653">
        <ele>1600.2</ele>
        <time>2019-03-30T08:14:26Z</time>
      </trkpt>
      <trkpt lat="45.27493" lon="6.19651">
        <ele>1600.4</ele>
        <time>2019-03-30T08:14:31Z</time>
      </trkpt>
      <trkpt lat="45.27493" lon="6.19651">
        <ele>1600.6</ele>
        <time>2019-03-30T08:14:36Z</time>
      </trkpt>
      <trkpt lat="45.27494" lon="6.1965">
        <ele>1599.8</ele>
        <time>2019-03-30T08:14:41Z</time>
      </trkpt>
      <trkpt lat="45.27491" lon="6.19649">
        <ele>1599.8</ele>
        <time>2019-03-30T08:14:46Z</time>
      </trkpt>
      <trkpt lat="45.27489" lon="6.19647">
        <ele>1599.6</ele>
        <time>2019-03-30T08:14:51Z</time>
      </trkpt>
      <trkpt lat="45.27488" lon="6.19644">
        <ele>1602.8</ele>
        <time>2019-03-30T08:14:56Z</time>
      </trkpt>
      <trkpt lat="45.27485" lon="6.19641">
        <ele>1606.4</ele>
        <time>2019-03-30T08:15:11Z</time>
      </trkpt>
      <trkpt lat="45.27485" lon="6.1964">
        <ele>1614.6</ele>
        <time>2019-03-30T08:17:42Z</time>
      </trkpt>
      <trkpt lat="45.27482" lon="6.19636">
        <ele>1612.6</ele>
        <time>2019-03-30T08:17:52Z</time>
      </trkpt>
      <trkpt lat="45.27478" lon="6.19634">
        <ele>1618.6</ele>
        <time>2019-03-30T08:17:57Z</time>
      </trkpt>
      <trkpt lat="45.27476" lon="6.19632">
        <ele>1617.6</ele>
        <time>2019-03-30T08:18:02Z</time>
      </trkpt>
      <trkpt lat="45.27473" lon="6.1963">
        <ele>1621.2</ele>
        <time>2019-03-30T08:18:07Z</time>
      </trkpt>
      <trkpt lat="45.27469" lon="6.19627">
        <ele>1619.8</ele>
        <time>2019-03-30T08:18:12Z</time>
      </trkpt>
      <trkpt lat="45.27466" lon="6.19626">
        <ele>1624.2</ele>
        <time>2019-03-30T08:18:17Z</time>
      </trkpt>
      <trkpt lat="45.27464" lon="6.19623">
        <ele>1621.6</ele>
        <time>2019-03-30T08:18:22Z</time>
      </trkpt>
      <trkpt lat="45.27462" lon="6.19619">
        <ele>1618</ele>
        <time>2019-03-30T08:18:27Z</time>
      </trkpt>
      <trkpt lat="45.27461" lon="6.19617">
        <ele>1616.4</ele>
        <time>2019-03-30T08:18:32Z</time>
      </trkpt>
      <trkpt lat="45.27461" lon="6.19612">
        <ele>1613</ele>
        <time>2019-03-30T08:18:37Z</time>
      </trkpt>
      <trkpt lat="45.27461" lon="6.19608">
        <ele>1613.2</ele>
        <time>2019-03-30T08:18:42Z</time>
      </trkpt>
      <trkpt lat="45.27461" lon="6.19604">
        <ele>1614.2</ele>
        <time>2019-03-30T08:18:47Z</time>
      </trkpt>
      <trkpt lat="45.27461" lon="6.196">
        <ele>1613.4</ele>
        <time>2019-03-30T08:18:52Z</time>
      </trkpt>
      <trkpt lat="45.27462" lon="6.19598">
        <ele>1616.6</ele>
        <time>2019-03-30T08:18:57Z</time>
      </trkpt>
      <trkpt lat="45.27463" lon="6.19594">
        <ele>1616</ele>
        <time>2019-03-30T08:19:02Z</time>
      </trkpt>
      <trkpt lat="45.27465" lon="6.19591">
        <ele>1615.6</ele>
        <time>2019-03-30T08:19:07Z</time>
      </trkpt>
      <trkpt lat="45.27468" lon="6.19588">
        <ele>1618.6</ele>
        <time>2019-03-30T08:19:12Z</time>
      </trkpt>
      <trkpt lat="45.2747" lon="6.19584">
        <ele>1616.6</ele>
        <time>2019-03-30T08:19:17Z</time>
      </trkpt>
      <trkpt lat="45.2747" lon="6.1958">
        <ele>1619</ele>
        <time>2019-03-30T08:19:22Z</time>
      </trkpt>
      <trkpt lat="45.27469" lon="6.19578">
        <ele>1620.4</ele>
        <time>2019-03-30T08:19:27Z</time>
      </trkpt>
      <trkpt lat="45.27469" lon="6.19574">
        <ele>1619.4</ele>
        <time>2019-03-30T08:19:32Z</time>
      </trkpt>
      <trkpt lat="45.2747" lon="6.1957">
        <ele>1620.6</ele>
        <time>2019-03-30T08:19:37Z</time>
      </trkpt>
      <trkpt lat="45.2747" lon="6.19566">
        <ele>1620.4</ele>
        <time>2019-03-30T08:19:42Z</time>
      </trkpt>
      <trkpt lat="45.27467" lon="6.19562">
        <ele>1624.4</ele>
        <time>2019-03-30T08:19:47Z</time>
      </trkpt>
      <trkpt lat="45.27464" lon="6.19559">
        <ele>1626</ele>
        <time>2019-03-30T08:19:52Z</time>
      </trkpt>
      <trkpt lat="45.27462" lon="6.19556">
        <ele>1628.8</ele>
        <time>2019-03-30T08:19:57Z</time>
      </trkpt>
      <trkpt lat="45.27459" lon="6.19553">
        <ele>1626.6</ele>
        <time>2019-03-30T08:20:02Z</time>
      </trkpt>
      <trkpt lat="45.27456" lon="6.19551">
        <ele>1628.2</ele>
        <time>2019-03-30T08:20:07Z</time>
      </trkpt>
      <trkpt lat="45.27455" lon="6.1955">
        <ele>1627</ele>
        <time>2019-03-30T08:20:12Z</time>
      </trkpt>
      <trkpt lat="45.27455" lon="6.19548">
        <ele>1627</ele>
        <time>2019-03-30T08:20:17Z</time>
      </trkpt>
      <trkpt lat="45.27455" lon="6.19546">
        <ele>1626.8</ele>
        <time>2019-03-30T08:20:22Z</time>
      </trkpt>
      <trkpt lat="45.27453" lon="6.19544">
        <ele>1628</ele>
        <time>2019-03-30T08:20:27Z</time>
      </trkpt>
      <trkpt lat="45.27451" lon="6.19544">
        <ele>1627.2</ele>
        <time>2019-03-30T08:20:32Z</time>
      </trkpt>
      <trkpt lat="45.2745" lon="6.19543">
        <ele>1626.8</ele>
        <time>2019-03-30T08:20:37Z</time>
      </trkpt>
      <trkpt lat="45.27449" lon="6.19541">
        <ele>1627.8</ele>
        <time>2019-03-30T08:20:42Z</time>
      </trkpt>
      <trkpt lat="45.27447" lon="6.19538">
        <ele>1629.2</ele>
        <time>2019-03-30T08:20:47Z</time>
      </trkpt>
      <trkpt lat="45.27444" lon="6.19536">
        <ele>1631.8</ele>
        <time>2019-03-30T08:20:52Z</time>
      </trkpt>
      <trkpt lat="45.2744" lon="6.19534">
        <ele>1631</ele>
        <time>2019-03-30T08:20:57Z</time>
      </trkpt>
      <trkpt lat="45.27437" lon="6.19532">
        <ele>1631.6</ele>
        <time>2019-03-30T08:21:02Z</time>
      </trkpt>
      <trkpt lat="45.27436" lon="6.19529">
        <ele>1632</ele>
        <time>2019-03-30T08:21:07Z</time>
      </trkpt>
      <trkpt lat="45.27435" lon="6.19527">
        <ele>1631.8</ele>
        <time>2019-03-30T08:21:12Z</time>
      </trkpt>
      <trkpt lat="45.27433" lon="6.19525">
        <ele>1634.8</ele>
        <time>2019-03-30T08:21:17Z</time>
      </trkpt>
      <trkpt lat="45.27431" lon="6.19523">
        <ele>1636</ele>
        <time>2019-03-30T08:21:22Z</time>
      </trkpt>
      <trkpt lat="45.27427" lon="6.19522">
        <ele>1637.6</ele>
        <time>2019-03-30T08:21:27Z</time>
      </trkpt>
      <trkpt lat="45.27424" lon="6.1952">
        <ele>1640.2</ele>
        <time>2019-03-30T08:21:32Z</time>
      </trkpt>
      <trkpt lat="45.2742" lon="6.19519">
        <ele>1639.8</ele>
        <time>2019-03-30T08:21:37Z</time>
      </trkpt>
      <trkpt lat="45.27421" lon="6.19516">
        <ele>1640</ele>
        <time>2019-03-30T08:21:42Z</time>
      </trkpt>
      <trkpt lat="45.27423" lon="6.19515">
        <ele>1639.6</ele>
        <time>2019-03-30T08:21:47Z</time>
      </trkpt>
      <trkpt lat="45.27424" lon="6.19515">
        <ele>1641</ele>
        <time>2019-03-30T08:21:52Z</time>
      </trkpt>
      <trkpt lat="45.27426" lon="6.19513">
        <ele>1639.4</ele>
        <time>2019-03-30T08:21:57Z</time>
      </trkpt>
      <trkpt lat="45.27426" lon="6.19512">
        <ele>1641.2</ele>
        <time>2019-03-30T08:22:02Z</time>
      </trkpt>
      <trkpt lat="45.27427" lon="6.19511">
        <ele>1642</ele>
        <time>2019-03-30T08:22:07Z</time>
      </trkpt>
      <trkpt lat="45.27426" lon="6.19509">
        <ele>1641.8</ele>
        <time>2019-03-30T08:22:12Z</time>
      </trkpt>
      <trkpt lat="45.27424" lon="6.19506">
        <ele>1642.4</ele>
        <time>2019-03-30T08:22:17Z</time>
      </trkpt>
      <trkpt lat="45.2742" lon="6.19503">
        <ele>1643.4</ele>
        <time>2019-03-30T08:22:22Z</time>
      </trkpt>
      <trkpt lat="45.27418" lon="6.19501">
        <ele>1645</ele>
        <time>2019-03-30T08:22:27Z</time>
      </trkpt>
      <trkpt lat="45.27415" lon="6.19498">
        <ele>1645.8</ele>
        <time>2019-03-30T08:22:32Z</time>
      </trkpt>
      <trkpt lat="45.27414" lon="6.19497">
        <ele>1648.6</ele>
        <time>2019-03-30T08:22:37Z</time>
      </trkpt>
      <trkpt lat="45.27414" lon="6.19494">
        <ele>1648.6</ele>
        <time>2019-03-30T08:22:42Z</time>
      </trkpt>
      <trkpt lat="45.27413" lon="6.19491">
        <ele>1649.6</ele>
        <time>2019-03-30T08:22:47Z</time>
      </trkpt>
      <trkpt lat="45.27412" lon="6.19486">
        <ele>1651.2</ele>
        <time>2019-03-30T08:22:52Z</time>
      </trkpt>
      <trkpt lat="45.27409" lon="6.19482">
        <ele>1654</ele>
        <time>2019-03-30T08:22:57Z</time>
      </trkpt>
      <trkpt lat="45.27406" lon="6.19479">
        <ele>1653.6</ele>
        <time>2019-03-30T08:23:02Z</time>
      </trkpt>
      <trkpt lat="45.27404" lon="6.19477">
        <ele>1651.8</ele>
        <time>2019-03-30T08:23:07Z</time>
      </trkpt>
      <trkpt lat="45.27403" lon="6.19475">
        <ele>1652.6</ele>
        <time>2019-03-30T08:23:12Z</time>
      </trkpt>
      <trkpt lat="45.27403" lon="6.19472">
        <ele>1652.4</ele>
        <time>2019-03-30T08:23:17Z</time>
      </trkpt>
      <trkpt lat="45.27403" lon="6.19467">
        <ele>1653.8</ele>
        <time>2019-03-30T08:23:22Z</time>
      </trkpt>
      <trkpt lat="45.27404" lon="6.19462">
        <ele>1651.8</ele>
        <time>2019-03-30T08:23:27Z</time>
      </trkpt>
      <trkpt lat="45.27403" lon="6.19459">
        <ele>1652.6</ele>
        <time>2019-03-30T08:23:32Z</time>
      </trkpt>
      <trkpt lat="45.27401" lon="6.19457">
        <ele>1652.2</ele>
        <time>2019-03-30T08:23:37Z</time>
      </trkpt>
      <trkpt lat="45.27399" lon="6.19453">
        <ele>1651.2</ele>
        <time>2019-03-30T08:23:42Z</time>
      </trkpt>
      <trkpt lat="45.27396" lon="6.19452">
        <ele>1652.6</ele>
        <time>2019-03-30T08:23:47Z</time>
      </trkpt>
      <trkpt lat="45.27395" lon="6.19449">
        <ele>1654.8</ele>
        <time>2019-03-30T08:23:52Z</time>
      </trkpt>
      <trkpt lat="45.27395" lon="6.19446">
        <ele>1657</ele>
        <time>2019-03-30T08:23:57Z</time>
      </trkpt>
      <trkpt lat="45.27395" lon="6.19442">
        <ele>1659.2</ele>
        <time>2019-03-30T08:24:02Z</time>
      </trkpt>
      <trkpt lat="45.27394" lon="6.19439">
        <ele>1660.8</ele>
        <time>2019-03-30T08:24:07Z</time>
      </trkpt>
      <trkpt lat="45.27395" lon="6.19436">
        <ele>1662.6</ele>
        <time>2019-03-30T08:24:12Z</time>
      </trkpt>
      <trkpt lat="45.27393" lon="6.19431">
        <ele>1667.4</ele>
        <time>2019-03-30T08:24:17Z</time>
      </trkpt>
      <trkpt lat="45.27391" lon="6.19427">
        <ele>1668.6</ele>
        <time>2019-03-30T08:24:22Z</time>
      </trkpt>
      <trkpt lat="45.27389" lon="6.19424">
        <ele>1669.2</ele>
        <time>2019-03-30T08:24:27Z</time>
      </trkpt>
      <trkpt lat="45.27386" lon="6.19422">
        <ele>1671.2</ele>
        <time>2019-03-30T08:24:32Z</time>
      </trkpt>
      <trkpt lat="45.27384" lon="6.1942">
        <ele>1672.6</ele>
        <time>2019-03-30T08:24:37Z</time>
      </trkpt>
      <trkpt lat="45.27383" lon="6.19418">
        <ele>1672</ele>
        <time>2019-03-30T08:24:42Z</time>
      </trkpt>
      <trkpt lat="45.27383" lon="6.19416">
        <ele>1672.2</ele>
        <time>2019-03-30T08:24:47Z</time>
      </trkpt>
      <trkpt lat="45.27381" lon="6.19413">
        <ele>1670.6</ele>
        <time>2019-03-30T08:24:52Z</time>
      </trkpt>
      <trkpt lat="45.2738" lon="6.19413">
        <ele>1670.2</ele>
        <time>2019-03-30T08:24:57Z</time>
      </trkpt>
      <trkpt lat="45.27379" lon="6.19413">
        <ele>1672.2</ele>
        <time>2019-03-30T08:25:02Z</time>
      </trkpt>
      <trkpt lat="45.27378" lon="6.19412">
        <ele>1670</ele>
        <time>2019-03-30T08:25:07Z</time>
      </trkpt>
      <trkpt lat="45.27377" lon="6.1941">
        <ele>1668.4</ele>
        <time>2019-03-30T08:25:12Z</time>
      </trkpt>
      <trkpt lat="45.27376" lon="6.19408">
        <ele>1669.2</ele>
        <time>2019-03-30T08:25:17Z</time>
      </trkpt>
      <trkpt lat="45.27374" lon="6.19407">
        <ele>1670.6</ele>
        <time>2019-03-30T08:25:22Z</time>
      </trkpt>
      <trkpt lat="45.27371" lon="6.19405">
        <ele>1672.4</ele>
        <time>2019-03-30T08:25:27Z</time>
      </trkpt>
      <trkpt lat="45.27369" lon="6.19404">
        <ele>1673.6</ele>
        <time>2019-03-30T08:25:32Z</time>
      </trkpt>
      <trkpt lat="45.27367" lon="6.19403">
        <ele>1674.4</ele>
        <time>2019-03-30T08:25:37Z</time>
      </trkpt>
      <trkpt lat="45.27366" lon="6.19402">
        <ele>1674.6</ele>
        <time>2019-03-30T08:25:42Z</time>
      </trkpt>
      <trkpt lat="45.27365" lon="6.19401">
        <ele>1675.6</ele>
        <time>2019-03-30T08:25:47Z</time>
      </trkpt>
      <trkpt lat="45.27364" lon="6.194">
        <ele>1677.4</ele>
        <time>2019-03-30T08:25:52Z</time>
      </trkpt>
      <trkpt lat="45.27361" lon="6.19399">
        <ele>1680.8</ele>
        <time>2019-03-30T08:25:57Z</time>
      </trkpt>
      <trkpt lat="45.27359" lon="6.19397">
        <ele>1681.2</ele>
        <time>2019-03-30T08:26:02Z</time>
      </trkpt>
      <trkpt lat="45.27357" lon="6.19394">
        <ele>1683.8</ele>
        <time>2019-03-30T08:26:07Z</time>
      </trkpt>
      <trkpt lat="45.27355" lon="6.1939">
        <ele>1683.4</ele>
        <time>2019-03-30T08:26:12Z</time>
      </trkpt>
      <trkpt lat="45.27353" lon="6.19389">
        <ele>1682.4</ele>
        <time>2019-03-30T08:26:17Z</time>
      </trkpt>
      <trkpt lat="45.27351" lon="6.19388">
        <ele>1684.2</ele>
        <time>2019-03-30T08:26:22Z</time>
      </trkpt>
      <trkpt lat="45.27349" lon="6.19386">
        <ele>1682</ele>
        <time>2019-03-30T08:26:27Z</time>
      </trkpt>
      <trkpt lat="45.27348" lon="6.19385">
        <ele>1684</ele>
        <time>2019-03-30T08:26:32Z</time>
      </trkpt>
      <trkpt lat="45.27346" lon="6.19384">
        <ele>1683.6</ele>
        <time>2019-03-30T08:26:37Z</time>
      </trkpt>
      <trkpt lat="45.27345" lon="6.19384">
        <ele>1685.6</ele>
        <time>2019-03-30T08:26:42Z</time>
      </trkpt>
      <trkpt lat="45.27345" lon="6.19384">
        <ele>1687</ele>
        <time>2019-03-30T08:26:47Z</time>
      </trkpt>
      <trkpt lat="45.27343" lon="6.19382">
        <ele>1687.4</ele>
        <time>2019-03-30T08:26:52Z</time>
      </trkpt>
      <trkpt lat="45.27341" lon="6.1938">
        <ele>1689.2</ele>
        <time>2019-03-30T08:26:57Z</time>
      </trkpt>
      <trkpt lat="45.27338" lon="6.1938">
        <ele>1689.4</ele>
        <time>2019-03-30T08:27:02Z</time>
      </trkpt>
      <trkpt lat="45.27334" lon="6.19378">
        <ele>1694.2</ele>
        <time>2019-03-30T08:27:07Z</time>
      </trkpt>
      <trkpt lat="45.27332" lon="6.19377">
        <ele>1693</ele>
        <time>2019-03-30T08:27:12Z</time>
      </trkpt>
      <trkpt lat="45.2733" lon="6.19374">
        <ele>1690.2</ele>
        <time>2019-03-30T08:27:17Z</time>
      </trkpt>
      <trkpt lat="45.27327" lon="6.19371">
        <ele>1688.4</ele>
        <time>2019-03-30T08:27:22Z</time>
      </trkpt>
      <trkpt lat="45.27325" lon="6.19369">
        <ele>1693.8</ele>
        <time>2019-03-30T08:27:27Z</time>
      </trkpt>
      <trkpt lat="45.27324" lon="6.19368">
        <ele>1696</ele>
        <time>2019-03-30T08:27:32Z</time>
      </trkpt>
      <trkpt lat="45.27322" lon="6.19364">
        <ele>1696.4</ele>
        <time>2019-03-30T08:27:37Z</time>
      </trkpt>
      <trkpt lat="45.2732" lon="6.19361">
        <ele>1702.8</ele>
        <time>2019-03-30T08:27:42Z</time>
      </trkpt>
      <trkpt lat="45.27318" lon="6.19358">
        <ele>1695</ele>
        <time>2019-03-30T08:27:47Z</time>
      </trkpt>
      <trkpt lat="45.27315" lon="6.19356">
        <ele>1699.2</ele>
        <time>2019-03-30T08:27:52Z</time>
      </trkpt>
      <trkpt lat="45.27312" lon="6.19352">
        <ele>1699.8</ele>
        <time>2019-03-30T08:27:57Z</time>
      </trkpt>
      <trkpt lat="45.27309" lon="6.19349">
        <ele>1700.4</ele>
        <time>2019-03-30T08:28:02Z</time>
      </trkpt>
      <trkpt lat="45.27309" lon="6.19347">
        <ele>1700.8</ele>
        <time>2019-03-30T08:28:07Z</time>
      </trkpt>
      <trkpt lat="45.27309" lon="6.19346">
        <ele>1702</ele>
        <time>2019-03-30T08:28:12Z</time>
      </trkpt>
      <trkpt lat="45.27307" lon="6.19343">
        <ele>1707.4</ele>
        <time>2019-03-30T08:29:02Z</time>
      </trkpt>
      <trkpt lat="45.27307" lon="6.19342">
        <ele>1706.2</ele>
        <time>2019-03-30T08:30:07Z</time>
      </trkpt>
      <trkpt lat="45.27309" lon="6.19343">
        <ele>1706.2</ele>
        <time>2019-03-30T08:30:17Z</time>
      </trkpt>
      <trkpt lat="45.2731" lon="6.19344">
        <ele>1706.2</ele>
        <time>2019-03-30T08:30:22Z</time>
      </trkpt>
      <trkpt lat="45.27312" lon="6.19344">
        <ele>1705.4</ele>
        <time>2019-03-30T08:30:27Z</time>
      </trkpt>
      <trkpt lat="45.27314" lon="6.19344">
        <ele>1707.8</ele>
        <time>2019-03-30T08:30:32Z</time>
      </trkpt>
      <trkpt lat="45.27318" lon="6.19344">
        <ele>1709.8</ele>
        <time>2019-03-30T08:30:37Z</time>
      </trkpt>
      <trkpt lat="45.27321" lon="6.19344">
        <ele>1707.4</ele>
        <time>2019-03-30T08:30:42Z</time>
      </trkpt>
      <trkpt lat="45.27322" lon="6.19343">
        <ele>1706.2</ele>
        <time>2019-03-30T08:30:47Z</time>
      </trkpt>
      <trkpt lat="45.27322" lon="6.19343">
        <ele>1705.4</ele>
        <time>2019-03-30T08:30:52Z</time>
      </trkpt>
      <trkpt lat="45.27322" lon="6.19343">
        <ele>1706.6</ele>
        <time>2019-03-30T08:30:57Z</time>
      </trkpt>
      <trkpt lat="45.27324" lon="6.19345">
        <ele>1705.4</ele>
        <time>2019-03-30T08:31:02Z</time>
      </trkpt>
      <trkpt lat="45.27325" lon="6.19347">
        <ele>1703</ele>
        <time>2019-03-30T08:31:07Z</time>
      </trkpt>
      <trkpt lat="45.27327" lon="6.19351">
        <ele>1701.4</ele>
        <time>2019-03-30T08:31:12Z</time>
      </trkpt>
      <trkpt lat="45.27329" lon="6.1935">
        <ele>1700.8</ele>
        <time>2019-03-30T08:31:17Z</time>
      </trkpt>
      <trkpt lat="45.27331" lon="6.19349">
        <ele>1700.2</ele>
        <time>2019-03-30T08:31:22Z</time>
      </trkpt>
      <trkpt lat="45.27333" lon="6.1935">
        <ele>1703</ele>
        <time>2019-03-30T08:31:27Z</time>
      </trkpt>
      <trkpt lat="45.27334" lon="6.19351">
        <ele>1702.2</ele>
        <time>2019-03-30T08:31:32Z</time>
      </trkpt>
      <trkpt lat="45.27336" lon="6.19352">
        <ele>1701.8</ele>
        <time>2019-03-30T08:31:37Z</time>
      </trkpt>
      <trkpt lat="45.2734" lon="6.1935">
        <ele>1702.6</ele>
        <time>2019-03-30T08:31:42Z</time>
      </trkpt>
      <trkpt lat="45.27341" lon="6.19349">
        <ele>1703.4</ele>
        <time>2019-03-30T08:31:48Z</time>
      </trkpt>
      <trkpt lat="45.27343" lon="6.19349">
        <ele>1704.2</ele>
        <time>2019-03-30T08:31:53Z</time>
      </trkpt>
      <trkpt lat="45.27345" lon="6.19348">
        <ele>1705</ele>
        <time>2019-03-30T08:31:58Z</time>
      </trkpt>
      <trkpt lat="45.27347" lon="6.19347">
        <ele>1703</ele>
        <time>2019-03-30T08:32:03Z</time>
      </trkpt>
      <trkpt lat="45.27349" lon="6.19348">
        <ele>1703.6</ele>
        <time>2019-03-30T08:32:08Z</time>
      </trkpt>
      <trkpt lat="45.27352" lon="6.19347">
        <ele>1704.6</ele>
        <time>2019-03-30T08:32:13Z</time>
      </trkpt>
      <trkpt lat="45.27355" lon="6.19345">
        <ele>1705.4</ele>
        <time>2019-03-30T08:32:18Z</time>
      </trkpt>
      <trkpt lat="45.27358" lon="6.19344">
        <ele>1706.8</ele>
        <time>2019-03-30T08:32:23Z</time>
      </trkpt>
      <trkpt lat="45.27361" lon="6.19342">
        <ele>1710.8</ele>
        <time>2019-03-30T08:32:28Z</time>
      </trkpt>
      <trkpt lat="45.27365" lon="6.19341">
        <ele>1706.2</ele>
        <time>2019-03-30T08:32:33Z</time>
      </trkpt>
      <trkpt lat="45.27366" lon="6.19339">
        <ele>1709.6</ele>
        <time>2019-03-30T08:32:38Z</time>
      </trkpt>
      <trkpt lat="45.27366" lon="6.19337">
        <ele>1710.4</ele>
        <time>2019-03-30T08:32:43Z</time>
      </trkpt>
      <trkpt lat="45.27366" lon="6.19334">
        <ele>1712</ele>
        <time>2019-03-30T08:32:48Z</time>
      </trkpt>
      <trkpt lat="45.27366" lon="6.1933">
        <ele>1712.8</ele>
        <time>2019-03-30T08:32:53Z</time>
      </trkpt>
      <trkpt lat="45.27366" lon="6.19327">
        <ele>1720.2</ele>
        <time>2019-03-30T08:32:58Z</time>
      </trkpt>
      <trkpt lat="45.27366" lon="6.19324">
        <ele>1717</ele>
        <time>2019-03-30T08:33:03Z</time>
      </trkpt>
      <trkpt lat="45.27366" lon="6.1932">
        <ele>1717.2</ele>
        <time>2019-03-30T08:33:08Z</time>
      </trkpt>
      <trkpt lat="45.27365" lon="6.19317">
        <ele>1718</ele>
        <time>2019-03-30T08:33:13Z</time>
      </trkpt>
      <trkpt lat="45.27363" lon="6.19315">
        <ele>1717.8</ele>
        <time>2019-03-30T08:33:18Z</time>
      </trkpt>
      <trkpt lat="45.27359" lon="6.19315">
        <ele>1718.2</ele>
        <time>2019-03-30T08:33:23Z</time>
      </trkpt>
      <trkpt lat="45.27357" lon="6.19314">
        <ele>1720.8</ele>
        <time>2019-03-30T08:33:28Z</time>
      </trkpt>
      <trkpt lat="45.27355" lon="6.19312">
        <ele>1719.6</ele>
        <time>2019-03-30T08:33:33Z</time>
      </trkpt>
      <trkpt lat="45.27353" lon="6.19311">
        <ele>1719.2</ele>
        <time>2019-03-30T08:33:38Z</time>
      </trkpt>
      <trkpt lat="45.27351" lon="6.19311">
        <ele>1718.6</ele>
        <time>2019-03-30T08:33:43Z</time>
      </trkpt>
      <trkpt lat="45.27348" lon="6.1931">
        <ele>1721.4</ele>
        <time>2019-03-30T08:33:48Z</time>
      </trkpt>
      <trkpt lat="45.27345" lon="6.19309">
        <ele>1722.8</ele>
        <time>2019-03-30T08:33:53Z</time>
      </trkpt>
      <trkpt lat="45.27343" lon="6.19307">
        <ele>1720.2</ele>
        <time>2019-03-30T08:33:58Z</time>
      </trkpt>
      <trkpt lat="45.27342" lon="6.19305">
        <ele>1724.2</ele>
        <time>2019-03-30T08:34:03Z</time>
      </trkpt>
      <trkpt lat="45.27342" lon="6.19301">
        <ele>1723.8</ele>
        <time>2019-03-30T08:34:08Z</time>
      </trkpt>
      <trkpt lat="45.27342" lon="6.193">
        <ele>1724.4</ele>
        <time>2019-03-30T08:34:13Z</time>
      </trkpt>
      <trkpt lat="45.2734" lon="6.19298">
        <ele>1726.6</ele>
        <time>2019-03-30T08:34:18Z</time>
      </trkpt>
      <trkpt lat="45.27339" lon="6.19295">
        <ele>1728</ele>
        <time>2019-03-30T08:34:23Z</time>
      </trkpt>
      <trkpt lat="45.27339" lon="6.1929">
        <ele>1729.2</ele>
        <time>2019-03-30T08:34:28Z</time>
      </trkpt>
      <trkpt lat="45.27339" lon="6.19287">
        <ele>1729.8</ele>
        <time>2019-03-30T08:34:33Z</time>
      </trkpt>
      <trkpt lat="45.27339" lon="6.19284">
        <ele>1729</ele>
        <time>2019-03-30T08:34:38Z</time>
      </trkpt>
      <trkpt lat="45.27338" lon="6.19281">
        <ele>1728.6</ele>
        <time>2019-03-30T08:34:43Z</time>
      </trkpt>
      <trkpt lat="45.27338" lon="6.19278">
        <ele>1730.2</ele>
        <time>2019-03-30T08:34:48Z</time>
      </trkpt>
      <trkpt lat="45.27338" lon="6.19275">
        <ele>1730.4</ele>
        <time>2019-03-30T08:34:53Z</time>
      </trkpt>
      <trkpt lat="45.27338" lon="6.19272">
        <ele>1731</ele>
        <time>2019-03-30T08:34:58Z</time>
      </trkpt>
      <trkpt lat="45.27337" lon="6.19268">
        <ele>1731.2</ele>
        <time>2019-03-30T08:35:03Z</time>
      </trkpt>
      <trkpt lat="45.27338" lon="6.19265">
        <ele>1732.4</ele>
        <time>2019-03-30T08:35:08Z</time>
      </trkpt>
      <trkpt lat="45.27338" lon="6.19262">
        <ele>1731.8</ele>
        <time>2019-03-30T08:35:13Z</time>
      </trkpt>
      <trkpt lat="45.27338" lon="6.19259">
        <ele>1733.2</ele>
        <time>2019-03-30T08:35:18Z</time>
      </trkpt>
      <trkpt lat="45.27336" lon="6.19255">
        <ele>1735.4</ele>
        <time>2019-03-30T08:35:23Z</time>
      </trkpt>
      <trkpt lat="45.27337" lon="6.19252">
        <ele>1736</ele>
        <time>2019-03-30T08:35:28Z</time>
      </trkpt>
      <trkpt lat="45.27338" lon="6.1925">
        <ele>1733.6</ele>
        <time>2019-03-30T08:35:33Z</time>
      </trkpt>
      <trkpt lat="45.27338" lon="6.19247">
        <ele>1736.2</ele>
        <time>2019-03-30T08:35:38Z</time>
      </trkpt>
      <trkpt lat="45.27337" lon="6.19244">
        <ele>1737</ele>
        <time>2019-03-30T08:35:43Z</time>
      </trkpt>
      <trkpt lat="45.27335" lon="6.19242">
        <ele>1738.4</ele>
        <time>2019-03-30T08:35:48Z</time>
      </trkpt>
      <trkpt lat="45.27333" lon="6.1924">
        <ele>1738</ele>
        <time>2019-03-30T08:35:53Z</time>
      </trkpt>
      <trkpt lat="45.27331" lon="6.19236">
        <ele>1739.8</ele>
        <time>2019-03-30T08:35:58Z</time>
      </trkpt>
      <trkpt lat="45.27329" lon="6.19233">
        <ele>1739.8</ele>
        <time>2019-03-30T08:36:03Z</time>
      </trkpt>
      <trkpt lat="45.27328" lon="6.1923">
        <ele>1740</ele>
        <time>2019-03-30T08:36:08Z</time>
      </trkpt>
      <trkpt lat="45.27327" lon="6.19226">
        <ele>1742.2</ele>
        <time>2019-03-30T08:36:13Z</time>
      </trkpt>
      <trkpt lat="45.27326" lon="6.19223">
        <ele>1745.8</ele>
        <time>2019-03-30T08:36:18Z</time>
      </trkpt>
      <trkpt lat="45.27323" lon="6.1922">
        <ele>1747.4</ele>
        <time>2019-03-30T08:36:23Z</time>
      </trkpt>
      <trkpt lat="45.27322" lon="6.19218">
        <ele>1745</ele>
        <time>2019-03-30T08:36:28Z</time>
      </trkpt>
      <trkpt lat="45.2732" lon="6.19215">
        <ele>1743.4</ele>
        <time>2019-03-30T08:36:33Z</time>
      </trkpt>
      <trkpt lat="45.27318" lon="6.19212">
        <ele>1745</ele>
        <time>2019-03-30T08:36:38Z</time>
      </trkpt>
      <trkpt lat="45.27317" lon="6.1921">
        <ele>1745</ele>
        <time>2019-03-30T08:36:43Z</time>
      </trkpt>
      <trkpt lat="45.27315" lon="6.19208">
        <ele>1749</ele>
        <time>2019-03-30T08:36:48Z</time>
      </trkpt>
      <trkpt lat="45.27314" lon="6.19206">
        <ele>1747.4</ele>
        <time>2019-03-30T08:36:53Z</time>
      </trkpt>
      <trkpt lat="45.27312" lon="6.19203">
        <ele>1745.8</ele>
        <time>2019-03-30T08:36:58Z</time>
      </trkpt>
      <trkpt lat="45.2731" lon="6.19201">
        <ele>1749</ele>
        <time>2019-03-30T08:37:03Z</time>
      </trkpt>
      <trkpt lat="45.27309" lon="6.19198">
        <ele>1748.8</ele>
        <time>2019-03-30T08:37:08Z</time>
      </trkpt>
      <trkpt lat="45.27307" lon="6.19196">
        <ele>1750.4</ele>
        <time>2019-03-30T08:37:13Z</time>
      </trkpt>
      <trkpt lat="45.27305" lon="6.19193">
        <ele>1750.6</ele>
        <time>2019-03-30T08:37:18Z</time>
      </trkpt>
      <trkpt lat="45.27304" lon="6.19191">
        <ele>1750.8</ele>
        <time>2019-03-30T08:37:23Z</time>
      </trkpt>
      <trkpt lat="45.27303" lon="6.19188">
        <ele>1748.6</ele>
        <time>2019-03-30T08:37:28Z</time>
      </trkpt>
      <trkpt lat="45.27301" lon="6.19186">
        <ele>1753.6</ele>
        <time>2019-03-30T08:37:33Z</time>
      </trkpt>
      <trkpt lat="45.27299" lon="6.19184">
        <ele>1754.6</ele>
        <time>2019-03-30T08:37:38Z</time>
      </trkpt>
      <trkpt lat="45.27298" lon="6.19181">
        <ele>1754.8</ele>
        <time>2019-03-30T08:37:43Z</time>
      </trkpt>
      <trkpt lat="45.27296" lon="6.19179">
        <ele>1754.6</ele>
        <time>2019-03-30T08:37:48Z</time>
      </trkpt>
      <trkpt lat="45.27294" lon="6.19176">
        <ele>1756.8</ele>
        <time>2019-03-30T08:37:53Z</time>
      </trkpt>
      <trkpt lat="45.27293" lon="6.19174">
        <ele>1756.2</ele>
        <time>2019-03-30T08:37:58Z</time>
      </trkpt>
      <trkpt lat="45.27291" lon="6.19172">
        <ele>1755</ele>
        <time>2019-03-30T08:38:03Z</time>
      </trkpt>
      <trkpt lat="45.2729" lon="6.1917">
        <ele>1759.4</ele>
        <time>2019-03-30T08:38:08Z</time>
      </trkpt>
      <trkpt lat="45.27288" lon="6.19167">
        <ele>1762.8</ele>
        <time>2019-03-30T08:38:13Z</time>
      </trkpt>
      <trkpt lat="45.27286" lon="6.19165">
        <ele>1762.4</ele>
        <time>2019-03-30T08:38:18Z</time>
      </trkpt>
      <trkpt lat="45.27285" lon="6.19162">
        <ele>1763.8</ele>
        <time>2019-03-30T08:38:23Z</time>
      </trkpt>
      <trkpt lat="45.27283" lon="6.1916">
        <ele>1760.8</ele>
        <time>2019-03-30T08:38:28Z</time>
      </trkpt>
      <trkpt lat="45.27282" lon="6.19158">
        <ele>1763.2</ele>
        <time>2019-03-30T08:38:33Z</time>
      </trkpt>
      <trkpt lat="45.2728" lon="6.19155">
        <ele>1760.8</ele>
        <time>2019-03-30T08:38:38Z</time>
      </trkpt>
      <trkpt lat="45.27278" lon="6.19152">
        <ele>1762.8</ele>
        <time>2019-03-30T08:38:43Z</time>
      </trkpt>
      <trkpt lat="45.27276" lon="6.1915">
        <ele>1763.4</ele>
        <time>2019-03-30T08:38:48Z</time>
      </trkpt>
      <trkpt lat="45.27275" lon="6.19147">
        <ele>1762.6</ele>
        <time>2019-03-30T08:38:53Z</time>
      </trkpt>
      <trkpt lat="45.27273" lon="6.19145">
        <ele>1761.8</ele>
        <time>2019-03-30T08:38:58Z</time>
      </trkpt>
      <trkpt lat="45.27272" lon="6.19143">
        <ele>1761.4</ele>
        <time>2019-03-30T08:39:03Z</time>
      </trkpt>
      <trkpt lat="45.2727" lon="6.1914">
        <ele>1763.2</ele>
        <time>2019-03-30T08:39:08Z</time>
      </trkpt>
      <trkpt lat="45.27269" lon="6.19138">
        <ele>1765</ele>
        <time>2019-03-30T08:39:13Z</time>
      </trkpt>
      <trkpt lat="45.27267" lon="6.19135">
        <ele>1762.6</ele>
        <time>2019-03-30T08:39:18Z</time>
      </trkpt>
      <trkpt lat="45.27266" lon="6.19132">
        <ele>1764.8</ele>
        <time>2019-03-30T08:39:23Z</time>
      </trkpt>
      <trkpt lat="45.27264" lon="6.19129">
        <ele>1766.2</ele>
        <time>2019-03-30T08:39:28Z</time>
      </trkpt>
      <trkpt lat="45.27262" lon="6.19126">
        <ele>1768.6</ele>
        <time>2019-03-30T08:39:33Z</time>
      </trkpt>
      <trkpt lat="45.27261" lon="6.19124">
        <ele>1768</ele>
        <time>2019-03-30T08:39:38Z</time>
      </trkpt>
      <trkpt lat="45.27259" lon="6.19121">
        <ele>1770</ele>
        <time>2019-03-30T08:39:43Z</time>
      </trkpt>
      <trkpt lat="45.27257" lon="6.19119">
        <ele>1769.4</ele>
        <time>2019-03-30T08:39:48Z</time>
      </trkpt>
      <trkpt lat="45.27255" lon="6.19117">
        <ele>1770.6</ele>
        <time>2019-03-30T08:39:53Z</time>
      </trkpt>
      <trkpt lat="45.27253" lon="6.19115">
        <ele>1776</ele>
        <time>2019-03-30T08:39:58Z</time>
      </trkpt>
      <trkpt lat="45.27251" lon="6.19112">
        <ele>1772.4</ele>
        <time>2019-03-30T08:40:03Z</time>
      </trkpt>
      <trkpt lat="45.2725" lon="6.1911">
        <ele>1772.8</ele>
        <time>2019-03-30T08:40:08Z</time>
      </trkpt>
      <trkpt lat="45.27248" lon="6.19107">
        <ele>1773.4</ele>
        <time>2019-03-30T08:40:13Z</time>
      </trkpt>
      <trkpt lat="45.27246" lon="6.19105">
        <ele>1773.4</ele>
        <time>2019-03-30T08:40:18Z</time>
      </trkpt>
      <trkpt lat="45.27244" lon="6.19102">
        <ele>1775.4</ele>
        <time>2019-03-30T08:40:23Z</time>
      </trkpt>
      <trkpt lat="45.27242" lon="6.191">
        <ele>1777.8</ele>
        <time>2019-03-30T08:40:28Z</time>
      </trkpt>
      <trkpt lat="45.27241" lon="6.19097">
        <ele>1776.2</ele>
        <time>2019-03-30T08:40:33Z</time>
      </trkpt>
      <trkpt lat="45.27239" lon="6.19095">
        <ele>1779.8</ele>
        <time>2019-03-30T08:40:38Z</time>
      </trkpt>
      <trkpt lat="45.27238" lon="6.19093">
        <ele>1779</ele>
        <time>2019-03-30T08:40:43Z</time>
      </trkpt>
      <trkpt lat="45.27237" lon="6.19091">
        <ele>1779.8</ele>
        <time>2019-03-30T08:40:48Z</time>
      </trkpt>
      <trkpt lat="45.27235" lon="6.19089">
        <ele>1780.8</ele>
        <time>2019-03-30T08:40:53Z</time>
      </trkpt>
      <trkpt lat="45.27233" lon="6.19087">
        <ele>1784.2</ele>
        <time>2019-03-30T08:40:58Z</time>
      </trkpt>
      <trkpt lat="45.27231" lon="6.19085">
        <ele>1782.2</ele>
        <time>2019-03-30T08:41:03Z</time>
      </trkpt>
      <trkpt lat="45.27228" lon="6.19084">
        <ele>1779.6</ele>
        <time>2019-03-30T08:41:08Z</time>
      </trkpt>
      <trkpt lat="45.27226" lon="6.19083">
        <ele>1782.8</ele>
        <time>2019-03-30T08:41:13Z</time>
      </trkpt>
      <trkpt lat="45.27224" lon="6.19081">
        <ele>1781.4</ele>
        <time>2019-03-30T08:41:18Z</time>
      </trkpt>
      <trkpt lat="45.27222" lon="6.19081">
        <ele>1782.4</ele>
        <time>2019-03-30T08:41:23Z</time>
      </trkpt>
      <trkpt lat="45.27219" lon="6.19081">
        <ele>1783.6</ele>
        <time>2019-03-30T08:41:28Z</time>
      </trkpt>
      <trkpt lat="45.27217" lon="6.19081">
        <ele>1780.6</ele>
        <time>2019-03-30T08:41:33Z</time>
      </trkpt>
      <trkpt lat="45.27214" lon="6.1908">
        <ele>1783.6</ele>
        <time>2019-03-30T08:41:38Z</time>
      </trkpt>
      <trkpt lat="45.27213" lon="6.1908">
        <ele>1785.8</ele>
        <time>2019-03-30T08:41:43Z</time>
      </trkpt>
      <trkpt lat="45.2721" lon="6.19079">
        <ele>1785.2</ele>
        <time>2019-03-30T08:41:48Z</time>
      </trkpt>
      <trkpt lat="45.27208" lon="6.19078">
        <ele>1782.4</ele>
        <time>2019-03-30T08:41:53Z</time>
      </trkpt>
      <trkpt lat="45.27207" lon="6.19077">
        <ele>1783.2</ele>
        <time>2019-03-30T08:41:58Z</time>
      </trkpt>
      <trkpt lat="45.27206" lon="6.19077">
        <ele>1784.2</ele>
        <time>2019-03-30T08:45:44Z</time>
      </trkpt>
      <trkpt lat="45.27206" lon="6.19076">
        <ele>1783</ele>
        <time>2019-03-30T08:47:54Z</time>
      </trkpt>
      <trkpt lat="45.27206" lon="6.19075">
        <ele>1781.6</ele>
        <time>2019-03-30T08:47:59Z</time>
      </trkpt>
      <trkpt lat="45.27205" lon="6.19072">
        <ele>1779.4</ele>
        <time>2019-03-30T08:48:04Z</time>
      </trkpt>
      <trkpt lat="45.27205" lon="6.19068">
        <ele>1781.8</ele>
        <time>2019-03-30T08:48:09Z</time>
      </trkpt>
      <trkpt lat="45.27203" lon="6.19064">
        <ele>1782.6</ele>
        <time>2019-03-30T08:48:14Z</time>
      </trkpt>
      <trkpt lat="45.27202" lon="6.1906">
        <ele>1783.4</ele>
        <time>2019-03-30T08:48:19Z</time>
      </trkpt>
      <trkpt lat="45.27201" lon="6.19057">
        <ele>1787</ele>
        <time>2019-03-30T08:48:24Z</time>
      </trkpt>
      <trkpt lat="45.272" lon="6.19053">
        <ele>1783.4</ele>
        <time>2019-03-30T08:48:29Z</time>
      </trkpt>
      <trkpt lat="45.27198" lon="6.19049">
        <ele>1786.2</ele>
        <time>2019-03-30T08:48:34Z</time>
      </trkpt>
      <trkpt lat="45.27197" lon="6.19046">
        <ele>1785.6</ele>
        <time>2019-03-30T08:48:39Z</time>
      </trkpt>
      <trkpt lat="45.27195" lon="6.19043">
        <ele>1788.8</ele>
        <time>2019-03-30T08:48:44Z</time>
      </trkpt>
      <trkpt lat="45.27194" lon="6.19039">
        <ele>1790.6</ele>
        <time>2019-03-30T08:48:49Z</time>
      </trkpt>
      <trkpt lat="45.27193" lon="6.19036">
        <ele>1792.4</ele>
        <time>2019-03-30T08:48:54Z</time>
      </trkpt>
      <trkpt lat="45.27192" lon="6.19032">
        <ele>1792.8</ele>
        <time>2019-03-30T08:48:59Z</time>
      </trkpt>
      <trkpt lat="45.27191" lon="6.19029">
        <ele>1790.6</ele>
        <time>2019-03-30T08:49:04Z</time>
      </trkpt>
      <trkpt lat="45.2719" lon="6.19026">
        <ele>1791.6</ele>
        <time>2019-03-30T08:49:09Z</time>
      </trkpt>
      <trkpt lat="45.27189" lon="6.19023">
        <ele>1794</ele>
        <time>2019-03-30T08:49:14Z</time>
      </trkpt>
      <trkpt lat="45.27188" lon="6.1902">
        <ele>1793.2</ele>
        <time>2019-03-30T08:49:19Z</time>
      </trkpt>
      <trkpt lat="45.27187" lon="6.19017">
        <ele>1793.8</ele>
        <time>2019-03-30T08:49:24Z</time>
      </trkpt>
      <trkpt lat="45.27186" lon="6.19013">
        <ele>1793.4</ele>
        <time>2019-03-30T08:49:29Z</time>
      </trkpt>
      <trkpt lat="45.27185" lon="6.1901">
        <ele>1795.4</ele>
        <time>2019-03-30T08:49:34Z</time>
      </trkpt>
      <trkpt lat="45.27184" lon="6.19006">
        <ele>1796.4</ele>
        <time>2019-03-30T08:49:39Z</time>
      </trkpt>
      <trkpt lat="45.27183" lon="6.19003">
        <ele>1797.6</ele>
        <time>2019-03-30T08:49:44Z</time>
      </trkpt>
      <trkpt lat="45.27182" lon="6.18999">
        <ele>1800.8</ele>
        <time>2019-03-30T08:49:50Z</time>
      </trkpt>
      <trkpt lat="45.27181" lon="6.18995">
        <ele>1799.4</ele>
        <time>2019-03-30T08:49:55Z</time>
      </trkpt>
      <trkpt lat="45.2718" lon="6.18991">
        <ele>1799</ele>
        <time>2019-03-30T08:50:00Z</time>
      </trkpt>
      <trkpt lat="45.27178" lon="6.18988">
        <ele>1798.6</ele>
        <time>2019-03-30T08:50:05Z</time>
      </trkpt>
      <trkpt lat="45.27177" lon="6.18985">
        <ele>1800.6</ele>
        <time>2019-03-30T08:50:10Z</time>
      </trkpt>
      <trkpt lat="45.27177" lon="6.18982">
        <ele>1801.6</ele>
        <time>2019-03-30T08:50:15Z</time>
      </trkpt>
      <trkpt lat="45.27176" lon="6.18979">
        <ele>1802.2</ele>
        <time>2019-03-30T08:50:20Z</time>
      </trkpt>
      <trkpt lat="45.27175" lon="6.18976">
        <ele>1800.6</ele>
        <time>2019-03-30T08:50:25Z</time>
      </trkpt>
      <trkpt lat="45.27174" lon="6.18973">
        <ele>1799.8</ele>
        <time>2019-03-30T08:50:30Z</time>
      </trkpt>
      <trkpt lat="45.27173" lon="6.1897">
        <ele>1805.2</ele>
        <time>2019-03-30T08:50:35Z</time>
      </trkpt>
      <trkpt lat="45.27172" lon="6.18967">
        <ele>1806.4</ele>
        <time>2019-03-30T08:50:40Z</time>
      </trkpt>
      <trkpt lat="45.27171" lon="6.18965">
        <ele>1805.4</ele>
        <time>2019-03-30T08:50:45Z</time>
      </trkpt>
      <trkpt lat="45.27171" lon="6.18962">
        <ele>1806</ele>
        <time>2019-03-30T08:50:50Z</time>
      </trkpt>
      <trkpt lat="45.2717" lon="6.18958">
        <ele>1806.6</ele>
        <time>2019-03-30T08:50:55Z</time>
      </trkpt>
      <trkpt lat="45.2717" lon="6.18955">
        <ele>1809.2</ele>
        <time>2019-03-30T08:51:00Z</time>
      </trkpt>
      <trkpt lat="45.2717" lon="6.18952">
        <ele>1812.4</ele>
        <time>2019-03-30T08:51:05Z</time>
      </trkpt>
      <trkpt lat="45.2717" lon="6.18949">
        <ele>1810.8</ele>
        <time>2019-03-30T08:51:10Z</time>
      </trkpt>
      <trkpt lat="45.2717" lon="6.18946">
        <ele>1815</ele>
        <time>2019-03-30T08:51:15Z</time>
      </trkpt>
      <trkpt lat="45.2717" lon="6.18943">
        <ele>1811.2</ele>
        <time>2019-03-30T08:51:20Z</time>
      </trkpt>
      <trkpt lat="45.27169" lon="6.18939">
        <ele>1812</ele>
        <time>2019-03-30T08:51:25Z</time>
      </trkpt>
      <trkpt lat="45.27169" lon="6.18936">
        <ele>1814</ele>
        <time>2019-03-30T08:51:30Z</time>
      </trkpt>
      <trkpt lat="45.27169" lon="6.18932">
        <ele>1814.2</ele>
        <time>2019-03-30T08:51:35Z</time>
      </trkpt>
      <trkpt lat="45.27167" lon="6.18929">
        <ele>1812.6</ele>
        <time>2019-03-30T08:51:40Z</time>
      </trkpt>
      <trkpt lat="45.27166" lon="6.18926">
        <ele>1812.2</ele>
        <time>2019-03-30T08:51:45Z</time>
      </trkpt>
      <trkpt lat="45.27165" lon="6.18923">
        <ele>1814</ele>
        <time>2019-03-30T08:51:50Z</time>
      </trkpt>
      <trkpt lat="45.27163" lon="6.1892">
        <ele>1815.2</ele>
        <time>2019-03-30T08:51:55Z</time>
      </trkpt>
      <trkpt lat="45.27162" lon="6.18918">
        <ele>1818.8</ele>
        <time>2019-03-30T08:52:00Z</time>
      </trkpt>
      <trkpt lat="45.2716" lon="6.18915">
        <ele>1817.6</ele>
        <time>2019-03-30T08:52:05Z</time>
      </trkpt>
      <trkpt lat="45.27159" lon="6.18912">
        <ele>1816.8</ele>
        <time>2019-03-30T08:52:10Z</time>
      </trkpt>
      <trkpt lat="45.27157" lon="6.18909">
        <ele>1819.6</ele>
        <time>2019-03-30T08:52:15Z</time>
      </trkpt>
      <trkpt lat="45.27155" lon="6.18907">
        <ele>1820</ele>
        <time>2019-03-30T08:52:20Z</time>
      </trkpt>
      <trkpt lat="45.27154" lon="6.18904">
        <ele>1821.6</ele>
        <time>2019-03-30T08:52:25Z</time>
      </trkpt>
      <trkpt lat="45.27153" lon="6.18902">
        <ele>1820.2</ele>
        <time>2019-03-30T08:52:30Z</time>
      </trkpt>
      <trkpt lat="45.27153" lon="6.18902">
        <ele>1820</ele>
        <time>2019-03-30T08:52:35Z</time>
      </trkpt>
      <trkpt lat="45.27151" lon="6.18899">
        <ele>1818.4</ele>
        <time>2019-03-30T08:52:40Z</time>
      </trkpt>
      <trkpt lat="45.27149" lon="6.18895">
        <ele>1820</ele>
        <time>2019-03-30T08:52:45Z</time>
      </trkpt>
      <trkpt lat="45.27148" lon="6.18891">
        <ele>1822.8</ele>
        <time>2019-03-30T08:52:50Z</time>
      </trkpt>
      <trkpt lat="45.27146" lon="6.18886">
        <ele>1823.6</ele>
        <time>2019-03-30T08:52:55Z</time>
      </trkpt>
      <trkpt lat="45.27144" lon="6.18882">
        <ele>1825</ele>
        <time>2019-03-30T08:53:00Z</time>
      </trkpt>
      <trkpt lat="45.27142" lon="6.18877">
        <ele>1825.4</ele>
        <time>2019-03-30T08:53:05Z</time>
      </trkpt>
      <trkpt lat="45.27141" lon="6.18873">
        <ele>1824.2</ele>
        <time>2019-03-30T08:53:10Z</time>
      </trkpt>
      <trkpt lat="45.2714" lon="6.18868">
        <ele>1826.2</ele>
        <time>2019-03-30T08:53:15Z</time>
      </trkpt>
      <trkpt lat="45.27138" lon="6.18863">
        <ele>1825.2</ele>
        <time>2019-03-30T08:53:20Z</time>
      </trkpt>
      <trkpt lat="45.27137" lon="6.18859">
        <ele>1825</ele>
        <time>2019-03-30T08:53:25Z</time>
      </trkpt>
      <trkpt lat="45.27136" lon="6.18855">
        <ele>1824.4</ele>
        <time>2019-03-30T08:53:30Z</time>
      </trkpt>
      <trkpt lat="45.27136" lon="6.1885">
        <ele>1824.4</ele>
        <time>2019-03-30T08:53:35Z</time>
      </trkpt>
      <trkpt lat="45.27135" lon="6.18845">
        <ele>1824.4</ele>
        <time>2019-03-30T08:53:40Z</time>
      </trkpt>
      <trkpt lat="45.27135" lon="6.1884">
        <ele>1826.6</ele>
        <time>2019-03-30T08:53:45Z</time>
      </trkpt>
      <trkpt lat="45.27134" lon="6.18835">
        <ele>1825.4</ele>
        <time>2019-03-30T08:53:50Z</time>
      </trkpt>
      <trkpt lat="45.27132" lon="6.18829">
        <ele>1824.6</ele>
        <time>2019-03-30T08:53:55Z</time>
      </trkpt>
      <trkpt lat="45.27131" lon="6.18824">
        <ele>1825.2</ele>
        <time>2019-03-30T08:54:00Z</time>
      </trkpt>
      <trkpt lat="45.27129" lon="6.18819">
        <ele>1826.6</ele>
        <time>2019-03-30T08:54:05Z</time>
      </trkpt>
      <trkpt lat="45.27127" lon="6.18814">
        <ele>1825.2</ele>
        <time>2019-03-30T08:54:10Z</time>
      </trkpt>
      <trkpt lat="45.27121" lon="6.18808">
        <ele>1823.8</ele>
        <time>2019-03-30T08:54:15Z</time>
      </trkpt>
      <trkpt lat="45.27114" lon="6.18803">
        <ele>1822.6</ele>
        <time>2019-03-30T08:54:20Z</time>
      </trkpt>
      <trkpt lat="45.2711" lon="6.18801">
        <ele>1824.4</ele>
        <time>2019-03-30T08:54:25Z</time>
      </trkpt>
      <trkpt lat="45.27108" lon="6.18799">
        <ele>1823.4</ele>
        <time>2019-03-30T08:54:30Z</time>
      </trkpt>
      <trkpt lat="45.27103" lon="6.18796">
        <ele>1822.4</ele>
        <time>2019-03-30T08:54:35Z</time>
      </trkpt>
      <trkpt lat="45.27095" lon="6.18786">
        <ele>1821</ele>
        <time>2019-03-30T08:54:40Z</time>
      </trkpt>
      <trkpt lat="45.27094" lon="6.18782">
        <ele>1819.2</ele>
        <time>2019-03-30T08:54:45Z</time>
      </trkpt>
      <trkpt lat="45.27093" lon="6.18779">
        <ele>1819.4</ele>
        <time>2019-03-30T08:54:50Z</time>
      </trkpt>
      <trkpt lat="45.27092" lon="6.18774">
        <ele>1817.2</ele>
        <time>2019-03-30T08:54:55Z</time>
      </trkpt>
      <trkpt lat="45.27091" lon="6.18771">
        <ele>1816.6</ele>
        <time>2019-03-30T08:55:00Z</time>
      </trkpt>
      <trkpt lat="45.2709" lon="6.18767">
        <ele>1817.2</ele>
        <time>2019-03-30T08:55:05Z</time>
      </trkpt>
      <trkpt lat="45.27088" lon="6.18762">
        <ele>1817.2</ele>
        <time>2019-03-30T08:55:10Z</time>
      </trkpt>
      <trkpt lat="45.27086" lon="6.18758">
        <ele>1819</ele>
        <time>2019-03-30T08:55:15Z</time>
      </trkpt>
      <trkpt lat="45.27085" lon="6.18755">
        <ele>1820.4</ele>
        <time>2019-03-30T08:55:20Z</time>
      </trkpt>
      <trkpt lat="45.27084" lon="6.18752">
        <ele>1821.4</ele>
        <time>2019-03-30T08:55:25Z</time>
      </trkpt>
      <trkpt lat="45.27083" lon="6.18748">
        <ele>1819.8</ele>
        <time>2019-03-30T08:55:30Z</time>
      </trkpt>
      <trkpt lat="45.27081" lon="6.18744">
        <ele>1822.6</ele>
        <time>2019-03-30T08:55:35Z</time>
      </trkpt>
      <trkpt lat="45.2708" lon="6.18741">
        <ele>1821.8</ele>
        <time>2019-03-30T08:55:40Z</time>
      </trkpt>
      <trkpt lat="45.27079" lon="6.18737">
        <ele>1824.4</ele>
        <time>2019-03-30T08:55:45Z</time>
      </trkpt>
      <trkpt lat="45.27077" lon="6.18733">
        <ele>1824</ele>
        <time>2019-03-30T08:55:50Z</time>
      </trkpt>
      <trkpt lat="45.27076" lon="6.1873">
        <ele>1827.6</ele>
        <time>2019-03-30T08:55:55Z</time>
      </trkpt>
      <trkpt lat="45.27075" lon="6.18727">
        <ele>1825.4</ele>
        <time>2019-03-30T08:56:00Z</time>
      </trkpt>
      <trkpt lat="45.27073" lon="6.18724">
        <ele>1825</ele>
        <time>2019-03-30T08:56:05Z</time>
      </trkpt>
      <trkpt lat="45.27071" lon="6.18721">
        <ele>1823.4</ele>
        <time>2019-03-30T08:56:10Z</time>
      </trkpt>
      <trkpt lat="45.27069" lon="6.18717">
        <ele>1826.8</ele>
        <time>2019-03-30T08:56:15Z</time>
      </trkpt>
      <trkpt lat="45.27068" lon="6.18714">
        <ele>1826.6</ele>
        <time>2019-03-30T08:56:20Z</time>
      </trkpt>
      <trkpt lat="45.27066" lon="6.1871">
        <ele>1829.6</ele>
        <time>2019-03-30T08:56:25Z</time>
      </trkpt>
      <trkpt lat="45.27065" lon="6.18707">
        <ele>1830.2</ele>
        <time>2019-03-30T08:56:30Z</time>
      </trkpt>
      <trkpt lat="45.27064" lon="6.18704">
        <ele>1831</ele>
        <time>2019-03-30T08:56:35Z</time>
      </trkpt>
      <trkpt lat="45.27063" lon="6.187">
        <ele>1830.8</ele>
        <time>2019-03-30T08:56:40Z</time>
      </trkpt>
      <trkpt lat="45.27063" lon="6.18696">
        <ele>1833.8</ele>
        <time>2019-03-30T08:56:45Z</time>
      </trkpt>
      <trkpt lat="45.27062" lon="6.18692">
        <ele>1833.8</ele>
        <time>2019-03-30T08:56:50Z</time>
      </trkpt>
      <trkpt lat="45.27062" lon="6.18688">
        <ele>1835</ele>
        <time>2019-03-30T08:56:55Z</time>
      </trkpt>
      <trkpt lat="45.27062" lon="6.18684">
        <ele>1835</ele>
        <time>2019-03-30T08:57:00Z</time>
      </trkpt>
      <trkpt lat="45.27061" lon="6.18679">
        <ele>1835.6</ele>
        <time>2019-03-30T08:57:05Z</time>
      </trkpt>
      <trkpt lat="45.27062" lon="6.18675">
        <ele>1835.4</ele>
        <time>2019-03-30T08:57:10Z</time>
      </trkpt>
      <trkpt lat="45.27061" lon="6.18671">
        <ele>1835.6</ele>
        <time>2019-03-30T08:57:15Z</time>
      </trkpt>
      <trkpt lat="45.2706" lon="6.18667">
        <ele>1837.2</ele>
        <time>2019-03-30T08:57:20Z</time>
      </trkpt>
      <trkpt lat="45.2706" lon="6.18663">
        <ele>1839.4</ele>
        <time>2019-03-30T08:57:25Z</time>
      </trkpt>
      <trkpt lat="45.27059" lon="6.18659">
        <ele>1836.6</ele>
        <time>2019-03-30T08:57:30Z</time>
      </trkpt>
      <trkpt lat="45.27057" lon="6.18655">
        <ele>1835.6</ele>
        <time>2019-03-30T08:57:35Z</time>
      </trkpt>
      <trkpt lat="45.27056" lon="6.18651">
        <ele>1836.4</ele>
        <time>2019-03-30T08:57:40Z</time>
      </trkpt>
      <trkpt lat="45.27055" lon="6.18648">
        <ele>1839.2</ele>
        <time>2019-03-30T08:57:45Z</time>
      </trkpt>
      <trkpt lat="45.27054" lon="6.18644">
        <ele>1839.2</ele>
        <time>2019-03-30T08:57:50Z</time>
      </trkpt>
      <trkpt lat="45.27053" lon="6.1864">
        <ele>1841</ele>
        <time>2019-03-30T08:57:55Z</time>
      </trkpt>
      <trkpt lat="45.27052" lon="6.18636">
        <ele>1841.2</ele>
        <time>2019-03-30T08:58:00Z</time>
      </trkpt>
      <trkpt lat="45.27051" lon="6.18632">
        <ele>1838.8</ele>
        <time>2019-03-30T08:58:05Z</time>
      </trkpt>
      <trkpt lat="45.27051" lon="6.18629">
        <ele>1840.4</ele>
        <time>2019-03-30T08:58:10Z</time>
      </trkpt>
      <trkpt lat="45.2705" lon="6.18625">
        <ele>1840.8</ele>
        <time>2019-03-30T08:58:15Z</time>
      </trkpt>
      <trkpt lat="45.27049" lon="6.18621">
        <ele>1839.4</ele>
        <time>2019-03-30T08:58:20Z</time>
      </trkpt>
      <trkpt lat="45.27048" lon="6.18617">
        <ele>1842.6</ele>
        <time>2019-03-30T08:58:25Z</time>
      </trkpt>
      <trkpt lat="45.27047" lon="6.18613">
        <ele>1842.2</ele>
        <time>2019-03-30T08:58:30Z</time>
      </trkpt>
      <trkpt lat="45.27047" lon="6.18609">
        <ele>1842.2</ele>
        <time>2019-03-30T08:58:35Z</time>
      </trkpt>
      <trkpt lat="45.27046" lon="6.18605">
        <ele>1841.4</ele>
        <time>2019-03-30T08:58:40Z</time>
      </trkpt>
      <trkpt lat="45.27045" lon="6.18601">
        <ele>1843.4</ele>
        <time>2019-03-30T08:58:45Z</time>
      </trkpt>
      <trkpt lat="45.27044" lon="6.18597">
        <ele>1846.6</ele>
        <time>2019-03-30T08:58:50Z</time>
      </trkpt>
      <trkpt lat="45.27043" lon="6.18594">
        <ele>1841.8</ele>
        <time>2019-03-30T08:58:55Z</time>
      </trkpt>
      <trkpt lat="45.27041" lon="6.18589">
        <ele>1842.8</ele>
        <time>2019-03-30T08:59:00Z</time>
      </trkpt>
      <trkpt lat="45.2704" lon="6.18585">
        <ele>1842.8</ele>
        <time>2019-03-30T08:59:05Z</time>
      </trkpt>
      <trkpt lat="45.27038" lon="6.1858">
        <ele>1843.4</ele>
        <time>2019-03-30T08:59:10Z</time>
      </trkpt>
      <trkpt lat="45.27036" lon="6.18576">
        <ele>1843.8</ele>
        <time>2019-03-30T08:59:15Z</time>
      </trkpt>
      <trkpt lat="45.27034" lon="6.18573">
        <ele>1843.2</ele>
        <time>2019-03-30T08:59:20Z</time>
      </trkpt>
      <trkpt lat="45.27032" lon="6.18569">
        <ele>1843.8</ele>
        <time>2019-03-30T08:59:25Z</time>
      </trkpt>
      <trkpt lat="45.2703" lon="6.18566">
        <ele>1845</ele>
        <time>2019-03-30T08:59:30Z</time>
      </trkpt>
      <trkpt lat="45.27028" lon="6.18563">
        <ele>1845.6</ele>
        <time>2019-03-30T08:59:35Z</time>
      </trkpt>
      <trkpt lat="45.27026" lon="6.1856">
        <ele>1843.8</ele>
        <time>2019-03-30T08:59:40Z</time>
      </trkpt>
      <trkpt lat="45.27024" lon="6.18556">
        <ele>1848.4</ele>
        <time>2019-03-30T08:59:45Z</time>
      </trkpt>
      <trkpt lat="45.27022" lon="6.18553">
        <ele>1847.2</ele>
        <time>2019-03-30T08:59:50Z</time>
      </trkpt>
      <trkpt lat="45.27022" lon="6.1855">
        <ele>1847</ele>
        <time>2019-03-30T08:59:55Z</time>
      </trkpt>
      <trkpt lat="45.27021" lon="6.18547">
        <ele>1848.6</ele>
        <time>2019-03-30T09:00:00Z</time>
      </trkpt>
      <trkpt lat="45.27021" lon="6.18544">
        <ele>1850.2</ele>
        <time>2019-03-30T09:00:05Z</time>
      </trkpt>
      <trkpt lat="45.27021" lon="6.18541">
        <ele>1851.6</ele>
        <time>2019-03-30T09:00:10Z</time>
      </trkpt>
      <trkpt lat="45.2702" lon="6.18537">
        <ele>1851.8</ele>
        <time>2019-03-30T09:00:15Z</time>
      </trkpt>
      <trkpt lat="45.27019" lon="6.18533">
        <ele>1852.4</ele>
        <time>2019-03-30T09:00:20Z</time>
      </trkpt>
      <trkpt lat="45.27018" lon="6.1853">
        <ele>1854</ele>
        <time>2019-03-30T09:00:25Z</time>
      </trkpt>
      <trkpt lat="45.27017" lon="6.18525">
        <ele>1856.2</ele>
        <time>2019-03-30T09:00:30Z</time>
      </trkpt>
      <trkpt lat="45.27017" lon="6.18521">
        <ele>1855.8</ele>
        <time>2019-03-30T09:00:35Z</time>
      </trkpt>
      <trkpt lat="45.27016" lon="6.18517">
        <ele>1856.8</ele>
        <time>2019-03-30T09:00:40Z</time>
      </trkpt>
      <trkpt lat="45.27016" lon="6.18514">
        <ele>1855</ele>
        <time>2019-03-30T09:00:45Z</time>
      </trkpt>
      <trkpt lat="45.27015" lon="6.18509">
        <ele>1858.4</ele>
        <time>2019-03-30T09:00:50Z</time>
      </trkpt>
      <trkpt lat="45.27015" lon="6.18505">
        <ele>1858.6</ele>
        <time>2019-03-30T09:00:55Z</time>
      </trkpt>
      <trkpt lat="45.27014" lon="6.18501">
        <ele>1856.8</ele>
        <time>2019-03-30T09:01:00Z</time>
      </trkpt>
      <trkpt lat="45.27013" lon="6.18496">
        <ele>1858.8</ele>
        <time>2019-03-30T09:01:05Z</time>
      </trkpt>
      <trkpt lat="45.27012" lon="6.18493">
        <ele>1857.4</ele>
        <time>2019-03-30T09:01:10Z</time>
      </trkpt>
      <trkpt lat="45.27011" lon="6.18489">
        <ele>1858.8</ele>
        <time>2019-03-30T09:01:15Z</time>
      </trkpt>
      <trkpt lat="45.2701" lon="6.18486">
        <ele>1859.6</ele>
        <time>2019-03-30T09:01:20Z</time>
      </trkpt>
      <trkpt lat="45.27009" lon="6.18484">
        <ele>1861.8</ele>
        <time>2019-03-30T09:01:25Z</time>
      </trkpt>
      <trkpt lat="45.27009" lon="6.18484">
        <ele>1859.2</ele>
        <time>2019-03-30T09:02:10Z</time>
      </trkpt>
      <trkpt lat="45.27009" lon="6.18481">
        <ele>1863.2</ele>
        <time>2019-03-30T09:02:15Z</time>
      </trkpt>
      <trkpt lat="45.27008" lon="6.18476">
        <ele>1861</ele>
        <time>2019-03-30T09:02:20Z</time>
      </trkpt>
      <trkpt lat="45.27008" lon="6.18472">
        <ele>1860</ele>
        <time>2019-03-30T09:02:25Z</time>
      </trkpt>
      <trkpt lat="45.27008" lon="6.18469">
        <ele>1865.2</ele>
        <time>2019-03-30T09:02:30Z</time>
      </trkpt>
      <trkpt lat="45.27006" lon="6.18465">
        <ele>1859.8</ele>
        <time>2019-03-30T09:02:35Z</time>
      </trkpt>
      <trkpt lat="45.27005" lon="6.18461">
        <ele>1863.2</ele>
        <time>2019-03-30T09:02:40Z</time>
      </trkpt>
      <trkpt lat="45.27004" lon="6.18457">
        <ele>1864.6</ele>
        <time>2019-03-30T09:02:45Z</time>
      </trkpt>
      <trkpt lat="45.27004" lon="6.18456">
        <ele>1864</ele>
        <time>2019-03-30T09:03:00Z</time>
      </trkpt>
      <trkpt lat="45.27004" lon="6.18455">
        <ele>1861.6</ele>
        <time>2019-03-30T09:03:05Z</time>
      </trkpt>
      <trkpt lat="45.27002" lon="6.1845">
        <ele>1863.2</ele>
        <time>2019-03-30T09:03:10Z</time>
      </trkpt>
      <trkpt lat="45.27002" lon="6.18446">
        <ele>1864.4</ele>
        <time>2019-03-30T09:03:15Z</time>
      </trkpt>
      <trkpt lat="45.27" lon="6.18441">
        <ele>1866</ele>
        <time>2019-03-30T09:03:20Z</time>
      </trkpt>
      <trkpt lat="45.27" lon="6.18436">
        <ele>1864.4</ele>
        <time>2019-03-30T09:03:25Z</time>
      </trkpt>
      <trkpt lat="45.27001" lon="6.18432">
        <ele>1866.2</ele>
        <time>2019-03-30T09:03:30Z</time>
      </trkpt>
      <trkpt lat="45.27001" lon="6.18428">
        <ele>1867.2</ele>
        <time>2019-03-30T09:03:35Z</time>
      </trkpt>
      <trkpt lat="45.27002" lon="6.18424">
        <ele>1868.2</ele>
        <time>2019-03-30T09:03:40Z</time>
      </trkpt>
      <trkpt lat="45.27002" lon="6.1842">
        <ele>1867</ele>
        <time>2019-03-30T09:03:45Z</time>
      </trkpt>
      <trkpt lat="45.27001" lon="6.18415">
        <ele>1870.2</ele>
        <time>2019-03-30T09:03:50Z</time>
      </trkpt>
      <trkpt lat="45.27001" lon="6.18411">
        <ele>1869</ele>
        <time>2019-03-30T09:03:55Z</time>
      </trkpt>
      <trkpt lat="45.27001" lon="6.18407">
        <ele>1871</ele>
        <time>2019-03-30T09:04:00Z</time>
      </trkpt>
      <trkpt lat="45.27001" lon="6.18404">
        <ele>1870.8</ele>
        <time>2019-03-30T09:04:05Z</time>
      </trkpt>
      <trkpt lat="45.27001" lon="6.184">
        <ele>1873.2</ele>
        <time>2019-03-30T09:04:10Z</time>
      </trkpt>
      <trkpt lat="45.27002" lon="6.18396">
        <ele>1873.2</ele>
        <time>2019-03-30T09:04:15Z</time>
      </trkpt>
      <trkpt lat="45.27003" lon="6.18392">
        <ele>1874.4</ele>
        <time>2019-03-30T09:04:20Z</time>
      </trkpt>
      <trkpt lat="45.27003" lon="6.18388">
        <ele>1873.6</ele>
        <time>2019-03-30T09:04:25Z</time>
      </trkpt>
      <trkpt lat="45.27004" lon="6.18385">
        <ele>1876.8</ele>
        <time>2019-03-30T09:04:30Z</time>
      </trkpt>
      <trkpt lat="45.27004" lon="6.1838">
        <ele>1870.6</ele>
        <time>2019-03-30T09:04:35Z</time>
      </trkpt>
      <trkpt lat="45.27006" lon="6.18377">
        <ele>1876.8</ele>
        <time>2019-03-30T09:04:40Z</time>
      </trkpt>
      <trkpt lat="45.27006" lon="6.18372">
        <ele>1875.2</ele>
        <time>2019-03-30T09:04:45Z</time>
      </trkpt>
      <trkpt lat="45.27007" lon="6.18368">
        <ele>1875.2</ele>
        <time>2019-03-30T09:04:50Z</time>
      </trkpt>
      <trkpt lat="45.27007" lon="6.18363">
        <ele>1876.6</ele>
        <time>2019-03-30T09:04:55Z</time>
      </trkpt>
      <trkpt lat="45.27007" lon="6.18358">
        <ele>1876</ele>
        <time>2019-03-30T09:05:00Z</time>
      </trkpt>
      <trkpt lat="45.27008" lon="6.18354">
        <ele>1876</ele>
        <time>2019-03-30T09:05:05Z</time>
      </trkpt>
      <trkpt lat="45.27008" lon="6.1835">
        <ele>1879</ele>
        <time>2019-03-30T09:05:10Z</time>
      </trkpt>
      <trkpt lat="45.27008" lon="6.18346">
        <ele>1877.2</ele>
        <time>2019-03-30T09:05:15Z</time>
      </trkpt>
      <trkpt lat="45.27009" lon="6.18341">
        <ele>1879</ele>
        <time>2019-03-30T09:05:20Z</time>
      </trkpt>
      <trkpt lat="45.27009" lon="6.18337">
        <ele>1878.6</ele>
        <time>2019-03-30T09:05:25Z</time>
      </trkpt>
      <trkpt lat="45.27011" lon="6.18333">
        <ele>1880</ele>
        <time>2019-03-30T09:05:30Z</time>
      </trkpt>
      <trkpt lat="45.27011" lon="6.18328">
        <ele>1879.6</ele>
        <time>2019-03-30T09:05:35Z</time>
      </trkpt>
      <trkpt lat="45.27012" lon="6.18325">
        <ele>1878.8</ele>
        <time>2019-03-30T09:05:40Z</time>
      </trkpt>
      <trkpt lat="45.27013" lon="6.1832">
        <ele>1878.8</ele>
        <time>2019-03-30T09:05:45Z</time>
      </trkpt>
      <trkpt lat="45.27013" lon="6.18317">
        <ele>1881.2</ele>
        <time>2019-03-30T09:05:50Z</time>
      </trkpt>
      <trkpt lat="45.27013" lon="6.18312">
        <ele>1882.8</ele>
        <time>2019-03-30T09:05:55Z</time>
      </trkpt>
      <trkpt lat="45.27013" lon="6.18308">
        <ele>1882.8</ele>
        <time>2019-03-30T09:06:00Z</time>
      </trkpt>
      <trkpt lat="45.27013" lon="6.18304">
        <ele>1886.2</ele>
        <time>2019-03-30T09:06:05Z</time>
      </trkpt>
      <trkpt lat="45.27012" lon="6.18301">
        <ele>1884.8</ele>
        <time>2019-03-30T09:06:10Z</time>
      </trkpt>
      <trkpt lat="45.27011" lon="6.18297">
        <ele>1885.8</ele>
        <time>2019-03-30T09:06:15Z</time>
      </trkpt>
      <trkpt lat="45.2701" lon="6.18293">
        <ele>1887.4</ele>
        <time>2019-03-30T09:06:20Z</time>
      </trkpt>
      <trkpt lat="45.27008" lon="6.18289">
        <ele>1888</ele>
        <time>2019-03-30T09:06:25Z</time>
      </trkpt>
      <trkpt lat="45.27007" lon="6.18285">
        <ele>1890.4</ele>
        <time>2019-03-30T09:06:30Z</time>
      </trkpt>
      <trkpt lat="45.27007" lon="6.18282">
        <ele>1889.2</ele>
        <time>2019-03-30T09:06:35Z</time>
      </trkpt>
      <trkpt lat="45.27006" lon="6.18279">
        <ele>1888.6</ele>
        <time>2019-03-30T09:06:40Z</time>
      </trkpt>
      <trkpt lat="45.27005" lon="6.18275">
        <ele>1892.8</ele>
        <time>2019-03-30T09:06:45Z</time>
      </trkpt>
      <trkpt lat="45.27005" lon="6.18272">
        <ele>1890.6</ele>
        <time>2019-03-30T09:06:50Z</time>
      </trkpt>
      <trkpt lat="45.27004" lon="6.18268">
        <ele>1889.8</ele>
        <time>2019-03-30T09:06:55Z</time>
      </trkpt>
      <trkpt lat="45.27003" lon="6.18264">
        <ele>1889.8</ele>
        <time>2019-03-30T09:07:00Z</time>
      </trkpt>
      <trkpt lat="45.27002" lon="6.1826">
        <ele>1892.8</ele>
        <time>2019-03-30T09:07:05Z</time>
      </trkpt>
      <trkpt lat="45.27002" lon="6.18256">
        <ele>1894</ele>
        <time>2019-03-30T09:07:10Z</time>
      </trkpt>
      <trkpt lat="45.27001" lon="6.18252">
        <ele>1893.4</ele>
        <time>2019-03-30T09:07:15Z</time>
      </trkpt>
      <trkpt lat="45.27" lon="6.18248">
        <ele>1894</ele>
        <time>2019-03-30T09:07:20Z</time>
      </trkpt>
      <trkpt lat="45.27" lon="6.18245">
        <ele>1895.6</ele>
        <time>2019-03-30T09:07:25Z</time>
      </trkpt>
      <trkpt lat="45.26999" lon="6.1824">
        <ele>1894</ele>
        <time>2019-03-30T09:07:30Z</time>
      </trkpt>
      <trkpt lat="45.26998" lon="6.18237">
        <ele>1892.4</ele>
        <time>2019-03-30T09:07:35Z</time>
      </trkpt>
      <trkpt lat="45.26997" lon="6.18232">
        <ele>1896</ele>
        <time>2019-03-30T09:07:40Z</time>
      </trkpt>
      <trkpt lat="45.26997" lon="6.18229">
        <ele>1900.8</ele>
        <time>2019-03-30T09:07:45Z</time>
      </trkpt>
      <trkpt lat="45.26998" lon="6.18225">
        <ele>1897.4</ele>
        <time>2019-03-30T09:07:50Z</time>
      </trkpt>
      <trkpt lat="45.26998" lon="6.18221">
        <ele>1897.8</ele>
        <time>2019-03-30T09:07:55Z</time>
      </trkpt>
      <trkpt lat="45.26997" lon="6.18218">
        <ele>1897.8</ele>
        <time>2019-03-30T09:08:00Z</time>
      </trkpt>
      <trkpt lat="45.26996" lon="6.18214">
        <ele>1898</ele>
        <time>2019-03-30T09:08:05Z</time>
      </trkpt>
      <trkpt lat="45.26996" lon="6.18211">
        <ele>1900.8</ele>
        <time>2019-03-30T09:08:10Z</time>
      </trkpt>
      <trkpt lat="45.26995" lon="6.18207">
        <ele>1899.6</ele>
        <time>2019-03-30T09:08:15Z</time>
      </trkpt>
      <trkpt lat="45.26994" lon="6.18203">
        <ele>1902.4</ele>
        <time>2019-03-30T09:08:20Z</time>
      </trkpt>
      <trkpt lat="45.26993" lon="6.182">
        <ele>1902.2</ele>
        <time>2019-03-30T09:08:25Z</time>
      </trkpt>
      <trkpt lat="45.26992" lon="6.18196">
        <ele>1901.4</ele>
        <time>2019-03-30T09:08:30Z</time>
      </trkpt>
      <trkpt lat="45.26991" lon="6.18193">
        <ele>1902.4</ele>
        <time>2019-03-30T09:08:35Z</time>
      </trkpt>
      <trkpt lat="45.2699" lon="6.1819">
        <ele>1905</ele>
        <time>2019-03-30T09:08:40Z</time>
      </trkpt>
      <trkpt lat="45.26988" lon="6.18187">
        <ele>1902.8</ele>
        <time>2019-03-30T09:08:45Z</time>
      </trkpt>
      <trkpt lat="45.26986" lon="6.18184">
        <ele>1906.2</ele>
        <time>2019-03-30T09:08:50Z</time>
      </trkpt>
      <trkpt lat="45.26985" lon="6.18181">
        <ele>1907.4</ele>
        <time>2019-03-30T09:08:55Z</time>
      </trkpt>
      <trkpt lat="45.26983" lon="6.18178">
        <ele>1907.8</ele>
        <time>2019-03-30T09:09:00Z</time>
      </trkpt>
      <trkpt lat="45.26982" lon="6.18175">
        <ele>1907.6</ele>
        <time>2019-03-30T09:09:05Z</time>
      </trkpt>
      <trkpt lat="45.26981" lon="6.18172">
        <ele>1910</ele>
        <time>2019-03-30T09:09:10Z</time>
      </trkpt>
      <trkpt lat="45.26979" lon="6.1817">
        <ele>1908.6</ele>
        <time>2019-03-30T09:09:15Z</time>
      </trkpt>
      <trkpt lat="45.26978" lon="6.18168">
        <ele>1904.8</ele>
        <time>2019-03-30T09:09:20Z</time>
      </trkpt>
      <trkpt lat="45.26976" lon="6.18166">
        <ele>1906.6</ele>
        <time>2019-03-30T09:09:25Z</time>
      </trkpt>
      <trkpt lat="45.26973" lon="6.18164">
        <ele>1906.6</ele>
        <time>2019-03-30T09:09:30Z</time>
      </trkpt>
      <trkpt lat="45.26971" lon="6.18162">
        <ele>1911.4</ele>
        <time>2019-03-30T09:09:35Z</time>
      </trkpt>
      <trkpt lat="45.26968" lon="6.18159">
        <ele>1912</ele>
        <time>2019-03-30T09:09:40Z</time>
      </trkpt>
      <trkpt lat="45.26966" lon="6.18157">
        <ele>1909.6</ele>
        <time>2019-03-30T09:09:45Z</time>
      </trkpt>
      <trkpt lat="45.26964" lon="6.18154">
        <ele>1914</ele>
        <time>2019-03-30T09:09:50Z</time>
      </trkpt>
      <trkpt lat="45.26961" lon="6.18151">
        <ele>1914</ele>
        <time>2019-03-30T09:09:55Z</time>
      </trkpt>
      <trkpt lat="45.26959" lon="6.18148">
        <ele>1912.4</ele>
        <time>2019-03-30T09:10:00Z</time>
      </trkpt>
      <trkpt lat="45.26957" lon="6.18145">
        <ele>1913</ele>
        <time>2019-03-30T09:10:05Z</time>
      </trkpt>
      <trkpt lat="45.26955" lon="6.18142">
        <ele>1912.8</ele>
        <time>2019-03-30T09:10:10Z</time>
      </trkpt>
      <trkpt lat="45.26952" lon="6.18139">
        <ele>1914.8</ele>
        <time>2019-03-30T09:10:15Z</time>
      </trkpt>
      <trkpt lat="45.2695" lon="6.18136">
        <ele>1915.8</ele>
        <time>2019-03-30T09:10:20Z</time>
      </trkpt>
      <trkpt lat="45.26948" lon="6.18133">
        <ele>1915.2</ele>
        <time>2019-03-30T09:10:25Z</time>
      </trkpt>
      <trkpt lat="45.26946" lon="6.18131">
        <ele>1916.6</ele>
        <time>2019-03-30T09:10:30Z</time>
      </trkpt>
      <trkpt lat="45.26944" lon="6.18129">
        <ele>1915.2</ele>
        <time>2019-03-30T09:10:35Z</time>
      </trkpt>
      <trkpt lat="45.26942" lon="6.18127">
        <ele>1915</ele>
        <time>2019-03-30T09:10:40Z</time>
      </trkpt>
      <trkpt lat="45.26938" lon="6.18126">
        <ele>1916.4</ele>
        <time>2019-03-30T09:10:45Z</time>
      </trkpt>
      <trkpt lat="45.26936" lon="6.18124">
        <ele>1915</ele>
        <time>2019-03-30T09:10:50Z</time>
      </trkpt>
      <trkpt lat="45.26934" lon="6.18123">
        <ele>1917.6</ele>
        <time>2019-03-30T09:10:55Z</time>
      </trkpt>
      <trkpt lat="45.26931" lon="6.18122">
        <ele>1915.2</ele>
        <time>2019-03-30T09:11:00Z</time>
      </trkpt>
      <trkpt lat="45.26929" lon="6.18121">
        <ele>1915.4</ele>
        <time>2019-03-30T09:11:05Z</time>
      </trkpt>
      <trkpt lat="45.26927" lon="6.18119">
        <ele>1920</ele>
        <time>2019-03-30T09:11:10Z</time>
      </trkpt>
      <trkpt lat="45.26925" lon="6.18118">
        <ele>1918.6</ele>
        <time>2019-03-30T09:11:15Z</time>
      </trkpt>
      <trkpt lat="45.26923" lon="6.18118">
        <ele>1916.6</ele>
        <time>2019-03-30T09:11:20Z</time>
      </trkpt>
      <trkpt lat="45.26921" lon="6.18118">
        <ele>1920.8</ele>
        <time>2019-03-30T09:11:25Z</time>
      </trkpt>
      <trkpt lat="45.26918" lon="6.18118">
        <ele>1921.2</ele>
        <time>2019-03-30T09:11:30Z</time>
      </trkpt>
      <trkpt lat="45.26916" lon="6.18118">
        <ele>1921.2</ele>
        <time>2019-03-30T09:11:35Z</time>
      </trkpt>
      <trkpt lat="45.26914" lon="6.18117">
        <ele>1924</ele>
        <time>2019-03-30T09:11:40Z</time>
      </trkpt>
      <trkpt lat="45.26912" lon="6.18116">
        <ele>1921.2</ele>
        <time>2019-03-30T09:11:45Z</time>
      </trkpt>
      <trkpt lat="45.26909" lon="6.18115">
        <ele>1924.4</ele>
        <time>2019-03-30T09:11:50Z</time>
      </trkpt>
      <trkpt lat="45.26908" lon="6.18111">
        <ele>1923.6</ele>
        <time>2019-03-30T09:12:00Z</time>
      </trkpt>
      <trkpt lat="45.26909" lon="6.18109">
        <ele>1924</ele>
        <time>2019-03-30T09:12:05Z</time>
      </trkpt>
      <trkpt lat="45.26911" lon="6.18106">
        <ele>1929.4</ele>
        <time>2019-03-30T09:12:10Z</time>
      </trkpt>
      <trkpt lat="45.26912" lon="6.18104">
        <ele>1928.2</ele>
        <time>2019-03-30T09:12:15Z</time>
      </trkpt>
      <trkpt lat="45.26913" lon="6.18103">
        <ele>1927.2</ele>
        <time>2019-03-30T09:12:20Z</time>
      </trkpt>
      <trkpt lat="45.26913" lon="6.18099">
        <ele>1926.6</ele>
        <time>2019-03-30T09:12:30Z</time>
      </trkpt>
      <trkpt lat="45.26911" lon="6.18097">
        <ele>1929.6</ele>
        <time>2019-03-30T09:12:35Z</time>
      </trkpt>
      <trkpt lat="45.26909" lon="6.18095">
        <ele>1930.4</ele>
        <time>2019-03-30T09:12:40Z</time>
      </trkpt>
      <trkpt lat="45.26907" lon="6.18093">
        <ele>1931.2</ele>
        <time>2019-03-30T09:12:45Z</time>
      </trkpt>
      <trkpt lat="45.26905" lon="6.18091">
        <ele>1933</ele>
        <time>2019-03-30T09:12:50Z</time>
      </trkpt>
      <trkpt lat="45.26904" lon="6.18089">
        <ele>1933.4</ele>
        <time>2019-03-30T09:12:55Z</time>
      </trkpt>
      <trkpt lat="45.26901" lon="6.18088">
        <ele>1936</ele>
        <time>2019-03-30T09:13:00Z</time>
      </trkpt>
      <trkpt lat="45.26899" lon="6.18087">
        <ele>1935</ele>
        <time>2019-03-30T09:13:05Z</time>
      </trkpt>
      <trkpt lat="45.26898" lon="6.18085">
        <ele>1934.8</ele>
        <time>2019-03-30T09:13:10Z</time>
      </trkpt>
      <trkpt lat="45.26899" lon="6.18083">
        <ele>1936.4</ele>
        <time>2019-03-30T09:13:15Z</time>
      </trkpt>
      <trkpt lat="45.269" lon="6.1808">
        <ele>1937.4</ele>
        <time>2019-03-30T09:13:20Z</time>
      </trkpt>
      <trkpt lat="45.26901" lon="6.18077">
        <ele>1938.6</ele>
        <time>2019-03-30T09:13:25Z</time>
      </trkpt>
      <trkpt lat="45.26903" lon="6.18075">
        <ele>1936.2</ele>
        <time>2019-03-30T09:13:30Z</time>
      </trkpt>
      <trkpt lat="45.26904" lon="6.18072">
        <ele>1938.6</ele>
        <time>2019-03-30T09:13:35Z</time>
      </trkpt>
      <trkpt lat="45.26906" lon="6.1807">
        <ele>1938.4</ele>
        <time>2019-03-30T09:13:40Z</time>
      </trkpt>
      <trkpt lat="45.26907" lon="6.18067">
        <ele>1938.2</ele>
        <time>2019-03-30T09:13:45Z</time>
      </trkpt>
      <trkpt lat="45.26909" lon="6.18064">
        <ele>1936.8</ele>
        <time>2019-03-30T09:13:50Z</time>
      </trkpt>
      <trkpt lat="45.2691" lon="6.18061">
        <ele>1939</ele>
        <time>2019-03-30T09:13:55Z</time>
      </trkpt>
      <trkpt lat="45.26911" lon="6.18058">
        <ele>1941.6</ele>
        <time>2019-03-30T09:14:00Z</time>
      </trkpt>
      <trkpt lat="45.26911" lon="6.18055">
        <ele>1940.2</ele>
        <time>2019-03-30T09:14:05Z</time>
      </trkpt>
      <trkpt lat="45.26911" lon="6.1805">
        <ele>1941</ele>
        <time>2019-03-30T09:14:10Z</time>
      </trkpt>
      <trkpt lat="45.26911" lon="6.18046">
        <ele>1944</ele>
        <time>2019-03-30T09:14:15Z</time>
      </trkpt>
      <trkpt lat="45.26912" lon="6.18042">
        <ele>1942.2</ele>
        <time>2019-03-30T09:14:20Z</time>
      </trkpt>
      <trkpt lat="45.26911" lon="6.18038">
        <ele>1945.4</ele>
        <time>2019-03-30T09:14:25Z</time>
      </trkpt>
      <trkpt lat="45.26911" lon="6.18034">
        <ele>1945.2</ele>
        <time>2019-03-30T09:14:30Z</time>
      </trkpt>
      <trkpt lat="45.2691" lon="6.1803">
        <ele>1943.4</ele>
        <time>2019-03-30T09:14:35Z</time>
      </trkpt>
      <trkpt lat="45.2691" lon="6.18027">
        <ele>1945.4</ele>
        <time>2019-03-30T09:14:40Z</time>
      </trkpt>
      <trkpt lat="45.26908" lon="6.18025">
        <ele>1947</ele>
        <time>2019-03-30T09:14:45Z</time>
      </trkpt>
      <trkpt lat="45.26906" lon="6.18024">
        <ele>1946.2</ele>
        <time>2019-03-30T09:14:50Z</time>
      </trkpt>
      <trkpt lat="45.26904" lon="6.18022">
        <ele>1947.4</ele>
        <time>2019-03-30T09:14:55Z</time>
      </trkpt>
      <trkpt lat="45.26902" lon="6.18021">
        <ele>1947.4</ele>
        <time>2019-03-30T09:15:00Z</time>
      </trkpt>
      <trkpt lat="45.269" lon="6.18019">
        <ele>1947.4</ele>
        <time>2019-03-30T09:15:05Z</time>
      </trkpt>
      <trkpt lat="45.26899" lon="6.18017">
        <ele>1950</ele>
        <time>2019-03-30T09:15:10Z</time>
      </trkpt>
      <trkpt lat="45.26898" lon="6.18013">
        <ele>1951.2</ele>
        <time>2019-03-30T09:15:15Z</time>
      </trkpt>
      <trkpt lat="45.26898" lon="6.18011">
        <ele>1948.6</ele>
        <time>2019-03-30T09:15:20Z</time>
      </trkpt>
      <trkpt lat="45.26897" lon="6.18008">
        <ele>1949.4</ele>
        <time>2019-03-30T09:15:25Z</time>
      </trkpt>
      <trkpt lat="45.26897" lon="6.18004">
        <ele>1951.2</ele>
        <time>2019-03-30T09:15:30Z</time>
      </trkpt>
      <trkpt lat="45.26898" lon="6.18001">
        <ele>1953</ele>
        <time>2019-03-30T09:15:35Z</time>
      </trkpt>
      <trkpt lat="45.26899" lon="6.17997">
        <ele>1954</ele>
        <time>2019-03-30T09:15:40Z</time>
      </trkpt>
      <trkpt lat="45.26899" lon="6.17993">
        <ele>1954.2</ele>
        <time>2019-03-30T09:15:45Z</time>
      </trkpt>
      <trkpt lat="45.269" lon="6.17989">
        <ele>1954.4</ele>
        <time>2019-03-30T09:15:55Z</time>
      </trkpt>
      <trkpt lat="45.269" lon="6.17986">
        <ele>1956</ele>
        <time>2019-03-30T09:16:00Z</time>
      </trkpt>
      <trkpt lat="45.26899" lon="6.17984">
        <ele>1958.6</ele>
        <time>2019-03-30T09:16:35Z</time>
      </trkpt>
      <trkpt lat="45.26899" lon="6.17979">
        <ele>1954.6</ele>
        <time>2019-03-30T09:16:40Z</time>
      </trkpt>
      <trkpt lat="45.26898" lon="6.17974">
        <ele>1955.8</ele>
        <time>2019-03-30T09:16:45Z</time>
      </trkpt>
      <trkpt lat="45.26897" lon="6.17969">
        <ele>1959</ele>
        <time>2019-03-30T09:16:50Z</time>
      </trkpt>
      <trkpt lat="45.26896" lon="6.17964">
        <ele>1958.6</ele>
        <time>2019-03-30T09:16:55Z</time>
      </trkpt>
      <trkpt lat="45.26895" lon="6.17959">
        <ele>1959.6</ele>
        <time>2019-03-30T09:17:00Z</time>
      </trkpt>
      <trkpt lat="45.26895" lon="6.17955">
        <ele>1957.8</ele>
        <time>2019-03-30T09:17:05Z</time>
      </trkpt>
      <trkpt lat="45.26894" lon="6.17951">
        <ele>1958.2</ele>
        <time>2019-03-30T09:17:10Z</time>
      </trkpt>
      <trkpt lat="45.26895" lon="6.17947">
        <ele>1962</ele>
        <time>2019-03-30T09:17:15Z</time>
      </trkpt>
      <trkpt lat="45.26897" lon="6.17944">
        <ele>1961.6</ele>
        <time>2019-03-30T09:17:20Z</time>
      </trkpt>
      <trkpt lat="45.26897" lon="6.17943">
        <ele>1961.4</ele>
        <time>2019-03-30T09:17:25Z</time>
      </trkpt>
      <trkpt lat="45.26899" lon="6.17941">
        <ele>1960</ele>
        <time>2019-03-30T09:17:40Z</time>
      </trkpt>
      <trkpt lat="45.269" lon="6.17937">
        <ele>1962</ele>
        <time>2019-03-30T09:17:45Z</time>
      </trkpt>
      <trkpt lat="45.269" lon="6.17934">
        <ele>1963</ele>
        <time>2019-03-30T09:17:50Z</time>
      </trkpt>
      <trkpt lat="45.26902" lon="6.17931">
        <ele>1965</ele>
        <time>2019-03-30T09:17:55Z</time>
      </trkpt>
      <trkpt lat="45.26902" lon="6.17928">
        <ele>1963.6</ele>
        <time>2019-03-30T09:18:00Z</time>
      </trkpt>
      <trkpt lat="45.26903" lon="6.17925">
        <ele>1964.8</ele>
        <time>2019-03-30T09:18:05Z</time>
      </trkpt>
      <trkpt lat="45.26904" lon="6.17921">
        <ele>1967.6</ele>
        <time>2019-03-30T09:18:10Z</time>
      </trkpt>
      <trkpt lat="45.26905" lon="6.17918">
        <ele>1966</ele>
        <time>2019-03-30T09:18:15Z</time>
      </trkpt>
      <trkpt lat="45.26905" lon="6.17915">
        <ele>1966.6</ele>
        <time>2019-03-30T09:18:20Z</time>
      </trkpt>
      <trkpt lat="45.26906" lon="6.17911">
        <ele>1969.2</ele>
        <time>2019-03-30T09:18:25Z</time>
      </trkpt>
      <trkpt lat="45.26907" lon="6.17908">
        <ele>1967</ele>
        <time>2019-03-30T09:18:30Z</time>
      </trkpt>
      <trkpt lat="45.26908" lon="6.17904">
        <ele>1971</ele>
        <time>2019-03-30T09:18:35Z</time>
      </trkpt>
      <trkpt lat="45.26908" lon="6.17902">
        <ele>1969.4</ele>
        <time>2019-03-30T09:18:40Z</time>
      </trkpt>
      <trkpt lat="45.26909" lon="6.17899">
        <ele>1970.2</ele>
        <time>2019-03-30T09:18:45Z</time>
      </trkpt>
      <trkpt lat="45.26909" lon="6.17896">
        <ele>1969.6</ele>
        <time>2019-03-30T09:18:50Z</time>
      </trkpt>
      <trkpt lat="45.26909" lon="6.17892">
        <ele>1970.8</ele>
        <time>2019-03-30T09:18:55Z</time>
      </trkpt>
      <trkpt lat="45.2691" lon="6.17889">
        <ele>1970</ele>
        <time>2019-03-30T09:19:00Z</time>
      </trkpt>
      <trkpt lat="45.26909" lon="6.17885">
        <ele>1970.8</ele>
        <time>2019-03-30T09:19:05Z</time>
      </trkpt>
      <trkpt lat="45.2691" lon="6.17882">
        <ele>1974</ele>
        <time>2019-03-30T09:19:10Z</time>
      </trkpt>
      <trkpt lat="45.2691" lon="6.17879">
        <ele>1975.4</ele>
        <time>2019-03-30T09:19:15Z</time>
      </trkpt>
      <trkpt lat="45.2691" lon="6.17876">
        <ele>1973</ele>
        <time>2019-03-30T09:19:20Z</time>
      </trkpt>
      <trkpt lat="45.2691" lon="6.17873">
        <ele>1971.6</ele>
        <time>2019-03-30T09:19:25Z</time>
      </trkpt>
      <trkpt lat="45.2691" lon="6.1787">
        <ele>1972.6</ele>
        <time>2019-03-30T09:19:30Z</time>
      </trkpt>
      <trkpt lat="45.2691" lon="6.17867">
        <ele>1975.4</ele>
        <time>2019-03-30T09:19:35Z</time>
      </trkpt>
      <trkpt lat="45.26911" lon="6.17864">
        <ele>1971.6</ele>
        <time>2019-03-30T09:19:40Z</time>
      </trkpt>
      <trkpt lat="45.26911" lon="6.17861">
        <ele>1976.2</ele>
        <time>2019-03-30T09:19:45Z</time>
      </trkpt>
      <trkpt lat="45.26912" lon="6.17859">
        <ele>1977.6</ele>
        <time>2019-03-30T09:19:50Z</time>
      </trkpt>
      <trkpt lat="45.26912" lon="6.17856">
        <ele>1977.4</ele>
        <time>2019-03-30T09:19:55Z</time>
      </trkpt>
      <trkpt lat="45.26913" lon="6.17854">
        <ele>1976.6</ele>
        <time>2019-03-30T09:20:00Z</time>
      </trkpt>
      <trkpt lat="45.26915" lon="6.17852">
        <ele>1978.2</ele>
        <time>2019-03-30T09:20:05Z</time>
      </trkpt>
      <trkpt lat="45.26917" lon="6.17849">
        <ele>1976.2</ele>
        <time>2019-03-30T09:20:10Z</time>
      </trkpt>
      <trkpt lat="45.26919" lon="6.17847">
        <ele>1979</ele>
        <time>2019-03-30T09:20:15Z</time>
      </trkpt>
      <trkpt lat="45.26921" lon="6.17845">
        <ele>1979</ele>
        <time>2019-03-30T09:20:20Z</time>
      </trkpt>
      <trkpt lat="45.26922" lon="6.17843">
        <ele>1980.4</ele>
        <time>2019-03-30T09:20:25Z</time>
      </trkpt>
      <trkpt lat="45.26923" lon="6.1784">
        <ele>1980.8</ele>
        <time>2019-03-30T09:20:30Z</time>
      </trkpt>
      <trkpt lat="45.26924" lon="6.17837">
        <ele>1982.4</ele>
        <time>2019-03-30T09:20:35Z</time>
      </trkpt>
      <trkpt lat="45.26925" lon="6.17834">
        <ele>1981.6</ele>
        <time>2019-03-30T09:20:40Z</time>
      </trkpt>
      <trkpt lat="45.26926" lon="6.17832">
        <ele>1983.2</ele>
        <time>2019-03-30T09:20:45Z</time>
      </trkpt>
      <trkpt lat="45.26926" lon="6.17829">
        <ele>1984</ele>
        <time>2019-03-30T09:20:50Z</time>
      </trkpt>
      <trkpt lat="45.26926" lon="6.17827">
        <ele>1985.8</ele>
        <time>2019-03-30T09:20:55Z</time>
      </trkpt>
      <trkpt lat="45.26927" lon="6.17824">
        <ele>1987.2</ele>
        <time>2019-03-30T09:21:00Z</time>
      </trkpt>
      <trkpt lat="45.26928" lon="6.17821">
        <ele>1986</ele>
        <time>2019-03-30T09:21:05Z</time>
      </trkpt>
      <trkpt lat="45.26929" lon="6.17819">
        <ele>1987.8</ele>
        <time>2019-03-30T09:21:10Z</time>
      </trkpt>
      <trkpt lat="45.2693" lon="6.17817">
        <ele>1988.2</ele>
        <time>2019-03-30T09:21:15Z</time>
      </trkpt>
      <trkpt lat="45.2693" lon="6.17815">
        <ele>1991.6</ele>
        <time>2019-03-30T09:21:20Z</time>
      </trkpt>
      <trkpt lat="45.2693" lon="6.17813">
        <ele>1990.8</ele>
        <time>2019-03-30T09:21:25Z</time>
      </trkpt>
      <trkpt lat="45.26931" lon="6.17811">
        <ele>1990</ele>
        <time>2019-03-30T09:21:30Z</time>
      </trkpt>
      <trkpt lat="45.26932" lon="6.17809">
        <ele>1990</ele>
        <time>2019-03-30T09:21:35Z</time>
      </trkpt>
      <trkpt lat="45.26935" lon="6.17807">
        <ele>1990</ele>
        <time>2019-03-30T09:21:40Z</time>
      </trkpt>
      <trkpt lat="45.26937" lon="6.17806">
        <ele>1987.8</ele>
        <time>2019-03-30T09:21:45Z</time>
      </trkpt>
      <trkpt lat="45.26938" lon="6.17803">
        <ele>1988.6</ele>
        <time>2019-03-30T09:21:50Z</time>
      </trkpt>
      <trkpt lat="45.2694" lon="6.17801">
        <ele>1989.8</ele>
        <time>2019-03-30T09:21:55Z</time>
      </trkpt>
      <trkpt lat="45.26941" lon="6.17799">
        <ele>1989.2</ele>
        <time>2019-03-30T09:22:00Z</time>
      </trkpt>
      <trkpt lat="45.26941" lon="6.17798">
        <ele>1991.2</ele>
        <time>2019-03-30T09:22:05Z</time>
      </trkpt>
      <trkpt lat="45.26942" lon="6.17796">
        <ele>1995.4</ele>
        <time>2019-03-30T09:22:10Z</time>
      </trkpt>
      <trkpt lat="45.26942" lon="6.17794">
        <ele>1994.8</ele>
        <time>2019-03-30T09:22:15Z</time>
      </trkpt>
      <trkpt lat="45.26942" lon="6.17791">
        <ele>1991.8</ele>
        <time>2019-03-30T09:22:20Z</time>
      </trkpt>
      <trkpt lat="45.2694" lon="6.17788">
        <ele>1994</ele>
        <time>2019-03-30T09:22:25Z</time>
      </trkpt>
      <trkpt lat="45.26938" lon="6.17786">
        <ele>1995</ele>
        <time>2019-03-30T09:22:30Z</time>
      </trkpt>
      <trkpt lat="45.26937" lon="6.17783">
        <ele>1993.2</ele>
        <time>2019-03-30T09:22:35Z</time>
      </trkpt>
      <trkpt lat="45.26936" lon="6.1778">
        <ele>1998.2</ele>
        <time>2019-03-30T09:22:40Z</time>
      </trkpt>
      <trkpt lat="45.26935" lon="6.17777">
        <ele>1998.4</ele>
        <time>2019-03-30T09:22:45Z</time>
      </trkpt>
      <trkpt lat="45.26934" lon="6.17772">
        <ele>1997</ele>
        <time>2019-03-30T09:22:51Z</time>
      </trkpt>
      <trkpt lat="45.26934" lon="6.17768">
        <ele>2001</ele>
        <time>2019-03-30T09:22:56Z</time>
      </trkpt>
      <trkpt lat="45.26935" lon="6.17764">
        <ele>2000.8</ele>
        <time>2019-03-30T09:23:01Z</time>
      </trkpt>
      <trkpt lat="45.26936" lon="6.1776">
        <ele>2003</ele>
        <time>2019-03-30T09:23:06Z</time>
      </trkpt>
      <trkpt lat="45.26937" lon="6.17757">
        <ele>2002</ele>
        <time>2019-03-30T09:23:11Z</time>
      </trkpt>
      <trkpt lat="45.26937" lon="6.17753">
        <ele>2002.8</ele>
        <time>2019-03-30T09:23:16Z</time>
      </trkpt>
      <trkpt lat="45.26937" lon="6.1775">
        <ele>2006.2</ele>
        <time>2019-03-30T09:23:21Z</time>
      </trkpt>
      <trkpt lat="45.26937" lon="6.17747">
        <ele>2002.2</ele>
        <time>2019-03-30T09:23:26Z</time>
      </trkpt>
      <trkpt lat="45.26937" lon="6.17744">
        <ele>2001.4</ele>
        <time>2019-03-30T09:23:31Z</time>
      </trkpt>
      <trkpt lat="45.26936" lon="6.17741">
        <ele>2002.4</ele>
        <time>2019-03-30T09:23:36Z</time>
      </trkpt>
      <trkpt lat="45.26936" lon="6.17738">
        <ele>2004.8</ele>
        <time>2019-03-30T09:23:41Z</time>
      </trkpt>
      <trkpt lat="45.26935" lon="6.17735">
        <ele>2005.6</ele>
        <time>2019-03-30T09:23:46Z</time>
      </trkpt>
      <trkpt lat="45.26935" lon="6.17731">
        <ele>2004.4</ele>
        <time>2019-03-30T09:23:51Z</time>
      </trkpt>
      <trkpt lat="45.26933" lon="6.17728">
        <ele>2006.8</ele>
        <time>2019-03-30T09:23:56Z</time>
      </trkpt>
      <trkpt lat="45.26933" lon="6.17725">
        <ele>2007.2</ele>
        <time>2019-03-30T09:24:01Z</time>
      </trkpt>
      <trkpt lat="45.26933" lon="6.17722">
        <ele>2003.4</ele>
        <time>2019-03-30T09:24:06Z</time>
      </trkpt>
      <trkpt lat="45.26933" lon="6.17719">
        <ele>2006.8</ele>
        <time>2019-03-30T09:24:11Z</time>
      </trkpt>
      <trkpt lat="45.26935" lon="6.17718">
        <ele>2005.2</ele>
        <time>2019-03-30T09:24:16Z</time>
      </trkpt>
      <trkpt lat="45.26937" lon="6.17717">
        <ele>2006.2</ele>
        <time>2019-03-30T09:24:21Z</time>
      </trkpt>
      <trkpt lat="45.26939" lon="6.17716">
        <ele>2007.2</ele>
        <time>2019-03-30T09:24:26Z</time>
      </trkpt>
      <trkpt lat="45.26941" lon="6.17714">
        <ele>2008.8</ele>
        <time>2019-03-30T09:24:31Z</time>
      </trkpt>
      <trkpt lat="45.26942" lon="6.17713">
        <ele>2009.6</ele>
        <time>2019-03-30T09:24:36Z</time>
      </trkpt>
      <trkpt lat="45.26944" lon="6.17711">
        <ele>2010.6</ele>
        <time>2019-03-30T09:24:41Z</time>
      </trkpt>
      <trkpt lat="45.26946" lon="6.17709">
        <ele>2011</ele>
        <time>2019-03-30T09:24:46Z</time>
      </trkpt>
      <trkpt lat="45.26948" lon="6.17707">
        <ele>2011.4</ele>
        <time>2019-03-30T09:24:51Z</time>
      </trkpt>
      <trkpt lat="45.2695" lon="6.17706">
        <ele>2011.6</ele>
        <time>2019-03-30T09:24:56Z</time>
      </trkpt>
      <trkpt lat="45.26952" lon="6.17704">
        <ele>2012</ele>
        <time>2019-03-30T09:25:01Z</time>
      </trkpt>
      <trkpt lat="45.26953" lon="6.17702">
        <ele>2013.4</ele>
        <time>2019-03-30T09:25:06Z</time>
      </trkpt>
      <trkpt lat="45.26952" lon="6.177">
        <ele>2013</ele>
        <time>2019-03-30T09:25:11Z</time>
      </trkpt>
      <trkpt lat="45.2695" lon="6.17698">
        <ele>2012</ele>
        <time>2019-03-30T09:25:16Z</time>
      </trkpt>
      <trkpt lat="45.26948" lon="6.17696">
        <ele>2015.8</ele>
        <time>2019-03-30T09:25:21Z</time>
      </trkpt>
      <trkpt lat="45.26947" lon="6.17693">
        <ele>2016.4</ele>
        <time>2019-03-30T09:25:26Z</time>
      </trkpt>
      <trkpt lat="45.26946" lon="6.17691">
        <ele>2016.4</ele>
        <time>2019-03-30T09:25:31Z</time>
      </trkpt>
      <trkpt lat="45.26945" lon="6.17688">
        <ele>2017.6</ele>
        <time>2019-03-30T09:25:36Z</time>
      </trkpt>
      <trkpt lat="45.26944" lon="6.17685">
        <ele>2018</ele>
        <time>2019-03-30T09:25:41Z</time>
      </trkpt>
      <trkpt lat="45.26943" lon="6.17682">
        <ele>2017.4</ele>
        <time>2019-03-30T09:25:46Z</time>
      </trkpt>
      <trkpt lat="45.26942" lon="6.17679">
        <ele>2019.4</ele>
        <time>2019-03-30T09:25:51Z</time>
      </trkpt>
      <trkpt lat="45.26942" lon="6.17676">
        <ele>2019.6</ele>
        <time>2019-03-30T09:25:56Z</time>
      </trkpt>
      <trkpt lat="45.26941" lon="6.17673">
        <ele>2020.2</ele>
        <time>2019-03-30T09:26:01Z</time>
      </trkpt>
      <trkpt lat="45.26941" lon="6.17671">
        <ele>2021</ele>
        <time>2019-03-30T09:26:06Z</time>
      </trkpt>
      <trkpt lat="45.26943" lon="6.17669">
        <ele>2022.4</ele>
        <time>2019-03-30T09:26:11Z</time>
      </trkpt>
      <trkpt lat="45.26946" lon="6.17668">
        <ele>2021.2</ele>
        <time>2019-03-30T09:26:16Z</time>
      </trkpt>
      <trkpt lat="45.26948" lon="6.17667">
        <ele>2023.6</ele>
        <time>2019-03-30T09:26:21Z</time>
      </trkpt>
      <trkpt lat="45.2695" lon="6.17666">
        <ele>2022.4</ele>
        <time>2019-03-30T09:26:26Z</time>
      </trkpt>
      <trkpt lat="45.26953" lon="6.17665">
        <ele>2025.4</ele>
        <time>2019-03-30T09:26:31Z</time>
      </trkpt>
      <trkpt lat="45.26955" lon="6.17664">
        <ele>2025.8</ele>
        <time>2019-03-30T09:26:36Z</time>
      </trkpt>
      <trkpt lat="45.26956" lon="6.17663">
        <ele>2026</ele>
        <time>2019-03-30T09:26:41Z</time>
      </trkpt>
      <trkpt lat="45.26955" lon="6.1766">
        <ele>2022.4</ele>
        <time>2019-03-30T09:26:46Z</time>
      </trkpt>
      <trkpt lat="45.26953" lon="6.17658">
        <ele>2023.8</ele>
        <time>2019-03-30T09:26:51Z</time>
      </trkpt>
      <trkpt lat="45.26952" lon="6.17654">
        <ele>2027.2</ele>
        <time>2019-03-30T09:26:56Z</time>
      </trkpt>
      <trkpt lat="45.2695" lon="6.17651">
        <ele>2027.6</ele>
        <time>2019-03-30T09:27:01Z</time>
      </trkpt>
      <trkpt lat="45.26949" lon="6.17648">
        <ele>2027.4</ele>
        <time>2019-03-30T09:27:06Z</time>
      </trkpt>
      <trkpt lat="45.26948" lon="6.17645">
        <ele>2026.8</ele>
        <time>2019-03-30T09:27:11Z</time>
      </trkpt>
      <trkpt lat="45.26947" lon="6.17643">
        <ele>2028.4</ele>
        <time>2019-03-30T09:27:16Z</time>
      </trkpt>
      <trkpt lat="45.26945" lon="6.1764">
        <ele>2028.2</ele>
        <time>2019-03-30T09:27:21Z</time>
      </trkpt>
      <trkpt lat="45.26944" lon="6.17639">
        <ele>2031.4</ele>
        <time>2019-03-30T09:27:26Z</time>
      </trkpt>
      <trkpt lat="45.26944" lon="6.17638">
        <ele>2029.6</ele>
        <time>2019-03-30T09:27:31Z</time>
      </trkpt>
      <trkpt lat="45.26942" lon="6.17635">
        <ele>2030</ele>
        <time>2019-03-30T09:27:36Z</time>
      </trkpt>
      <trkpt lat="45.26941" lon="6.17633">
        <ele>2033</ele>
        <time>2019-03-30T09:27:41Z</time>
      </trkpt>
      <trkpt lat="45.26939" lon="6.17631">
        <ele>2032.4</ele>
        <time>2019-03-30T09:27:46Z</time>
      </trkpt>
      <trkpt lat="45.26937" lon="6.1763">
        <ele>2032.8</ele>
        <time>2019-03-30T09:27:51Z</time>
      </trkpt>
      <trkpt lat="45.26937" lon="6.17627">
        <ele>2034.2</ele>
        <time>2019-03-30T09:27:56Z</time>
      </trkpt>
      <trkpt lat="45.26939" lon="6.17625">
        <ele>2033.8</ele>
        <time>2019-03-30T09:28:01Z</time>
      </trkpt>
      <trkpt lat="45.26941" lon="6.17623">
        <ele>2033</ele>
        <time>2019-03-30T09:28:06Z</time>
      </trkpt>
      <trkpt lat="45.26943" lon="6.17621">
        <ele>2035.8</ele>
        <time>2019-03-30T09:28:11Z</time>
      </trkpt>
      <trkpt lat="45.26944" lon="6.17619">
        <ele>2036.2</ele>
        <time>2019-03-30T09:28:16Z</time>
      </trkpt>
      <trkpt lat="45.26946" lon="6.17617">
        <ele>2034.2</ele>
        <time>2019-03-30T09:28:21Z</time>
      </trkpt>
      <trkpt lat="45.26948" lon="6.17614">
        <ele>2036</ele>
        <time>2019-03-30T09:28:26Z</time>
      </trkpt>
      <trkpt lat="45.26949" lon="6.17611">
        <ele>2038</ele>
        <time>2019-03-30T09:28:31Z</time>
      </trkpt>
      <trkpt lat="45.26951" lon="6.17609">
        <ele>2038.6</ele>
        <time>2019-03-30T09:28:36Z</time>
      </trkpt>
      <trkpt lat="45.26953" lon="6.17608">
        <ele>2039.6</ele>
        <time>2019-03-30T09:28:41Z</time>
      </trkpt>
      <trkpt lat="45.26954" lon="6.17607">
        <ele>2039.6</ele>
        <time>2019-03-30T09:28:46Z</time>
      </trkpt>
      <trkpt lat="45.26957" lon="6.17606">
        <ele>2038</ele>
        <time>2019-03-30T09:28:51Z</time>
      </trkpt>
      <trkpt lat="45.26958" lon="6.17604">
        <ele>2039</ele>
        <time>2019-03-30T09:28:56Z</time>
      </trkpt>
      <trkpt lat="45.26956" lon="6.17601">
        <ele>2039.4</ele>
        <time>2019-03-30T09:29:01Z</time>
      </trkpt>
      <trkpt lat="45.26956" lon="6.17598">
        <ele>2043.8</ele>
        <time>2019-03-30T09:29:06Z</time>
      </trkpt>
      <trkpt lat="45.26955" lon="6.17595">
        <ele>2045</ele>
        <time>2019-03-30T09:29:11Z</time>
      </trkpt>
      <trkpt lat="45.26955" lon="6.17592">
        <ele>2045.6</ele>
        <time>2019-03-30T09:29:16Z</time>
      </trkpt>
      <trkpt lat="45.26955" lon="6.17589">
        <ele>2044.8</ele>
        <time>2019-03-30T09:29:21Z</time>
      </trkpt>
      <trkpt lat="45.26955" lon="6.17586">
        <ele>2047.4</ele>
        <time>2019-03-30T09:29:26Z</time>
      </trkpt>
      <trkpt lat="45.26954" lon="6.17583">
        <ele>2049.4</ele>
        <time>2019-03-30T09:29:31Z</time>
      </trkpt>
      <trkpt lat="45.26953" lon="6.17581">
        <ele>2048.2</ele>
        <time>2019-03-30T09:29:36Z</time>
      </trkpt>
      <trkpt lat="45.26951" lon="6.17579">
        <ele>2047.6</ele>
        <time>2019-03-30T09:29:41Z</time>
      </trkpt>
      <trkpt lat="45.26949" lon="6.17577">
        <ele>2051</ele>
        <time>2019-03-30T09:29:46Z</time>
      </trkpt>
      <trkpt lat="45.26947" lon="6.17575">
        <ele>2048.8</ele>
        <time>2019-03-30T09:29:51Z</time>
      </trkpt>
      <trkpt lat="45.26946" lon="6.17574">
        <ele>2047</ele>
        <time>2019-03-30T09:29:56Z</time>
      </trkpt>
      <trkpt lat="45.26944" lon="6.17573">
        <ele>2049.4</ele>
        <time>2019-03-30T09:30:01Z</time>
      </trkpt>
      <trkpt lat="45.26943" lon="6.17573">
        <ele>2049</ele>
        <time>2019-03-30T09:30:06Z</time>
      </trkpt>
      <trkpt lat="45.26941" lon="6.17572">
        <ele>2049.6</ele>
        <time>2019-03-30T09:30:11Z</time>
      </trkpt>
      <trkpt lat="45.26938" lon="6.17571">
        <ele>2052.8</ele>
        <time>2019-03-30T09:30:16Z</time>
      </trkpt>
      <trkpt lat="45.26936" lon="6.1757">
        <ele>2051.8</ele>
        <time>2019-03-30T09:30:21Z</time>
      </trkpt>
      <trkpt lat="45.26935" lon="6.17569">
        <ele>2052</ele>
        <time>2019-03-30T09:30:26Z</time>
      </trkpt>
      <trkpt lat="45.26935" lon="6.17567">
        <ele>2052.4</ele>
        <time>2019-03-30T09:30:31Z</time>
      </trkpt>
      <trkpt lat="45.26936" lon="6.17564">
        <ele>2049</ele>
        <time>2019-03-30T09:30:36Z</time>
      </trkpt>
      <trkpt lat="45.26937" lon="6.17561">
        <ele>2052.6</ele>
        <time>2019-03-30T09:30:41Z</time>
      </trkpt>
      <trkpt lat="45.26938" lon="6.17558">
        <ele>2051.8</ele>
        <time>2019-03-30T09:30:46Z</time>
      </trkpt>
      <trkpt lat="45.26939" lon="6.17555">
        <ele>2051.6</ele>
        <time>2019-03-30T09:30:51Z</time>
      </trkpt>
      <trkpt lat="45.2694" lon="6.17553">
        <ele>2054.6</ele>
        <time>2019-03-30T09:30:56Z</time>
      </trkpt>
      <trkpt lat="45.2694" lon="6.17551">
        <ele>2053.8</ele>
        <time>2019-03-30T09:31:01Z</time>
      </trkpt>
      <trkpt lat="45.26942" lon="6.17548">
        <ele>2055.2</ele>
        <time>2019-03-30T09:31:06Z</time>
      </trkpt>
      <trkpt lat="45.26943" lon="6.17547">
        <ele>2053.2</ele>
        <time>2019-03-30T09:31:11Z</time>
      </trkpt>
      <trkpt lat="45.26945" lon="6.17544">
        <ele>2058.4</ele>
        <time>2019-03-30T09:31:16Z</time>
      </trkpt>
      <trkpt lat="45.26946" lon="6.17542">
        <ele>2055.6</ele>
        <time>2019-03-30T09:31:21Z</time>
      </trkpt>
      <trkpt lat="45.26948" lon="6.17541">
        <ele>2058.2</ele>
        <time>2019-03-30T09:31:26Z</time>
      </trkpt>
      <trkpt lat="45.26949" lon="6.17539">
        <ele>2060.2</ele>
        <time>2019-03-30T09:31:31Z</time>
      </trkpt>
      <trkpt lat="45.26951" lon="6.17537">
        <ele>2062.4</ele>
        <time>2019-03-30T09:31:36Z</time>
      </trkpt>
      <trkpt lat="45.26954" lon="6.17536">
        <ele>2061.4</ele>
        <time>2019-03-30T09:31:41Z</time>
      </trkpt>
      <trkpt lat="45.26956" lon="6.17535">
        <ele>2063.4</ele>
        <time>2019-03-30T09:31:46Z</time>
      </trkpt>
      <trkpt lat="45.26958" lon="6.17534">
        <ele>2063</ele>
        <time>2019-03-30T09:31:51Z</time>
      </trkpt>
      <trkpt lat="45.2696" lon="6.17533">
        <ele>2068.6</ele>
        <time>2019-03-30T09:31:56Z</time>
      </trkpt>
      <trkpt lat="45.26962" lon="6.17533">
        <ele>2062.2</ele>
        <time>2019-03-30T09:32:01Z</time>
      </trkpt>
      <trkpt lat="45.26964" lon="6.17533">
        <ele>2068.2</ele>
        <time>2019-03-30T09:32:06Z</time>
      </trkpt>
      <trkpt lat="45.26966" lon="6.17533">
        <ele>2067.8</ele>
        <time>2019-03-30T09:32:11Z</time>
      </trkpt>
      <trkpt lat="45.26968" lon="6.17534">
        <ele>2067.4</ele>
        <time>2019-03-30T09:32:16Z</time>
      </trkpt>
      <trkpt lat="45.26969" lon="6.17534">
        <ele>2065</ele>
        <time>2019-03-30T09:32:21Z</time>
      </trkpt>
      <trkpt lat="45.26971" lon="6.17535">
        <ele>2066</ele>
        <time>2019-03-30T09:32:26Z</time>
      </trkpt>
      <trkpt lat="45.26973" lon="6.17536">
        <ele>2064.8</ele>
        <time>2019-03-30T09:32:31Z</time>
      </trkpt>
      <trkpt lat="45.26974" lon="6.17537">
        <ele>2068.8</ele>
        <time>2019-03-30T09:32:36Z</time>
      </trkpt>
      <trkpt lat="45.26976" lon="6.17537">
        <ele>2068.2</ele>
        <time>2019-03-30T09:32:41Z</time>
      </trkpt>
      <trkpt lat="45.26978" lon="6.17537">
        <ele>2069.6</ele>
        <time>2019-03-30T09:32:46Z</time>
      </trkpt>
      <trkpt lat="45.2698" lon="6.17537">
        <ele>2072.8</ele>
        <time>2019-03-30T09:32:51Z</time>
      </trkpt>
      <trkpt lat="45.26982" lon="6.17537">
        <ele>2070.6</ele>
        <time>2019-03-30T09:32:56Z</time>
      </trkpt>
      <trkpt lat="45.26984" lon="6.17537">
        <ele>2073.6</ele>
        <time>2019-03-30T09:33:01Z</time>
      </trkpt>
      <trkpt lat="45.26986" lon="6.17536">
        <ele>2076.2</ele>
        <time>2019-03-30T09:33:06Z</time>
      </trkpt>
      <trkpt lat="45.26988" lon="6.17536">
        <ele>2076.2</ele>
        <time>2019-03-30T09:33:11Z</time>
      </trkpt>
      <trkpt lat="45.2699" lon="6.17535">
        <ele>2075.4</ele>
        <time>2019-03-30T09:33:16Z</time>
      </trkpt>
      <trkpt lat="45.26992" lon="6.17534">
        <ele>2075</ele>
        <time>2019-03-30T09:33:21Z</time>
      </trkpt>
      <trkpt lat="45.26994" lon="6.17533">
        <ele>2075.4</ele>
        <time>2019-03-30T09:33:26Z</time>
      </trkpt>
      <trkpt lat="45.26996" lon="6.17532">
        <ele>2076</ele>
        <time>2019-03-30T09:33:31Z</time>
      </trkpt>
      <trkpt lat="45.26998" lon="6.17531">
        <ele>2080</ele>
        <time>2019-03-30T09:33:36Z</time>
      </trkpt>
      <trkpt lat="45.26997" lon="6.17529">
        <ele>2082.4</ele>
        <time>2019-03-30T09:33:41Z</time>
      </trkpt>
      <trkpt lat="45.26995" lon="6.17526">
        <ele>2086.2</ele>
        <time>2019-03-30T09:33:46Z</time>
      </trkpt>
      <trkpt lat="45.26993" lon="6.17524">
        <ele>2083.6</ele>
        <time>2019-03-30T09:33:51Z</time>
      </trkpt>
      <trkpt lat="45.26991" lon="6.17522">
        <ele>2084.2</ele>
        <time>2019-03-30T09:33:56Z</time>
      </trkpt>
      <trkpt lat="45.26989" lon="6.17519">
        <ele>2083</ele>
        <time>2019-03-30T09:34:01Z</time>
      </trkpt>
      <trkpt lat="45.26988" lon="6.17516">
        <ele>2085.2</ele>
        <time>2019-03-30T09:34:06Z</time>
      </trkpt>
      <trkpt lat="45.26986" lon="6.17514">
        <ele>2086.6</ele>
        <time>2019-03-30T09:34:11Z</time>
      </trkpt>
      <trkpt lat="45.26984" lon="6.17511">
        <ele>2083.8</ele>
        <time>2019-03-30T09:34:16Z</time>
      </trkpt>
      <trkpt lat="45.26981" lon="6.17507">
        <ele>2087</ele>
        <time>2019-03-30T09:34:21Z</time>
      </trkpt>
      <trkpt lat="45.26979" lon="6.17504">
        <ele>2088.4</ele>
        <time>2019-03-30T09:34:26Z</time>
      </trkpt>
      <trkpt lat="45.26977" lon="6.175">
        <ele>2085.2</ele>
        <time>2019-03-30T09:34:31Z</time>
      </trkpt>
      <trkpt lat="45.26976" lon="6.17496">
        <ele>2084.6</ele>
        <time>2019-03-30T09:34:36Z</time>
      </trkpt>
      <trkpt lat="45.26975" lon="6.17492">
        <ele>2086.2</ele>
        <time>2019-03-30T09:34:41Z</time>
      </trkpt>
      <trkpt lat="45.26974" lon="6.1749">
        <ele>2085.8</ele>
        <time>2019-03-30T09:34:46Z</time>
      </trkpt>
      <trkpt lat="45.26974" lon="6.1749">
        <ele>2086.8</ele>
        <time>2019-03-30T09:34:51Z</time>
      </trkpt>
      <trkpt lat="45.26975" lon="6.17489">
        <ele>2088.2</ele>
        <time>2019-03-30T09:35:01Z</time>
      </trkpt>
      <trkpt lat="45.26976" lon="6.17486">
        <ele>2089.6</ele>
        <time>2019-03-30T09:35:06Z</time>
      </trkpt>
      <trkpt lat="45.26977" lon="6.17483">
        <ele>2089.6</ele>
        <time>2019-03-30T09:35:11Z</time>
      </trkpt>
      <trkpt lat="45.26978" lon="6.1748">
        <ele>2090.4</ele>
        <time>2019-03-30T09:35:16Z</time>
      </trkpt>
      <trkpt lat="45.26978" lon="6.17477">
        <ele>2090.6</ele>
        <time>2019-03-30T09:35:21Z</time>
      </trkpt>
      <trkpt lat="45.26977" lon="6.17473">
        <ele>2092.6</ele>
        <time>2019-03-30T09:35:26Z</time>
      </trkpt>
      <trkpt lat="45.26977" lon="6.17469">
        <ele>2093.2</ele>
        <time>2019-03-30T09:35:31Z</time>
      </trkpt>
      <trkpt lat="45.26977" lon="6.17465">
        <ele>2096.4</ele>
        <time>2019-03-30T09:35:36Z</time>
      </trkpt>
      <trkpt lat="45.26977" lon="6.17459">
        <ele>2097.4</ele>
        <time>2019-03-30T09:35:41Z</time>
      </trkpt>
      <trkpt lat="45.26977" lon="6.17456">
        <ele>2094.8</ele>
        <time>2019-03-30T09:35:46Z</time>
      </trkpt>
      <trkpt lat="45.26977" lon="6.17452">
        <ele>2095</ele>
        <time>2019-03-30T09:35:51Z</time>
      </trkpt>
      <trkpt lat="45.26977" lon="6.17449">
        <ele>2090.6</ele>
        <time>2019-03-30T09:35:56Z</time>
      </trkpt>
      <trkpt lat="45.26977" lon="6.17446">
        <ele>2096.2</ele>
        <time>2019-03-30T09:36:01Z</time>
      </trkpt>
      <trkpt lat="45.26978" lon="6.17443">
        <ele>2094.2</ele>
        <time>2019-03-30T09:36:06Z</time>
      </trkpt>
      <trkpt lat="45.26978" lon="6.1744">
        <ele>2099</ele>
        <time>2019-03-30T09:36:11Z</time>
      </trkpt>
      <trkpt lat="45.26978" lon="6.17437">
        <ele>2097.8</ele>
        <time>2019-03-30T09:36:16Z</time>
      </trkpt>
      <trkpt lat="45.26978" lon="6.17434">
        <ele>2100.8</ele>
        <time>2019-03-30T09:36:21Z</time>
      </trkpt>
      <trkpt lat="45.26978" lon="6.1743">
        <ele>2099</ele>
        <time>2019-03-30T09:36:26Z</time>
      </trkpt>
      <trkpt lat="45.26978" lon="6.17427">
        <ele>2099.2</ele>
        <time>2019-03-30T09:36:31Z</time>
      </trkpt>
      <trkpt lat="45.26978" lon="6.17426">
        <ele>2099</ele>
        <time>2019-03-30T09:36:36Z</time>
      </trkpt>
      <trkpt lat="45.26978" lon="6.17424">
        <ele>2099.8</ele>
        <time>2019-03-30T09:36:41Z</time>
      </trkpt>
      <trkpt lat="45.26978" lon="6.17421">
        <ele>2104</ele>
        <time>2019-03-30T09:36:46Z</time>
      </trkpt>
      <trkpt lat="45.26978" lon="6.17418">
        <ele>2104</ele>
        <time>2019-03-30T09:36:51Z</time>
      </trkpt>
      <trkpt lat="45.26979" lon="6.17414">
        <ele>2107.2</ele>
        <time>2019-03-30T09:36:56Z</time>
      </trkpt>
      <trkpt lat="45.26981" lon="6.1741">
        <ele>2112.6</ele>
        <time>2019-03-30T09:49:11Z</time>
      </trkpt>
      <trkpt lat="45.26983" lon="6.17406">
        <ele>2113.2</ele>
        <time>2019-03-30T09:49:16Z</time>
      </trkpt>
      <trkpt lat="45.26984" lon="6.17401">
        <ele>2113</ele>
        <time>2019-03-30T09:49:21Z</time>
      </trkpt>
      <trkpt lat="45.26986" lon="6.17397">
        <ele>2114.2</ele>
        <time>2019-03-30T09:49:26Z</time>
      </trkpt>
      <trkpt lat="45.26986" lon="6.17393">
        <ele>2112</ele>
        <time>2019-03-30T09:49:31Z</time>
      </trkpt>
      <trkpt lat="45.26987" lon="6.17389">
        <ele>2111.6</ele>
        <time>2019-03-30T09:49:36Z</time>
      </trkpt>
      <trkpt lat="45.26988" lon="6.17385">
        <ele>2111.4</ele>
        <time>2019-03-30T09:49:41Z</time>
      </trkpt>
      <trkpt lat="45.26988" lon="6.17381">
        <ele>2111.8</ele>
        <time>2019-03-30T09:49:46Z</time>
      </trkpt>
      <trkpt lat="45.26988" lon="6.17377">
        <ele>2113.2</ele>
        <time>2019-03-30T09:49:51Z</time>
      </trkpt>
      <trkpt lat="45.26989" lon="6.17373">
        <ele>2113.2</ele>
        <time>2019-03-30T09:49:56Z</time>
      </trkpt>
      <trkpt lat="45.26989" lon="6.17369">
        <ele>2111.2</ele>
        <time>2019-03-30T09:50:01Z</time>
      </trkpt>
      <trkpt lat="45.2699" lon="6.17365">
        <ele>2113.6</ele>
        <time>2019-03-30T09:50:06Z</time>
      </trkpt>
      <trkpt lat="45.2699" lon="6.17361">
        <ele>2114.6</ele>
        <time>2019-03-30T09:50:11Z</time>
      </trkpt>
      <trkpt lat="45.26991" lon="6.17357">
        <ele>2114.2</ele>
        <time>2019-03-30T09:50:16Z</time>
      </trkpt>
      <trkpt lat="45.26992" lon="6.17353">
        <ele>2113.8</ele>
        <time>2019-03-30T09:50:21Z</time>
      </trkpt>
      <trkpt lat="45.26992" lon="6.1735">
        <ele>2112.4</ele>
        <time>2019-03-30T09:50:26Z</time>
      </trkpt>
      <trkpt lat="45.26993" lon="6.17346">
        <ele>2115.4</ele>
        <time>2019-03-30T09:50:31Z</time>
      </trkpt>
      <trkpt lat="45.26993" lon="6.17343">
        <ele>2114.4</ele>
        <time>2019-03-30T09:50:36Z</time>
      </trkpt>
      <trkpt lat="45.26994" lon="6.17339">
        <ele>2116.6</ele>
        <time>2019-03-30T09:50:41Z</time>
      </trkpt>
      <trkpt lat="45.26994" lon="6.17336">
        <ele>2117.2</ele>
        <time>2019-03-30T09:50:46Z</time>
      </trkpt>
      <trkpt lat="45.26995" lon="6.17333">
        <ele>2116</ele>
        <time>2019-03-30T09:50:51Z</time>
      </trkpt>
      <trkpt lat="45.26995" lon="6.1733">
        <ele>2116</ele>
        <time>2019-03-30T09:50:56Z</time>
      </trkpt>
      <trkpt lat="45.26995" lon="6.17326">
        <ele>2118.4</ele>
        <time>2019-03-30T09:51:01Z</time>
      </trkpt>
      <trkpt lat="45.26996" lon="6.17323">
        <ele>2115.8</ele>
        <time>2019-03-30T09:51:06Z</time>
      </trkpt>
      <trkpt lat="45.26996" lon="6.17319">
        <ele>2116.6</ele>
        <time>2019-03-30T09:51:11Z</time>
      </trkpt>
      <trkpt lat="45.26997" lon="6.17316">
        <ele>2117</ele>
        <time>2019-03-30T09:51:16Z</time>
      </trkpt>
      <trkpt lat="45.26997" lon="6.17313">
        <ele>2117.4</ele>
        <time>2019-03-30T09:51:21Z</time>
      </trkpt>
      <trkpt lat="45.26998" lon="6.1731">
        <ele>2118</ele>
        <time>2019-03-30T09:51:26Z</time>
      </trkpt>
      <trkpt lat="45.26998" lon="6.17306">
        <ele>2118.8</ele>
        <time>2019-03-30T09:51:31Z</time>
      </trkpt>
      <trkpt lat="45.26999" lon="6.17303">
        <ele>2121</ele>
        <time>2019-03-30T09:51:36Z</time>
      </trkpt>
      <trkpt lat="45.26999" lon="6.173">
        <ele>2122.4</ele>
        <time>2019-03-30T09:51:41Z</time>
      </trkpt>
      <trkpt lat="45.27" lon="6.17297">
        <ele>2123.8</ele>
        <time>2019-03-30T09:51:46Z</time>
      </trkpt>
      <trkpt lat="45.27" lon="6.17294">
        <ele>2123</ele>
        <time>2019-03-30T09:51:51Z</time>
      </trkpt>
      <trkpt lat="45.27001" lon="6.17291">
        <ele>2126.6</ele>
        <time>2019-03-30T09:51:56Z</time>
      </trkpt>
      <trkpt lat="45.27002" lon="6.17289">
        <ele>2125.2</ele>
        <time>2019-03-30T09:52:01Z</time>
      </trkpt>
      <trkpt lat="45.27002" lon="6.17286">
        <ele>2127.4</ele>
        <time>2019-03-30T09:52:06Z</time>
      </trkpt>
      <trkpt lat="45.27003" lon="6.17283">
        <ele>2128.2</ele>
        <time>2019-03-30T09:52:11Z</time>
      </trkpt>
      <trkpt lat="45.27002" lon="6.1728">
        <ele>2128</ele>
        <time>2019-03-30T09:52:16Z</time>
      </trkpt>
      <trkpt lat="45.27003" lon="6.17277">
        <ele>2128.8</ele>
        <time>2019-03-30T09:52:21Z</time>
      </trkpt>
      <trkpt lat="45.27004" lon="6.17274">
        <ele>2128</ele>
        <time>2019-03-30T09:52:26Z</time>
      </trkpt>
      <trkpt lat="45.27004" lon="6.17271">
        <ele>2131.4</ele>
        <time>2019-03-30T09:52:31Z</time>
      </trkpt>
      <trkpt lat="45.27005" lon="6.17267">
        <ele>2130.2</ele>
        <time>2019-03-30T09:52:36Z</time>
      </trkpt>
      <trkpt lat="45.27005" lon="6.17264">
        <ele>2132</ele>
        <time>2019-03-30T09:52:41Z</time>
      </trkpt>
      <trkpt lat="45.27005" lon="6.17262">
        <ele>2131.4</ele>
        <time>2019-03-30T09:52:46Z</time>
      </trkpt>
      <trkpt lat="45.27005" lon="6.17259">
        <ele>2133.8</ele>
        <time>2019-03-30T09:52:51Z</time>
      </trkpt>
      <trkpt lat="45.27005" lon="6.17255">
        <ele>2136</ele>
        <time>2019-03-30T09:52:56Z</time>
      </trkpt>
      <trkpt lat="45.27005" lon="6.17252">
        <ele>2136</ele>
        <time>2019-03-30T09:53:01Z</time>
      </trkpt>
      <trkpt lat="45.27005" lon="6.17249">
        <ele>2136.6</ele>
        <time>2019-03-30T09:53:06Z</time>
      </trkpt>
      <trkpt lat="45.27006" lon="6.17247">
        <ele>2139.2</ele>
        <time>2019-03-30T09:53:11Z</time>
      </trkpt>
      <trkpt lat="45.27007" lon="6.17243">
        <ele>2137.8</ele>
        <time>2019-03-30T09:53:16Z</time>
      </trkpt>
      <trkpt lat="45.27007" lon="6.1724">
        <ele>2137</ele>
        <time>2019-03-30T09:53:21Z</time>
      </trkpt>
      <trkpt lat="45.27007" lon="6.17237">
        <ele>2138.6</ele>
        <time>2019-03-30T09:53:26Z</time>
      </trkpt>
      <trkpt lat="45.27008" lon="6.17234">
        <ele>2142</ele>
        <time>2019-03-30T09:53:31Z</time>
      </trkpt>
      <trkpt lat="45.27008" lon="6.17231">
        <ele>2143</ele>
        <time>2019-03-30T09:53:36Z</time>
      </trkpt>
      <trkpt lat="45.27009" lon="6.17228">
        <ele>2143.2</ele>
        <time>2019-03-30T09:53:41Z</time>
      </trkpt>
      <trkpt lat="45.27009" lon="6.17225">
        <ele>2147.2</ele>
        <time>2019-03-30T09:53:46Z</time>
      </trkpt>
      <trkpt lat="45.27009" lon="6.17222">
        <ele>2149.4</ele>
        <time>2019-03-30T09:53:51Z</time>
      </trkpt>
      <trkpt lat="45.27009" lon="6.17219">
        <ele>2148</ele>
        <time>2019-03-30T09:53:56Z</time>
      </trkpt>
      <trkpt lat="45.27009" lon="6.17216">
        <ele>2145.2</ele>
        <time>2019-03-30T09:54:01Z</time>
      </trkpt>
      <trkpt lat="45.2701" lon="6.17214">
        <ele>2144.2</ele>
        <time>2019-03-30T09:54:06Z</time>
      </trkpt>
      <trkpt lat="45.2701" lon="6.17211">
        <ele>2145.8</ele>
        <time>2019-03-30T09:54:11Z</time>
      </trkpt>
      <trkpt lat="45.27011" lon="6.1721">
        <ele>2147.4</ele>
        <time>2019-03-30T09:54:16Z</time>
      </trkpt>
      <trkpt lat="45.27013" lon="6.17209">
        <ele>2145</ele>
        <time>2019-03-30T09:54:21Z</time>
      </trkpt>
      <trkpt lat="45.27014" lon="6.17208">
        <ele>2145.8</ele>
        <time>2019-03-30T09:54:26Z</time>
      </trkpt>
      <trkpt lat="45.27015" lon="6.17205">
        <ele>2147</ele>
        <time>2019-03-30T09:54:31Z</time>
      </trkpt>
      <trkpt lat="45.27014" lon="6.17203">
        <ele>2149.6</ele>
        <time>2019-03-30T09:54:36Z</time>
      </trkpt>
      <trkpt lat="45.27014" lon="6.172">
        <ele>2150.8</ele>
        <time>2019-03-30T09:54:41Z</time>
      </trkpt>
      <trkpt lat="45.27014" lon="6.17198">
        <ele>2150.6</ele>
        <time>2019-03-30T09:54:46Z</time>
      </trkpt>
      <trkpt lat="45.27014" lon="6.17195">
        <ele>2152</ele>
        <time>2019-03-30T09:54:51Z</time>
      </trkpt>
      <trkpt lat="45.27013" lon="6.17192">
        <ele>2151.6</ele>
        <time>2019-03-30T09:54:56Z</time>
      </trkpt>
      <trkpt lat="45.27013" lon="6.17189">
        <ele>2153.6</ele>
        <time>2019-03-30T09:55:01Z</time>
      </trkpt>
      <trkpt lat="45.27013" lon="6.17186">
        <ele>2151</ele>
        <time>2019-03-30T09:55:06Z</time>
      </trkpt>
      <trkpt lat="45.27013" lon="6.17184">
        <ele>2151.8</ele>
        <time>2019-03-30T09:55:11Z</time>
      </trkpt>
      <trkpt lat="45.27014" lon="6.17182">
        <ele>2154.2</ele>
        <time>2019-03-30T09:55:16Z</time>
      </trkpt>
      <trkpt lat="45.27014" lon="6.17181">
        <ele>2154.8</ele>
        <time>2019-03-30T09:55:31Z</time>
      </trkpt>
      <trkpt lat="45.27015" lon="6.17179">
        <ele>2157.6</ele>
        <time>2019-03-30T09:55:36Z</time>
      </trkpt>
      <trkpt lat="45.27015" lon="6.17175">
        <ele>2158.2</ele>
        <time>2019-03-30T09:55:41Z</time>
      </trkpt>
      <trkpt lat="45.27015" lon="6.17172">
        <ele>2159.2</ele>
        <time>2019-03-30T09:55:46Z</time>
      </trkpt>
      <trkpt lat="45.27015" lon="6.17169">
        <ele>2156.8</ele>
        <time>2019-03-30T09:55:51Z</time>
      </trkpt>
      <trkpt lat="45.27015" lon="6.17166">
        <ele>2158.8</ele>
        <time>2019-03-30T09:55:56Z</time>
      </trkpt>
      <trkpt lat="45.27013" lon="6.17163">
        <ele>2158.6</ele>
        <time>2019-03-30T09:56:01Z</time>
      </trkpt>
      <trkpt lat="45.2701" lon="6.17162">
        <ele>2161.4</ele>
        <time>2019-03-30T09:56:06Z</time>
      </trkpt>
      <trkpt lat="45.27009" lon="6.1716">
        <ele>2159.8</ele>
        <time>2019-03-30T09:56:11Z</time>
      </trkpt>
      <trkpt lat="45.27006" lon="6.17159">
        <ele>2162.6</ele>
        <time>2019-03-30T09:56:16Z</time>
      </trkpt>
      <trkpt lat="45.27004" lon="6.17158">
        <ele>2160.4</ele>
        <time>2019-03-30T09:56:21Z</time>
      </trkpt>
      <trkpt lat="45.27001" lon="6.17156">
        <ele>2157.4</ele>
        <time>2019-03-30T09:56:26Z</time>
      </trkpt>
      <trkpt lat="45.26999" lon="6.17154">
        <ele>2160.2</ele>
        <time>2019-03-30T09:56:31Z</time>
      </trkpt>
      <trkpt lat="45.26997" lon="6.17153">
        <ele>2161.6</ele>
        <time>2019-03-30T09:56:36Z</time>
      </trkpt>
      <trkpt lat="45.26995" lon="6.17152">
        <ele>2162.8</ele>
        <time>2019-03-30T09:56:41Z</time>
      </trkpt>
      <trkpt lat="45.26993" lon="6.17151">
        <ele>2164.4</ele>
        <time>2019-03-30T09:56:46Z</time>
      </trkpt>
      <trkpt lat="45.26991" lon="6.17152">
        <ele>2166.4</ele>
        <time>2019-03-30T09:56:51Z</time>
      </trkpt>
      <trkpt lat="45.2699" lon="6.17152">
        <ele>2163.6</ele>
        <time>2019-03-30T09:56:56Z</time>
      </trkpt>
      <trkpt lat="45.26988" lon="6.1715">
        <ele>2167.6</ele>
        <time>2019-03-30T09:57:01Z</time>
      </trkpt>
      <trkpt lat="45.26986" lon="6.17149">
        <ele>2167.6</ele>
        <time>2019-03-30T09:57:06Z</time>
      </trkpt>
      <trkpt lat="45.26984" lon="6.17148">
        <ele>2169.8</ele>
        <time>2019-03-30T09:57:11Z</time>
      </trkpt>
      <trkpt lat="45.26982" lon="6.17147">
        <ele>2170</ele>
        <time>2019-03-30T09:57:16Z</time>
      </trkpt>
      <trkpt lat="45.2698" lon="6.17147">
        <ele>2168.4</ele>
        <time>2019-03-30T09:57:21Z</time>
      </trkpt>
      <trkpt lat="45.26977" lon="6.17147">
        <ele>2171.8</ele>
        <time>2019-03-30T09:57:26Z</time>
      </trkpt>
      <trkpt lat="45.26976" lon="6.17146">
        <ele>2172.4</ele>
        <time>2019-03-30T09:57:31Z</time>
      </trkpt>
      <trkpt lat="45.26974" lon="6.17144">
        <ele>2173.2</ele>
        <time>2019-03-30T09:57:36Z</time>
      </trkpt>
      <trkpt lat="45.26972" lon="6.17144">
        <ele>2172.8</ele>
        <time>2019-03-30T09:57:41Z</time>
      </trkpt>
      <trkpt lat="45.26971" lon="6.17143">
        <ele>2175</ele>
        <time>2019-03-30T09:57:46Z</time>
      </trkpt>
      <trkpt lat="45.26969" lon="6.17142">
        <ele>2173.2</ele>
        <time>2019-03-30T09:57:51Z</time>
      </trkpt>
      <trkpt lat="45.26967" lon="6.17142">
        <ele>2172.6</ele>
        <time>2019-03-30T09:57:56Z</time>
      </trkpt>
      <trkpt lat="45.26965" lon="6.17141">
        <ele>2173.2</ele>
        <time>2019-03-30T09:58:01Z</time>
      </trkpt>
      <trkpt lat="45.26964" lon="6.17141">
        <ele>2172.4</ele>
        <time>2019-03-30T09:58:06Z</time>
      </trkpt>
      <trkpt lat="45.26962" lon="6.17142">
        <ele>2173</ele>
        <time>2019-03-30T09:58:11Z</time>
      </trkpt>
      <trkpt lat="45.2696" lon="6.17142">
        <ele>2174</ele>
        <time>2019-03-30T09:58:16Z</time>
      </trkpt>
      <trkpt lat="45.26959" lon="6.17142">
        <ele>2174.2</ele>
        <time>2019-03-30T09:58:21Z</time>
      </trkpt>
      <trkpt lat="45.26957" lon="6.17142">
        <ele>2173.6</ele>
        <time>2019-03-30T09:58:26Z</time>
      </trkpt>
      <trkpt lat="45.26956" lon="6.1714">
        <ele>2176.2</ele>
        <time>2019-03-30T09:58:31Z</time>
      </trkpt>
      <trkpt lat="45.26957" lon="6.17137">
        <ele>2180.6</ele>
        <time>2019-03-30T09:58:36Z</time>
      </trkpt>
      <trkpt lat="45.26957" lon="6.17134">
        <ele>2179.4</ele>
        <time>2019-03-30T09:58:41Z</time>
      </trkpt>
      <trkpt lat="45.26958" lon="6.17131">
        <ele>2177.6</ele>
        <time>2019-03-30T09:58:46Z</time>
      </trkpt>
      <trkpt lat="45.26958" lon="6.17128">
        <ele>2178.2</ele>
        <time>2019-03-30T09:58:51Z</time>
      </trkpt>
      <trkpt lat="45.26957" lon="6.17125">
        <ele>2180.8</ele>
        <time>2019-03-30T09:58:56Z</time>
      </trkpt>
      <trkpt lat="45.26958" lon="6.17122">
        <ele>2183.6</ele>
        <time>2019-03-30T09:59:01Z</time>
      </trkpt>
      <trkpt lat="45.26958" lon="6.17119">
        <ele>2181.4</ele>
        <time>2019-03-30T09:59:06Z</time>
      </trkpt>
      <trkpt lat="45.26958" lon="6.17116">
        <ele>2183.2</ele>
        <time>2019-03-30T09:59:11Z</time>
      </trkpt>
      <trkpt lat="45.26958" lon="6.17113">
        <ele>2184</ele>
        <time>2019-03-30T09:59:16Z</time>
      </trkpt>
      <trkpt lat="45.26957" lon="6.1711">
        <ele>2181.6</ele>
        <time>2019-03-30T09:59:21Z</time>
      </trkpt>
      <trkpt lat="45.26957" lon="6.17107">
        <ele>2184.8</ele>
        <time>2019-03-30T09:59:26Z</time>
      </trkpt>
      <trkpt lat="45.26957" lon="6.17105">
        <ele>2186.8</ele>
        <time>2019-03-30T09:59:31Z</time>
      </trkpt>
      <trkpt lat="45.26957" lon="6.17102">
        <ele>2188.4</ele>
        <time>2019-03-30T09:59:36Z</time>
      </trkpt>
      <trkpt lat="45.26957" lon="6.171">
        <ele>2187.6</ele>
        <time>2019-03-30T09:59:41Z</time>
      </trkpt>
      <trkpt lat="45.26957" lon="6.17098">
        <ele>2185.2</ele>
        <time>2019-03-30T09:59:46Z</time>
      </trkpt>
      <trkpt lat="45.26957" lon="6.17095">
        <ele>2186.6</ele>
        <time>2019-03-30T09:59:51Z</time>
      </trkpt>
      <trkpt lat="45.26957" lon="6.17093">
        <ele>2187.4</ele>
        <time>2019-03-30T09:59:56Z</time>
      </trkpt>
      <trkpt lat="45.26958" lon="6.17091">
        <ele>2184.4</ele>
        <time>2019-03-30T10:00:01Z</time>
      </trkpt>
      <trkpt lat="45.26958" lon="6.17088">
        <ele>2187.2</ele>
        <time>2019-03-30T10:00:06Z</time>
      </trkpt>
      <trkpt lat="45.26958" lon="6.17085">
        <ele>2191.2</ele>
        <time>2019-03-30T10:00:11Z</time>
      </trkpt>
      <trkpt lat="45.26958" lon="6.17083">
        <ele>2189.4</ele>
        <time>2019-03-30T10:00:16Z</time>
      </trkpt>
      <trkpt lat="45.26955" lon="6.17083">
        <ele>2191.4</ele>
        <time>2019-03-30T10:00:21Z</time>
      </trkpt>
      <trkpt lat="45.26954" lon="6.17084">
        <ele>2193.2</ele>
        <time>2019-03-30T10:00:26Z</time>
      </trkpt>
      <trkpt lat="45.26952" lon="6.17085">
        <ele>2190.6</ele>
        <time>2019-03-30T10:00:31Z</time>
      </trkpt>
      <trkpt lat="45.26951" lon="6.17087">
        <ele>2189.6</ele>
        <time>2019-03-30T10:00:36Z</time>
      </trkpt>
      <trkpt lat="45.26949" lon="6.17087">
        <ele>2192.4</ele>
        <time>2019-03-30T10:00:41Z</time>
      </trkpt>
      <trkpt lat="45.26947" lon="6.17088">
        <ele>2189.6</ele>
        <time>2019-03-30T10:00:47Z</time>
      </trkpt>
      <trkpt lat="45.26946" lon="6.17089">
        <ele>2193</ele>
        <time>2019-03-30T10:00:52Z</time>
      </trkpt>
      <trkpt lat="45.26944" lon="6.17089">
        <ele>2192</ele>
        <time>2019-03-30T10:00:57Z</time>
      </trkpt>
      <trkpt lat="45.26943" lon="6.1709">
        <ele>2192.4</ele>
        <time>2019-03-30T10:01:02Z</time>
      </trkpt>
      <trkpt lat="45.26941" lon="6.17091">
        <ele>2194.4</ele>
        <time>2019-03-30T10:01:07Z</time>
      </trkpt>
      <trkpt lat="45.26939" lon="6.17093">
        <ele>2195</ele>
        <time>2019-03-30T10:01:12Z</time>
      </trkpt>
      <trkpt lat="45.2694" lon="6.17092">
        <ele>2196</ele>
        <time>2019-03-30T10:01:17Z</time>
      </trkpt>
      <trkpt lat="45.26941" lon="6.17089">
        <ele>2197.2</ele>
        <time>2019-03-30T10:01:22Z</time>
      </trkpt>
      <trkpt lat="45.2694" lon="6.17086">
        <ele>2198.6</ele>
        <time>2019-03-30T10:01:27Z</time>
      </trkpt>
      <trkpt lat="45.2694" lon="6.17083">
        <ele>2200.4</ele>
        <time>2019-03-30T10:01:32Z</time>
      </trkpt>
      <trkpt lat="45.2694" lon="6.1708">
        <ele>2201.4</ele>
        <time>2019-03-30T10:01:37Z</time>
      </trkpt>
      <trkpt lat="45.26941" lon="6.17078">
        <ele>2200.8</ele>
        <time>2019-03-30T10:01:42Z</time>
      </trkpt>
      <trkpt lat="45.26941" lon="6.17075">
        <ele>2202.8</ele>
        <time>2019-03-30T10:01:47Z</time>
      </trkpt>
      <trkpt lat="45.26942" lon="6.17073">
        <ele>2202.8</ele>
        <time>2019-03-30T10:01:52Z</time>
      </trkpt>
      <trkpt lat="45.26942" lon="6.17073">
        <ele>2202.8</ele>
        <time>2019-03-30T10:01:57Z</time>
      </trkpt>
      <trkpt lat="45.26943" lon="6.17072">
        <ele>2204.4</ele>
        <time>2019-03-30T10:02:02Z</time>
      </trkpt>
      <trkpt lat="45.26944" lon="6.17069">
        <ele>2202.2</ele>
        <time>2019-03-30T10:02:07Z</time>
      </trkpt>
      <trkpt lat="45.26945" lon="6.17066">
        <ele>2205</ele>
        <time>2019-03-30T10:02:12Z</time>
      </trkpt>
      <trkpt lat="45.26944" lon="6.17066">
        <ele>2204.4</ele>
        <time>2019-03-30T10:02:17Z</time>
      </trkpt>
      <trkpt lat="45.26939" lon="6.17068">
        <ele>2204</ele>
        <time>2019-03-30T10:02:27Z</time>
      </trkpt>
      <trkpt lat="45.26937" lon="6.17069">
        <ele>2206.6</ele>
        <time>2019-03-30T10:02:32Z</time>
      </trkpt>
      <trkpt lat="45.26935" lon="6.17069">
        <ele>2207.6</ele>
        <time>2019-03-30T10:02:37Z</time>
      </trkpt>
      <trkpt lat="45.26933" lon="6.1707">
        <ele>2209.4</ele>
        <time>2019-03-30T10:02:42Z</time>
      </trkpt>
      <trkpt lat="45.26931" lon="6.17071">
        <ele>2209.4</ele>
        <time>2019-03-30T10:02:47Z</time>
      </trkpt>
      <trkpt lat="45.26929" lon="6.17071">
        <ele>2210.4</ele>
        <time>2019-03-30T10:02:52Z</time>
      </trkpt>
      <trkpt lat="45.26927" lon="6.17072">
        <ele>2211.8</ele>
        <time>2019-03-30T10:02:57Z</time>
      </trkpt>
      <trkpt lat="45.26925" lon="6.17072">
        <ele>2210.4</ele>
        <time>2019-03-30T10:03:02Z</time>
      </trkpt>
      <trkpt lat="45.26923" lon="6.17073">
        <ele>2210.2</ele>
        <time>2019-03-30T10:03:07Z</time>
      </trkpt>
      <trkpt lat="45.26922" lon="6.17075">
        <ele>2211.4</ele>
        <time>2019-03-30T10:03:12Z</time>
      </trkpt>
      <trkpt lat="45.26921" lon="6.17072">
        <ele>2211.8</ele>
        <time>2019-03-30T10:03:17Z</time>
      </trkpt>
      <trkpt lat="45.26922" lon="6.17069">
        <ele>2207.4</ele>
        <time>2019-03-30T10:03:22Z</time>
      </trkpt>
      <trkpt lat="45.26923" lon="6.17066">
        <ele>2209</ele>
        <time>2019-03-30T10:03:27Z</time>
      </trkpt>
      <trkpt lat="45.26923" lon="6.17063">
        <ele>2210.6</ele>
        <time>2019-03-30T10:03:32Z</time>
      </trkpt>
      <trkpt lat="45.26924" lon="6.1706">
        <ele>2211.2</ele>
        <time>2019-03-30T10:03:37Z</time>
      </trkpt>
      <trkpt lat="45.26925" lon="6.17057">
        <ele>2212.8</ele>
        <time>2019-03-30T10:03:42Z</time>
      </trkpt>
      <trkpt lat="45.26926" lon="6.17054">
        <ele>2212.4</ele>
        <time>2019-03-30T10:03:47Z</time>
      </trkpt>
      <trkpt lat="45.26927" lon="6.17051">
        <ele>2212.2</ele>
        <time>2019-03-30T10:03:52Z</time>
      </trkpt>
      <trkpt lat="45.26928" lon="6.17049">
        <ele>2211.4</ele>
        <time>2019-03-30T10:03:57Z</time>
      </trkpt>
      <trkpt lat="45.26929" lon="6.17046">
        <ele>2213.2</ele>
        <time>2019-03-30T10:04:02Z</time>
      </trkpt>
      <trkpt lat="45.2693" lon="6.17044">
        <ele>2214.4</ele>
        <time>2019-03-30T10:04:07Z</time>
      </trkpt>
      <trkpt lat="45.26931" lon="6.17041">
        <ele>2216.6</ele>
        <time>2019-03-30T10:04:12Z</time>
      </trkpt>
      <trkpt lat="45.26932" lon="6.17038">
        <ele>2216.6</ele>
        <time>2019-03-30T10:04:17Z</time>
      </trkpt>
      <trkpt lat="45.26933" lon="6.17035">
        <ele>2216.2</ele>
        <time>2019-03-30T10:04:22Z</time>
      </trkpt>
      <trkpt lat="45.26934" lon="6.17033">
        <ele>2215.4</ele>
        <time>2019-03-30T10:04:27Z</time>
      </trkpt>
      <trkpt lat="45.26935" lon="6.1703">
        <ele>2216.4</ele>
        <time>2019-03-30T10:04:32Z</time>
      </trkpt>
      <trkpt lat="45.26936" lon="6.17028">
        <ele>2217.2</ele>
        <time>2019-03-30T10:04:37Z</time>
      </trkpt>
      <trkpt lat="45.26937" lon="6.17025">
        <ele>2219.2</ele>
        <time>2019-03-30T10:04:42Z</time>
      </trkpt>
      <trkpt lat="45.26939" lon="6.17023">
        <ele>2220.4</ele>
        <time>2019-03-30T10:04:47Z</time>
      </trkpt>
      <trkpt lat="45.2694" lon="6.17022">
        <ele>2221.8</ele>
        <time>2019-03-30T10:04:52Z</time>
      </trkpt>
      <trkpt lat="45.26938" lon="6.17021">
        <ele>2222.4</ele>
        <time>2019-03-30T10:04:57Z</time>
      </trkpt>
      <trkpt lat="45.26936" lon="6.17022">
        <ele>2225</ele>
        <time>2019-03-30T10:05:03Z</time>
      </trkpt>
      <trkpt lat="45.26934" lon="6.17022">
        <ele>2227.2</ele>
        <time>2019-03-30T10:05:08Z</time>
      </trkpt>
      <trkpt lat="45.26932" lon="6.17022">
        <ele>2225.4</ele>
        <time>2019-03-30T10:05:13Z</time>
      </trkpt>
      <trkpt lat="45.2693" lon="6.17023">
        <ele>2225.6</ele>
        <time>2019-03-30T10:05:18Z</time>
      </trkpt>
      <trkpt lat="45.26928" lon="6.17023">
        <ele>2225.8</ele>
        <time>2019-03-30T10:05:23Z</time>
      </trkpt>
      <trkpt lat="45.26925" lon="6.17023">
        <ele>2227.6</ele>
        <time>2019-03-30T10:05:28Z</time>
      </trkpt>
      <trkpt lat="45.26923" lon="6.17024">
        <ele>2228.2</ele>
        <time>2019-03-30T10:05:33Z</time>
      </trkpt>
      <trkpt lat="45.26922" lon="6.17024">
        <ele>2229.6</ele>
        <time>2019-03-30T10:05:38Z</time>
      </trkpt>
      <trkpt lat="45.2692" lon="6.17024">
        <ele>2231.4</ele>
        <time>2019-03-30T10:05:43Z</time>
      </trkpt>
      <trkpt lat="45.26918" lon="6.17025">
        <ele>2232</ele>
        <time>2019-03-30T10:05:48Z</time>
      </trkpt>
      <trkpt lat="45.26916" lon="6.17025">
        <ele>2231.2</ele>
        <time>2019-03-30T10:05:53Z</time>
      </trkpt>
      <trkpt lat="45.26914" lon="6.17025">
        <ele>2229.4</ele>
        <time>2019-03-30T10:05:58Z</time>
      </trkpt>
      <trkpt lat="45.26912" lon="6.17025">
        <ele>2230.6</ele>
        <time>2019-03-30T10:06:03Z</time>
      </trkpt>
      <trkpt lat="45.26911" lon="6.17026">
        <ele>2230.2</ele>
        <time>2019-03-30T10:06:08Z</time>
      </trkpt>
      <trkpt lat="45.26909" lon="6.17026">
        <ele>2231.2</ele>
        <time>2019-03-30T10:06:13Z</time>
      </trkpt>
      <trkpt lat="45.26907" lon="6.17026">
        <ele>2231.4</ele>
        <time>2019-03-30T10:06:18Z</time>
      </trkpt>
      <trkpt lat="45.26905" lon="6.17026">
        <ele>2233.2</ele>
        <time>2019-03-30T10:06:23Z</time>
      </trkpt>
      <trkpt lat="45.26903" lon="6.17026">
        <ele>2231.2</ele>
        <time>2019-03-30T10:06:28Z</time>
      </trkpt>
      <trkpt lat="45.26901" lon="6.17027">
        <ele>2233.6</ele>
        <time>2019-03-30T10:06:33Z</time>
      </trkpt>
      <trkpt lat="45.26903" lon="6.17024">
        <ele>2232.8</ele>
        <time>2019-03-30T10:06:43Z</time>
      </trkpt>
      <trkpt lat="45.26904" lon="6.17021">
        <ele>2232.4</ele>
        <time>2019-03-30T10:06:48Z</time>
      </trkpt>
      <trkpt lat="45.26904" lon="6.17018">
        <ele>2231.8</ele>
        <time>2019-03-30T10:06:53Z</time>
      </trkpt>
      <trkpt lat="45.26905" lon="6.17015">
        <ele>2232.8</ele>
        <time>2019-03-30T10:06:58Z</time>
      </trkpt>
      <trkpt lat="45.26906" lon="6.17012">
        <ele>2233.6</ele>
        <time>2019-03-30T10:07:03Z</time>
      </trkpt>
      <trkpt lat="45.26907" lon="6.17009">
        <ele>2235.4</ele>
        <time>2019-03-30T10:07:08Z</time>
      </trkpt>
      <trkpt lat="45.26908" lon="6.17006">
        <ele>2234.8</ele>
        <time>2019-03-30T10:07:13Z</time>
      </trkpt>
      <trkpt lat="45.26909" lon="6.17004">
        <ele>2235.2</ele>
        <time>2019-03-30T10:07:18Z</time>
      </trkpt>
      <trkpt lat="45.2691" lon="6.17001">
        <ele>2238.8</ele>
        <time>2019-03-30T10:07:23Z</time>
      </trkpt>
      <trkpt lat="45.26911" lon="6.16998">
        <ele>2239.2</ele>
        <time>2019-03-30T10:07:28Z</time>
      </trkpt>
      <trkpt lat="45.26912" lon="6.16996">
        <ele>2240.8</ele>
        <time>2019-03-30T10:07:33Z</time>
      </trkpt>
      <trkpt lat="45.26913" lon="6.16993">
        <ele>2240.8</ele>
        <time>2019-03-30T10:07:38Z</time>
      </trkpt>
      <trkpt lat="45.26915" lon="6.1699">
        <ele>2240.6</ele>
        <time>2019-03-30T10:07:43Z</time>
      </trkpt>
      <trkpt lat="45.26916" lon="6.16988">
        <ele>2237.4</ele>
        <time>2019-03-30T10:07:48Z</time>
      </trkpt>
      <trkpt lat="45.26917" lon="6.16986">
        <ele>2243</ele>
        <time>2019-03-30T10:07:53Z</time>
      </trkpt>
      <trkpt lat="45.26919" lon="6.16983">
        <ele>2244</ele>
        <time>2019-03-30T10:07:58Z</time>
      </trkpt>
      <trkpt lat="45.2692" lon="6.16981">
        <ele>2241.8</ele>
        <time>2019-03-30T10:08:03Z</time>
      </trkpt>
      <trkpt lat="45.26921" lon="6.16978">
        <ele>2242.2</ele>
        <time>2019-03-30T10:08:08Z</time>
      </trkpt>
      <trkpt lat="45.26919" lon="6.16977">
        <ele>2244.6</ele>
        <time>2019-03-30T10:08:13Z</time>
      </trkpt>
      <trkpt lat="45.26917" lon="6.16977">
        <ele>2245.4</ele>
        <time>2019-03-30T10:08:18Z</time>
      </trkpt>
      <trkpt lat="45.26916" lon="6.16976">
        <ele>2245.6</ele>
        <time>2019-03-30T10:08:23Z</time>
      </trkpt>
      <trkpt lat="45.26914" lon="6.16976">
        <ele>2243.8</ele>
        <time>2019-03-30T10:08:38Z</time>
      </trkpt>
      <trkpt lat="45.26914" lon="6.16977">
        <ele>2245.8</ele>
        <time>2019-03-30T10:09:18Z</time>
      </trkpt>
      <trkpt lat="45.26914" lon="6.16978">
        <ele>2247</ele>
        <time>2019-03-30T10:09:43Z</time>
      </trkpt>
      <trkpt lat="45.26912" lon="6.16978">
        <ele>2251.2</ele>
        <time>2019-03-30T10:10:43Z</time>
      </trkpt>
      <trkpt lat="45.2691" lon="6.16977">
        <ele>2250</ele>
        <time>2019-03-30T10:10:48Z</time>
      </trkpt>
      <trkpt lat="45.26908" lon="6.16977">
        <ele>2252</ele>
        <time>2019-03-30T10:10:53Z</time>
      </trkpt>
      <trkpt lat="45.26905" lon="6.16976">
        <ele>2249.2</ele>
        <time>2019-03-30T10:10:58Z</time>
      </trkpt>
      <trkpt lat="45.26905" lon="6.16976">
        <ele>2249.4</ele>
        <time>2019-03-30T10:11:03Z</time>
      </trkpt>
      <trkpt lat="45.26904" lon="6.16977">
        <ele>2247.6</ele>
        <time>2019-03-30T10:11:08Z</time>
      </trkpt>
      <trkpt lat="45.26902" lon="6.16977">
        <ele>2250.6</ele>
        <time>2019-03-30T10:11:13Z</time>
      </trkpt>
      <trkpt lat="45.26902" lon="6.16977">
        <ele>2251.8</ele>
        <time>2019-03-30T10:11:18Z</time>
      </trkpt>
      <trkpt lat="45.269" lon="6.16977">
        <ele>2251.4</ele>
        <time>2019-03-30T10:11:23Z</time>
      </trkpt>
      <trkpt lat="45.26898" lon="6.16977">
        <ele>2252.8</ele>
        <time>2019-03-30T10:11:28Z</time>
      </trkpt>
      <trkpt lat="45.26897" lon="6.16977">
        <ele>2253.6</ele>
        <time>2019-03-30T10:11:33Z</time>
      </trkpt>
      <trkpt lat="45.26897" lon="6.16977">
        <ele>2254.2</ele>
        <time>2019-03-30T10:11:38Z</time>
      </trkpt>
      <trkpt lat="45.26895" lon="6.16975">
        <ele>2252.8</ele>
        <time>2019-03-30T10:11:43Z</time>
      </trkpt>
      <trkpt lat="45.26896" lon="6.16972">
        <ele>2253.4</ele>
        <time>2019-03-30T10:11:48Z</time>
      </trkpt>
      <trkpt lat="45.26896" lon="6.16971">
        <ele>2251.4</ele>
        <time>2019-03-30T10:11:53Z</time>
      </trkpt>
      <trkpt lat="45.26897" lon="6.16971">
        <ele>2251.8</ele>
        <time>2019-03-30T10:12:03Z</time>
      </trkpt>
      <trkpt lat="45.26897" lon="6.16971">
        <ele>2251.8</ele>
        <time>2019-03-30T10:12:08Z</time>
      </trkpt>
      <trkpt lat="45.26898" lon="6.1697">
        <ele>2252.8</ele>
        <time>2019-03-30T10:12:13Z</time>
      </trkpt>
      <trkpt lat="45.26898" lon="6.16966">
        <ele>2251.4</ele>
        <time>2019-03-30T10:12:18Z</time>
      </trkpt>
      <trkpt lat="45.26899" lon="6.16963">
        <ele>2252</ele>
        <time>2019-03-30T10:12:23Z</time>
      </trkpt>
      <trkpt lat="45.269" lon="6.1696">
        <ele>2252.8</ele>
        <time>2019-03-30T10:12:28Z</time>
      </trkpt>
      <trkpt lat="45.26901" lon="6.16956">
        <ele>2253.4</ele>
        <time>2019-03-30T10:12:33Z</time>
      </trkpt>
      <trkpt lat="45.26902" lon="6.16953">
        <ele>2254</ele>
        <time>2019-03-30T10:12:38Z</time>
      </trkpt>
      <trkpt lat="45.26903" lon="6.1695">
        <ele>2253.4</ele>
        <time>2019-03-30T10:12:43Z</time>
      </trkpt>
      <trkpt lat="45.26904" lon="6.16947">
        <ele>2253.4</ele>
        <time>2019-03-30T10:12:48Z</time>
      </trkpt>
      <trkpt lat="45.26905" lon="6.16944">
        <ele>2254.4</ele>
        <time>2019-03-30T10:12:53Z</time>
      </trkpt>
      <trkpt lat="45.26906" lon="6.16941">
        <ele>2255.2</ele>
        <time>2019-03-30T10:12:58Z</time>
      </trkpt>
      <trkpt lat="45.26907" lon="6.16938">
        <ele>2254</ele>
        <time>2019-03-30T10:13:03Z</time>
      </trkpt>
      <trkpt lat="45.26908" lon="6.16936">
        <ele>2251.8</ele>
        <time>2019-03-30T10:13:08Z</time>
      </trkpt>
      <trkpt lat="45.26909" lon="6.16933">
        <ele>2253.6</ele>
        <time>2019-03-30T10:13:13Z</time>
      </trkpt>
      <trkpt lat="45.2691" lon="6.16931">
        <ele>2254.2</ele>
        <time>2019-03-30T10:13:18Z</time>
      </trkpt>
      <trkpt lat="45.26911" lon="6.16929">
        <ele>2261</ele>
        <time>2019-03-30T10:13:23Z</time>
      </trkpt>
      <trkpt lat="45.26912" lon="6.16926">
        <ele>2262.8</ele>
        <time>2019-03-30T10:13:28Z</time>
      </trkpt>
      <trkpt lat="45.26912" lon="6.16924">
        <ele>2258.4</ele>
        <time>2019-03-30T10:13:33Z</time>
      </trkpt>
      <trkpt lat="45.26913" lon="6.16922">
        <ele>2256</ele>
        <time>2019-03-30T10:13:38Z</time>
      </trkpt>
      <trkpt lat="45.26914" lon="6.16919">
        <ele>2253.4</ele>
        <time>2019-03-30T10:13:43Z</time>
      </trkpt>
      <trkpt lat="45.26914" lon="6.16916">
        <ele>2253</ele>
        <time>2019-03-30T10:13:48Z</time>
      </trkpt>
      <trkpt lat="45.26915" lon="6.16914">
        <ele>2255</ele>
        <time>2019-03-30T10:13:53Z</time>
      </trkpt>
      <trkpt lat="45.26915" lon="6.16913">
        <ele>2256.8</ele>
        <time>2019-03-30T10:13:58Z</time>
      </trkpt>
      <trkpt lat="45.26914" lon="6.16912">
        <ele>2258.2</ele>
        <time>2019-03-30T10:14:03Z</time>
      </trkpt>
      <trkpt lat="45.26911" lon="6.16912">
        <ele>2260.8</ele>
        <time>2019-03-30T10:14:23Z</time>
      </trkpt>
      <trkpt lat="45.2691" lon="6.16912">
        <ele>2260</ele>
        <time>2019-03-30T10:14:28Z</time>
      </trkpt>
      <trkpt lat="45.26908" lon="6.16913">
        <ele>2264</ele>
        <time>2019-03-30T10:14:33Z</time>
      </trkpt>
      <trkpt lat="45.26906" lon="6.16913">
        <ele>2262.6</ele>
        <time>2019-03-30T10:14:38Z</time>
      </trkpt>
      <trkpt lat="45.26904" lon="6.16913">
        <ele>2264</ele>
        <time>2019-03-30T10:14:43Z</time>
      </trkpt>
      <trkpt lat="45.26902" lon="6.16913">
        <ele>2266.4</ele>
        <time>2019-03-30T10:14:48Z</time>
      </trkpt>
      <trkpt lat="45.269" lon="6.16913">
        <ele>2265.4</ele>
        <time>2019-03-30T10:14:53Z</time>
      </trkpt>
      <trkpt lat="45.26897" lon="6.16914">
        <ele>2261.6</ele>
        <time>2019-03-30T10:14:58Z</time>
      </trkpt>
      <trkpt lat="45.26895" lon="6.16914">
        <ele>2265.8</ele>
        <time>2019-03-30T10:15:03Z</time>
      </trkpt>
      <trkpt lat="45.26893" lon="6.16914">
        <ele>2266.4</ele>
        <time>2019-03-30T10:15:08Z</time>
      </trkpt>
      <trkpt lat="45.2689" lon="6.16915">
        <ele>2265.6</ele>
        <time>2019-03-30T10:15:13Z</time>
      </trkpt>
      <trkpt lat="45.26888" lon="6.16915">
        <ele>2267.4</ele>
        <time>2019-03-30T10:15:18Z</time>
      </trkpt>
      <trkpt lat="45.26886" lon="6.16916">
        <ele>2267.4</ele>
        <time>2019-03-30T10:15:23Z</time>
      </trkpt>
      <trkpt lat="45.26884" lon="6.16917">
        <ele>2266.4</ele>
        <time>2019-03-30T10:15:28Z</time>
      </trkpt>
      <trkpt lat="45.26882" lon="6.16917">
        <ele>2264.8</ele>
        <time>2019-03-30T10:15:33Z</time>
      </trkpt>
      <trkpt lat="45.2688" lon="6.16918">
        <ele>2269.6</ele>
        <time>2019-03-30T10:15:38Z</time>
      </trkpt>
      <trkpt lat="45.26878" lon="6.16919">
        <ele>2268.4</ele>
        <time>2019-03-30T10:15:43Z</time>
      </trkpt>
      <trkpt lat="45.26877" lon="6.16917">
        <ele>2266.8</ele>
        <time>2019-03-30T10:15:48Z</time>
      </trkpt>
      <trkpt lat="45.26877" lon="6.16914">
        <ele>2268</ele>
        <time>2019-03-30T10:15:53Z</time>
      </trkpt>
      <trkpt lat="45.26877" lon="6.16911">
        <ele>2268.8</ele>
        <time>2019-03-30T10:15:58Z</time>
      </trkpt>
      <trkpt lat="45.26878" lon="6.16908">
        <ele>2268.8</ele>
        <time>2019-03-30T10:16:03Z</time>
      </trkpt>
      <trkpt lat="45.26879" lon="6.16905">
        <ele>2265.6</ele>
        <time>2019-03-30T10:16:08Z</time>
      </trkpt>
      <trkpt lat="45.2688" lon="6.16902">
        <ele>2268.4</ele>
        <time>2019-03-30T10:16:13Z</time>
      </trkpt>
      <trkpt lat="45.26882" lon="6.16899">
        <ele>2270.8</ele>
        <time>2019-03-30T10:16:18Z</time>
      </trkpt>
      <trkpt lat="45.26883" lon="6.16897">
        <ele>2272.8</ele>
        <time>2019-03-30T10:16:23Z</time>
      </trkpt>
      <trkpt lat="45.26884" lon="6.16894">
        <ele>2274.4</ele>
        <time>2019-03-30T10:16:28Z</time>
      </trkpt>
      <trkpt lat="45.26886" lon="6.16892">
        <ele>2275.2</ele>
        <time>2019-03-30T10:16:33Z</time>
      </trkpt>
      <trkpt lat="45.26887" lon="6.16889">
        <ele>2277.4</ele>
        <time>2019-03-30T10:16:38Z</time>
      </trkpt>
      <trkpt lat="45.26888" lon="6.16886">
        <ele>2277</ele>
        <time>2019-03-30T10:16:43Z</time>
      </trkpt>
      <trkpt lat="45.26889" lon="6.16883">
        <ele>2276.4</ele>
        <time>2019-03-30T10:16:48Z</time>
      </trkpt>
      <trkpt lat="45.2689" lon="6.1688">
        <ele>2276.8</ele>
        <time>2019-03-30T10:16:53Z</time>
      </trkpt>
      <trkpt lat="45.2689" lon="6.16878">
        <ele>2277.6</ele>
        <time>2019-03-30T10:16:58Z</time>
      </trkpt>
      <trkpt lat="45.26891" lon="6.16875">
        <ele>2277.8</ele>
        <time>2019-03-30T10:17:03Z</time>
      </trkpt>
      <trkpt lat="45.26891" lon="6.16873">
        <ele>2278.8</ele>
        <time>2019-03-30T10:17:08Z</time>
      </trkpt>
      <trkpt lat="45.26889" lon="6.16872">
        <ele>2281.4</ele>
        <time>2019-03-30T10:17:13Z</time>
      </trkpt>
      <trkpt lat="45.26887" lon="6.16874">
        <ele>2282.2</ele>
        <time>2019-03-30T10:17:18Z</time>
      </trkpt>
      <trkpt lat="45.26885" lon="6.16875">
        <ele>2281.6</ele>
        <time>2019-03-30T10:17:23Z</time>
      </trkpt>
      <trkpt lat="45.26883" lon="6.16877">
        <ele>2281.8</ele>
        <time>2019-03-30T10:17:28Z</time>
      </trkpt>
      <trkpt lat="45.26882" lon="6.16878">
        <ele>2284.2</ele>
        <time>2019-03-30T10:17:33Z</time>
      </trkpt>
      <trkpt lat="45.2688" lon="6.16879">
        <ele>2283.4</ele>
        <time>2019-03-30T10:17:38Z</time>
      </trkpt>
      <trkpt lat="45.26879" lon="6.16881">
        <ele>2282.2</ele>
        <time>2019-03-30T10:17:43Z</time>
      </trkpt>
      <trkpt lat="45.26877" lon="6.16881">
        <ele>2279.4</ele>
        <time>2019-03-30T10:17:48Z</time>
      </trkpt>
      <trkpt lat="45.26875" lon="6.16882">
        <ele>2285</ele>
        <time>2019-03-30T10:17:53Z</time>
      </trkpt>
      <trkpt lat="45.26873" lon="6.16883">
        <ele>2285.4</ele>
        <time>2019-03-30T10:17:58Z</time>
      </trkpt>
      <trkpt lat="45.26871" lon="6.16885">
        <ele>2284.6</ele>
        <time>2019-03-30T10:18:03Z</time>
      </trkpt>
      <trkpt lat="45.26869" lon="6.16886">
        <ele>2286.8</ele>
        <time>2019-03-30T10:18:08Z</time>
      </trkpt>
      <trkpt lat="45.26867" lon="6.16887">
        <ele>2286.8</ele>
        <time>2019-03-30T10:18:13Z</time>
      </trkpt>
      <trkpt lat="45.26865" lon="6.16888">
        <ele>2287</ele>
        <time>2019-03-30T10:18:18Z</time>
      </trkpt>
      <trkpt lat="45.26863" lon="6.1689">
        <ele>2287.4</ele>
        <time>2019-03-30T10:18:23Z</time>
      </trkpt>
      <trkpt lat="45.26861" lon="6.16891">
        <ele>2288.8</ele>
        <time>2019-03-30T10:18:28Z</time>
      </trkpt>
      <trkpt lat="45.26859" lon="6.16892">
        <ele>2286.8</ele>
        <time>2019-03-30T10:18:33Z</time>
      </trkpt>
      <trkpt lat="45.26858" lon="6.16893">
        <ele>2285.6</ele>
        <time>2019-03-30T10:18:38Z</time>
      </trkpt>
      <trkpt lat="45.26856" lon="6.16895">
        <ele>2286.8</ele>
        <time>2019-03-30T10:18:43Z</time>
      </trkpt>
      <trkpt lat="45.26855" lon="6.16897">
        <ele>2289.2</ele>
        <time>2019-03-30T10:18:48Z</time>
      </trkpt>
      <trkpt lat="45.26853" lon="6.16899">
        <ele>2290.6</ele>
        <time>2019-03-30T10:18:53Z</time>
      </trkpt>
      <trkpt lat="45.26852" lon="6.16901">
        <ele>2291.4</ele>
        <time>2019-03-30T10:18:58Z</time>
      </trkpt>
      <trkpt lat="45.2685" lon="6.16902">
        <ele>2294.4</ele>
        <time>2019-03-30T10:19:03Z</time>
      </trkpt>
      <trkpt lat="45.26848" lon="6.16905">
        <ele>2293.2</ele>
        <time>2019-03-30T10:19:08Z</time>
      </trkpt>
      <trkpt lat="45.26846" lon="6.16906">
        <ele>2295.8</ele>
        <time>2019-03-30T10:19:13Z</time>
      </trkpt>
      <trkpt lat="45.26845" lon="6.16908">
        <ele>2293.2</ele>
        <time>2019-03-30T10:19:18Z</time>
      </trkpt>
      <trkpt lat="45.26843" lon="6.1691">
        <ele>2295.2</ele>
        <time>2019-03-30T10:19:23Z</time>
      </trkpt>
      <trkpt lat="45.26841" lon="6.16912">
        <ele>2296.4</ele>
        <time>2019-03-30T10:19:28Z</time>
      </trkpt>
      <trkpt lat="45.26839" lon="6.16914">
        <ele>2296</ele>
        <time>2019-03-30T10:19:33Z</time>
      </trkpt>
      <trkpt lat="45.26839" lon="6.16913">
        <ele>2298.2</ele>
        <time>2019-03-30T10:19:38Z</time>
      </trkpt>
      <trkpt lat="45.26839" lon="6.16911">
        <ele>2299.6</ele>
        <time>2019-03-30T10:19:43Z</time>
      </trkpt>
      <trkpt lat="45.26839" lon="6.16908">
        <ele>2295.6</ele>
        <time>2019-03-30T10:19:48Z</time>
      </trkpt>
      <trkpt lat="45.26839" lon="6.16905">
        <ele>2296.2</ele>
        <time>2019-03-30T10:19:53Z</time>
      </trkpt>
      <trkpt lat="45.26839" lon="6.16901">
        <ele>2297.4</ele>
        <time>2019-03-30T10:19:58Z</time>
      </trkpt>
      <trkpt lat="45.26839" lon="6.16898">
        <ele>2297.2</ele>
        <time>2019-03-30T10:20:03Z</time>
      </trkpt>
      <trkpt lat="45.2684" lon="6.16896">
        <ele>2299.2</ele>
        <time>2019-03-30T10:20:08Z</time>
      </trkpt>
      <trkpt lat="45.2684" lon="6.16893">
        <ele>2298.4</ele>
        <time>2019-03-30T10:20:13Z</time>
      </trkpt>
      <trkpt lat="45.2684" lon="6.16893">
        <ele>2298</ele>
        <time>2019-03-30T10:20:18Z</time>
      </trkpt>
      <trkpt lat="45.2684" lon="6.16889">
        <ele>2297.4</ele>
        <time>2019-03-30T10:20:23Z</time>
      </trkpt>
      <trkpt lat="45.26841" lon="6.16886">
        <ele>2297.6</ele>
        <time>2019-03-30T10:20:28Z</time>
      </trkpt>
      <trkpt lat="45.26841" lon="6.16883">
        <ele>2296.4</ele>
        <time>2019-03-30T10:20:33Z</time>
      </trkpt>
      <trkpt lat="45.26842" lon="6.1688">
        <ele>2297</ele>
        <time>2019-03-30T10:20:38Z</time>
      </trkpt>
      <trkpt lat="45.26843" lon="6.16877">
        <ele>2298</ele>
        <time>2019-03-30T10:20:43Z</time>
      </trkpt>
      <trkpt lat="45.26842" lon="6.16877">
        <ele>2299.4</ele>
        <time>2019-03-30T10:20:48Z</time>
      </trkpt>
      <trkpt lat="45.2684" lon="6.16879">
        <ele>2300.8</ele>
        <time>2019-03-30T10:20:53Z</time>
      </trkpt>
      <trkpt lat="45.26839" lon="6.16881">
        <ele>2303.8</ele>
        <time>2019-03-30T10:20:58Z</time>
      </trkpt>
      <trkpt lat="45.26837" lon="6.16883">
        <ele>2305.8</ele>
        <time>2019-03-30T10:21:03Z</time>
      </trkpt>
      <trkpt lat="45.26835" lon="6.16885">
        <ele>2304.6</ele>
        <time>2019-03-30T10:21:08Z</time>
      </trkpt>
      <trkpt lat="45.26833" lon="6.16887">
        <ele>2307.2</ele>
        <time>2019-03-30T10:21:13Z</time>
      </trkpt>
      <trkpt lat="45.26831" lon="6.16889">
        <ele>2307.2</ele>
        <time>2019-03-30T10:21:18Z</time>
      </trkpt>
      <trkpt lat="45.26828" lon="6.1689">
        <ele>2310.4</ele>
        <time>2019-03-30T10:21:23Z</time>
      </trkpt>
      <trkpt lat="45.26826" lon="6.16892">
        <ele>2309.2</ele>
        <time>2019-03-30T10:21:28Z</time>
      </trkpt>
      <trkpt lat="45.26824" lon="6.16894">
        <ele>2311.6</ele>
        <time>2019-03-30T10:21:33Z</time>
      </trkpt>
      <trkpt lat="45.26823" lon="6.16895">
        <ele>2309</ele>
        <time>2019-03-30T10:21:38Z</time>
      </trkpt>
      <trkpt lat="45.26821" lon="6.16897">
        <ele>2313</ele>
        <time>2019-03-30T10:21:43Z</time>
      </trkpt>
      <trkpt lat="45.26819" lon="6.16899">
        <ele>2309.4</ele>
        <time>2019-03-30T10:21:48Z</time>
      </trkpt>
      <trkpt lat="45.26817" lon="6.16901">
        <ele>2310.2</ele>
        <time>2019-03-30T10:21:53Z</time>
      </trkpt>
      <trkpt lat="45.26815" lon="6.16902">
        <ele>2310.2</ele>
        <time>2019-03-30T10:21:58Z</time>
      </trkpt>
      <trkpt lat="45.26813" lon="6.16904">
        <ele>2312.6</ele>
        <time>2019-03-30T10:22:03Z</time>
      </trkpt>
      <trkpt lat="45.26811" lon="6.16906">
        <ele>2311.8</ele>
        <time>2019-03-30T10:22:08Z</time>
      </trkpt>
      <trkpt lat="45.26809" lon="6.16908">
        <ele>2315</ele>
        <time>2019-03-30T10:22:13Z</time>
      </trkpt>
      <trkpt lat="45.26807" lon="6.16909">
        <ele>2313</ele>
        <time>2019-03-30T10:22:18Z</time>
      </trkpt>
      <trkpt lat="45.26806" lon="6.16909">
        <ele>2314.6</ele>
        <time>2019-03-30T10:22:23Z</time>
      </trkpt>
      <trkpt lat="45.26807" lon="6.16907">
        <ele>2314.4</ele>
        <time>2019-03-30T10:22:28Z</time>
      </trkpt>
      <trkpt lat="45.26807" lon="6.16903">
        <ele>2316.6</ele>
        <time>2019-03-30T10:22:33Z</time>
      </trkpt>
      <trkpt lat="45.26808" lon="6.169">
        <ele>2315.2</ele>
        <time>2019-03-30T10:22:38Z</time>
      </trkpt>
      <trkpt lat="45.26808" lon="6.16896">
        <ele>2314.4</ele>
        <time>2019-03-30T10:22:43Z</time>
      </trkpt>
      <trkpt lat="45.26809" lon="6.16893">
        <ele>2314.4</ele>
        <time>2019-03-30T10:22:48Z</time>
      </trkpt>
      <trkpt lat="45.26809" lon="6.16889">
        <ele>2313.6</ele>
        <time>2019-03-30T10:22:53Z</time>
      </trkpt>
      <trkpt lat="45.2681" lon="6.16888">
        <ele>2315.8</ele>
        <time>2019-03-30T10:22:58Z</time>
      </trkpt>
      <trkpt lat="45.26811" lon="6.16884">
        <ele>2313.4</ele>
        <time>2019-03-30T10:23:03Z</time>
      </trkpt>
      <trkpt lat="45.26812" lon="6.1688">
        <ele>2315.6</ele>
        <time>2019-03-30T10:23:08Z</time>
      </trkpt>
      <trkpt lat="45.26813" lon="6.16877">
        <ele>2316.8</ele>
        <time>2019-03-30T10:23:13Z</time>
      </trkpt>
      <trkpt lat="45.26813" lon="6.16875">
        <ele>2317.4</ele>
        <time>2019-03-30T10:23:18Z</time>
      </trkpt>
      <trkpt lat="45.26812" lon="6.16877">
        <ele>2321.8</ele>
        <time>2019-03-30T10:23:23Z</time>
      </trkpt>
      <trkpt lat="45.2681" lon="6.16879">
        <ele>2321.4</ele>
        <time>2019-03-30T10:23:28Z</time>
      </trkpt>
      <trkpt lat="45.26808" lon="6.16881">
        <ele>2320.6</ele>
        <time>2019-03-30T10:23:33Z</time>
      </trkpt>
      <trkpt lat="45.26806" lon="6.16883">
        <ele>2322</ele>
        <time>2019-03-30T10:23:38Z</time>
      </trkpt>
      <trkpt lat="45.26804" lon="6.16885">
        <ele>2323.4</ele>
        <time>2019-03-30T10:23:43Z</time>
      </trkpt>
      <trkpt lat="45.26802" lon="6.16888">
        <ele>2324.2</ele>
        <time>2019-03-30T10:23:48Z</time>
      </trkpt>
      <trkpt lat="45.268" lon="6.1689">
        <ele>2323.6</ele>
        <time>2019-03-30T10:23:53Z</time>
      </trkpt>
      <trkpt lat="45.26798" lon="6.16892">
        <ele>2326.4</ele>
        <time>2019-03-30T10:23:58Z</time>
      </trkpt>
      <trkpt lat="45.26796" lon="6.16895">
        <ele>2325.4</ele>
        <time>2019-03-30T10:24:03Z</time>
      </trkpt>
      <trkpt lat="45.26794" lon="6.16896">
        <ele>2325.6</ele>
        <time>2019-03-30T10:24:08Z</time>
      </trkpt>
      <trkpt lat="45.26794" lon="6.16894">
        <ele>2324.2</ele>
        <time>2019-03-30T10:24:13Z</time>
      </trkpt>
      <trkpt lat="45.26795" lon="6.16891">
        <ele>2326</ele>
        <time>2019-03-30T10:24:18Z</time>
      </trkpt>
      <trkpt lat="45.26795" lon="6.16888">
        <ele>2325.6</ele>
        <time>2019-03-30T10:24:23Z</time>
      </trkpt>
      <trkpt lat="45.26796" lon="6.16884">
        <ele>2329.8</ele>
        <time>2019-03-30T10:24:28Z</time>
      </trkpt>
      <trkpt lat="45.26796" lon="6.1688">
        <ele>2325.8</ele>
        <time>2019-03-30T10:24:33Z</time>
      </trkpt>
      <trkpt lat="45.26797" lon="6.16877">
        <ele>2326.2</ele>
        <time>2019-03-30T10:24:38Z</time>
      </trkpt>
      <trkpt lat="45.26797" lon="6.16874">
        <ele>2329.6</ele>
        <time>2019-03-30T10:24:43Z</time>
      </trkpt>
      <trkpt lat="45.26797" lon="6.16871">
        <ele>2329.6</ele>
        <time>2019-03-30T10:24:48Z</time>
      </trkpt>
      <trkpt lat="45.26798" lon="6.16869">
        <ele>2327.2</ele>
        <time>2019-03-30T10:24:53Z</time>
      </trkpt>
      <trkpt lat="45.26798" lon="6.16866">
        <ele>2326.4</ele>
        <time>2019-03-30T10:24:58Z</time>
      </trkpt>
      <trkpt lat="45.26798" lon="6.16865">
        <ele>2326.8</ele>
        <time>2019-03-30T10:25:03Z</time>
      </trkpt>
      <trkpt lat="45.26798" lon="6.16866">
        <ele>2328</ele>
        <time>2019-03-30T10:25:18Z</time>
      </trkpt>
      <trkpt lat="45.26797" lon="6.16866">
        <ele>2328.8</ele>
        <time>2019-03-30T10:25:23Z</time>
      </trkpt>
      <trkpt lat="45.26796" lon="6.16867">
        <ele>2329.2</ele>
        <time>2019-03-30T10:25:58Z</time>
      </trkpt>
      <trkpt lat="45.26796" lon="6.16867">
        <ele>2329.8</ele>
        <time>2019-03-30T10:26:13Z</time>
      </trkpt>
      <trkpt lat="45.26795" lon="6.16867">
        <ele>2329.2</ele>
        <time>2019-03-30T10:26:18Z</time>
      </trkpt>
      <trkpt lat="45.26794" lon="6.16868">
        <ele>2331.8</ele>
        <time>2019-03-30T10:26:23Z</time>
      </trkpt>
      <trkpt lat="45.26792" lon="6.16869">
        <ele>2332.2</ele>
        <time>2019-03-30T10:26:28Z</time>
      </trkpt>
      <trkpt lat="45.26789" lon="6.16872">
        <ele>2330.8</ele>
        <time>2019-03-30T10:26:33Z</time>
      </trkpt>
      <trkpt lat="45.26787" lon="6.16874">
        <ele>2331.6</ele>
        <time>2019-03-30T10:26:38Z</time>
      </trkpt>
      <trkpt lat="45.26785" lon="6.16877">
        <ele>2332</ele>
        <time>2019-03-30T10:26:43Z</time>
      </trkpt>
      <trkpt lat="45.26783" lon="6.1688">
        <ele>2332.8</ele>
        <time>2019-03-30T10:26:48Z</time>
      </trkpt>
      <trkpt lat="45.26781" lon="6.16882">
        <ele>2336.4</ele>
        <time>2019-03-30T10:26:53Z</time>
      </trkpt>
      <trkpt lat="45.2678" lon="6.16885">
        <ele>2337.8</ele>
        <time>2019-03-30T10:26:58Z</time>
      </trkpt>
      <trkpt lat="45.26779" lon="6.16885">
        <ele>2338.4</ele>
        <time>2019-03-30T10:27:18Z</time>
      </trkpt>
      <trkpt lat="45.26779" lon="6.16883">
        <ele>2337.4</ele>
        <time>2019-03-30T10:27:23Z</time>
      </trkpt>
      <trkpt lat="45.26779" lon="6.16883">
        <ele>2336.6</ele>
        <time>2019-03-30T10:27:43Z</time>
      </trkpt>
      <trkpt lat="45.26779" lon="6.16881">
        <ele>2337.2</ele>
        <time>2019-03-30T10:27:48Z</time>
      </trkpt>
      <trkpt lat="45.2678" lon="6.16877">
        <ele>2336.4</ele>
        <time>2019-03-30T10:27:53Z</time>
      </trkpt>
      <trkpt lat="45.26781" lon="6.16873">
        <ele>2337.2</ele>
        <time>2019-03-30T10:27:58Z</time>
      </trkpt>
      <trkpt lat="45.26782" lon="6.16869">
        <ele>2339.2</ele>
        <time>2019-03-30T10:28:03Z</time>
      </trkpt>
      <trkpt lat="45.26782" lon="6.16865">
        <ele>2339</ele>
        <time>2019-03-30T10:28:08Z</time>
      </trkpt>
      <trkpt lat="45.26783" lon="6.16861">
        <ele>2339</ele>
        <time>2019-03-30T10:28:13Z</time>
      </trkpt>
      <trkpt lat="45.26785" lon="6.16857">
        <ele>2341.2</ele>
        <time>2019-03-30T10:28:18Z</time>
      </trkpt>
      <trkpt lat="45.26785" lon="6.16854">
        <ele>2339</ele>
        <time>2019-03-30T10:28:23Z</time>
      </trkpt>
      <trkpt lat="45.26786" lon="6.1685">
        <ele>2340.6</ele>
        <time>2019-03-30T10:28:28Z</time>
      </trkpt>
      <trkpt lat="45.26786" lon="6.16848">
        <ele>2341.2</ele>
        <time>2019-03-30T10:28:33Z</time>
      </trkpt>
      <trkpt lat="45.26785" lon="6.16848">
        <ele>2340.6</ele>
        <time>2019-03-30T10:28:38Z</time>
      </trkpt>
      <trkpt lat="45.26783" lon="6.1685">
        <ele>2340.4</ele>
        <time>2019-03-30T10:28:48Z</time>
      </trkpt>
      <trkpt lat="45.26781" lon="6.16851">
        <ele>2340.4</ele>
        <time>2019-03-30T10:28:53Z</time>
      </trkpt>
      <trkpt lat="45.26778" lon="6.16853">
        <ele>2342.6</ele>
        <time>2019-03-30T10:28:58Z</time>
      </trkpt>
      <trkpt lat="45.26776" lon="6.16855">
        <ele>2345.4</ele>
        <time>2019-03-30T10:29:03Z</time>
      </trkpt>
      <trkpt lat="45.26773" lon="6.16857">
        <ele>2344.6</ele>
        <time>2019-03-30T10:29:08Z</time>
      </trkpt>
      <trkpt lat="45.26771" lon="6.1686">
        <ele>2347.6</ele>
        <time>2019-03-30T10:29:13Z</time>
      </trkpt>
      <trkpt lat="45.26769" lon="6.16863">
        <ele>2347.2</ele>
        <time>2019-03-30T10:29:18Z</time>
      </trkpt>
      <trkpt lat="45.26767" lon="6.16866">
        <ele>2346.2</ele>
        <time>2019-03-30T10:29:23Z</time>
      </trkpt>
      <trkpt lat="45.26766" lon="6.16869">
        <ele>2347.2</ele>
        <time>2019-03-30T10:29:28Z</time>
      </trkpt>
      <trkpt lat="45.26766" lon="6.16866">
        <ele>2349.2</ele>
        <time>2019-03-30T10:29:33Z</time>
      </trkpt>
      <trkpt lat="45.26766" lon="6.16862">
        <ele>2346.8</ele>
        <time>2019-03-30T10:29:38Z</time>
      </trkpt>
      <trkpt lat="45.26766" lon="6.16858">
        <ele>2347.2</ele>
        <time>2019-03-30T10:29:43Z</time>
      </trkpt>
      <trkpt lat="45.26766" lon="6.16854">
        <ele>2348</ele>
        <time>2019-03-30T10:29:48Z</time>
      </trkpt>
      <trkpt lat="45.26766" lon="6.1685">
        <ele>2346.8</ele>
        <time>2019-03-30T10:29:53Z</time>
      </trkpt>
      <trkpt lat="45.26766" lon="6.16846">
        <ele>2349.2</ele>
        <time>2019-03-30T10:29:58Z</time>
      </trkpt>
      <trkpt lat="45.26766" lon="6.16842">
        <ele>2350.6</ele>
        <time>2019-03-30T10:30:03Z</time>
      </trkpt>
      <trkpt lat="45.26767" lon="6.16838">
        <ele>2350.2</ele>
        <time>2019-03-30T10:30:08Z</time>
      </trkpt>
      <trkpt lat="45.26768" lon="6.16834">
        <ele>2350.8</ele>
        <time>2019-03-30T10:30:13Z</time>
      </trkpt>
      <trkpt lat="45.26769" lon="6.1683">
        <ele>2351.6</ele>
        <time>2019-03-30T10:30:18Z</time>
      </trkpt>
      <trkpt lat="45.2677" lon="6.16827">
        <ele>2350.6</ele>
        <time>2019-03-30T10:30:23Z</time>
      </trkpt>
      <trkpt lat="45.26772" lon="6.16823">
        <ele>2350.2</ele>
        <time>2019-03-30T10:30:28Z</time>
      </trkpt>
      <trkpt lat="45.26772" lon="6.1682">
        <ele>2352.8</ele>
        <time>2019-03-30T10:30:33Z</time>
      </trkpt>
      <trkpt lat="45.2677" lon="6.16819">
        <ele>2355.2</ele>
        <time>2019-03-30T10:30:38Z</time>
      </trkpt>
      <trkpt lat="45.26768" lon="6.1682">
        <ele>2352.2</ele>
        <time>2019-03-30T10:30:43Z</time>
      </trkpt>
      <trkpt lat="45.26765" lon="6.1682">
        <ele>2352</ele>
        <time>2019-03-30T10:30:48Z</time>
      </trkpt>
      <trkpt lat="45.26763" lon="6.16821">
        <ele>2355.4</ele>
        <time>2019-03-30T10:30:53Z</time>
      </trkpt>
      <trkpt lat="45.2676" lon="6.16821">
        <ele>2357</ele>
        <time>2019-03-30T10:30:58Z</time>
      </trkpt>
      <trkpt lat="45.26758" lon="6.16822">
        <ele>2358.8</ele>
        <time>2019-03-30T10:31:03Z</time>
      </trkpt>
      <trkpt lat="45.26756" lon="6.16821">
        <ele>2356.6</ele>
        <time>2019-03-30T10:31:08Z</time>
      </trkpt>
      <trkpt lat="45.26755" lon="6.16818">
        <ele>2357</ele>
        <time>2019-03-30T10:31:13Z</time>
      </trkpt>
      <trkpt lat="45.26754" lon="6.16815">
        <ele>2357.2</ele>
        <time>2019-03-30T10:31:18Z</time>
      </trkpt>
      <trkpt lat="45.26753" lon="6.16812">
        <ele>2363</ele>
        <time>2019-03-30T10:31:23Z</time>
      </trkpt>
      <trkpt lat="45.26751" lon="6.1681">
        <ele>2364.6</ele>
        <time>2019-03-30T10:31:28Z</time>
      </trkpt>
      <trkpt lat="45.2675" lon="6.16807">
        <ele>2362.2</ele>
        <time>2019-03-30T10:31:33Z</time>
      </trkpt>
      <trkpt lat="45.26749" lon="6.16808">
        <ele>2362.8</ele>
        <time>2019-03-30T10:37:18Z</time>
      </trkpt>
      <trkpt lat="45.26749" lon="6.16808">
        <ele>2362.8</ele>
        <time>2019-03-30T10:37:23Z</time>
      </trkpt>
      <trkpt lat="45.26747" lon="6.16807">
        <ele>2363.6</ele>
        <time>2019-03-30T10:39:38Z</time>
      </trkpt>
      <trkpt lat="45.26746" lon="6.16805">
        <ele>2362.6</ele>
        <time>2019-03-30T10:39:48Z</time>
      </trkpt>
      <trkpt lat="45.26744" lon="6.16804">
        <ele>2364.8</ele>
        <time>2019-03-30T10:39:53Z</time>
      </trkpt>
      <trkpt lat="45.26741" lon="6.16806">
        <ele>2365.6</ele>
        <time>2019-03-30T10:39:58Z</time>
      </trkpt>
      <trkpt lat="45.2674" lon="6.16806">
        <ele>2367</ele>
        <time>2019-03-30T10:40:03Z</time>
      </trkpt>
      <trkpt lat="45.26738" lon="6.16803">
        <ele>2366</ele>
        <time>2019-03-30T10:40:08Z</time>
      </trkpt>
      <trkpt lat="45.26738" lon="6.16799">
        <ele>2368.2</ele>
        <time>2019-03-30T10:40:13Z</time>
      </trkpt>
      <trkpt lat="45.26739" lon="6.16796">
        <ele>2370.4</ele>
        <time>2019-03-30T10:40:18Z</time>
      </trkpt>
      <trkpt lat="45.26739" lon="6.16793">
        <ele>2370.4</ele>
        <time>2019-03-30T10:40:23Z</time>
      </trkpt>
      <trkpt lat="45.26737" lon="6.16792">
        <ele>2372.4</ele>
        <time>2019-03-30T10:40:28Z</time>
      </trkpt>
      <trkpt lat="45.26735" lon="6.16793">
        <ele>2371.4</ele>
        <time>2019-03-30T10:40:33Z</time>
      </trkpt>
      <trkpt lat="45.26733" lon="6.16795">
        <ele>2374.2</ele>
        <time>2019-03-30T10:40:38Z</time>
      </trkpt>
      <trkpt lat="45.26731" lon="6.16798">
        <ele>2372.6</ele>
        <time>2019-03-30T10:40:43Z</time>
      </trkpt>
      <trkpt lat="45.26729" lon="6.16801">
        <ele>2372.8</ele>
        <time>2019-03-30T10:40:48Z</time>
      </trkpt>
      <trkpt lat="45.26728" lon="6.16805">
        <ele>2372.4</ele>
        <time>2019-03-30T10:40:53Z</time>
      </trkpt>
      <trkpt lat="45.26727" lon="6.1681">
        <ele>2375</ele>
        <time>2019-03-30T10:40:58Z</time>
      </trkpt>
      <trkpt lat="45.26726" lon="6.16814">
        <ele>2374.2</ele>
        <time>2019-03-30T10:41:03Z</time>
      </trkpt>
      <trkpt lat="45.26725" lon="6.16813">
        <ele>2374.2</ele>
        <time>2019-03-30T10:41:08Z</time>
      </trkpt>
      <trkpt lat="45.26724" lon="6.1681">
        <ele>2372.8</ele>
        <time>2019-03-30T10:41:13Z</time>
      </trkpt>
      <trkpt lat="45.26722" lon="6.16807">
        <ele>2374.2</ele>
        <time>2019-03-30T10:41:18Z</time>
      </trkpt>
      <trkpt lat="45.26721" lon="6.16804">
        <ele>2377.6</ele>
        <time>2019-03-30T10:41:23Z</time>
      </trkpt>
      <trkpt lat="45.2672" lon="6.16801">
        <ele>2378.8</ele>
        <time>2019-03-30T10:41:28Z</time>
      </trkpt>
      <trkpt lat="45.26719" lon="6.16799">
        <ele>2379.6</ele>
        <time>2019-03-30T10:41:33Z</time>
      </trkpt>
      <trkpt lat="45.26717" lon="6.16796">
        <ele>2376</ele>
        <time>2019-03-30T10:41:38Z</time>
      </trkpt>
      <trkpt lat="45.26716" lon="6.16793">
        <ele>2378.6</ele>
        <time>2019-03-30T10:41:43Z</time>
      </trkpt>
      <trkpt lat="45.26714" lon="6.16792">
        <ele>2379.8</ele>
        <time>2019-03-30T10:41:48Z</time>
      </trkpt>
      <trkpt lat="45.26713" lon="6.16795">
        <ele>2381</ele>
        <time>2019-03-30T10:41:53Z</time>
      </trkpt>
      <trkpt lat="45.26712" lon="6.16799">
        <ele>2379.8</ele>
        <time>2019-03-30T10:41:58Z</time>
      </trkpt>
      <trkpt lat="45.26711" lon="6.16802">
        <ele>2383.8</ele>
        <time>2019-03-30T10:42:03Z</time>
      </trkpt>
      <trkpt lat="45.26711" lon="6.16805">
        <ele>2382.2</ele>
        <time>2019-03-30T10:42:08Z</time>
      </trkpt>
      <trkpt lat="45.2671" lon="6.16808">
        <ele>2382.4</ele>
        <time>2019-03-30T10:42:13Z</time>
      </trkpt>
      <trkpt lat="45.26709" lon="6.16811">
        <ele>2385.6</ele>
        <time>2019-03-30T10:42:18Z</time>
      </trkpt>
      <trkpt lat="45.26708" lon="6.16814">
        <ele>2384.8</ele>
        <time>2019-03-30T10:42:23Z</time>
      </trkpt>
      <trkpt lat="45.26707" lon="6.16812">
        <ele>2386.4</ele>
        <time>2019-03-30T10:42:28Z</time>
      </trkpt>
      <trkpt lat="45.26706" lon="6.1681">
        <ele>2385.2</ele>
        <time>2019-03-30T10:42:33Z</time>
      </trkpt>
      <trkpt lat="45.26704" lon="6.16807">
        <ele>2389</ele>
        <time>2019-03-30T10:42:38Z</time>
      </trkpt>
      <trkpt lat="45.26703" lon="6.16804">
        <ele>2388</ele>
        <time>2019-03-30T10:42:43Z</time>
      </trkpt>
      <trkpt lat="45.26701" lon="6.16801">
        <ele>2388.4</ele>
        <time>2019-03-30T10:42:48Z</time>
      </trkpt>
      <trkpt lat="45.267" lon="6.16798">
        <ele>2388.6</ele>
        <time>2019-03-30T10:42:53Z</time>
      </trkpt>
      <trkpt lat="45.26699" lon="6.16797">
        <ele>2391</ele>
        <time>2019-03-30T10:42:58Z</time>
      </trkpt>
      <trkpt lat="45.26699" lon="6.16801">
        <ele>2391</ele>
        <time>2019-03-30T10:43:03Z</time>
      </trkpt>
      <trkpt lat="45.26698" lon="6.16805">
        <ele>2388.2</ele>
        <time>2019-03-30T10:43:08Z</time>
      </trkpt>
      <trkpt lat="45.26697" lon="6.16808">
        <ele>2390.4</ele>
        <time>2019-03-30T10:43:13Z</time>
      </trkpt>
      <trkpt lat="45.26697" lon="6.16812">
        <ele>2391.4</ele>
        <time>2019-03-30T10:43:18Z</time>
      </trkpt>
      <trkpt lat="45.26697" lon="6.16816">
        <ele>2392.2</ele>
        <time>2019-03-30T10:43:23Z</time>
      </trkpt>
      <trkpt lat="45.26697" lon="6.1682">
        <ele>2392.6</ele>
        <time>2019-03-30T10:43:28Z</time>
      </trkpt>
      <trkpt lat="45.26697" lon="6.16823">
        <ele>2395.4</ele>
        <time>2019-03-30T10:43:33Z</time>
      </trkpt>
      <trkpt lat="45.26697" lon="6.16827">
        <ele>2392.2</ele>
        <time>2019-03-30T10:43:38Z</time>
      </trkpt>
      <trkpt lat="45.26697" lon="6.16831">
        <ele>2391.4</ele>
        <time>2019-03-30T10:43:43Z</time>
      </trkpt>
      <trkpt lat="45.26697" lon="6.16835">
        <ele>2393</ele>
        <time>2019-03-30T10:43:48Z</time>
      </trkpt>
      <trkpt lat="45.26696" lon="6.16839">
        <ele>2391.8</ele>
        <time>2019-03-30T10:43:53Z</time>
      </trkpt>
      <trkpt lat="45.26695" lon="6.16842">
        <ele>2396.6</ele>
        <time>2019-03-30T10:43:58Z</time>
      </trkpt>
      <trkpt lat="45.26694" lon="6.16845">
        <ele>2398.4</ele>
        <time>2019-03-30T10:44:03Z</time>
      </trkpt>
      <trkpt lat="45.26693" lon="6.16848">
        <ele>2397.6</ele>
        <time>2019-03-30T10:44:08Z</time>
      </trkpt>
      <trkpt lat="45.26692" lon="6.16852">
        <ele>2396</ele>
        <time>2019-03-30T10:44:13Z</time>
      </trkpt>
      <trkpt lat="45.26692" lon="6.16855">
        <ele>2399</ele>
        <time>2019-03-30T10:44:18Z</time>
      </trkpt>
      <trkpt lat="45.26691" lon="6.16858">
        <ele>2398</ele>
        <time>2019-03-30T10:44:23Z</time>
      </trkpt>
      <trkpt lat="45.26691" lon="6.16859">
        <ele>2398.2</ele>
        <time>2019-03-30T10:44:33Z</time>
      </trkpt>
      <trkpt lat="45.26691" lon="6.1686">
        <ele>2398.6</ele>
        <time>2019-03-30T10:44:38Z</time>
      </trkpt>
      <trkpt lat="45.2669" lon="6.16863">
        <ele>2398</ele>
        <time>2019-03-30T10:44:43Z</time>
      </trkpt>
      <trkpt lat="45.2669" lon="6.16865">
        <ele>2397.6</ele>
        <time>2019-03-30T10:44:48Z</time>
      </trkpt>
      <trkpt lat="45.26689" lon="6.16866">
        <ele>2400.4</ele>
        <time>2019-03-30T10:44:53Z</time>
      </trkpt>
      <trkpt lat="45.26688" lon="6.16864">
        <ele>2400.4</ele>
        <time>2019-03-30T10:44:58Z</time>
      </trkpt>
      <trkpt lat="45.26686" lon="6.16861">
        <ele>2400.6</ele>
        <time>2019-03-30T10:45:03Z</time>
      </trkpt>
      <trkpt lat="45.26686" lon="6.16861">
        <ele>2401</ele>
        <time>2019-03-30T10:45:13Z</time>
      </trkpt>
      <trkpt lat="45.26686" lon="6.1686">
        <ele>2400.2</ele>
        <time>2019-03-30T10:45:18Z</time>
      </trkpt>
      <trkpt lat="45.26684" lon="6.16857">
        <ele>2402.4</ele>
        <time>2019-03-30T10:45:23Z</time>
      </trkpt>
      <trkpt lat="45.26682" lon="6.16853">
        <ele>2401</ele>
        <time>2019-03-30T10:45:28Z</time>
      </trkpt>
      <trkpt lat="45.26681" lon="6.1685">
        <ele>2404</ele>
        <time>2019-03-30T10:45:33Z</time>
      </trkpt>
      <trkpt lat="45.26679" lon="6.16846">
        <ele>2405.6</ele>
        <time>2019-03-30T10:45:38Z</time>
      </trkpt>
      <trkpt lat="45.26678" lon="6.16844">
        <ele>2406.6</ele>
        <time>2019-03-30T10:45:43Z</time>
      </trkpt>
      <trkpt lat="45.26677" lon="6.16842">
        <ele>2403</ele>
        <time>2019-03-30T10:45:48Z</time>
      </trkpt>
      <trkpt lat="45.26676" lon="6.16839">
        <ele>2402.8</ele>
        <time>2019-03-30T10:45:53Z</time>
      </trkpt>
      <trkpt lat="45.26676" lon="6.16839">
        <ele>2405</ele>
        <time>2019-03-30T10:46:03Z</time>
      </trkpt>
      <trkpt lat="45.26676" lon="6.1684">
        <ele>2407.4</ele>
        <time>2019-03-30T10:46:08Z</time>
      </trkpt>
      <trkpt lat="45.26675" lon="6.16843">
        <ele>2406</ele>
        <time>2019-03-30T10:46:13Z</time>
      </trkpt>
      <trkpt lat="45.26675" lon="6.16843">
        <ele>2407.2</ele>
        <time>2019-03-30T10:46:33Z</time>
      </trkpt>
      <trkpt lat="45.26675" lon="6.16844">
        <ele>2407</ele>
        <time>2019-03-30T10:46:38Z</time>
      </trkpt>
      <trkpt lat="45.26673" lon="6.16849">
        <ele>2405.8</ele>
        <time>2019-03-30T10:46:43Z</time>
      </trkpt>
      <trkpt lat="45.26672" lon="6.16853">
        <ele>2408.4</ele>
        <time>2019-03-30T10:46:48Z</time>
      </trkpt>
      <trkpt lat="45.26671" lon="6.16858">
        <ele>2410</ele>
        <time>2019-03-30T10:46:53Z</time>
      </trkpt>
      <trkpt lat="45.2667" lon="6.16862">
        <ele>2409.8</ele>
        <time>2019-03-30T10:46:58Z</time>
      </trkpt>
      <trkpt lat="45.26668" lon="6.16867">
        <ele>2407.4</ele>
        <time>2019-03-30T10:47:03Z</time>
      </trkpt>
      <trkpt lat="45.26667" lon="6.16871">
        <ele>2409.6</ele>
        <time>2019-03-30T10:47:08Z</time>
      </trkpt>
      <trkpt lat="45.26666" lon="6.16875">
        <ele>2410</ele>
        <time>2019-03-30T10:47:13Z</time>
      </trkpt>
      <trkpt lat="45.26664" lon="6.16878">
        <ele>2414</ele>
        <time>2019-03-30T10:47:18Z</time>
      </trkpt>
      <trkpt lat="45.26663" lon="6.16882">
        <ele>2412.6</ele>
        <time>2019-03-30T10:47:23Z</time>
      </trkpt>
      <trkpt lat="45.26661" lon="6.16886">
        <ele>2415.6</ele>
        <time>2019-03-30T10:47:28Z</time>
      </trkpt>
      <trkpt lat="45.26659" lon="6.16888">
        <ele>2414.6</ele>
        <time>2019-03-30T10:47:33Z</time>
      </trkpt>
      <trkpt lat="45.26656" lon="6.16889">
        <ele>2420.8</ele>
        <time>2019-03-30T10:47:38Z</time>
      </trkpt>
      <trkpt lat="45.26654" lon="6.1689">
        <ele>2417.4</ele>
        <time>2019-03-30T10:47:43Z</time>
      </trkpt>
      <trkpt lat="45.26652" lon="6.16889">
        <ele>2418.8</ele>
        <time>2019-03-30T10:47:48Z</time>
      </trkpt>
      <trkpt lat="45.2665" lon="6.16887">
        <ele>2418.2</ele>
        <time>2019-03-30T10:47:53Z</time>
      </trkpt>
      <trkpt lat="45.26648" lon="6.16889">
        <ele>2416.8</ele>
        <time>2019-03-30T10:47:58Z</time>
      </trkpt>
      <trkpt lat="45.26645" lon="6.1689">
        <ele>2417.8</ele>
        <time>2019-03-30T10:48:03Z</time>
      </trkpt>
      <trkpt lat="45.26643" lon="6.16889">
        <ele>2421.6</ele>
        <time>2019-03-30T10:48:08Z</time>
      </trkpt>
      <trkpt lat="45.26643" lon="6.16889">
        <ele>2420.4</ele>
        <time>2019-03-30T10:48:23Z</time>
      </trkpt>
      <trkpt lat="45.26642" lon="6.16887">
        <ele>2420</ele>
        <time>2019-03-30T10:48:28Z</time>
      </trkpt>
      <trkpt lat="45.26641" lon="6.16887">
        <ele>2420.2</ele>
        <time>2019-03-30T10:48:33Z</time>
      </trkpt>
      <trkpt lat="45.26641" lon="6.16886">
        <ele>2420.2</ele>
        <time>2019-03-30T10:48:38Z</time>
      </trkpt>
      <trkpt lat="45.26639" lon="6.16883">
        <ele>2422</ele>
        <time>2019-03-30T10:48:43Z</time>
      </trkpt>
      <trkpt lat="45.26637" lon="6.16879">
        <ele>2420.8</ele>
        <time>2019-03-30T10:48:48Z</time>
      </trkpt>
      <trkpt lat="45.26634" lon="6.16877">
        <ele>2423.6</ele>
        <time>2019-03-30T10:48:53Z</time>
      </trkpt>
      <trkpt lat="45.26632" lon="6.16876">
        <ele>2423.6</ele>
        <time>2019-03-30T10:48:58Z</time>
      </trkpt>
      <trkpt lat="45.26632" lon="6.16876">
        <ele>2424</ele>
        <time>2019-03-30T10:49:18Z</time>
      </trkpt>
      <trkpt lat="45.26632" lon="6.16874">
        <ele>2424.4</ele>
        <time>2019-03-30T10:49:23Z</time>
      </trkpt>
      <trkpt lat="45.26631" lon="6.1687">
        <ele>2428</ele>
        <time>2019-03-30T10:49:28Z</time>
      </trkpt>
      <trkpt lat="45.26632" lon="6.16867">
        <ele>2426.6</ele>
        <time>2019-03-30T10:49:33Z</time>
      </trkpt>
      <trkpt lat="45.26631" lon="6.16863">
        <ele>2426.2</ele>
        <time>2019-03-30T10:49:38Z</time>
      </trkpt>
      <trkpt lat="45.26631" lon="6.16859">
        <ele>2425.4</ele>
        <time>2019-03-30T10:49:43Z</time>
      </trkpt>
      <trkpt lat="45.26631" lon="6.16856">
        <ele>2428.6</ele>
        <time>2019-03-30T10:49:48Z</time>
      </trkpt>
      <trkpt lat="45.2663" lon="6.16853">
        <ele>2430.6</ele>
        <time>2019-03-30T10:49:53Z</time>
      </trkpt>
      <trkpt lat="45.26628" lon="6.16852">
        <ele>2431.6</ele>
        <time>2019-03-30T10:49:58Z</time>
      </trkpt>
      <trkpt lat="45.26626" lon="6.16852">
        <ele>2433</ele>
        <time>2019-03-30T10:50:03Z</time>
      </trkpt>
      <trkpt lat="45.26624" lon="6.16852">
        <ele>2432.8</ele>
        <time>2019-03-30T10:50:08Z</time>
      </trkpt>
      <trkpt lat="45.26622" lon="6.16853">
        <ele>2433.4</ele>
        <time>2019-03-30T10:50:13Z</time>
      </trkpt>
      <trkpt lat="45.2662" lon="6.16853">
        <ele>2432.2</ele>
        <time>2019-03-30T10:50:18Z</time>
      </trkpt>
      <trkpt lat="45.26617" lon="6.16853">
        <ele>2434.8</ele>
        <time>2019-03-30T10:50:23Z</time>
      </trkpt>
      <trkpt lat="45.26615" lon="6.16852">
        <ele>2434.6</ele>
        <time>2019-03-30T10:50:28Z</time>
      </trkpt>
      <trkpt lat="45.26612" lon="6.16852">
        <ele>2436.6</ele>
        <time>2019-03-30T10:50:33Z</time>
      </trkpt>
      <trkpt lat="45.2661" lon="6.16851">
        <ele>2435.6</ele>
        <time>2019-03-30T10:50:38Z</time>
      </trkpt>
      <trkpt lat="45.26608" lon="6.16851">
        <ele>2435.2</ele>
        <time>2019-03-30T10:50:43Z</time>
      </trkpt>
      <trkpt lat="45.26606" lon="6.1685">
        <ele>2438</ele>
        <time>2019-03-30T10:50:48Z</time>
      </trkpt>
      <trkpt lat="45.26604" lon="6.1685">
        <ele>2437.8</ele>
        <time>2019-03-30T10:50:53Z</time>
      </trkpt>
      <trkpt lat="45.26601" lon="6.16851">
        <ele>2435.6</ele>
        <time>2019-03-30T10:50:58Z</time>
      </trkpt>
      <trkpt lat="45.26599" lon="6.16852">
        <ele>2440</ele>
        <time>2019-03-30T10:51:03Z</time>
      </trkpt>
      <trkpt lat="45.26597" lon="6.16853">
        <ele>2439</ele>
        <time>2019-03-30T10:51:08Z</time>
      </trkpt>
      <trkpt lat="45.26595" lon="6.16854">
        <ele>2438.4</ele>
        <time>2019-03-30T10:51:13Z</time>
      </trkpt>
      <trkpt lat="45.26594" lon="6.16856">
        <ele>2438.6</ele>
        <time>2019-03-30T10:51:18Z</time>
      </trkpt>
      <trkpt lat="45.26594" lon="6.16855">
        <ele>2438.2</ele>
        <time>2019-03-30T10:51:28Z</time>
      </trkpt>
      <trkpt lat="45.26594" lon="6.16852">
        <ele>2440.8</ele>
        <time>2019-03-30T10:51:33Z</time>
      </trkpt>
      <trkpt lat="45.26594" lon="6.16848">
        <ele>2441.2</ele>
        <time>2019-03-30T10:51:38Z</time>
      </trkpt>
      <trkpt lat="45.26595" lon="6.16845">
        <ele>2444.2</ele>
        <time>2019-03-30T10:51:43Z</time>
      </trkpt>
      <trkpt lat="45.26596" lon="6.16842">
        <ele>2444</ele>
        <time>2019-03-30T10:51:48Z</time>
      </trkpt>
      <trkpt lat="45.26596" lon="6.16838">
        <ele>2443.2</ele>
        <time>2019-03-30T10:51:53Z</time>
      </trkpt>
      <trkpt lat="45.26597" lon="6.16835">
        <ele>2443.8</ele>
        <time>2019-03-30T10:51:58Z</time>
      </trkpt>
      <trkpt lat="45.26598" lon="6.16832">
        <ele>2443.2</ele>
        <time>2019-03-30T10:52:03Z</time>
      </trkpt>
      <trkpt lat="45.26598" lon="6.16831">
        <ele>2445.6</ele>
        <time>2019-03-30T10:52:08Z</time>
      </trkpt>
      <trkpt lat="45.26598" lon="6.1683">
        <ele>2448.8</ele>
        <time>2019-03-30T10:52:33Z</time>
      </trkpt>
      <trkpt lat="45.26599" lon="6.16827">
        <ele>2450.6</ele>
        <time>2019-03-30T10:52:38Z</time>
      </trkpt>
      <trkpt lat="45.266" lon="6.16823">
        <ele>2449.2</ele>
        <time>2019-03-30T10:52:43Z</time>
      </trkpt>
      <trkpt lat="45.26601" lon="6.1682">
        <ele>2449.2</ele>
        <time>2019-03-30T10:52:48Z</time>
      </trkpt>
      <trkpt lat="45.26602" lon="6.16816">
        <ele>2450.6</ele>
        <time>2019-03-30T10:52:53Z</time>
      </trkpt>
      <trkpt lat="45.26603" lon="6.16813">
        <ele>2451.4</ele>
        <time>2019-03-30T10:52:58Z</time>
      </trkpt>
      <trkpt lat="45.26604" lon="6.1681">
        <ele>2452.8</ele>
        <time>2019-03-30T10:53:03Z</time>
      </trkpt>
      <trkpt lat="45.26604" lon="6.16808">
        <ele>2454.8</ele>
        <time>2019-03-30T10:53:08Z</time>
      </trkpt>
      <trkpt lat="45.26605" lon="6.16804">
        <ele>2455.2</ele>
        <time>2019-03-30T10:53:13Z</time>
      </trkpt>
      <trkpt lat="45.26606" lon="6.16801">
        <ele>2455.8</ele>
        <time>2019-03-30T10:53:18Z</time>
      </trkpt>
      <trkpt lat="45.26607" lon="6.16797">
        <ele>2456.6</ele>
        <time>2019-03-30T10:53:23Z</time>
      </trkpt>
      <trkpt lat="45.26608" lon="6.16794">
        <ele>2458</ele>
        <time>2019-03-30T10:53:28Z</time>
      </trkpt>
      <trkpt lat="45.26609" lon="6.16791">
        <ele>2456.6</ele>
        <time>2019-03-30T10:53:33Z</time>
      </trkpt>
      <trkpt lat="45.2661" lon="6.16788">
        <ele>2459</ele>
        <time>2019-03-30T10:53:38Z</time>
      </trkpt>
      <trkpt lat="45.26611" lon="6.16785">
        <ele>2460</ele>
        <time>2019-03-30T10:53:43Z</time>
      </trkpt>
      <trkpt lat="45.26613" lon="6.16782">
        <ele>2459</ele>
        <time>2019-03-30T10:53:48Z</time>
      </trkpt>
      <trkpt lat="45.26613" lon="6.1678">
        <ele>2457.6</ele>
        <time>2019-03-30T10:53:53Z</time>
      </trkpt>
      <trkpt lat="45.26611" lon="6.1678">
        <ele>2459.2</ele>
        <time>2019-03-30T10:53:58Z</time>
      </trkpt>
      <trkpt lat="45.26608" lon="6.16781">
        <ele>2461</ele>
        <time>2019-03-30T10:54:03Z</time>
      </trkpt>
      <trkpt lat="45.26606" lon="6.16781">
        <ele>2461.8</ele>
        <time>2019-03-30T10:54:08Z</time>
      </trkpt>
      <trkpt lat="45.26604" lon="6.16781">
        <ele>2463.2</ele>
        <time>2019-03-30T10:54:13Z</time>
      </trkpt>
      <trkpt lat="45.26602" lon="6.16782">
        <ele>2463</ele>
        <time>2019-03-30T10:54:18Z</time>
      </trkpt>
      <trkpt lat="45.266" lon="6.16782">
        <ele>2461.2</ele>
        <time>2019-03-30T10:54:23Z</time>
      </trkpt>
      <trkpt lat="45.26597" lon="6.16783">
        <ele>2463.4</ele>
        <time>2019-03-30T10:54:28Z</time>
      </trkpt>
      <trkpt lat="45.26596" lon="6.16784">
        <ele>2463.4</ele>
        <time>2019-03-30T10:54:33Z</time>
      </trkpt>
      <trkpt lat="45.26594" lon="6.16784">
        <ele>2464.6</ele>
        <time>2019-03-30T10:54:38Z</time>
      </trkpt>
      <trkpt lat="45.26592" lon="6.16785">
        <ele>2464.4</ele>
        <time>2019-03-30T10:54:43Z</time>
      </trkpt>
      <trkpt lat="45.26591" lon="6.16786">
        <ele>2466.4</ele>
        <time>2019-03-30T10:54:48Z</time>
      </trkpt>
      <trkpt lat="45.26589" lon="6.16787">
        <ele>2468.6</ele>
        <time>2019-03-30T10:54:53Z</time>
      </trkpt>
      <trkpt lat="45.26587" lon="6.16789">
        <ele>2470.8</ele>
        <time>2019-03-30T10:54:58Z</time>
      </trkpt>
      <trkpt lat="45.26586" lon="6.16791">
        <ele>2472.2</ele>
        <time>2019-03-30T10:55:03Z</time>
      </trkpt>
      <trkpt lat="45.26585" lon="6.16791">
        <ele>2470.2</ele>
        <time>2019-03-30T10:55:13Z</time>
      </trkpt>
      <trkpt lat="45.26586" lon="6.16787">
        <ele>2470.8</ele>
        <time>2019-03-30T10:55:18Z</time>
      </trkpt>
      <trkpt lat="45.26587" lon="6.16783">
        <ele>2470</ele>
        <time>2019-03-30T10:55:23Z</time>
      </trkpt>
      <trkpt lat="45.26587" lon="6.16779">
        <ele>2469.4</ele>
        <time>2019-03-30T10:55:28Z</time>
      </trkpt>
      <trkpt lat="45.26588" lon="6.16775">
        <ele>2471.8</ele>
        <time>2019-03-30T10:55:33Z</time>
      </trkpt>
      <trkpt lat="45.26588" lon="6.16771">
        <ele>2472.2</ele>
        <time>2019-03-30T10:55:38Z</time>
      </trkpt>
      <trkpt lat="45.2659" lon="6.16768">
        <ele>2474.2</ele>
        <time>2019-03-30T10:55:43Z</time>
      </trkpt>
      <trkpt lat="45.26591" lon="6.16764">
        <ele>2475.4</ele>
        <time>2019-03-30T10:55:48Z</time>
      </trkpt>
      <trkpt lat="45.26592" lon="6.16761">
        <ele>2474.2</ele>
        <time>2019-03-30T10:55:53Z</time>
      </trkpt>
      <trkpt lat="45.26594" lon="6.16758">
        <ele>2476.6</ele>
        <time>2019-03-30T10:55:58Z</time>
      </trkpt>
      <trkpt lat="45.26596" lon="6.16755">
        <ele>2473.4</ele>
        <time>2019-03-30T10:56:03Z</time>
      </trkpt>
      <trkpt lat="45.26597" lon="6.16752">
        <ele>2480</ele>
        <time>2019-03-30T10:56:08Z</time>
      </trkpt>
      <trkpt lat="45.26599" lon="6.1675">
        <ele>2477</ele>
        <time>2019-03-30T10:56:13Z</time>
      </trkpt>
      <trkpt lat="45.26601" lon="6.1675">
        <ele>2478.8</ele>
        <time>2019-03-30T10:56:18Z</time>
      </trkpt>
      <trkpt lat="45.266" lon="6.16748">
        <ele>2481.2</ele>
        <time>2019-03-30T10:56:23Z</time>
      </trkpt>
      <trkpt lat="45.26598" lon="6.16748">
        <ele>2477.2</ele>
        <time>2019-03-30T10:56:28Z</time>
      </trkpt>
      <trkpt lat="45.26596" lon="6.16748">
        <ele>2477.2</ele>
        <time>2019-03-30T10:56:33Z</time>
      </trkpt>
      <trkpt lat="45.26594" lon="6.16748">
        <ele>2479.2</ele>
        <time>2019-03-30T10:56:38Z</time>
      </trkpt>
      <trkpt lat="45.26592" lon="6.16747">
        <ele>2478.6</ele>
        <time>2019-03-30T10:56:43Z</time>
      </trkpt>
      <trkpt lat="45.2659" lon="6.16747">
        <ele>2479.8</ele>
        <time>2019-03-30T10:56:48Z</time>
      </trkpt>
      <trkpt lat="45.26587" lon="6.16748">
        <ele>2480.8</ele>
        <time>2019-03-30T10:56:53Z</time>
      </trkpt>
      <trkpt lat="45.26585" lon="6.16748">
        <ele>2480.2</ele>
        <time>2019-03-30T10:56:58Z</time>
      </trkpt>
      <trkpt lat="45.26583" lon="6.16749">
        <ele>2481.2</ele>
        <time>2019-03-30T10:57:03Z</time>
      </trkpt>
      <trkpt lat="45.26581" lon="6.16749">
        <ele>2481.2</ele>
        <time>2019-03-30T10:57:08Z</time>
      </trkpt>
      <trkpt lat="45.2658" lon="6.1675">
        <ele>2483</ele>
        <time>2019-03-30T10:57:13Z</time>
      </trkpt>
      <trkpt lat="45.2658" lon="6.1675">
        <ele>2482.2</ele>
        <time>2019-03-30T10:57:18Z</time>
      </trkpt>
      <trkpt lat="45.2658" lon="6.16748">
        <ele>2482.6</ele>
        <time>2019-03-30T10:57:23Z</time>
      </trkpt>
      <trkpt lat="45.26581" lon="6.16745">
        <ele>2482.8</ele>
        <time>2019-03-30T10:57:28Z</time>
      </trkpt>
      <trkpt lat="45.26582" lon="6.16743">
        <ele>2485.8</ele>
        <time>2019-03-30T10:57:33Z</time>
      </trkpt>
      <trkpt lat="45.26582" lon="6.1674">
        <ele>2488.8</ele>
        <time>2019-03-30T10:57:38Z</time>
      </trkpt>
      <trkpt lat="45.26583" lon="6.16738">
        <ele>2491</ele>
        <time>2019-03-30T10:57:43Z</time>
      </trkpt>
      <trkpt lat="45.26584" lon="6.16736">
        <ele>2488.6</ele>
        <time>2019-03-30T10:57:48Z</time>
      </trkpt>
      <trkpt lat="45.26586" lon="6.16733">
        <ele>2485</ele>
        <time>2019-03-30T10:57:53Z</time>
      </trkpt>
      <trkpt lat="45.26587" lon="6.16731">
        <ele>2488</ele>
        <time>2019-03-30T10:57:58Z</time>
      </trkpt>
      <trkpt lat="45.2659" lon="6.16729">
        <ele>2488.6</ele>
        <time>2019-03-30T10:58:03Z</time>
      </trkpt>
      <trkpt lat="45.26592" lon="6.16727">
        <ele>2490</ele>
        <time>2019-03-30T10:58:08Z</time>
      </trkpt>
      <trkpt lat="45.26594" lon="6.16726">
        <ele>2491.4</ele>
        <time>2019-03-30T10:58:13Z</time>
      </trkpt>
      <trkpt lat="45.26595" lon="6.16725">
        <ele>2493.2</ele>
        <time>2019-03-30T10:58:18Z</time>
      </trkpt>
      <trkpt lat="45.26596" lon="6.16725">
        <ele>2492.8</ele>
        <time>2019-03-30T10:58:23Z</time>
      </trkpt>
      <trkpt lat="45.26595" lon="6.16724">
        <ele>2493.6</ele>
        <time>2019-03-30T10:58:28Z</time>
      </trkpt>
      <trkpt lat="45.26592" lon="6.16723">
        <ele>2493.6</ele>
        <time>2019-03-30T10:58:33Z</time>
      </trkpt>
      <trkpt lat="45.2659" lon="6.16722">
        <ele>2494.8</ele>
        <time>2019-03-30T10:58:38Z</time>
      </trkpt>
      <trkpt lat="45.26588" lon="6.16721">
        <ele>2495.8</ele>
        <time>2019-03-30T10:58:43Z</time>
      </trkpt>
      <trkpt lat="45.26585" lon="6.16721">
        <ele>2494.2</ele>
        <time>2019-03-30T10:58:48Z</time>
      </trkpt>
      <trkpt lat="45.26583" lon="6.16721">
        <ele>2494.4</ele>
        <time>2019-03-30T10:58:53Z</time>
      </trkpt>
      <trkpt lat="45.26581" lon="6.16721">
        <ele>2498.4</ele>
        <time>2019-03-30T10:58:58Z</time>
      </trkpt>
      <trkpt lat="45.26579" lon="6.16721">
        <ele>2498.2</ele>
        <time>2019-03-30T10:59:03Z</time>
      </trkpt>
      <trkpt lat="45.26577" lon="6.16722">
        <ele>2495.8</ele>
        <time>2019-03-30T10:59:08Z</time>
      </trkpt>
      <trkpt lat="45.26575" lon="6.16722">
        <ele>2501.4</ele>
        <time>2019-03-30T10:59:13Z</time>
      </trkpt>
      <trkpt lat="45.26573" lon="6.16723">
        <ele>2498.2</ele>
        <time>2019-03-30T10:59:18Z</time>
      </trkpt>
      <trkpt lat="45.26572" lon="6.16724">
        <ele>2503.6</ele>
        <time>2019-03-30T10:59:23Z</time>
      </trkpt>
      <trkpt lat="45.26572" lon="6.16724">
        <ele>2502.8</ele>
        <time>2019-03-30T10:59:28Z</time>
      </trkpt>
      <trkpt lat="45.26573" lon="6.16721">
        <ele>2505.2</ele>
        <time>2019-03-30T10:59:33Z</time>
      </trkpt>
      <trkpt lat="45.26574" lon="6.16717">
        <ele>2503.6</ele>
        <time>2019-03-30T10:59:38Z</time>
      </trkpt>
      <trkpt lat="45.26575" lon="6.16717">
        <ele>2502.4</ele>
        <time>2019-03-30T10:59:48Z</time>
      </trkpt>
      <trkpt lat="45.26576" lon="6.16715">
        <ele>2500.8</ele>
        <time>2019-03-30T10:59:53Z</time>
      </trkpt>
      <trkpt lat="45.26578" lon="6.16713">
        <ele>2504.2</ele>
        <time>2019-03-30T10:59:58Z</time>
      </trkpt>
      <trkpt lat="45.26579" lon="6.1671">
        <ele>2503.6</ele>
        <time>2019-03-30T11:00:03Z</time>
      </trkpt>
      <trkpt lat="45.26581" lon="6.16708">
        <ele>2504.6</ele>
        <time>2019-03-30T11:00:08Z</time>
      </trkpt>
      <trkpt lat="45.26583" lon="6.16705">
        <ele>2507.2</ele>
        <time>2019-03-30T11:00:13Z</time>
      </trkpt>
      <trkpt lat="45.26585" lon="6.16704">
        <ele>2503.6</ele>
        <time>2019-03-30T11:00:18Z</time>
      </trkpt>
      <trkpt lat="45.26588" lon="6.16703">
        <ele>2505.6</ele>
        <time>2019-03-30T11:00:23Z</time>
      </trkpt>
      <trkpt lat="45.2659" lon="6.16702">
        <ele>2503.2</ele>
        <time>2019-03-30T11:00:28Z</time>
      </trkpt>
      <trkpt lat="45.26592" lon="6.16702">
        <ele>2501</ele>
        <time>2019-03-30T11:00:33Z</time>
      </trkpt>
      <trkpt lat="45.26595" lon="6.16701">
        <ele>2503.6</ele>
        <time>2019-03-30T11:00:38Z</time>
      </trkpt>
      <trkpt lat="45.26595" lon="6.167">
        <ele>2504.4</ele>
        <time>2019-03-30T11:00:43Z</time>
      </trkpt>
      <trkpt lat="45.26593" lon="6.16699">
        <ele>2506.2</ele>
        <time>2019-03-30T11:00:48Z</time>
      </trkpt>
      <trkpt lat="45.26591" lon="6.16697">
        <ele>2505.8</ele>
        <time>2019-03-30T11:00:54Z</time>
      </trkpt>
      <trkpt lat="45.26589" lon="6.16696">
        <ele>2504.4</ele>
        <time>2019-03-30T11:00:59Z</time>
      </trkpt>
      <trkpt lat="45.26587" lon="6.16695">
        <ele>2502.4</ele>
        <time>2019-03-30T11:01:04Z</time>
      </trkpt>
      <trkpt lat="45.26585" lon="6.16693">
        <ele>2502.2</ele>
        <time>2019-03-30T11:01:09Z</time>
      </trkpt>
      <trkpt lat="45.26583" lon="6.16692">
        <ele>2507.4</ele>
        <time>2019-03-30T11:01:14Z</time>
      </trkpt>
      <trkpt lat="45.26581" lon="6.16691">
        <ele>2504.6</ele>
        <time>2019-03-30T11:01:19Z</time>
      </trkpt>
      <trkpt lat="45.26578" lon="6.1669">
        <ele>2506.4</ele>
        <time>2019-03-30T11:01:24Z</time>
      </trkpt>
      <trkpt lat="45.26576" lon="6.1669">
        <ele>2511</ele>
        <time>2019-03-30T11:01:29Z</time>
      </trkpt>
      <trkpt lat="45.26574" lon="6.1669">
        <ele>2510.6</ele>
        <time>2019-03-30T11:01:34Z</time>
      </trkpt>
      <trkpt lat="45.26572" lon="6.1669">
        <ele>2510</ele>
        <time>2019-03-30T11:01:39Z</time>
      </trkpt>
      <trkpt lat="45.26569" lon="6.16691">
        <ele>2513.6</ele>
        <time>2019-03-30T11:01:44Z</time>
      </trkpt>
      <trkpt lat="45.26567" lon="6.16691">
        <ele>2511</ele>
        <time>2019-03-30T11:01:49Z</time>
      </trkpt>
      <trkpt lat="45.26565" lon="6.16692">
        <ele>2515.6</ele>
        <time>2019-03-30T11:01:54Z</time>
      </trkpt>
      <trkpt lat="45.26565" lon="6.16692">
        <ele>2515.6</ele>
        <time>2019-03-30T11:01:59Z</time>
      </trkpt>
      <trkpt lat="45.26566" lon="6.1669">
        <ele>2514.4</ele>
        <time>2019-03-30T11:02:04Z</time>
      </trkpt>
      <trkpt lat="45.26567" lon="6.16687">
        <ele>2517.6</ele>
        <time>2019-03-30T11:02:09Z</time>
      </trkpt>
      <trkpt lat="45.26568" lon="6.16687">
        <ele>2516.6</ele>
        <time>2019-03-30T11:02:14Z</time>
      </trkpt>
      <trkpt lat="45.26568" lon="6.16687">
        <ele>2517</ele>
        <time>2019-03-30T11:02:19Z</time>
      </trkpt>
      <trkpt lat="45.26569" lon="6.16685">
        <ele>2516.4</ele>
        <time>2019-03-30T11:02:24Z</time>
      </trkpt>
      <trkpt lat="45.2657" lon="6.16683">
        <ele>2518.6</ele>
        <time>2019-03-30T11:02:29Z</time>
      </trkpt>
      <trkpt lat="45.26573" lon="6.16681">
        <ele>2519.2</ele>
        <time>2019-03-30T11:02:34Z</time>
      </trkpt>
      <trkpt lat="45.26574" lon="6.1668">
        <ele>2520.4</ele>
        <time>2019-03-30T11:02:39Z</time>
      </trkpt>
      <trkpt lat="45.26574" lon="6.16679">
        <ele>2517.4</ele>
        <time>2019-03-30T11:02:49Z</time>
      </trkpt>
      <trkpt lat="45.26571" lon="6.16679">
        <ele>2517.2</ele>
        <time>2019-03-30T11:02:54Z</time>
      </trkpt>
      <trkpt lat="45.26569" lon="6.16679">
        <ele>2519</ele>
        <time>2019-03-30T11:02:59Z</time>
      </trkpt>
      <trkpt lat="45.26566" lon="6.1668">
        <ele>2520.8</ele>
        <time>2019-03-30T11:03:04Z</time>
      </trkpt>
      <trkpt lat="45.26564" lon="6.1668">
        <ele>2522.4</ele>
        <time>2019-03-30T11:03:09Z</time>
      </trkpt>
      <trkpt lat="45.26562" lon="6.16681">
        <ele>2523.8</ele>
        <time>2019-03-30T11:03:14Z</time>
      </trkpt>
      <trkpt lat="45.2656" lon="6.16682">
        <ele>2525</ele>
        <time>2019-03-30T11:03:19Z</time>
      </trkpt>
      <trkpt lat="45.26559" lon="6.16683">
        <ele>2523.6</ele>
        <time>2019-03-30T11:03:24Z</time>
      </trkpt>
      <trkpt lat="45.26558" lon="6.16684">
        <ele>2523.6</ele>
        <time>2019-03-30T11:03:29Z</time>
      </trkpt>
      <trkpt lat="45.26558" lon="6.16681">
        <ele>2522.6</ele>
        <time>2019-03-30T11:03:34Z</time>
      </trkpt>
      <trkpt lat="45.26559" lon="6.16678">
        <ele>2525</ele>
        <time>2019-03-30T11:03:39Z</time>
      </trkpt>
      <trkpt lat="45.2656" lon="6.16675">
        <ele>2524.4</ele>
        <time>2019-03-30T11:03:44Z</time>
      </trkpt>
      <trkpt lat="45.26562" lon="6.16672">
        <ele>2524.2</ele>
        <time>2019-03-30T11:03:49Z</time>
      </trkpt>
      <trkpt lat="45.26563" lon="6.1667">
        <ele>2527.2</ele>
        <time>2019-03-30T11:03:54Z</time>
      </trkpt>
      <trkpt lat="45.26564" lon="6.16669">
        <ele>2527</ele>
        <time>2019-03-30T11:03:59Z</time>
      </trkpt>
      <trkpt lat="45.26562" lon="6.16669">
        <ele>2525</ele>
        <time>2019-03-30T11:04:04Z</time>
      </trkpt>
      <trkpt lat="45.2656" lon="6.1667">
        <ele>2527.4</ele>
        <time>2019-03-30T11:04:09Z</time>
      </trkpt>
      <trkpt lat="45.26559" lon="6.1667">
        <ele>2525.6</ele>
        <time>2019-03-30T11:04:14Z</time>
      </trkpt>
      <trkpt lat="45.26556" lon="6.16671">
        <ele>2525</ele>
        <time>2019-03-30T11:04:19Z</time>
      </trkpt>
      <trkpt lat="45.26554" lon="6.16672">
        <ele>2525.8</ele>
        <time>2019-03-30T11:04:24Z</time>
      </trkpt>
      <trkpt lat="45.26552" lon="6.16673">
        <ele>2527.2</ele>
        <time>2019-03-30T11:04:29Z</time>
      </trkpt>
      <trkpt lat="45.26551" lon="6.16675">
        <ele>2526</ele>
        <time>2019-03-30T11:04:34Z</time>
      </trkpt>
      <trkpt lat="45.26549" lon="6.16677">
        <ele>2528</ele>
        <time>2019-03-30T11:04:39Z</time>
      </trkpt>
      <trkpt lat="45.26549" lon="6.16677">
        <ele>2529</ele>
        <time>2019-03-30T11:04:44Z</time>
      </trkpt>
      <trkpt lat="45.26549" lon="6.16675">
        <ele>2529.8</ele>
        <time>2019-03-30T11:04:49Z</time>
      </trkpt>
      <trkpt lat="45.26549" lon="6.16672">
        <ele>2531.2</ele>
        <time>2019-03-30T11:04:54Z</time>
      </trkpt>
      <trkpt lat="45.26549" lon="6.16669">
        <ele>2530.2</ele>
        <time>2019-03-30T11:04:59Z</time>
      </trkpt>
      <trkpt lat="45.2655" lon="6.16667">
        <ele>2530.6</ele>
        <time>2019-03-30T11:05:04Z</time>
      </trkpt>
      <trkpt lat="45.2655" lon="6.16664">
        <ele>2528.6</ele>
        <time>2019-03-30T11:05:09Z</time>
      </trkpt>
      <trkpt lat="45.26551" lon="6.16662">
        <ele>2532.4</ele>
        <time>2019-03-30T11:05:14Z</time>
      </trkpt>
      <trkpt lat="45.26552" lon="6.16659">
        <ele>2533.6</ele>
        <time>2019-03-30T11:05:19Z</time>
      </trkpt>
      <trkpt lat="45.26553" lon="6.16656">
        <ele>2535.8</ele>
        <time>2019-03-30T11:05:24Z</time>
      </trkpt>
      <trkpt lat="45.26555" lon="6.16654">
        <ele>2536.6</ele>
        <time>2019-03-30T11:05:29Z</time>
      </trkpt>
      <trkpt lat="45.26557" lon="6.16653">
        <ele>2539.4</ele>
        <time>2019-03-30T11:06:09Z</time>
      </trkpt>
      <trkpt lat="45.26557" lon="6.16653">
        <ele>2539.2</ele>
        <time>2019-03-30T11:07:44Z</time>
      </trkpt>
      <trkpt lat="45.26559" lon="6.16651">
        <ele>2537</ele>
        <time>2019-03-30T11:07:49Z</time>
      </trkpt>
      <trkpt lat="45.26559" lon="6.1665">
        <ele>2537.8</ele>
        <time>2019-03-30T11:07:54Z</time>
      </trkpt>
      <trkpt lat="45.26554" lon="6.1665">
        <ele>2540.8</ele>
        <time>2019-03-30T11:08:04Z</time>
      </trkpt>
      <trkpt lat="45.26552" lon="6.1665">
        <ele>2540.4</ele>
        <time>2019-03-30T11:08:09Z</time>
      </trkpt>
      <trkpt lat="45.26549" lon="6.1665">
        <ele>2541.6</ele>
        <time>2019-03-30T11:08:14Z</time>
      </trkpt>
      <trkpt lat="45.26547" lon="6.1665">
        <ele>2540.4</ele>
        <time>2019-03-30T11:08:19Z</time>
      </trkpt>
      <trkpt lat="45.26545" lon="6.1665">
        <ele>2542.4</ele>
        <time>2019-03-30T11:08:24Z</time>
      </trkpt>
      <trkpt lat="45.26543" lon="6.1665">
        <ele>2545.4</ele>
        <time>2019-03-30T11:08:29Z</time>
      </trkpt>
      <trkpt lat="45.26542" lon="6.1665">
        <ele>2546</ele>
        <time>2019-03-30T11:08:34Z</time>
      </trkpt>
      <trkpt lat="45.2654" lon="6.1665">
        <ele>2544.4</ele>
        <time>2019-03-30T11:08:39Z</time>
      </trkpt>
      <trkpt lat="45.26538" lon="6.1665">
        <ele>2544.6</ele>
        <time>2019-03-30T11:08:44Z</time>
      </trkpt>
      <trkpt lat="45.26536" lon="6.1665">
        <ele>2546.4</ele>
        <time>2019-03-30T11:08:49Z</time>
      </trkpt>
      <trkpt lat="45.26534" lon="6.1665">
        <ele>2544.8</ele>
        <time>2019-03-30T11:08:54Z</time>
      </trkpt>
      <trkpt lat="45.26533" lon="6.16651">
        <ele>2544.6</ele>
        <time>2019-03-30T11:08:59Z</time>
      </trkpt>
      <trkpt lat="45.26532" lon="6.16652">
        <ele>2545.8</ele>
        <time>2019-03-30T11:09:04Z</time>
      </trkpt>
      <trkpt lat="45.26532" lon="6.16651">
        <ele>2544.6</ele>
        <time>2019-03-30T11:09:09Z</time>
      </trkpt>
      <trkpt lat="45.26533" lon="6.16649">
        <ele>2547.6</ele>
        <time>2019-03-30T11:09:14Z</time>
      </trkpt>
      <trkpt lat="45.26534" lon="6.16647">
        <ele>2549.8</ele>
        <time>2019-03-30T11:09:19Z</time>
      </trkpt>
      <trkpt lat="45.26535" lon="6.16645">
        <ele>2547.6</ele>
        <time>2019-03-30T11:09:24Z</time>
      </trkpt>
      <trkpt lat="45.26536" lon="6.16643">
        <ele>2545.8</ele>
        <time>2019-03-30T11:09:29Z</time>
      </trkpt>
      <trkpt lat="45.26537" lon="6.1664">
        <ele>2547.2</ele>
        <time>2019-03-30T11:09:34Z</time>
      </trkpt>
      <trkpt lat="45.26539" lon="6.16638">
        <ele>2546.2</ele>
        <time>2019-03-30T11:09:39Z</time>
      </trkpt>
      <trkpt lat="45.2654" lon="6.16636">
        <ele>2546.6</ele>
        <time>2019-03-30T11:09:44Z</time>
      </trkpt>
      <trkpt lat="45.26542" lon="6.16634">
        <ele>2547.4</ele>
        <time>2019-03-30T11:09:49Z</time>
      </trkpt>
      <trkpt lat="45.26543" lon="6.16632">
        <ele>2549.4</ele>
        <time>2019-03-30T11:09:54Z</time>
      </trkpt>
      <trkpt lat="45.26545" lon="6.1663">
        <ele>2549.8</ele>
        <time>2019-03-30T11:09:59Z</time>
      </trkpt>
      <trkpt lat="45.26547" lon="6.16629">
        <ele>2547.8</ele>
        <time>2019-03-30T11:10:04Z</time>
      </trkpt>
      <trkpt lat="45.26548" lon="6.16628">
        <ele>2549.4</ele>
        <time>2019-03-30T11:10:09Z</time>
      </trkpt>
      <trkpt lat="45.26549" lon="6.16627">
        <ele>2550.2</ele>
        <time>2019-03-30T11:10:14Z</time>
      </trkpt>
      <trkpt lat="45.26547" lon="6.16626">
        <ele>2548.4</ele>
        <time>2019-03-30T11:10:19Z</time>
      </trkpt>
      <trkpt lat="45.26545" lon="6.16626">
        <ele>2549.4</ele>
        <time>2019-03-30T11:10:24Z</time>
      </trkpt>
      <trkpt lat="45.26543" lon="6.16626">
        <ele>2547.2</ele>
        <time>2019-03-30T11:10:29Z</time>
      </trkpt>
      <trkpt lat="45.26541" lon="6.16625">
        <ele>2548.8</ele>
        <time>2019-03-30T11:10:34Z</time>
      </trkpt>
      <trkpt lat="45.26539" lon="6.16624">
        <ele>2549.6</ele>
        <time>2019-03-30T11:10:39Z</time>
      </trkpt>
      <trkpt lat="45.26537" lon="6.16624">
        <ele>2555.2</ele>
        <time>2019-03-30T11:10:44Z</time>
      </trkpt>
      <trkpt lat="45.26536" lon="6.16624">
        <ele>2556.6</ele>
        <time>2019-03-30T11:10:49Z</time>
      </trkpt>
      <trkpt lat="45.26534" lon="6.16624">
        <ele>2557.4</ele>
        <time>2019-03-30T11:10:54Z</time>
      </trkpt>
      <trkpt lat="45.26532" lon="6.16624">
        <ele>2562.2</ele>
        <time>2019-03-30T11:10:59Z</time>
      </trkpt>
      <trkpt lat="45.26531" lon="6.16624">
        <ele>2561.2</ele>
        <time>2019-03-30T11:11:04Z</time>
      </trkpt>
      <trkpt lat="45.2653" lon="6.16624">
        <ele>2558.6</ele>
        <time>2019-03-30T11:11:49Z</time>
      </trkpt>
      <trkpt lat="45.26528" lon="6.16624">
        <ele>2558.6</ele>
        <time>2019-03-30T11:11:54Z</time>
      </trkpt>
      <trkpt lat="45.26528" lon="6.16625">
        <ele>2559.8</ele>
        <time>2019-03-30T11:11:59Z</time>
      </trkpt>
      <trkpt lat="45.26526" lon="6.16627">
        <ele>2558</ele>
        <time>2019-03-30T11:12:04Z</time>
      </trkpt>
      <trkpt lat="45.26525" lon="6.16628">
        <ele>2558</ele>
        <time>2019-03-30T11:12:09Z</time>
      </trkpt>
      <trkpt lat="45.26525" lon="6.16629">
        <ele>2558.6</ele>
        <time>2019-03-30T11:13:54Z</time>
      </trkpt>
      <trkpt lat="45.26523" lon="6.16628">
        <ele>2558.2</ele>
        <time>2019-03-30T11:13:59Z</time>
      </trkpt>
      <trkpt lat="45.26523" lon="6.16628">
        <ele>2560</ele>
        <time>2019-03-30T11:16:14Z</time>
      </trkpt>
      <trkpt lat="45.26522" lon="6.16628">
        <ele>2559.4</ele>
        <time>2019-03-30T11:17:44Z</time>
      </trkpt>
      <trkpt lat="45.26521" lon="6.16628">
        <ele>2558.6</ele>
        <time>2019-03-30T11:18:29Z</time>
      </trkpt>
      <trkpt lat="45.26521" lon="6.16628">
        <ele>2558.2</ele>
        <time>2019-03-30T11:18:49Z</time>
      </trkpt>
      <trkpt lat="45.2652" lon="6.16628">
        <ele>2558.2</ele>
        <time>2019-03-30T11:18:54Z</time>
      </trkpt>
      <trkpt lat="45.26518" lon="6.16628">
        <ele>2559.4</ele>
        <time>2019-03-30T11:18:59Z</time>
      </trkpt>
      <trkpt lat="45.26516" lon="6.16627">
        <ele>2557.8</ele>
        <time>2019-03-30T11:19:04Z</time>
      </trkpt>
      <trkpt lat="45.26513" lon="6.16626">
        <ele>2555.4</ele>
        <time>2019-03-30T11:19:09Z</time>
      </trkpt>
      <trkpt lat="45.26511" lon="6.16624">
        <ele>2555.4</ele>
        <time>2019-03-30T11:19:14Z</time>
      </trkpt>
      <trkpt lat="45.26509" lon="6.16623">
        <ele>2558</ele>
        <time>2019-03-30T11:19:19Z</time>
      </trkpt>
      <trkpt lat="45.26507" lon="6.16622">
        <ele>2558.8</ele>
        <time>2019-03-30T11:19:24Z</time>
      </trkpt>
      <trkpt lat="45.26506" lon="6.16621">
        <ele>2555.6</ele>
        <time>2019-03-30T11:19:29Z</time>
      </trkpt>
      <trkpt lat="45.26504" lon="6.1662">
        <ele>2556.4</ele>
        <time>2019-03-30T11:19:34Z</time>
      </trkpt>
      <trkpt lat="45.26502" lon="6.16617">
        <ele>2556.6</ele>
        <time>2019-03-30T11:19:39Z</time>
      </trkpt>
      <trkpt lat="45.26499" lon="6.16615">
        <ele>2559.8</ele>
        <time>2019-03-30T11:19:44Z</time>
      </trkpt>
      <trkpt lat="45.26497" lon="6.16614">
        <ele>2561.6</ele>
        <time>2019-03-30T11:19:49Z</time>
      </trkpt>
      <trkpt lat="45.26495" lon="6.16612">
        <ele>2560.2</ele>
        <time>2019-03-30T11:19:54Z</time>
      </trkpt>
      <trkpt lat="45.26494" lon="6.16611">
        <ele>2559</ele>
        <time>2019-03-30T11:19:59Z</time>
      </trkpt>
      <trkpt lat="45.26493" lon="6.16609">
        <ele>2559.6</ele>
        <time>2019-03-30T11:20:04Z</time>
      </trkpt>
      <trkpt lat="45.26491" lon="6.16607">
        <ele>2564.4</ele>
        <time>2019-03-30T11:20:09Z</time>
      </trkpt>
      <trkpt lat="45.26489" lon="6.16606">
        <ele>2563</ele>
        <time>2019-03-30T11:20:15Z</time>
      </trkpt>
      <trkpt lat="45.26487" lon="6.16605">
        <ele>2565.8</ele>
        <time>2019-03-30T11:20:20Z</time>
      </trkpt>
      <trkpt lat="45.26485" lon="6.16604">
        <ele>2567.4</ele>
        <time>2019-03-30T11:20:25Z</time>
      </trkpt>
      <trkpt lat="45.26483" lon="6.16603">
        <ele>2565.8</ele>
        <time>2019-03-30T11:20:30Z</time>
      </trkpt>
      <trkpt lat="45.26481" lon="6.16602">
        <ele>2565.2</ele>
        <time>2019-03-30T11:20:35Z</time>
      </trkpt>
      <trkpt lat="45.26479" lon="6.16601">
        <ele>2566</ele>
        <time>2019-03-30T11:20:40Z</time>
      </trkpt>
      <trkpt lat="45.26478" lon="6.16601">
        <ele>2566</ele>
        <time>2019-03-30T11:20:45Z</time>
      </trkpt>
      <trkpt lat="45.26476" lon="6.16601">
        <ele>2566.8</ele>
        <time>2019-03-30T11:20:50Z</time>
      </trkpt>
      <trkpt lat="45.26474" lon="6.16601">
        <ele>2567</ele>
        <time>2019-03-30T11:20:55Z</time>
      </trkpt>
      <trkpt lat="45.26473" lon="6.166">
        <ele>2567.6</ele>
        <time>2019-03-30T11:21:00Z</time>
      </trkpt>
      <trkpt lat="45.26471" lon="6.166">
        <ele>2569.8</ele>
        <time>2019-03-30T11:21:05Z</time>
      </trkpt>
      <trkpt lat="45.26469" lon="6.16599">
        <ele>2568.4</ele>
        <time>2019-03-30T11:21:10Z</time>
      </trkpt>
      <trkpt lat="45.26468" lon="6.16599">
        <ele>2570.6</ele>
        <time>2019-03-30T11:21:15Z</time>
      </trkpt>
      <trkpt lat="45.26466" lon="6.16598">
        <ele>2573.6</ele>
        <time>2019-03-30T11:21:20Z</time>
      </trkpt>
      <trkpt lat="45.26464" lon="6.16598">
        <ele>2572</ele>
        <time>2019-03-30T11:21:25Z</time>
      </trkpt>
      <trkpt lat="45.26461" lon="6.16598">
        <ele>2573.4</ele>
        <time>2019-03-30T11:21:30Z</time>
      </trkpt>
      <trkpt lat="45.26459" lon="6.16599">
        <ele>2573.4</ele>
        <time>2019-03-30T11:21:35Z</time>
      </trkpt>
      <trkpt lat="45.26457" lon="6.16599">
        <ele>2574.2</ele>
        <time>2019-03-30T11:21:40Z</time>
      </trkpt>
      <trkpt lat="45.26455" lon="6.16599">
        <ele>2573.8</ele>
        <time>2019-03-30T11:21:45Z</time>
      </trkpt>
      <trkpt lat="45.26453" lon="6.16599">
        <ele>2575.2</ele>
        <time>2019-03-30T11:21:50Z</time>
      </trkpt>
      <trkpt lat="45.26451" lon="6.16599">
        <ele>2575.8</ele>
        <time>2019-03-30T11:21:55Z</time>
      </trkpt>
      <trkpt lat="45.26449" lon="6.16599">
        <ele>2577.6</ele>
        <time>2019-03-30T11:22:00Z</time>
      </trkpt>
      <trkpt lat="45.26448" lon="6.16599">
        <ele>2577.2</ele>
        <time>2019-03-30T11:22:05Z</time>
      </trkpt>
      <trkpt lat="45.26446" lon="6.16599">
        <ele>2575.8</ele>
        <time>2019-03-30T11:22:10Z</time>
      </trkpt>
      <trkpt lat="45.26444" lon="6.16599">
        <ele>2576.4</ele>
        <time>2019-03-30T11:22:15Z</time>
      </trkpt>
      <trkpt lat="45.26442" lon="6.16599">
        <ele>2578.4</ele>
        <time>2019-03-30T11:22:20Z</time>
      </trkpt>
      <trkpt lat="45.2644" lon="6.16599">
        <ele>2577</ele>
        <time>2019-03-30T11:22:25Z</time>
      </trkpt>
      <trkpt lat="45.26438" lon="6.16598">
        <ele>2578.4</ele>
        <time>2019-03-30T11:22:30Z</time>
      </trkpt>
      <trkpt lat="45.26437" lon="6.16598">
        <ele>2578</ele>
        <time>2019-03-30T11:22:35Z</time>
      </trkpt>
      <trkpt lat="45.26435" lon="6.16598">
        <ele>2577.2</ele>
        <time>2019-03-30T11:22:40Z</time>
      </trkpt>
      <trkpt lat="45.26435" lon="6.16597">
        <ele>2578.2</ele>
        <time>2019-03-30T11:22:45Z</time>
      </trkpt>
      <trkpt lat="45.26435" lon="6.16595">
        <ele>2579.2</ele>
        <time>2019-03-30T11:22:50Z</time>
      </trkpt>
      <trkpt lat="45.26435" lon="6.16592">
        <ele>2579</ele>
        <time>2019-03-30T11:22:55Z</time>
      </trkpt>
      <trkpt lat="45.26436" lon="6.16589">
        <ele>2580.2</ele>
        <time>2019-03-30T11:23:00Z</time>
      </trkpt>
      <trkpt lat="45.26436" lon="6.16587">
        <ele>2581.4</ele>
        <time>2019-03-30T11:23:05Z</time>
      </trkpt>
      <trkpt lat="45.26437" lon="6.16584">
        <ele>2581.8</ele>
        <time>2019-03-30T11:23:10Z</time>
      </trkpt>
      <trkpt lat="45.26438" lon="6.16581">
        <ele>2581.6</ele>
        <time>2019-03-30T11:23:15Z</time>
      </trkpt>
      <trkpt lat="45.26439" lon="6.16578">
        <ele>2580.6</ele>
        <time>2019-03-30T11:23:20Z</time>
      </trkpt>
      <trkpt lat="45.2644" lon="6.16576">
        <ele>2583.8</ele>
        <time>2019-03-30T11:23:25Z</time>
      </trkpt>
      <trkpt lat="45.26441" lon="6.16574">
        <ele>2582.4</ele>
        <time>2019-03-30T11:23:30Z</time>
      </trkpt>
      <trkpt lat="45.26442" lon="6.16574">
        <ele>2583.2</ele>
        <time>2019-03-30T11:23:35Z</time>
      </trkpt>
      <trkpt lat="45.26442" lon="6.16574">
        <ele>2583.4</ele>
        <time>2019-03-30T11:23:40Z</time>
      </trkpt>
      <trkpt lat="45.26444" lon="6.16572">
        <ele>2582.4</ele>
        <time>2019-03-30T11:23:45Z</time>
      </trkpt>
      <trkpt lat="45.26444" lon="6.16571">
        <ele>2583.2</ele>
        <time>2019-03-30T11:23:50Z</time>
      </trkpt>
      <trkpt lat="45.26442" lon="6.16571">
        <ele>2582.4</ele>
        <time>2019-03-30T11:23:55Z</time>
      </trkpt>
      <trkpt lat="45.2644" lon="6.1657">
        <ele>2585.6</ele>
        <time>2019-03-30T11:24:00Z</time>
      </trkpt>
      <trkpt lat="45.26437" lon="6.16569">
        <ele>2586.8</ele>
        <time>2019-03-30T11:24:05Z</time>
      </trkpt>
      <trkpt lat="45.26435" lon="6.16568">
        <ele>2587</ele>
        <time>2019-03-30T11:24:10Z</time>
      </trkpt>
      <trkpt lat="45.26432" lon="6.16567">
        <ele>2587.6</ele>
        <time>2019-03-30T11:24:15Z</time>
      </trkpt>
      <trkpt lat="45.2643" lon="6.16566">
        <ele>2587.8</ele>
        <time>2019-03-30T11:24:20Z</time>
      </trkpt>
      <trkpt lat="45.26428" lon="6.16565">
        <ele>2590</ele>
        <time>2019-03-30T11:24:25Z</time>
      </trkpt>
      <trkpt lat="45.26425" lon="6.16565">
        <ele>2588.6</ele>
        <time>2019-03-30T11:24:30Z</time>
      </trkpt>
      <trkpt lat="45.26423" lon="6.16566">
        <ele>2590</ele>
        <time>2019-03-30T11:24:35Z</time>
      </trkpt>
      <trkpt lat="45.26421" lon="6.16567">
        <ele>2593.2</ele>
        <time>2019-03-30T11:24:40Z</time>
      </trkpt>
      <trkpt lat="45.26418" lon="6.16568">
        <ele>2590.2</ele>
        <time>2019-03-30T11:24:45Z</time>
      </trkpt>
      <trkpt lat="45.26416" lon="6.16569">
        <ele>2593.8</ele>
        <time>2019-03-30T11:24:50Z</time>
      </trkpt>
      <trkpt lat="45.26413" lon="6.16571">
        <ele>2594.8</ele>
        <time>2019-03-30T11:24:55Z</time>
      </trkpt>
      <trkpt lat="45.26411" lon="6.16572">
        <ele>2592.6</ele>
        <time>2019-03-30T11:25:00Z</time>
      </trkpt>
      <trkpt lat="45.26409" lon="6.16573">
        <ele>2594</ele>
        <time>2019-03-30T11:25:05Z</time>
      </trkpt>
      <trkpt lat="45.26408" lon="6.16571">
        <ele>2593</ele>
        <time>2019-03-30T11:25:10Z</time>
      </trkpt>
      <trkpt lat="45.26408" lon="6.16568">
        <ele>2590.8</ele>
        <time>2019-03-30T11:25:15Z</time>
      </trkpt>
      <trkpt lat="45.26409" lon="6.16565">
        <ele>2593.8</ele>
        <time>2019-03-30T11:25:20Z</time>
      </trkpt>
      <trkpt lat="45.2641" lon="6.16562">
        <ele>2595.8</ele>
        <time>2019-03-30T11:25:25Z</time>
      </trkpt>
      <trkpt lat="45.26411" lon="6.16559">
        <ele>2595.8</ele>
        <time>2019-03-30T11:25:30Z</time>
      </trkpt>
      <trkpt lat="45.26412" lon="6.16556">
        <ele>2596.4</ele>
        <time>2019-03-30T11:25:35Z</time>
      </trkpt>
      <trkpt lat="45.26412" lon="6.16552">
        <ele>2597.2</ele>
        <time>2019-03-30T11:25:40Z</time>
      </trkpt>
      <trkpt lat="45.26413" lon="6.1655">
        <ele>2598.8</ele>
        <time>2019-03-30T11:25:45Z</time>
      </trkpt>
      <trkpt lat="45.26414" lon="6.16547">
        <ele>2597.4</ele>
        <time>2019-03-30T11:25:50Z</time>
      </trkpt>
      <trkpt lat="45.26415" lon="6.16545">
        <ele>2597</ele>
        <time>2019-03-30T11:25:55Z</time>
      </trkpt>
      <trkpt lat="45.26416" lon="6.16543">
        <ele>2600</ele>
        <time>2019-03-30T11:26:00Z</time>
      </trkpt>
      <trkpt lat="45.26418" lon="6.16541">
        <ele>2602.2</ele>
        <time>2019-03-30T11:26:05Z</time>
      </trkpt>
      <trkpt lat="45.26419" lon="6.1654">
        <ele>2602.8</ele>
        <time>2019-03-30T11:26:10Z</time>
      </trkpt>
      <trkpt lat="45.2642" lon="6.16538">
        <ele>2602</ele>
        <time>2019-03-30T11:26:15Z</time>
      </trkpt>
      <trkpt lat="45.26418" lon="6.16538">
        <ele>2605.6</ele>
        <time>2019-03-30T11:26:20Z</time>
      </trkpt>
      <trkpt lat="45.26416" lon="6.16538">
        <ele>2604.8</ele>
        <time>2019-03-30T11:26:25Z</time>
      </trkpt>
      <trkpt lat="45.26414" lon="6.16538">
        <ele>2606.8</ele>
        <time>2019-03-30T11:26:30Z</time>
      </trkpt>
      <trkpt lat="45.26411" lon="6.16539">
        <ele>2604</ele>
        <time>2019-03-30T11:26:35Z</time>
      </trkpt>
      <trkpt lat="45.26409" lon="6.16539">
        <ele>2606</ele>
        <time>2019-03-30T11:26:41Z</time>
      </trkpt>
      <trkpt lat="45.26407" lon="6.1654">
        <ele>2607</ele>
        <time>2019-03-30T11:26:46Z</time>
      </trkpt>
      <trkpt lat="45.26404" lon="6.1654">
        <ele>2607.4</ele>
        <time>2019-03-30T11:26:51Z</time>
      </trkpt>
      <trkpt lat="45.26402" lon="6.1654">
        <ele>2607.4</ele>
        <time>2019-03-30T11:26:56Z</time>
      </trkpt>
      <trkpt lat="45.264" lon="6.16541">
        <ele>2607.6</ele>
        <time>2019-03-30T11:27:01Z</time>
      </trkpt>
      <trkpt lat="45.26397" lon="6.16542">
        <ele>2606</ele>
        <time>2019-03-30T11:27:06Z</time>
      </trkpt>
      <trkpt lat="45.26395" lon="6.16543">
        <ele>2608.8</ele>
        <time>2019-03-30T11:27:11Z</time>
      </trkpt>
      <trkpt lat="45.26393" lon="6.16543">
        <ele>2610.6</ele>
        <time>2019-03-30T11:27:16Z</time>
      </trkpt>
      <trkpt lat="45.26393" lon="6.16543">
        <ele>2609.4</ele>
        <time>2019-03-30T11:27:21Z</time>
      </trkpt>
      <trkpt lat="45.26392" lon="6.16543">
        <ele>2610</ele>
        <time>2019-03-30T11:27:26Z</time>
      </trkpt>
      <trkpt lat="45.26391" lon="6.16544">
        <ele>2609.8</ele>
        <time>2019-03-30T11:27:31Z</time>
      </trkpt>
      <trkpt lat="45.26392" lon="6.16543">
        <ele>2610.8</ele>
        <time>2019-03-30T11:28:01Z</time>
      </trkpt>
      <trkpt lat="45.26393" lon="6.1654">
        <ele>2609.6</ele>
        <time>2019-03-30T11:28:06Z</time>
      </trkpt>
      <trkpt lat="45.26394" lon="6.16537">
        <ele>2612.4</ele>
        <time>2019-03-30T11:28:11Z</time>
      </trkpt>
      <trkpt lat="45.26395" lon="6.16534">
        <ele>2614.6</ele>
        <time>2019-03-30T11:28:16Z</time>
      </trkpt>
      <trkpt lat="45.26395" lon="6.16532">
        <ele>2615.2</ele>
        <time>2019-03-30T11:28:21Z</time>
      </trkpt>
      <trkpt lat="45.26396" lon="6.1653">
        <ele>2614.6</ele>
        <time>2019-03-30T11:28:26Z</time>
      </trkpt>
      <trkpt lat="45.26397" lon="6.16527">
        <ele>2614.8</ele>
        <time>2019-03-30T11:28:31Z</time>
      </trkpt>
      <trkpt lat="45.26399" lon="6.16525">
        <ele>2616</ele>
        <time>2019-03-30T11:28:36Z</time>
      </trkpt>
      <trkpt lat="45.26399" lon="6.16525">
        <ele>2616.4</ele>
        <time>2019-03-30T11:28:41Z</time>
      </trkpt>
      <trkpt lat="45.264" lon="6.16523">
        <ele>2616.2</ele>
        <time>2019-03-30T11:28:46Z</time>
      </trkpt>
      <trkpt lat="45.26399" lon="6.16523">
        <ele>2616.6</ele>
        <time>2019-03-30T11:28:51Z</time>
      </trkpt>
      <trkpt lat="45.26397" lon="6.16523">
        <ele>2616.8</ele>
        <time>2019-03-30T11:28:56Z</time>
      </trkpt>
      <trkpt lat="45.26397" lon="6.16523">
        <ele>2616.8</ele>
        <time>2019-03-30T11:29:01Z</time>
      </trkpt>
      <trkpt lat="45.26396" lon="6.16523">
        <ele>2620</ele>
        <time>2019-03-30T11:29:06Z</time>
      </trkpt>
      <trkpt lat="45.26393" lon="6.16523">
        <ele>2614.2</ele>
        <time>2019-03-30T11:29:11Z</time>
      </trkpt>
      <trkpt lat="45.26391" lon="6.16523">
        <ele>2616.2</ele>
        <time>2019-03-30T11:29:16Z</time>
      </trkpt>
      <trkpt lat="45.26388" lon="6.16524">
        <ele>2619.2</ele>
        <time>2019-03-30T11:29:21Z</time>
      </trkpt>
      <trkpt lat="45.26386" lon="6.16525">
        <ele>2617</ele>
        <time>2019-03-30T11:29:26Z</time>
      </trkpt>
      <trkpt lat="45.26385" lon="6.16525">
        <ele>2619</ele>
        <time>2019-03-30T11:29:31Z</time>
      </trkpt>
      <trkpt lat="45.26384" lon="6.16526">
        <ele>2621</ele>
        <time>2019-03-30T11:29:36Z</time>
      </trkpt>
      <trkpt lat="45.26384" lon="6.16523">
        <ele>2620</ele>
        <time>2019-03-30T11:29:41Z</time>
      </trkpt>
      <trkpt lat="45.26385" lon="6.16519">
        <ele>2619.8</ele>
        <time>2019-03-30T11:29:46Z</time>
      </trkpt>
      <trkpt lat="45.26386" lon="6.16516">
        <ele>2625</ele>
        <time>2019-03-30T11:29:51Z</time>
      </trkpt>
      <trkpt lat="45.26387" lon="6.16513">
        <ele>2622</ele>
        <time>2019-03-30T11:29:56Z</time>
      </trkpt>
      <trkpt lat="45.26387" lon="6.16511">
        <ele>2623.8</ele>
        <time>2019-03-30T11:30:01Z</time>
      </trkpt>
      <trkpt lat="45.26389" lon="6.16509">
        <ele>2624.2</ele>
        <time>2019-03-30T11:30:06Z</time>
      </trkpt>
      <trkpt lat="45.2639" lon="6.16507">
        <ele>2624.4</ele>
        <time>2019-03-30T11:30:11Z</time>
      </trkpt>
      <trkpt lat="45.26391" lon="6.16504">
        <ele>2626</ele>
        <time>2019-03-30T11:30:16Z</time>
      </trkpt>
      <trkpt lat="45.26393" lon="6.16502">
        <ele>2628.6</ele>
        <time>2019-03-30T11:30:21Z</time>
      </trkpt>
      <trkpt lat="45.26395" lon="6.165">
        <ele>2630</ele>
        <time>2019-03-30T11:30:26Z</time>
      </trkpt>
      <trkpt lat="45.26397" lon="6.16498">
        <ele>2629.4</ele>
        <time>2019-03-30T11:30:31Z</time>
      </trkpt>
      <trkpt lat="45.26398" lon="6.16498">
        <ele>2628</ele>
        <time>2019-03-30T11:30:36Z</time>
      </trkpt>
      <trkpt lat="45.264" lon="6.16496">
        <ele>2628.4</ele>
        <time>2019-03-30T11:30:41Z</time>
      </trkpt>
      <trkpt lat="45.26403" lon="6.16497">
        <ele>2630</ele>
        <time>2019-03-30T11:30:46Z</time>
      </trkpt>
      <trkpt lat="45.26405" lon="6.16497">
        <ele>2631</ele>
        <time>2019-03-30T11:30:51Z</time>
      </trkpt>
      <trkpt lat="45.26407" lon="6.16497">
        <ele>2631.8</ele>
        <time>2019-03-30T11:31:01Z</time>
      </trkpt>
      <trkpt lat="45.2641" lon="6.16498">
        <ele>2634</ele>
        <time>2019-03-30T11:31:06Z</time>
      </trkpt>
      <trkpt lat="45.2641" lon="6.16498">
        <ele>2633.6</ele>
        <time>2019-03-30T11:31:11Z</time>
      </trkpt>
      <trkpt lat="45.26412" lon="6.16498">
        <ele>2632.2</ele>
        <time>2019-03-30T11:31:16Z</time>
      </trkpt>
      <trkpt lat="45.26412" lon="6.16496">
        <ele>2633.8</ele>
        <time>2019-03-30T11:31:21Z</time>
      </trkpt>
      <trkpt lat="45.26409" lon="6.16494">
        <ele>2636</ele>
        <time>2019-03-30T11:31:26Z</time>
      </trkpt>
      <trkpt lat="45.26407" lon="6.16491">
        <ele>2636.8</ele>
        <time>2019-03-30T11:31:31Z</time>
      </trkpt>
      <trkpt lat="45.26405" lon="6.16488">
        <ele>2634.6</ele>
        <time>2019-03-30T11:31:36Z</time>
      </trkpt>
      <trkpt lat="45.26403" lon="6.16484">
        <ele>2635.6</ele>
        <time>2019-03-30T11:31:41Z</time>
      </trkpt>
      <trkpt lat="45.26401" lon="6.16482">
        <ele>2635.6</ele>
        <time>2019-03-30T11:31:46Z</time>
      </trkpt>
      <trkpt lat="45.26399" lon="6.1648">
        <ele>2637</ele>
        <time>2019-03-30T11:31:51Z</time>
      </trkpt>
      <trkpt lat="45.26397" lon="6.16478">
        <ele>2638.2</ele>
        <time>2019-03-30T11:31:56Z</time>
      </trkpt>
      <trkpt lat="45.26395" lon="6.16476">
        <ele>2639.6</ele>
        <time>2019-03-30T11:32:01Z</time>
      </trkpt>
      <trkpt lat="45.26393" lon="6.16475">
        <ele>2637.6</ele>
        <time>2019-03-30T11:32:06Z</time>
      </trkpt>
      <trkpt lat="45.26391" lon="6.16474">
        <ele>2640.2</ele>
        <time>2019-03-30T11:32:11Z</time>
      </trkpt>
      <trkpt lat="45.26389" lon="6.16473">
        <ele>2642</ele>
        <time>2019-03-30T11:32:16Z</time>
      </trkpt>
      <trkpt lat="45.26387" lon="6.16472">
        <ele>2641.2</ele>
        <time>2019-03-30T11:32:21Z</time>
      </trkpt>
      <trkpt lat="45.26384" lon="6.16472">
        <ele>2643.4</ele>
        <time>2019-03-30T11:32:26Z</time>
      </trkpt>
      <trkpt lat="45.26383" lon="6.16471">
        <ele>2645.2</ele>
        <time>2019-03-30T11:32:31Z</time>
      </trkpt>
      <trkpt lat="45.26381" lon="6.16471">
        <ele>2644.6</ele>
        <time>2019-03-30T11:32:36Z</time>
      </trkpt>
      <trkpt lat="45.26379" lon="6.16471">
        <ele>2644.8</ele>
        <time>2019-03-30T11:32:41Z</time>
      </trkpt>
      <trkpt lat="45.26378" lon="6.16471">
        <ele>2642.6</ele>
        <time>2019-03-30T11:32:46Z</time>
      </trkpt>
      <trkpt lat="45.26376" lon="6.1647">
        <ele>2645.6</ele>
        <time>2019-03-30T11:32:51Z</time>
      </trkpt>
      <trkpt lat="45.26374" lon="6.1647">
        <ele>2644.4</ele>
        <time>2019-03-30T11:32:56Z</time>
      </trkpt>
      <trkpt lat="45.26372" lon="6.16471">
        <ele>2645.2</ele>
        <time>2019-03-30T11:33:01Z</time>
      </trkpt>
      <trkpt lat="45.2637" lon="6.16471">
        <ele>2645</ele>
        <time>2019-03-30T11:33:06Z</time>
      </trkpt>
      <trkpt lat="45.26368" lon="6.16471">
        <ele>2644.2</ele>
        <time>2019-03-30T11:33:11Z</time>
      </trkpt>
      <trkpt lat="45.26366" lon="6.16471">
        <ele>2643.8</ele>
        <time>2019-03-30T11:33:16Z</time>
      </trkpt>
      <trkpt lat="45.26364" lon="6.16472">
        <ele>2644.8</ele>
        <time>2019-03-30T11:33:21Z</time>
      </trkpt>
      <trkpt lat="45.26362" lon="6.16472">
        <ele>2645.4</ele>
        <time>2019-03-30T11:33:26Z</time>
      </trkpt>
      <trkpt lat="45.2636" lon="6.16473">
        <ele>2644.4</ele>
        <time>2019-03-30T11:33:31Z</time>
      </trkpt>
      <trkpt lat="45.2636" lon="6.16473">
        <ele>2643.8</ele>
        <time>2019-03-30T11:33:36Z</time>
      </trkpt>
      <trkpt lat="45.26361" lon="6.1647">
        <ele>2648.2</ele>
        <time>2019-03-30T11:33:41Z</time>
      </trkpt>
      <trkpt lat="45.26362" lon="6.16467">
        <ele>2646.4</ele>
        <time>2019-03-30T11:33:46Z</time>
      </trkpt>
      <trkpt lat="45.26363" lon="6.16464">
        <ele>2648.8</ele>
        <time>2019-03-30T11:33:51Z</time>
      </trkpt>
      <trkpt lat="45.26364" lon="6.16462">
        <ele>2646.8</ele>
        <time>2019-03-30T11:33:56Z</time>
      </trkpt>
      <trkpt lat="45.26365" lon="6.1646">
        <ele>2648.4</ele>
        <time>2019-03-30T11:34:01Z</time>
      </trkpt>
      <trkpt lat="45.26366" lon="6.16457">
        <ele>2650.4</ele>
        <time>2019-03-30T11:34:06Z</time>
      </trkpt>
      <trkpt lat="45.26367" lon="6.16455">
        <ele>2650.8</ele>
        <time>2019-03-30T11:34:11Z</time>
      </trkpt>
      <trkpt lat="45.26368" lon="6.16452">
        <ele>2649.4</ele>
        <time>2019-03-30T11:34:16Z</time>
      </trkpt>
      <trkpt lat="45.26369" lon="6.1645">
        <ele>2651.4</ele>
        <time>2019-03-30T11:34:21Z</time>
      </trkpt>
      <trkpt lat="45.26371" lon="6.16447">
        <ele>2653.2</ele>
        <time>2019-03-30T11:34:26Z</time>
      </trkpt>
      <trkpt lat="45.26372" lon="6.16444">
        <ele>2656.6</ele>
        <time>2019-03-30T11:34:31Z</time>
      </trkpt>
      <trkpt lat="45.26373" lon="6.16441">
        <ele>2657.8</ele>
        <time>2019-03-30T11:34:36Z</time>
      </trkpt>
      <trkpt lat="45.26374" lon="6.16439">
        <ele>2657.6</ele>
        <time>2019-03-30T11:34:41Z</time>
      </trkpt>
      <trkpt lat="45.26375" lon="6.16436">
        <ele>2657.4</ele>
        <time>2019-03-30T11:34:46Z</time>
      </trkpt>
      <trkpt lat="45.26377" lon="6.16433">
        <ele>2657.8</ele>
        <time>2019-03-30T11:34:51Z</time>
      </trkpt>
      <trkpt lat="45.26378" lon="6.1643">
        <ele>2658.4</ele>
        <time>2019-03-30T11:34:56Z</time>
      </trkpt>
      <trkpt lat="45.26379" lon="6.16427">
        <ele>2654.2</ele>
        <time>2019-03-30T11:35:01Z</time>
      </trkpt>
      <trkpt lat="45.2638" lon="6.16424">
        <ele>2656.8</ele>
        <time>2019-03-30T11:35:06Z</time>
      </trkpt>
      <trkpt lat="45.26381" lon="6.16421">
        <ele>2658.2</ele>
        <time>2019-03-30T11:35:11Z</time>
      </trkpt>
      <trkpt lat="45.26383" lon="6.16419">
        <ele>2661</ele>
        <time>2019-03-30T11:35:16Z</time>
      </trkpt>
      <trkpt lat="45.26384" lon="6.16416">
        <ele>2661.6</ele>
        <time>2019-03-30T11:35:21Z</time>
      </trkpt>
      <trkpt lat="45.26386" lon="6.16414">
        <ele>2661.4</ele>
        <time>2019-03-30T11:35:26Z</time>
      </trkpt>
      <trkpt lat="45.26387" lon="6.16412">
        <ele>2663.8</ele>
        <time>2019-03-30T11:35:31Z</time>
      </trkpt>
      <trkpt lat="45.26389" lon="6.1641">
        <ele>2665.4</ele>
        <time>2019-03-30T11:35:36Z</time>
      </trkpt>
      <trkpt lat="45.26391" lon="6.16409">
        <ele>2665.2</ele>
        <time>2019-03-30T11:35:41Z</time>
      </trkpt>
      <trkpt lat="45.26393" lon="6.16407">
        <ele>2666.6</ele>
        <time>2019-03-30T11:35:46Z</time>
      </trkpt>
      <trkpt lat="45.26395" lon="6.16405">
        <ele>2666.2</ele>
        <time>2019-03-30T11:35:51Z</time>
      </trkpt>
      <trkpt lat="45.26394" lon="6.16403">
        <ele>2671.6</ele>
        <time>2019-03-30T11:35:56Z</time>
      </trkpt>
      <trkpt lat="45.26391" lon="6.16401">
        <ele>2667.6</ele>
        <time>2019-03-30T11:36:01Z</time>
      </trkpt>
      <trkpt lat="45.26389" lon="6.16399">
        <ele>2667.2</ele>
        <time>2019-03-30T11:36:06Z</time>
      </trkpt>
      <trkpt lat="45.26386" lon="6.16397">
        <ele>2667.8</ele>
        <time>2019-03-30T11:36:11Z</time>
      </trkpt>
      <trkpt lat="45.26384" lon="6.16396">
        <ele>2671.4</ele>
        <time>2019-03-30T11:36:16Z</time>
      </trkpt>
      <trkpt lat="45.26382" lon="6.16394">
        <ele>2671.4</ele>
        <time>2019-03-30T11:36:21Z</time>
      </trkpt>
      <trkpt lat="45.2638" lon="6.16393">
        <ele>2671.4</ele>
        <time>2019-03-30T11:36:26Z</time>
      </trkpt>
      <trkpt lat="45.26377" lon="6.16392">
        <ele>2672.6</ele>
        <time>2019-03-30T11:36:31Z</time>
      </trkpt>
      <trkpt lat="45.26375" lon="6.16391">
        <ele>2674</ele>
        <time>2019-03-30T11:36:36Z</time>
      </trkpt>
      <trkpt lat="45.26373" lon="6.16391">
        <ele>2675</ele>
        <time>2019-03-30T11:36:41Z</time>
      </trkpt>
      <trkpt lat="45.2637" lon="6.1639">
        <ele>2673</ele>
        <time>2019-03-30T11:36:46Z</time>
      </trkpt>
      <trkpt lat="45.26368" lon="6.16389">
        <ele>2674.4</ele>
        <time>2019-03-30T11:36:51Z</time>
      </trkpt>
      <trkpt lat="45.26366" lon="6.16389">
        <ele>2673.4</ele>
        <time>2019-03-30T11:36:56Z</time>
      </trkpt>
      <trkpt lat="45.26363" lon="6.16389">
        <ele>2675.6</ele>
        <time>2019-03-30T11:37:01Z</time>
      </trkpt>
      <trkpt lat="45.26361" lon="6.16389">
        <ele>2676.2</ele>
        <time>2019-03-30T11:37:06Z</time>
      </trkpt>
      <trkpt lat="45.26359" lon="6.1639">
        <ele>2679.6</ele>
        <time>2019-03-30T11:37:11Z</time>
      </trkpt>
      <trkpt lat="45.26358" lon="6.1639">
        <ele>2675.8</ele>
        <time>2019-03-30T11:37:31Z</time>
      </trkpt>
      <trkpt lat="45.26358" lon="6.16389">
        <ele>2677.2</ele>
        <time>2019-03-30T11:37:36Z</time>
      </trkpt>
      <trkpt lat="45.26358" lon="6.16386">
        <ele>2675.8</ele>
        <time>2019-03-30T11:37:41Z</time>
      </trkpt>
      <trkpt lat="45.26359" lon="6.16383">
        <ele>2677.4</ele>
        <time>2019-03-30T11:37:46Z</time>
      </trkpt>
      <trkpt lat="45.2636" lon="6.1638">
        <ele>2677.2</ele>
        <time>2019-03-30T11:37:51Z</time>
      </trkpt>
      <trkpt lat="45.26361" lon="6.16377">
        <ele>2678.2</ele>
        <time>2019-03-30T11:37:56Z</time>
      </trkpt>
      <trkpt lat="45.26362" lon="6.16374">
        <ele>2684</ele>
        <time>2019-03-30T11:38:01Z</time>
      </trkpt>
      <trkpt lat="45.26363" lon="6.16373">
        <ele>2683.2</ele>
        <time>2019-03-30T11:38:06Z</time>
      </trkpt>
      <trkpt lat="45.26364" lon="6.1637">
        <ele>2684.6</ele>
        <time>2019-03-30T11:38:11Z</time>
      </trkpt>
      <trkpt lat="45.26365" lon="6.16368">
        <ele>2684.6</ele>
        <time>2019-03-30T11:38:16Z</time>
      </trkpt>
      <trkpt lat="45.26366" lon="6.16365">
        <ele>2684</ele>
        <time>2019-03-30T11:38:21Z</time>
      </trkpt>
      <trkpt lat="45.26367" lon="6.16362">
        <ele>2682.8</ele>
        <time>2019-03-30T11:38:26Z</time>
      </trkpt>
      <trkpt lat="45.26368" lon="6.1636">
        <ele>2687.6</ele>
        <time>2019-03-30T11:38:31Z</time>
      </trkpt>
      <trkpt lat="45.26369" lon="6.16357">
        <ele>2686.8</ele>
        <time>2019-03-30T11:38:36Z</time>
      </trkpt>
      <trkpt lat="45.26371" lon="6.16354">
        <ele>2684.8</ele>
        <time>2019-03-30T11:38:41Z</time>
      </trkpt>
      <trkpt lat="45.26372" lon="6.16351">
        <ele>2688.4</ele>
        <time>2019-03-30T11:38:46Z</time>
      </trkpt>
      <trkpt lat="45.26374" lon="6.16349">
        <ele>2684.4</ele>
        <time>2019-03-30T11:38:51Z</time>
      </trkpt>
      <trkpt lat="45.26376" lon="6.16346">
        <ele>2684.8</ele>
        <time>2019-03-30T11:38:56Z</time>
      </trkpt>
      <trkpt lat="45.26378" lon="6.16344">
        <ele>2688.8</ele>
        <time>2019-03-30T11:39:01Z</time>
      </trkpt>
      <trkpt lat="45.2638" lon="6.16342">
        <ele>2689.2</ele>
        <time>2019-03-30T11:39:06Z</time>
      </trkpt>
      <trkpt lat="45.26382" lon="6.1634">
        <ele>2688.6</ele>
        <time>2019-03-30T11:39:11Z</time>
      </trkpt>
      <trkpt lat="45.26384" lon="6.16339">
        <ele>2690.8</ele>
        <time>2019-03-30T11:39:16Z</time>
      </trkpt>
      <trkpt lat="45.26386" lon="6.16338">
        <ele>2692</ele>
        <time>2019-03-30T11:39:21Z</time>
      </trkpt>
      <trkpt lat="45.26389" lon="6.16336">
        <ele>2690.6</ele>
        <time>2019-03-30T11:39:26Z</time>
      </trkpt>
      <trkpt lat="45.2639" lon="6.16336">
        <ele>2689.8</ele>
        <time>2019-03-30T11:39:31Z</time>
      </trkpt>
      <trkpt lat="45.26391" lon="6.16333">
        <ele>2691</ele>
        <time>2019-03-30T11:39:36Z</time>
      </trkpt>
      <trkpt lat="45.26391" lon="6.16333">
        <ele>2692.2</ele>
        <time>2019-03-30T11:39:46Z</time>
      </trkpt>
      <trkpt lat="45.26389" lon="6.16329">
        <ele>2694.4</ele>
        <time>2019-03-30T11:39:51Z</time>
      </trkpt>
      <trkpt lat="45.26389" lon="6.16329">
        <ele>2693.8</ele>
        <time>2019-03-30T11:40:51Z</time>
      </trkpt>
      <trkpt lat="45.26388" lon="6.16325">
        <ele>2692.8</ele>
        <time>2019-03-30T11:40:56Z</time>
      </trkpt>
      <trkpt lat="45.26386" lon="6.16322">
        <ele>2696</ele>
        <time>2019-03-30T11:41:01Z</time>
      </trkpt>
      <trkpt lat="45.26385" lon="6.16319">
        <ele>2697.8</ele>
        <time>2019-03-30T11:41:06Z</time>
      </trkpt>
      <trkpt lat="45.26384" lon="6.16319">
        <ele>2696.4</ele>
        <time>2019-03-30T11:44:06Z</time>
      </trkpt>
      <trkpt lat="45.26383" lon="6.16316">
        <ele>2695.6</ele>
        <time>2019-03-30T11:45:51Z</time>
      </trkpt>
      <trkpt lat="45.26382" lon="6.16312">
        <ele>2697.4</ele>
        <time>2019-03-30T11:45:56Z</time>
      </trkpt>
      <trkpt lat="45.2638" lon="6.1631">
        <ele>2698.8</ele>
        <time>2019-03-30T11:46:01Z</time>
      </trkpt>
      <trkpt lat="45.26379" lon="6.16307">
        <ele>2700</ele>
        <time>2019-03-30T11:46:06Z</time>
      </trkpt>
      <trkpt lat="45.26378" lon="6.16305">
        <ele>2698.6</ele>
        <time>2019-03-30T11:46:11Z</time>
      </trkpt>
      <trkpt lat="45.26377" lon="6.16302">
        <ele>2700</ele>
        <time>2019-03-30T11:46:16Z</time>
      </trkpt>
      <trkpt lat="45.26377" lon="6.16299">
        <ele>2700.2</ele>
        <time>2019-03-30T11:46:21Z</time>
      </trkpt>
      <trkpt lat="45.26375" lon="6.16298">
        <ele>2699.8</ele>
        <time>2019-03-30T11:46:26Z</time>
      </trkpt>
      <trkpt lat="45.26374" lon="6.16295">
        <ele>2700.2</ele>
        <time>2019-03-30T11:46:31Z</time>
      </trkpt>
      <trkpt lat="45.26373" lon="6.16293">
        <ele>2703.6</ele>
        <time>2019-03-30T11:46:36Z</time>
      </trkpt>
      <trkpt lat="45.26372" lon="6.16291">
        <ele>2703.4</ele>
        <time>2019-03-30T11:46:41Z</time>
      </trkpt>
      <trkpt lat="45.2637" lon="6.1629">
        <ele>2702.2</ele>
        <time>2019-03-30T11:46:46Z</time>
      </trkpt>
      <trkpt lat="45.26369" lon="6.16288">
        <ele>2703.2</ele>
        <time>2019-03-30T11:46:51Z</time>
      </trkpt>
      <trkpt lat="45.26367" lon="6.16286">
        <ele>2704.2</ele>
        <time>2019-03-30T11:46:56Z</time>
      </trkpt>
      <trkpt lat="45.26365" lon="6.16285">
        <ele>2702.6</ele>
        <time>2019-03-30T11:47:01Z</time>
      </trkpt>
      <trkpt lat="45.26363" lon="6.16283">
        <ele>2704.4</ele>
        <time>2019-03-30T11:47:06Z</time>
      </trkpt>
      <trkpt lat="45.26361" lon="6.16281">
        <ele>2705.4</ele>
        <time>2019-03-30T11:47:11Z</time>
      </trkpt>
      <trkpt lat="45.26359" lon="6.1628">
        <ele>2706</ele>
        <time>2019-03-30T11:47:16Z</time>
      </trkpt>
      <trkpt lat="45.26357" lon="6.16278">
        <ele>2704</ele>
        <time>2019-03-30T11:47:21Z</time>
      </trkpt>
      <trkpt lat="45.26356" lon="6.16276">
        <ele>2705.2</ele>
        <time>2019-03-30T11:47:26Z</time>
      </trkpt>
      <trkpt lat="45.26354" lon="6.16275">
        <ele>2704.4</ele>
        <time>2019-03-30T11:47:31Z</time>
      </trkpt>
      <trkpt lat="45.26351" lon="6.16273">
        <ele>2708</ele>
        <time>2019-03-30T11:47:36Z</time>
      </trkpt>
      <trkpt lat="45.2635" lon="6.16272">
        <ele>2711.4</ele>
        <time>2019-03-30T11:47:41Z</time>
      </trkpt>
      <trkpt lat="45.26348" lon="6.16271">
        <ele>2710</ele>
        <time>2019-03-30T11:47:46Z</time>
      </trkpt>
      <trkpt lat="45.26346" lon="6.1627">
        <ele>2712.8</ele>
        <time>2019-03-30T11:47:51Z</time>
      </trkpt>
      <trkpt lat="45.26346" lon="6.16269">
        <ele>2709.6</ele>
        <time>2019-03-30T11:47:56Z</time>
      </trkpt>
      <trkpt lat="45.26347" lon="6.16266">
        <ele>2710.6</ele>
        <time>2019-03-30T11:48:01Z</time>
      </trkpt>
      <trkpt lat="45.26348" lon="6.16264">
        <ele>2708.8</ele>
        <time>2019-03-30T11:48:06Z</time>
      </trkpt>
      <trkpt lat="45.26349" lon="6.16262">
        <ele>2708.8</ele>
        <time>2019-03-30T11:48:11Z</time>
      </trkpt>
      <trkpt lat="45.26351" lon="6.1626">
        <ele>2710.2</ele>
        <time>2019-03-30T11:48:16Z</time>
      </trkpt>
      <trkpt lat="45.26352" lon="6.16258">
        <ele>2710.4</ele>
        <time>2019-03-30T11:48:21Z</time>
      </trkpt>
      <trkpt lat="45.26354" lon="6.16256">
        <ele>2712.6</ele>
        <time>2019-03-30T11:48:26Z</time>
      </trkpt>
      <trkpt lat="45.26356" lon="6.16254">
        <ele>2714</ele>
        <time>2019-03-30T11:48:31Z</time>
      </trkpt>
      <trkpt lat="45.26358" lon="6.16252">
        <ele>2713.4</ele>
        <time>2019-03-30T11:48:36Z</time>
      </trkpt>
      <trkpt lat="45.2636" lon="6.16251">
        <ele>2712.8</ele>
        <time>2019-03-30T11:48:41Z</time>
      </trkpt>
      <trkpt lat="45.26361" lon="6.1625">
        <ele>2713.4</ele>
        <time>2019-03-30T11:48:46Z</time>
      </trkpt>
      <trkpt lat="45.26362" lon="6.16248">
        <ele>2716</ele>
        <time>2019-03-30T11:48:51Z</time>
      </trkpt>
      <trkpt lat="45.2636" lon="6.16245">
        <ele>2718</ele>
        <time>2019-03-30T11:48:56Z</time>
      </trkpt>
      <trkpt lat="45.26359" lon="6.16243">
        <ele>2717.8</ele>
        <time>2019-03-30T11:49:01Z</time>
      </trkpt>
      <trkpt lat="45.26357" lon="6.1624">
        <ele>2719.2</ele>
        <time>2019-03-30T11:49:06Z</time>
      </trkpt>
      <trkpt lat="45.26355" lon="6.16238">
        <ele>2717.8</ele>
        <time>2019-03-30T11:49:11Z</time>
      </trkpt>
      <trkpt lat="45.26354" lon="6.16237">
        <ele>2718.4</ele>
        <time>2019-03-30T11:49:16Z</time>
      </trkpt>
      <trkpt lat="45.26352" lon="6.16235">
        <ele>2723</ele>
        <time>2019-03-30T11:49:21Z</time>
      </trkpt>
      <trkpt lat="45.2635" lon="6.16233">
        <ele>2721.8</ele>
        <time>2019-03-30T11:49:26Z</time>
      </trkpt>
      <trkpt lat="45.26348" lon="6.16231">
        <ele>2725.6</ele>
        <time>2019-03-30T11:49:31Z</time>
      </trkpt>
      <trkpt lat="45.26345" lon="6.1623">
        <ele>2725.4</ele>
        <time>2019-03-30T11:49:36Z</time>
      </trkpt>
      <trkpt lat="45.26344" lon="6.16227">
        <ele>2723</ele>
        <time>2019-03-30T11:49:41Z</time>
      </trkpt>
      <trkpt lat="45.26343" lon="6.16223">
        <ele>2725.2</ele>
        <time>2019-03-30T11:49:46Z</time>
      </trkpt>
      <trkpt lat="45.26342" lon="6.1622">
        <ele>2723.6</ele>
        <time>2019-03-30T11:49:51Z</time>
      </trkpt>
      <trkpt lat="45.26342" lon="6.16218">
        <ele>2725.4</ele>
        <time>2019-03-30T11:49:56Z</time>
      </trkpt>
      <trkpt lat="45.26342" lon="6.16218">
        <ele>2725.4</ele>
        <time>2019-03-30T11:50:01Z</time>
      </trkpt>
      <trkpt lat="45.26342" lon="6.16215">
        <ele>2725.4</ele>
        <time>2019-03-30T11:50:31Z</time>
      </trkpt>
      <trkpt lat="45.26342" lon="6.16214">
        <ele>2726</ele>
        <time>2019-03-30T11:52:06Z</time>
      </trkpt>
      <trkpt lat="45.26341" lon="6.16212">
        <ele>2723.8</ele>
        <time>2019-03-30T11:52:11Z</time>
      </trkpt>
      <trkpt lat="45.2634" lon="6.16211">
        <ele>2726</ele>
        <time>2019-03-30T11:52:16Z</time>
      </trkpt>
      <trkpt lat="45.26338" lon="6.16208">
        <ele>2727</ele>
        <time>2019-03-30T11:52:21Z</time>
      </trkpt>
      <trkpt lat="45.26335" lon="6.16206">
        <ele>2729</ele>
        <time>2019-03-30T11:52:26Z</time>
      </trkpt>
      <trkpt lat="45.26332" lon="6.16205">
        <ele>2726.8</ele>
        <time>2019-03-30T11:52:31Z</time>
      </trkpt>
      <trkpt lat="45.26329" lon="6.16205">
        <ele>2726</ele>
        <time>2019-03-30T11:52:36Z</time>
      </trkpt>
      <trkpt lat="45.26327" lon="6.16204">
        <ele>2725.6</ele>
        <time>2019-03-30T11:52:41Z</time>
      </trkpt>
      <trkpt lat="45.26326" lon="6.16203">
        <ele>2723.8</ele>
        <time>2019-03-30T12:07:42Z</time>
      </trkpt>
      <trkpt lat="45.26331" lon="6.162">
        <ele>2725.6</ele>
        <time>2019-03-30T12:12:47Z</time>
      </trkpt>
      <trkpt lat="45.26335" lon="6.16202">
        <ele>2724.8</ele>
        <time>2019-03-30T12:12:52Z</time>
      </trkpt>
      <trkpt lat="45.26339" lon="6.16202">
        <ele>2725.6</ele>
        <time>2019-03-30T12:12:57Z</time>
      </trkpt>
      <trkpt lat="45.26343" lon="6.16202">
        <ele>2728</ele>
        <time>2019-03-30T12:13:02Z</time>
      </trkpt>
      <trkpt lat="45.26347" lon="6.16201">
        <ele>2726.2</ele>
        <time>2019-03-30T12:13:07Z</time>
      </trkpt>
      <trkpt lat="45.26351" lon="6.162">
        <ele>2727.4</ele>
        <time>2019-03-30T12:13:12Z</time>
      </trkpt>
      <trkpt lat="45.26354" lon="6.16199">
        <ele>2731.8</ele>
        <time>2019-03-30T12:13:17Z</time>
      </trkpt>
      <trkpt lat="45.26355" lon="6.16195">
        <ele>2728</ele>
        <time>2019-03-30T12:13:22Z</time>
      </trkpt>
      <trkpt lat="45.26356" lon="6.16192">
        <ele>2730.2</ele>
        <time>2019-03-30T12:13:27Z</time>
      </trkpt>
      <trkpt lat="45.26357" lon="6.16189">
        <ele>2730.4</ele>
        <time>2019-03-30T12:13:32Z</time>
      </trkpt>
      <trkpt lat="45.26358" lon="6.16188">
        <ele>2731.2</ele>
        <time>2019-03-30T12:13:37Z</time>
      </trkpt>
      <trkpt lat="45.2636" lon="6.16188">
        <ele>2731.4</ele>
        <time>2019-03-30T12:13:42Z</time>
      </trkpt>
      <trkpt lat="45.26362" lon="6.16185">
        <ele>2733.2</ele>
        <time>2019-03-30T12:13:47Z</time>
      </trkpt>
      <trkpt lat="45.26363" lon="6.16181">
        <ele>2732.8</ele>
        <time>2019-03-30T12:13:52Z</time>
      </trkpt>
      <trkpt lat="45.26364" lon="6.16176">
        <ele>2731.8</ele>
        <time>2019-03-30T12:13:57Z</time>
      </trkpt>
      <trkpt lat="45.26365" lon="6.16172">
        <ele>2733.6</ele>
        <time>2019-03-30T12:14:02Z</time>
      </trkpt>
      <trkpt lat="45.26365" lon="6.16167">
        <ele>2737</ele>
        <time>2019-03-30T12:14:07Z</time>
      </trkpt>
      <trkpt lat="45.26366" lon="6.16162">
        <ele>2736.2</ele>
        <time>2019-03-30T12:14:12Z</time>
      </trkpt>
      <trkpt lat="45.26366" lon="6.16157">
        <ele>2736.8</ele>
        <time>2019-03-30T12:14:17Z</time>
      </trkpt>
      <trkpt lat="45.26365" lon="6.16155">
        <ele>2733.8</ele>
        <time>2019-03-30T12:14:22Z</time>
      </trkpt>
      <trkpt lat="45.26365" lon="6.16155">
        <ele>2735.2</ele>
        <time>2019-03-30T12:14:38Z</time>
      </trkpt>
      <trkpt lat="45.26363" lon="6.16154">
        <ele>2737</ele>
        <time>2019-03-30T12:14:43Z</time>
      </trkpt>
      <trkpt lat="45.26362" lon="6.16154">
        <ele>2736</ele>
        <time>2019-03-30T12:15:18Z</time>
      </trkpt>
      <trkpt lat="45.26362" lon="6.16156">
        <ele>2737</ele>
        <time>2019-03-30T12:17:23Z</time>
      </trkpt>
      <trkpt lat="45.26362" lon="6.16157">
        <ele>2737.2</ele>
        <time>2019-03-30T12:17:28Z</time>
      </trkpt>
      <trkpt lat="45.26362" lon="6.16158">
        <ele>2736.8</ele>
        <time>2019-03-30T12:17:33Z</time>
      </trkpt>
      <trkpt lat="45.26363" lon="6.16159">
        <ele>2737.8</ele>
        <time>2019-03-30T12:17:38Z</time>
      </trkpt>
      <trkpt lat="45.26363" lon="6.16161">
        <ele>2738</ele>
        <time>2019-03-30T12:17:43Z</time>
      </trkpt>
      <trkpt lat="45.26363" lon="6.16162">
        <ele>2737.8</ele>
        <time>2019-03-30T12:17:48Z</time>
      </trkpt>
      <trkpt lat="45.26363" lon="6.16165">
        <ele>2735.4</ele>
        <time>2019-03-30T12:17:53Z</time>
      </trkpt>
      <trkpt lat="45.26361" lon="6.16169">
        <ele>2734.4</ele>
        <time>2019-03-30T12:17:58Z</time>
      </trkpt>
      <trkpt lat="45.2636" lon="6.1617">
        <ele>2734.8</ele>
        <time>2019-03-30T12:18:03Z</time>
      </trkpt>
      <trkpt lat="45.26359" lon="6.16173">
        <ele>2732.2</ele>
        <time>2019-03-30T12:18:08Z</time>
      </trkpt>
      <trkpt lat="45.26356" lon="6.16187">
        <ele>2731.4</ele>
        <time>2019-03-30T12:18:13Z</time>
      </trkpt>
      <trkpt lat="45.26345" lon="6.16202">
        <ele>2728.2</ele>
        <time>2019-03-30T12:18:18Z</time>
      </trkpt>
      <trkpt lat="45.26326" lon="6.16203">
        <ele>2722.2</ele>
        <time>2019-03-30T12:18:23Z</time>
      </trkpt>
      <trkpt lat="45.26326" lon="6.16202">
        <ele>2725.2</ele>
        <time>2019-03-30T12:32:23Z</time>
      </trkpt>
      <trkpt lat="45.26327" lon="6.16199">
        <ele>2725.4</ele>
        <time>2019-03-30T12:32:28Z</time>
      </trkpt>
      <trkpt lat="45.26326" lon="6.16191">
        <ele>2724.8</ele>
        <time>2019-03-30T12:32:33Z</time>
      </trkpt>
      <trkpt lat="45.26328" lon="6.16171">
        <ele>2724.4</ele>
        <time>2019-03-30T12:32:38Z</time>
      </trkpt>
      <trkpt lat="45.26332" lon="6.16137">
        <ele>2722.4</ele>
        <time>2019-03-30T12:32:43Z</time>
      </trkpt>
      <trkpt lat="45.26332" lon="6.16126">
        <ele>2719.2</ele>
        <time>2019-03-30T12:32:48Z</time>
      </trkpt>
      <trkpt lat="45.26332" lon="6.16117">
        <ele>2718.6</ele>
        <time>2019-03-30T12:32:53Z</time>
      </trkpt>
      <trkpt lat="45.26332" lon="6.16117">
        <ele>2719</ele>
        <time>2019-03-30T12:32:58Z</time>
      </trkpt>
      <trkpt lat="45.2633" lon="6.16116">
        <ele>2720.6</ele>
        <time>2019-03-30T12:33:03Z</time>
      </trkpt>
      <trkpt lat="45.2633" lon="6.16117">
        <ele>2720.2</ele>
        <time>2019-03-30T12:33:08Z</time>
      </trkpt>
      <trkpt lat="45.26329" lon="6.1612">
        <ele>2719</ele>
        <time>2019-03-30T12:33:13Z</time>
      </trkpt>
      <trkpt lat="45.26322" lon="6.16136">
        <ele>2719.2</ele>
        <time>2019-03-30T12:33:18Z</time>
      </trkpt>
      <trkpt lat="45.26307" lon="6.16147">
        <ele>2709.2</ele>
        <time>2019-03-30T12:33:23Z</time>
      </trkpt>
      <trkpt lat="45.26306" lon="6.16126">
        <ele>2704</ele>
        <time>2019-03-30T12:33:28Z</time>
      </trkpt>
      <trkpt lat="45.26305" lon="6.16116">
        <ele>2702.8</ele>
        <time>2019-03-30T12:33:33Z</time>
      </trkpt>
      <trkpt lat="45.26305" lon="6.16116">
        <ele>2701.8</ele>
        <time>2019-03-30T12:33:38Z</time>
      </trkpt>
      <trkpt lat="45.263" lon="6.16113">
        <ele>2697</ele>
        <time>2019-03-30T12:33:43Z</time>
      </trkpt>
      <trkpt lat="45.26288" lon="6.16103">
        <ele>2689.4</ele>
        <time>2019-03-30T12:33:48Z</time>
      </trkpt>
      <trkpt lat="45.26283" lon="6.16089">
        <ele>2684.4</ele>
        <time>2019-03-30T12:34:03Z</time>
      </trkpt>
      <trkpt lat="45.26277" lon="6.16081">
        <ele>2675.8</ele>
        <time>2019-03-30T12:34:08Z</time>
      </trkpt>
      <trkpt lat="45.26272" lon="6.16077">
        <ele>2670.6</ele>
        <time>2019-03-30T12:34:33Z</time>
      </trkpt>
      <trkpt lat="45.2627" lon="6.16068">
        <ele>2665.6</ele>
        <time>2019-03-30T12:34:53Z</time>
      </trkpt>
      <trkpt lat="45.26271" lon="6.16066">
        <ele>2663.6</ele>
        <time>2019-03-30T12:34:58Z</time>
      </trkpt>
      <trkpt lat="45.26271" lon="6.16058">
        <ele>2662</ele>
        <time>2019-03-30T12:35:03Z</time>
      </trkpt>
      <trkpt lat="45.26274" lon="6.1605">
        <ele>2655.2</ele>
        <time>2019-03-30T12:35:08Z</time>
      </trkpt>
      <trkpt lat="45.26271" lon="6.16043">
        <ele>2652.8</ele>
        <time>2019-03-30T12:35:13Z</time>
      </trkpt>
      <trkpt lat="45.26271" lon="6.16034">
        <ele>2647.6</ele>
        <time>2019-03-30T12:35:18Z</time>
      </trkpt>
      <trkpt lat="45.26268" lon="6.16029">
        <ele>2642.6</ele>
        <time>2019-03-30T12:35:23Z</time>
      </trkpt>
      <trkpt lat="45.26268" lon="6.16024">
        <ele>2639.6</ele>
        <time>2019-03-30T12:35:28Z</time>
      </trkpt>
      <trkpt lat="45.26259" lon="6.16013">
        <ele>2624.8</ele>
        <time>2019-03-30T12:35:48Z</time>
      </trkpt>
      <trkpt lat="45.26259" lon="6.16011">
        <ele>2623</ele>
        <time>2019-03-30T12:36:08Z</time>
      </trkpt>
      <trkpt lat="45.26257" lon="6.16008">
        <ele>2619.6</ele>
        <time>2019-03-30T12:36:13Z</time>
      </trkpt>
      <trkpt lat="45.26255" lon="6.16003">
        <ele>2616.8</ele>
        <time>2019-03-30T12:36:18Z</time>
      </trkpt>
      <trkpt lat="45.26254" lon="6.15997">
        <ele>2615.2</ele>
        <time>2019-03-30T12:36:23Z</time>
      </trkpt>
      <trkpt lat="45.26249" lon="6.15984">
        <ele>2608.4</ele>
        <time>2019-03-30T12:36:28Z</time>
      </trkpt>
      <trkpt lat="45.26254" lon="6.15973">
        <ele>2593.6</ele>
        <time>2019-03-30T12:37:28Z</time>
      </trkpt>
      <trkpt lat="45.26254" lon="6.15974">
        <ele>2592.8</ele>
        <time>2019-03-30T12:38:08Z</time>
      </trkpt>
      <trkpt lat="45.26254" lon="6.15975">
        <ele>2592.8</ele>
        <time>2019-03-30T12:38:13Z</time>
      </trkpt>
      <trkpt lat="45.26255" lon="6.15976">
        <ele>2591.4</ele>
        <time>2019-03-30T12:39:03Z</time>
      </trkpt>
      <trkpt lat="45.26256" lon="6.15976">
        <ele>2590.4</ele>
        <time>2019-03-30T12:43:38Z</time>
      </trkpt>
      <trkpt lat="45.26256" lon="6.15975">
        <ele>2589.8</ele>
        <time>2019-03-30T12:48:04Z</time>
      </trkpt>
      <trkpt lat="45.26256" lon="6.15971">
        <ele>2588.8</ele>
        <time>2019-03-30T12:48:09Z</time>
      </trkpt>
      <trkpt lat="45.26262" lon="6.15946">
        <ele>2579.6</ele>
        <time>2019-03-30T12:48:14Z</time>
      </trkpt>
      <trkpt lat="45.26248" lon="6.15922">
        <ele>2569.2</ele>
        <time>2019-03-30T12:48:19Z</time>
      </trkpt>
      <trkpt lat="45.26234" lon="6.15898">
        <ele>2556.6</ele>
        <time>2019-03-30T12:48:24Z</time>
      </trkpt>
      <trkpt lat="45.26219" lon="6.15877">
        <ele>2539.6</ele>
        <time>2019-03-30T12:48:29Z</time>
      </trkpt>
      <trkpt lat="45.26192" lon="6.15875">
        <ele>2527.4</ele>
        <time>2019-03-30T12:48:34Z</time>
      </trkpt>
      <trkpt lat="45.26165" lon="6.1587">
        <ele>2513.8</ele>
        <time>2019-03-30T12:48:39Z</time>
      </trkpt>
      <trkpt lat="45.26146" lon="6.1588">
        <ele>2511.2</ele>
        <time>2019-03-30T12:48:44Z</time>
      </trkpt>
      <trkpt lat="45.26135" lon="6.15869">
        <ele>2505.8</ele>
        <time>2019-03-30T12:48:54Z</time>
      </trkpt>
      <trkpt lat="45.26133" lon="6.15867">
        <ele>2504.4</ele>
        <time>2019-03-30T12:49:09Z</time>
      </trkpt>
      <trkpt lat="45.26133" lon="6.15867">
        <ele>2504.8</ele>
        <time>2019-03-30T12:49:14Z</time>
      </trkpt>
      <trkpt lat="45.26129" lon="6.15867">
        <ele>2505</ele>
        <time>2019-03-30T12:49:19Z</time>
      </trkpt>
      <trkpt lat="45.26113" lon="6.15852">
        <ele>2503.6</ele>
        <time>2019-03-30T12:49:24Z</time>
      </trkpt>
      <trkpt lat="45.26089" lon="6.15838">
        <ele>2494.8</ele>
        <time>2019-03-30T12:49:29Z</time>
      </trkpt>
      <trkpt lat="45.26069" lon="6.15815">
        <ele>2492.8</ele>
        <time>2019-03-30T12:49:34Z</time>
      </trkpt>
      <trkpt lat="45.26044" lon="6.15818">
        <ele>2485</ele>
        <time>2019-03-30T12:49:39Z</time>
      </trkpt>
      <trkpt lat="45.26017" lon="6.15809">
        <ele>2475.2</ele>
        <time>2019-03-30T12:49:44Z</time>
      </trkpt>
      <trkpt lat="45.25988" lon="6.15795">
        <ele>2469</ele>
        <time>2019-03-30T12:49:49Z</time>
      </trkpt>
      <trkpt lat="45.25966" lon="6.15794">
        <ele>2461.8</ele>
        <time>2019-03-30T12:49:54Z</time>
      </trkpt>
      <trkpt lat="45.25946" lon="6.15778">
        <ele>2458.6</ele>
        <time>2019-03-30T12:49:59Z</time>
      </trkpt>
      <trkpt lat="45.25923" lon="6.15759">
        <ele>2453</ele>
        <time>2019-03-30T12:50:04Z</time>
      </trkpt>
      <trkpt lat="45.25909" lon="6.15753">
        <ele>2448.6</ele>
        <time>2019-03-30T12:50:09Z</time>
      </trkpt>
      <trkpt lat="45.25904" lon="6.15751">
        <ele>2445.4</ele>
        <time>2019-03-30T12:50:14Z</time>
      </trkpt>
      <trkpt lat="45.25904" lon="6.15751">
        <ele>2444.8</ele>
        <time>2019-03-30T12:50:59Z</time>
      </trkpt>
      <trkpt lat="45.25905" lon="6.15751">
        <ele>2446.8</ele>
        <time>2019-03-30T12:51:09Z</time>
      </trkpt>
      <trkpt lat="45.25905" lon="6.15752">
        <ele>2447.2</ele>
        <time>2019-03-30T12:52:19Z</time>
      </trkpt>
      <trkpt lat="45.25906" lon="6.15748">
        <ele>2448.6</ele>
        <time>2019-03-30T12:52:24Z</time>
      </trkpt>
      <trkpt lat="45.259" lon="6.15721">
        <ele>2444.6</ele>
        <time>2019-03-30T12:52:29Z</time>
      </trkpt>
      <trkpt lat="45.25894" lon="6.15694">
        <ele>2438</ele>
        <time>2019-03-30T12:52:34Z</time>
      </trkpt>
      <trkpt lat="45.25872" lon="6.15675">
        <ele>2425.8</ele>
        <time>2019-03-30T12:52:39Z</time>
      </trkpt>
      <trkpt lat="45.25839" lon="6.15656">
        <ele>2414</ele>
        <time>2019-03-30T12:52:45Z</time>
      </trkpt>
      <trkpt lat="45.25814" lon="6.1564">
        <ele>2406</ele>
        <time>2019-03-30T12:52:50Z</time>
      </trkpt>
      <trkpt lat="45.25795" lon="6.15608">
        <ele>2400.2</ele>
        <time>2019-03-30T12:52:55Z</time>
      </trkpt>
      <trkpt lat="45.25767" lon="6.15583">
        <ele>2389</ele>
        <time>2019-03-30T12:53:00Z</time>
      </trkpt>
      <trkpt lat="45.25757" lon="6.15553">
        <ele>2388.6</ele>
        <time>2019-03-30T12:53:05Z</time>
      </trkpt>
      <trkpt lat="45.25739" lon="6.15527">
        <ele>2377.4</ele>
        <time>2019-03-30T12:53:10Z</time>
      </trkpt>
      <trkpt lat="45.25714" lon="6.15526">
        <ele>2367.8</ele>
        <time>2019-03-30T12:53:15Z</time>
      </trkpt>
      <trkpt lat="45.2569" lon="6.15508">
        <ele>2360</ele>
        <time>2019-03-30T12:53:20Z</time>
      </trkpt>
      <trkpt lat="45.25663" lon="6.15521">
        <ele>2354</ele>
        <time>2019-03-30T12:53:25Z</time>
      </trkpt>
      <trkpt lat="45.25634" lon="6.15497">
        <ele>2344.4</ele>
        <time>2019-03-30T12:53:30Z</time>
      </trkpt>
      <trkpt lat="45.25605" lon="6.15492">
        <ele>2335.4</ele>
        <time>2019-03-30T12:53:35Z</time>
      </trkpt>
      <trkpt lat="45.25579" lon="6.15481">
        <ele>2321.6</ele>
        <time>2019-03-30T12:53:40Z</time>
      </trkpt>
      <trkpt lat="45.25564" lon="6.15483">
        <ele>2310.2</ele>
        <time>2019-03-30T12:54:05Z</time>
      </trkpt>
      <trkpt lat="45.25564" lon="6.15482">
        <ele>2308.8</ele>
        <time>2019-03-30T12:55:00Z</time>
      </trkpt>
      <trkpt lat="45.25559" lon="6.15478">
        <ele>2306.6</ele>
        <time>2019-03-30T12:55:05Z</time>
      </trkpt>
      <trkpt lat="45.25553" lon="6.15446">
        <ele>2306.2</ele>
        <time>2019-03-30T12:55:10Z</time>
      </trkpt>
      <trkpt lat="45.25535" lon="6.15433">
        <ele>2296.6</ele>
        <time>2019-03-30T12:55:15Z</time>
      </trkpt>
      <trkpt lat="45.2551" lon="6.15428">
        <ele>2281.6</ele>
        <time>2019-03-30T12:55:20Z</time>
      </trkpt>
      <trkpt lat="45.25492" lon="6.15418">
        <ele>2268.6</ele>
        <time>2019-03-30T12:55:30Z</time>
      </trkpt>
      <trkpt lat="45.25483" lon="6.15434">
        <ele>2266.4</ele>
        <time>2019-03-30T12:55:35Z</time>
      </trkpt>
      <trkpt lat="45.25468" lon="6.15446">
        <ele>2257</ele>
        <time>2019-03-30T12:55:40Z</time>
      </trkpt>
      <trkpt lat="45.25455" lon="6.15469">
        <ele>2248.2</ele>
        <time>2019-03-30T12:55:45Z</time>
      </trkpt>
      <trkpt lat="45.25434" lon="6.15453">
        <ele>2230</ele>
        <time>2019-03-30T12:55:50Z</time>
      </trkpt>
      <trkpt lat="45.2542" lon="6.15441">
        <ele>2218</ele>
        <time>2019-03-30T12:55:55Z</time>
      </trkpt>
      <trkpt lat="45.25407" lon="6.15411">
        <ele>2199.2</ele>
        <time>2019-03-30T12:56:00Z</time>
      </trkpt>
      <trkpt lat="45.25381" lon="6.15427">
        <ele>2191.4</ele>
        <time>2019-03-30T12:56:05Z</time>
      </trkpt>
      <trkpt lat="45.25368" lon="6.15398">
        <ele>2173.6</ele>
        <time>2019-03-30T12:56:10Z</time>
      </trkpt>
      <trkpt lat="45.25346" lon="6.15431">
        <ele>2169.8</ele>
        <time>2019-03-30T12:56:15Z</time>
      </trkpt>
      <trkpt lat="45.25337" lon="6.15457">
        <ele>2162.4</ele>
        <time>2019-03-30T12:56:20Z</time>
      </trkpt>
      <trkpt lat="45.25321" lon="6.15485">
        <ele>2161.2</ele>
        <time>2019-03-30T12:56:25Z</time>
      </trkpt>
      <trkpt lat="45.2531" lon="6.15505">
        <ele>2159.8</ele>
        <time>2019-03-30T12:56:30Z</time>
      </trkpt>
      <trkpt lat="45.25309" lon="6.15508">
        <ele>2158.2</ele>
        <time>2019-03-30T12:56:35Z</time>
      </trkpt>
      <trkpt lat="45.25309" lon="6.15508">
        <ele>2157.8</ele>
        <time>2019-03-30T12:57:00Z</time>
      </trkpt>
      <trkpt lat="45.2531" lon="6.15506">
        <ele>2157.8</ele>
        <time>2019-03-30T12:57:05Z</time>
      </trkpt>
      <trkpt lat="45.2531" lon="6.15506">
        <ele>2157.8</ele>
        <time>2019-03-30T12:57:20Z</time>
      </trkpt>
      <trkpt lat="45.25305" lon="6.15514">
        <ele>2160</ele>
        <time>2019-03-30T12:57:25Z</time>
      </trkpt>
      <trkpt lat="45.25296" lon="6.15529">
        <ele>2153</ele>
        <time>2019-03-30T12:57:30Z</time>
      </trkpt>
      <trkpt lat="45.2528" lon="6.15558">
        <ele>2147.6</ele>
        <time>2019-03-30T12:57:35Z</time>
      </trkpt>
      <trkpt lat="45.25264" lon="6.15594">
        <ele>2144.2</ele>
        <time>2019-03-30T12:57:40Z</time>
      </trkpt>
      <trkpt lat="45.25252" lon="6.15632">
        <ele>2140.2</ele>
        <time>2019-03-30T12:57:45Z</time>
      </trkpt>
      <trkpt lat="45.2524" lon="6.15668">
        <ele>2133.8</ele>
        <time>2019-03-30T12:57:50Z</time>
      </trkpt>
      <trkpt lat="45.25225" lon="6.15706">
        <ele>2129.8</ele>
        <time>2019-03-30T12:57:55Z</time>
      </trkpt>
      <trkpt lat="45.25211" lon="6.1573">
        <ele>2127.2</ele>
        <time>2019-03-30T12:58:00Z</time>
      </trkpt>
      <trkpt lat="45.25201" lon="6.15751">
        <ele>2127.6</ele>
        <time>2019-03-30T12:58:05Z</time>
      </trkpt>
      <trkpt lat="45.25176" lon="6.15754">
        <ele>2123</ele>
        <time>2019-03-30T12:58:10Z</time>
      </trkpt>
      <trkpt lat="45.25146" lon="6.15783">
        <ele>2115.2</ele>
        <time>2019-03-30T12:58:15Z</time>
      </trkpt>
      <trkpt lat="45.25127" lon="6.15806">
        <ele>2111.6</ele>
        <time>2019-03-30T12:58:20Z</time>
      </trkpt>
      <trkpt lat="45.25118" lon="6.15831">
        <ele>2110.2</ele>
        <time>2019-03-30T12:58:25Z</time>
      </trkpt>
      <trkpt lat="45.25114" lon="6.15865">
        <ele>2101.6</ele>
        <time>2019-03-30T12:58:30Z</time>
      </trkpt>
      <trkpt lat="45.25121" lon="6.15889">
        <ele>2095.8</ele>
        <time>2019-03-30T12:58:35Z</time>
      </trkpt>
      <trkpt lat="45.25122" lon="6.15914">
        <ele>2095.2</ele>
        <time>2019-03-30T12:58:40Z</time>
      </trkpt>
      <trkpt lat="45.25118" lon="6.15941">
        <ele>2089.2</ele>
        <time>2019-03-30T12:58:45Z</time>
      </trkpt>
      <trkpt lat="45.25108" lon="6.15982">
        <ele>2083.6</ele>
        <time>2019-03-30T12:58:50Z</time>
      </trkpt>
      <trkpt lat="45.2511" lon="6.15996">
        <ele>2083</ele>
        <time>2019-03-30T12:58:55Z</time>
      </trkpt>
      <trkpt lat="45.2511" lon="6.16027">
        <ele>2081.2</ele>
        <time>2019-03-30T12:59:00Z</time>
      </trkpt>
      <trkpt lat="45.25109" lon="6.16068">
        <ele>2077.2</ele>
        <time>2019-03-30T12:59:05Z</time>
      </trkpt>
      <trkpt lat="45.25096" lon="6.16103">
        <ele>2069.8</ele>
        <time>2019-03-30T12:59:10Z</time>
      </trkpt>
      <trkpt lat="45.25084" lon="6.16137">
        <ele>2062.4</ele>
        <time>2019-03-30T12:59:15Z</time>
      </trkpt>
      <trkpt lat="45.25066" lon="6.1617">
        <ele>2057</ele>
        <time>2019-03-30T12:59:20Z</time>
      </trkpt>
      <trkpt lat="45.25051" lon="6.16202">
        <ele>2049.6</ele>
        <time>2019-03-30T12:59:25Z</time>
      </trkpt>
      <trkpt lat="45.25028" lon="6.16227">
        <ele>2040.6</ele>
        <time>2019-03-30T12:59:30Z</time>
      </trkpt>
      <trkpt lat="45.2502" lon="6.16253">
        <ele>2034.6</ele>
        <time>2019-03-30T12:59:35Z</time>
      </trkpt>
      <trkpt lat="45.25026" lon="6.1629">
        <ele>2032.6</ele>
        <time>2019-03-30T12:59:40Z</time>
      </trkpt>
      <trkpt lat="45.25024" lon="6.1633">
        <ele>2025.6</ele>
        <time>2019-03-30T12:59:45Z</time>
      </trkpt>
      <trkpt lat="45.25021" lon="6.16336">
        <ele>2023.4</ele>
        <time>2019-03-30T12:59:50Z</time>
      </trkpt>
      <trkpt lat="45.25015" lon="6.16354">
        <ele>2024.6</ele>
        <time>2019-03-30T13:00:30Z</time>
      </trkpt>
      <trkpt lat="45.24996" lon="6.16371">
        <ele>2015.2</ele>
        <time>2019-03-30T13:00:35Z</time>
      </trkpt>
      <trkpt lat="45.24964" lon="6.16372">
        <ele>2008.6</ele>
        <time>2019-03-30T13:00:40Z</time>
      </trkpt>
      <trkpt lat="45.24941" lon="6.16385">
        <ele>2007.8</ele>
        <time>2019-03-30T13:00:45Z</time>
      </trkpt>
      <trkpt lat="45.2491" lon="6.16388">
        <ele>2002.2</ele>
        <time>2019-03-30T13:00:50Z</time>
      </trkpt>
      <trkpt lat="45.24885" lon="6.16401">
        <ele>2001.2</ele>
        <time>2019-03-30T13:00:55Z</time>
      </trkpt>
      <trkpt lat="45.24869" lon="6.16413">
        <ele>1996.2</ele>
        <time>2019-03-30T13:01:00Z</time>
      </trkpt>
      <trkpt lat="45.24848" lon="6.16425">
        <ele>1990.6</ele>
        <time>2019-03-30T13:01:05Z</time>
      </trkpt>
      <trkpt lat="45.24831" lon="6.16442">
        <ele>1992.6</ele>
        <time>2019-03-30T13:01:10Z</time>
      </trkpt>
      <trkpt lat="45.24815" lon="6.16463">
        <ele>1985.4</ele>
        <time>2019-03-30T13:01:15Z</time>
      </trkpt>
      <trkpt lat="45.24817" lon="6.16495">
        <ele>1971.6</ele>
        <time>2019-03-30T13:01:20Z</time>
      </trkpt>
      <trkpt lat="45.24811" lon="6.1653">
        <ele>1957</ele>
        <time>2019-03-30T13:01:25Z</time>
      </trkpt>
      <trkpt lat="45.24822" lon="6.16563">
        <ele>1941.8</ele>
        <time>2019-03-30T13:01:30Z</time>
      </trkpt>
      <trkpt lat="45.24792" lon="6.1659">
        <ele>1933.8</ele>
        <time>2019-03-30T13:01:35Z</time>
      </trkpt>
      <trkpt lat="45.24794" lon="6.16623">
        <ele>1923</ele>
        <time>2019-03-30T13:01:40Z</time>
      </trkpt>
      <trkpt lat="45.24796" lon="6.16658">
        <ele>1911</ele>
        <time>2019-03-30T13:01:45Z</time>
      </trkpt>
      <trkpt lat="45.24806" lon="6.16696">
        <ele>1896.8</ele>
        <time>2019-03-30T13:01:50Z</time>
      </trkpt>
      <trkpt lat="45.24795" lon="6.16731">
        <ele>1887.8</ele>
        <time>2019-03-30T13:01:55Z</time>
      </trkpt>
      <trkpt lat="45.24792" lon="6.1677">
        <ele>1878.6</ele>
        <time>2019-03-30T13:02:00Z</time>
      </trkpt>
      <trkpt lat="45.24786" lon="6.16781">
        <ele>1875.2</ele>
        <time>2019-03-30T13:02:05Z</time>
      </trkpt>
      <trkpt lat="45.24786" lon="6.1678">
        <ele>1870</ele>
        <time>2019-03-30T13:02:45Z</time>
      </trkpt>
      <trkpt lat="45.24783" lon="6.16792">
        <ele>1867.2</ele>
        <time>2019-03-30T13:02:50Z</time>
      </trkpt>
      <trkpt lat="45.24769" lon="6.16824">
        <ele>1858.8</ele>
        <time>2019-03-30T13:02:55Z</time>
      </trkpt>
      <trkpt lat="45.24741" lon="6.16833">
        <ele>1853.4</ele>
        <time>2019-03-30T13:03:00Z</time>
      </trkpt>
      <trkpt lat="45.24724" lon="6.16853">
        <ele>1844.8</ele>
        <time>2019-03-30T13:03:05Z</time>
      </trkpt>
      <trkpt lat="45.24686" lon="6.16854">
        <ele>1842.2</ele>
        <time>2019-03-30T13:03:10Z</time>
      </trkpt>
      <trkpt lat="45.24685" lon="6.16854">
        <ele>1840.2</ele>
        <time>2019-03-30T13:03:15Z</time>
      </trkpt>
      <trkpt lat="45.24685" lon="6.16853">
        <ele>1835.2</ele>
        <time>2019-03-30T13:04:20Z</time>
      </trkpt>
      <trkpt lat="45.24672" lon="6.16858">
        <ele>1833.6</ele>
        <time>2019-03-30T13:04:25Z</time>
      </trkpt>
      <trkpt lat="45.24648" lon="6.16858">
        <ele>1831.4</ele>
        <time>2019-03-30T13:04:30Z</time>
      </trkpt>
      <trkpt lat="45.24633" lon="6.16853">
        <ele>1831.4</ele>
        <time>2019-03-30T13:04:35Z</time>
      </trkpt>
      <trkpt lat="45.24621" lon="6.16849">
        <ele>1824.4</ele>
        <time>2019-03-30T13:04:40Z</time>
      </trkpt>
      <trkpt lat="45.24616" lon="6.16846">
        <ele>1825.8</ele>
        <time>2019-03-30T13:04:45Z</time>
      </trkpt>
      <trkpt lat="45.24614" lon="6.16844">
        <ele>1826.4</ele>
        <time>2019-03-30T13:04:50Z</time>
      </trkpt>
      <trkpt lat="45.24611" lon="6.16842">
        <ele>1825.4</ele>
        <time>2019-03-30T13:04:55Z</time>
      </trkpt>
      <trkpt lat="45.24605" lon="6.16839">
        <ele>1826.4</ele>
        <time>2019-03-30T13:05:00Z</time>
      </trkpt>
      <trkpt lat="45.24597" lon="6.16841">
        <ele>1825</ele>
        <time>2019-03-30T13:05:05Z</time>
      </trkpt>
      <trkpt lat="45.24596" lon="6.16841">
        <ele>1825.2</ele>
        <time>2019-03-30T13:05:20Z</time>
      </trkpt>
      <trkpt lat="45.24595" lon="6.16841">
        <ele>1825.4</ele>
        <time>2019-03-30T13:05:25Z</time>
      </trkpt>
      <trkpt lat="45.24595" lon="6.16841">
        <ele>1825.6</ele>
        <time>2019-03-30T13:06:25Z</time>
      </trkpt>
      <trkpt lat="45.24593" lon="6.16843">
        <ele>1827</ele>
        <time>2019-03-30T13:06:30Z</time>
      </trkpt>
      <trkpt lat="45.24579" lon="6.16852">
        <ele>1824.8</ele>
        <time>2019-03-30T13:06:35Z</time>
      </trkpt>
      <trkpt lat="45.24563" lon="6.16859">
        <ele>1820.4</ele>
        <time>2019-03-30T13:06:40Z</time>
      </trkpt>
      <trkpt lat="45.24554" lon="6.16864">
        <ele>1819.4</ele>
        <time>2019-03-30T13:06:45Z</time>
      </trkpt>
      <trkpt lat="45.24541" lon="6.16869">
        <ele>1816</ele>
        <time>2019-03-30T13:06:50Z</time>
      </trkpt>
      <trkpt lat="45.24526" lon="6.16892">
        <ele>1805.6</ele>
        <time>2019-03-30T13:06:55Z</time>
      </trkpt>
      <trkpt lat="45.24518" lon="6.16919">
        <ele>1795.8</ele>
        <time>2019-03-30T13:07:00Z</time>
      </trkpt>
      <trkpt lat="45.24509" lon="6.1695">
        <ele>1785.6</ele>
        <time>2019-03-30T13:07:05Z</time>
      </trkpt>
      <trkpt lat="45.24494" lon="6.1699">
        <ele>1775.6</ele>
        <time>2019-03-30T13:07:10Z</time>
      </trkpt>
      <trkpt lat="45.24468" lon="6.17028">
        <ele>1770.6</ele>
        <time>2019-03-30T13:07:15Z</time>
      </trkpt>
      <trkpt lat="45.24462" lon="6.17056">
        <ele>1762</ele>
        <time>2019-03-30T13:07:20Z</time>
      </trkpt>
      <trkpt lat="45.24463" lon="6.1709">
        <ele>1754.2</ele>
        <time>2019-03-30T13:07:25Z</time>
      </trkpt>
      <trkpt lat="45.24457" lon="6.17125">
        <ele>1742.2</ele>
        <time>2019-03-30T13:07:30Z</time>
      </trkpt>
      <trkpt lat="45.24452" lon="6.17175">
        <ele>1725.2</ele>
        <time>2019-03-30T13:07:36Z</time>
      </trkpt>
      <trkpt lat="45.24452" lon="6.17214">
        <ele>1713.6</ele>
        <time>2019-03-30T13:07:41Z</time>
      </trkpt>
      <trkpt lat="45.24468" lon="6.17234">
        <ele>1707</ele>
        <time>2019-03-30T13:07:51Z</time>
      </trkpt>
      <trkpt lat="45.24467" lon="6.17234">
        <ele>1707</ele>
        <time>2019-03-30T13:08:51Z</time>
      </trkpt>
      <trkpt lat="45.24467" lon="6.1725">
        <ele>1701.4</ele>
        <time>2019-03-30T13:09:46Z</time>
      </trkpt>
      <trkpt lat="45.24454" lon="6.17266">
        <ele>1699.4</ele>
        <time>2019-03-30T13:09:51Z</time>
      </trkpt>
      <trkpt lat="45.24459" lon="6.1731">
        <ele>1689</ele>
        <time>2019-03-30T13:09:56Z</time>
      </trkpt>
      <trkpt lat="45.24472" lon="6.17355">
        <ele>1682.2</ele>
        <time>2019-03-30T13:10:01Z</time>
      </trkpt>
      <trkpt lat="45.24488" lon="6.17401">
        <ele>1680</ele>
        <time>2019-03-30T13:10:06Z</time>
      </trkpt>
      <trkpt lat="45.2451" lon="6.17429">
        <ele>1680.6</ele>
        <time>2019-03-30T13:10:11Z</time>
      </trkpt>
      <trkpt lat="45.24519" lon="6.17441">
        <ele>1680</ele>
        <time>2019-03-30T13:10:16Z</time>
      </trkpt>
      <trkpt lat="45.24528" lon="6.17451">
        <ele>1679.4</ele>
        <time>2019-03-30T13:10:21Z</time>
      </trkpt>
      <trkpt lat="45.2454" lon="6.17464">
        <ele>1678.2</ele>
        <time>2019-03-30T13:10:26Z</time>
      </trkpt>
      <trkpt lat="45.2456" lon="6.17486">
        <ele>1677.4</ele>
        <time>2019-03-30T13:10:31Z</time>
      </trkpt>
      <trkpt lat="45.24574" lon="6.175">
        <ele>1677.8</ele>
        <time>2019-03-30T13:10:36Z</time>
      </trkpt>
      <trkpt lat="45.24593" lon="6.1751">
        <ele>1671.8</ele>
        <time>2019-03-30T13:10:41Z</time>
      </trkpt>
      <trkpt lat="45.24621" lon="6.17522">
        <ele>1665.8</ele>
        <time>2019-03-30T13:10:46Z</time>
      </trkpt>
      <trkpt lat="45.24646" lon="6.17534">
        <ele>1668.6</ele>
        <time>2019-03-30T13:10:51Z</time>
      </trkpt>
      <trkpt lat="45.2466" lon="6.17546">
        <ele>1669.6</ele>
        <time>2019-03-30T13:10:56Z</time>
      </trkpt>
      <trkpt lat="45.24673" lon="6.17555">
        <ele>1668.8</ele>
        <time>2019-03-30T13:11:01Z</time>
      </trkpt>
      <trkpt lat="45.24683" lon="6.17565">
        <ele>1665.2</ele>
        <time>2019-03-30T13:11:06Z</time>
      </trkpt>
      <trkpt lat="45.24687" lon="6.17569">
        <ele>1665</ele>
        <time>2019-03-30T13:11:11Z</time>
      </trkpt>
      <trkpt lat="45.2469" lon="6.1757">
        <ele>1664</ele>
        <time>2019-03-30T13:11:16Z</time>
      </trkpt>
      <trkpt lat="45.24691" lon="6.17571">
        <ele>1662.4</ele>
        <time>2019-03-30T13:11:21Z</time>
      </trkpt>
      <trkpt lat="45.24696" lon="6.17573">
        <ele>1657.6</ele>
        <time>2019-03-30T13:11:26Z</time>
      </trkpt>
      <trkpt lat="45.2471" lon="6.17581">
        <ele>1657.4</ele>
        <time>2019-03-30T13:11:31Z</time>
      </trkpt>
      <trkpt lat="45.24724" lon="6.176">
        <ele>1658.4</ele>
        <time>2019-03-30T13:11:36Z</time>
      </trkpt>
      <trkpt lat="45.24743" lon="6.17625">
        <ele>1658.2</ele>
        <time>2019-03-30T13:11:41Z</time>
      </trkpt>
      <trkpt lat="45.24766" lon="6.17649">
        <ele>1654.2</ele>
        <time>2019-03-30T13:11:46Z</time>
      </trkpt>
      <trkpt lat="45.24785" lon="6.17681">
        <ele>1652.2</ele>
        <time>2019-03-30T13:11:51Z</time>
      </trkpt>
      <trkpt lat="45.24801" lon="6.17717">
        <ele>1648</ele>
        <time>2019-03-30T13:11:56Z</time>
      </trkpt>
      <trkpt lat="45.24816" lon="6.17754">
        <ele>1646.6</ele>
        <time>2019-03-30T13:12:01Z</time>
      </trkpt>
      <trkpt lat="45.2484" lon="6.17792">
        <ele>1641.2</ele>
        <time>2019-03-30T13:12:06Z</time>
      </trkpt>
      <trkpt lat="45.24868" lon="6.17822">
        <ele>1637.2</ele>
        <time>2019-03-30T13:12:11Z</time>
      </trkpt>
      <trkpt lat="45.24894" lon="6.1784">
        <ele>1633.4</ele>
        <time>2019-03-30T13:12:16Z</time>
      </trkpt>
      <trkpt lat="45.24918" lon="6.17861">
        <ele>1631.8</ele>
        <time>2019-03-30T13:12:21Z</time>
      </trkpt>
      <trkpt lat="45.24933" lon="6.17883">
        <ele>1631.4</ele>
        <time>2019-03-30T13:12:26Z</time>
      </trkpt>
      <trkpt lat="45.24942" lon="6.17904">
        <ele>1631.4</ele>
        <time>2019-03-30T13:12:31Z</time>
      </trkpt>
      <trkpt lat="45.24949" lon="6.17926">
        <ele>1627.4</ele>
        <time>2019-03-30T13:12:36Z</time>
      </trkpt>
      <trkpt lat="45.2496" lon="6.17957">
        <ele>1627</ele>
        <time>2019-03-30T13:12:41Z</time>
      </trkpt>
      <trkpt lat="45.24975" lon="6.17987">
        <ele>1625.6</ele>
        <time>2019-03-30T13:12:46Z</time>
      </trkpt>
      <trkpt lat="45.24991" lon="6.18016">
        <ele>1620.8</ele>
        <time>2019-03-30T13:12:51Z</time>
      </trkpt>
      <trkpt lat="45.25011" lon="6.18041">
        <ele>1620.2</ele>
        <time>2019-03-30T13:12:56Z</time>
      </trkpt>
      <trkpt lat="45.25029" lon="6.18064">
        <ele>1620.8</ele>
        <time>2019-03-30T13:13:01Z</time>
      </trkpt>
      <trkpt lat="45.25049" lon="6.18094">
        <ele>1615.6</ele>
        <time>2019-03-30T13:13:06Z</time>
      </trkpt>
      <trkpt lat="45.25067" lon="6.18126">
        <ele>1616</ele>
        <time>2019-03-30T13:13:11Z</time>
      </trkpt>
      <trkpt lat="45.25083" lon="6.18159">
        <ele>1613.4</ele>
        <time>2019-03-30T13:13:16Z</time>
      </trkpt>
      <trkpt lat="45.25106" lon="6.18174">
        <ele>1613.2</ele>
        <time>2019-03-30T13:13:21Z</time>
      </trkpt>
      <trkpt lat="45.25125" lon="6.18189">
        <ele>1611.6</ele>
        <time>2019-03-30T13:13:26Z</time>
      </trkpt>
      <trkpt lat="45.25142" lon="6.18203">
        <ele>1610.4</ele>
        <time>2019-03-30T13:13:31Z</time>
      </trkpt>
      <trkpt lat="45.25157" lon="6.18214">
        <ele>1610.8</ele>
        <time>2019-03-30T13:13:36Z</time>
      </trkpt>
      <trkpt lat="45.2517" lon="6.18223">
        <ele>1611.8</ele>
        <time>2019-03-30T13:13:41Z</time>
      </trkpt>
      <trkpt lat="45.25179" lon="6.18233">
        <ele>1608.8</ele>
        <time>2019-03-30T13:13:46Z</time>
      </trkpt>
      <trkpt lat="45.25186" lon="6.18248">
        <ele>1605.2</ele>
        <time>2019-03-30T13:13:51Z</time>
      </trkpt>
      <trkpt lat="45.25195" lon="6.18272">
        <ele>1604.2</ele>
        <time>2019-03-30T13:13:56Z</time>
      </trkpt>
      <trkpt lat="45.25204" lon="6.18295">
        <ele>1605.2</ele>
        <time>2019-03-30T13:14:01Z</time>
      </trkpt>
      <trkpt lat="45.25213" lon="6.18312">
        <ele>1603.6</ele>
        <time>2019-03-30T13:14:06Z</time>
      </trkpt>
      <trkpt lat="45.25219" lon="6.18328">
        <ele>1603.8</ele>
        <time>2019-03-30T13:14:11Z</time>
      </trkpt>
      <trkpt lat="45.25222" lon="6.18341">
        <ele>1603.2</ele>
        <time>2019-03-30T13:14:16Z</time>
      </trkpt>
      <trkpt lat="45.25224" lon="6.18358">
        <ele>1603</ele>
        <time>2019-03-30T13:14:21Z</time>
      </trkpt>
      <trkpt lat="45.25226" lon="6.18378">
        <ele>1601</ele>
        <time>2019-03-30T13:14:26Z</time>
      </trkpt>
      <trkpt lat="45.25229" lon="6.18398">
        <ele>1597</ele>
        <time>2019-03-30T13:14:31Z</time>
      </trkpt>
      <trkpt lat="45.25232" lon="6.18418">
        <ele>1600.6</ele>
        <time>2019-03-30T13:14:36Z</time>
      </trkpt>
      <trkpt lat="45.25237" lon="6.18436">
        <ele>1598</ele>
        <time>2019-03-30T13:14:41Z</time>
      </trkpt>
      <trkpt lat="45.2524" lon="6.18451">
        <ele>1598.2</ele>
        <time>2019-03-30T13:14:46Z</time>
      </trkpt>
      <trkpt lat="45.25243" lon="6.18465">
        <ele>1598.2</ele>
        <time>2019-03-30T13:14:51Z</time>
      </trkpt>
      <trkpt lat="45.25245" lon="6.18482">
        <ele>1598.2</ele>
        <time>2019-03-30T13:14:56Z</time>
      </trkpt>
      <trkpt lat="45.25246" lon="6.18494">
        <ele>1597.6</ele>
        <time>2019-03-30T13:15:01Z</time>
      </trkpt>
      <trkpt lat="45.25246" lon="6.18508">
        <ele>1601.2</ele>
        <time>2019-03-30T13:15:06Z</time>
      </trkpt>
      <trkpt lat="45.25247" lon="6.18519">
        <ele>1597.8</ele>
        <time>2019-03-30T13:15:11Z</time>
      </trkpt>
      <trkpt lat="45.25251" lon="6.18532">
        <ele>1598</ele>
        <time>2019-03-30T13:15:16Z</time>
      </trkpt>
      <trkpt lat="45.25263" lon="6.18549">
        <ele>1594</ele>
        <time>2019-03-30T13:15:21Z</time>
      </trkpt>
      <trkpt lat="45.25277" lon="6.18567">
        <ele>1593.6</ele>
        <time>2019-03-30T13:15:26Z</time>
      </trkpt>
      <trkpt lat="45.25292" lon="6.18581">
        <ele>1591.8</ele>
        <time>2019-03-30T13:15:31Z</time>
      </trkpt>
      <trkpt lat="45.25307" lon="6.18591">
        <ele>1591.4</ele>
        <time>2019-03-30T13:15:36Z</time>
      </trkpt>
      <trkpt lat="45.25321" lon="6.186">
        <ele>1592.8</ele>
        <time>2019-03-30T13:15:41Z</time>
      </trkpt>
      <trkpt lat="45.25335" lon="6.1861">
        <ele>1588.6</ele>
        <time>2019-03-30T13:15:46Z</time>
      </trkpt>
      <trkpt lat="45.25348" lon="6.18622">
        <ele>1590</ele>
        <time>2019-03-30T13:15:51Z</time>
      </trkpt>
      <trkpt lat="45.25356" lon="6.18638">
        <ele>1589.8</ele>
        <time>2019-03-30T13:15:56Z</time>
      </trkpt>
      <trkpt lat="45.25358" lon="6.18657">
        <ele>1587</ele>
        <time>2019-03-30T13:16:01Z</time>
      </trkpt>
      <trkpt lat="45.25358" lon="6.18666">
        <ele>1586.4</ele>
        <time>2019-03-30T13:16:06Z</time>
      </trkpt>
      <trkpt lat="45.25359" lon="6.18671">
        <ele>1588</ele>
        <time>2019-03-30T13:16:11Z</time>
      </trkpt>
      <trkpt lat="45.25365" lon="6.18686">
        <ele>1586.6</ele>
        <time>2019-03-30T13:16:16Z</time>
      </trkpt>
      <trkpt lat="45.25383" lon="6.18705">
        <ele>1583.4</ele>
        <time>2019-03-30T13:16:21Z</time>
      </trkpt>
      <trkpt lat="45.25395" lon="6.18727">
        <ele>1583</ele>
        <time>2019-03-30T13:16:26Z</time>
      </trkpt>
      <trkpt lat="45.25402" lon="6.18758">
        <ele>1582</ele>
        <time>2019-03-30T13:16:31Z</time>
      </trkpt>
      <trkpt lat="45.25413" lon="6.18791">
        <ele>1582.4</ele>
        <time>2019-03-30T13:16:36Z</time>
      </trkpt>
      <trkpt lat="45.25432" lon="6.18818">
        <ele>1576.6</ele>
        <time>2019-03-30T13:16:41Z</time>
      </trkpt>
      <trkpt lat="45.2545" lon="6.1884">
        <ele>1577.4</ele>
        <time>2019-03-30T13:16:46Z</time>
      </trkpt>
      <trkpt lat="45.2547" lon="6.18864">
        <ele>1574.2</ele>
        <time>2019-03-30T13:16:51Z</time>
      </trkpt>
      <trkpt lat="45.2549" lon="6.18889">
        <ele>1570.4</ele>
        <time>2019-03-30T13:16:56Z</time>
      </trkpt>
      <trkpt lat="45.25509" lon="6.18917">
        <ele>1571.8</ele>
        <time>2019-03-30T13:17:01Z</time>
      </trkpt>
      <trkpt lat="45.25527" lon="6.18944">
        <ele>1569.2</ele>
        <time>2019-03-30T13:17:06Z</time>
      </trkpt>
      <trkpt lat="45.25549" lon="6.18969">
        <ele>1565</ele>
        <time>2019-03-30T13:17:11Z</time>
      </trkpt>
      <trkpt lat="45.25572" lon="6.1899">
        <ele>1560.6</ele>
        <time>2019-03-30T13:17:16Z</time>
      </trkpt>
      <trkpt lat="45.25595" lon="6.19012">
        <ele>1559.2</ele>
        <time>2019-03-30T13:17:21Z</time>
      </trkpt>
      <trkpt lat="45.25623" lon="6.1903">
        <ele>1559</ele>
        <time>2019-03-30T13:17:26Z</time>
      </trkpt>
      <trkpt lat="45.25653" lon="6.19043">
        <ele>1553.6</ele>
        <time>2019-03-30T13:17:31Z</time>
      </trkpt>
      <trkpt lat="45.25686" lon="6.1905">
        <ele>1550</ele>
        <time>2019-03-30T13:17:36Z</time>
      </trkpt>
      <trkpt lat="45.25721" lon="6.19053">
        <ele>1545.4</ele>
        <time>2019-03-30T13:17:41Z</time>
      </trkpt>
      <trkpt lat="45.2575" lon="6.19069">
        <ele>1546.2</ele>
        <time>2019-03-30T13:17:46Z</time>
      </trkpt>
      <trkpt lat="45.25776" lon="6.19087">
        <ele>1545</ele>
        <time>2019-03-30T13:17:51Z</time>
      </trkpt>
      <trkpt lat="45.25797" lon="6.19113">
        <ele>1545.4</ele>
        <time>2019-03-30T13:17:56Z</time>
      </trkpt>
      <trkpt lat="45.25814" lon="6.1914">
        <ele>1541.8</ele>
        <time>2019-03-30T13:18:01Z</time>
      </trkpt>
      <trkpt lat="45.25837" lon="6.19167">
        <ele>1537.6</ele>
        <time>2019-03-30T13:18:06Z</time>
      </trkpt>
      <trkpt lat="45.25863" lon="6.19185">
        <ele>1536.8</ele>
        <time>2019-03-30T13:18:11Z</time>
      </trkpt>
      <trkpt lat="45.25885" lon="6.19213">
        <ele>1531.4</ele>
        <time>2019-03-30T13:18:16Z</time>
      </trkpt>
      <trkpt lat="45.259" lon="6.1925">
        <ele>1526.6</ele>
        <time>2019-03-30T13:18:21Z</time>
      </trkpt>
      <trkpt lat="45.25909" lon="6.19282">
        <ele>1527.2</ele>
        <time>2019-03-30T13:18:26Z</time>
      </trkpt>
      <trkpt lat="45.25909" lon="6.1929">
        <ele>1524.2</ele>
        <time>2019-03-30T13:18:31Z</time>
      </trkpt>
      <trkpt lat="45.25908" lon="6.1929">
        <ele>1524.2</ele>
        <time>2019-03-30T13:18:46Z</time>
      </trkpt>
      <trkpt lat="45.25905" lon="6.193">
        <ele>1525</ele>
        <time>2019-03-30T13:18:56Z</time>
      </trkpt>
      <trkpt lat="45.25906" lon="6.19308">
        <ele>1523</ele>
        <time>2019-03-30T13:19:31Z</time>
      </trkpt>
      <trkpt lat="45.25905" lon="6.19309">
        <ele>1523</ele>
        <time>2019-03-30T13:19:36Z</time>
      </trkpt>
      <trkpt lat="45.25904" lon="6.19312">
        <ele>1522.8</ele>
        <time>2019-03-30T13:20:06Z</time>
      </trkpt>
      <trkpt lat="45.25905" lon="6.19313">
        <ele>1522.2</ele>
        <time>2019-03-30T13:20:46Z</time>
      </trkpt>
      <trkpt lat="45.25906" lon="6.19318">
        <ele>1525.6</ele>
        <time>2019-03-30T13:20:51Z</time>
      </trkpt>
      <trkpt lat="45.25907" lon="6.19325">
        <ele>1522</ele>
        <time>2019-03-30T13:20:56Z</time>
      </trkpt>
      <trkpt lat="45.25912" lon="6.19335">
        <ele>1523.6</ele>
        <time>2019-03-30T13:21:01Z</time>
      </trkpt>
      <trkpt lat="45.25919" lon="6.19348">
        <ele>1523.6</ele>
        <time>2019-03-30T13:21:06Z</time>
      </trkpt>
      <trkpt lat="45.25926" lon="6.19365">
        <ele>1524.6</ele>
        <time>2019-03-30T13:21:11Z</time>
      </trkpt>
      <trkpt lat="45.25933" lon="6.19387">
        <ele>1522</ele>
        <time>2019-03-30T13:21:16Z</time>
      </trkpt>
      <trkpt lat="45.2594" lon="6.19416">
        <ele>1517.2</ele>
        <time>2019-03-30T13:21:21Z</time>
      </trkpt>
      <trkpt lat="45.25946" lon="6.19453">
        <ele>1515.4</ele>
        <time>2019-03-30T13:21:26Z</time>
      </trkpt>
      <trkpt lat="45.25951" lon="6.19495">
        <ele>1511.8</ele>
        <time>2019-03-30T13:21:31Z</time>
      </trkpt>
      <trkpt lat="45.25955" lon="6.19533">
        <ele>1510</ele>
        <time>2019-03-30T13:21:36Z</time>
      </trkpt>
      <trkpt lat="45.25977" lon="6.19533">
        <ele>1505.4</ele>
        <time>2019-03-30T13:21:41Z</time>
      </trkpt>
      <trkpt lat="45.26007" lon="6.19525">
        <ele>1505.2</ele>
        <time>2019-03-30T13:21:46Z</time>
      </trkpt>
      <trkpt lat="45.26038" lon="6.19521">
        <ele>1499</ele>
        <time>2019-03-30T13:21:51Z</time>
      </trkpt>
      <trkpt lat="45.26067" lon="6.19518">
        <ele>1497</ele>
        <time>2019-03-30T13:21:56Z</time>
      </trkpt>
      <trkpt lat="45.26096" lon="6.19506">
        <ele>1490</ele>
        <time>2019-03-30T13:22:01Z</time>
      </trkpt>
      <trkpt lat="45.26118" lon="6.1951">
        <ele>1486.8</ele>
        <time>2019-03-30T13:22:06Z</time>
      </trkpt>
      <trkpt lat="45.26137" lon="6.19541">
        <ele>1482</ele>
        <time>2019-03-30T13:22:11Z</time>
      </trkpt>
      <trkpt lat="45.26157" lon="6.19573">
        <ele>1478.2</ele>
        <time>2019-03-30T13:22:16Z</time>
      </trkpt>
      <trkpt lat="45.26179" lon="6.19596">
        <ele>1476</ele>
        <time>2019-03-30T13:22:21Z</time>
      </trkpt>
      <trkpt lat="45.26203" lon="6.1961">
        <ele>1471</ele>
        <time>2019-03-30T13:22:26Z</time>
      </trkpt>
      <trkpt lat="45.26226" lon="6.19628">
        <ele>1469.6</ele>
        <time>2019-03-30T13:22:31Z</time>
      </trkpt>
      <trkpt lat="45.26255" lon="6.19622">
        <ele>1462.8</ele>
        <time>2019-03-30T13:22:36Z</time>
      </trkpt>
      <trkpt lat="45.26279" lon="6.19601">
        <ele>1463.6</ele>
        <time>2019-03-30T13:22:41Z</time>
      </trkpt>
      <trkpt lat="45.26305" lon="6.19586">
        <ele>1457.2</ele>
        <time>2019-03-30T13:22:46Z</time>
      </trkpt>
      <trkpt lat="45.26342" lon="6.19599">
        <ele>1455</ele>
        <time>2019-03-30T13:22:51Z</time>
      </trkpt>
      <trkpt lat="45.26372" lon="6.19614">
        <ele>1449.2</ele>
        <time>2019-03-30T13:22:56Z</time>
      </trkpt>
      <trkpt lat="45.26373" lon="6.19613">
        <ele>1448</ele>
        <time>2019-03-30T13:23:01Z</time>
      </trkpt>
      <trkpt lat="45.26385" lon="6.19616">
        <ele>1445.6</ele>
        <time>2019-03-30T13:23:06Z</time>
      </trkpt>
      <trkpt lat="45.2641" lon="6.19634">
        <ele>1442.8</ele>
        <time>2019-03-30T13:23:11Z</time>
      </trkpt>
      <trkpt lat="45.26432" lon="6.19653">
        <ele>1440.4</ele>
        <time>2019-03-30T13:23:16Z</time>
      </trkpt>
      <trkpt lat="45.2644" lon="6.19663">
        <ele>1441.2</ele>
        <time>2019-03-30T13:23:21Z</time>
      </trkpt>
      <trkpt lat="45.2644" lon="6.19664">
        <ele>1442.2</ele>
        <time>2019-03-30T13:24:01Z</time>
      </trkpt>
      <trkpt lat="45.26443" lon="6.19666">
        <ele>1440.6</ele>
        <time>2019-03-30T13:24:06Z</time>
      </trkpt>
      <trkpt lat="45.26456" lon="6.19671">
        <ele>1439.2</ele>
        <time>2019-03-30T13:24:11Z</time>
      </trkpt>
      <trkpt lat="45.26469" lon="6.19679">
        <ele>1438.6</ele>
        <time>2019-03-30T13:24:16Z</time>
      </trkpt>
      <trkpt lat="45.26485" lon="6.19688">
        <ele>1437.6</ele>
        <time>2019-03-30T13:24:21Z</time>
      </trkpt>
      <trkpt lat="45.26494" lon="6.19671">
        <ele>1429.2</ele>
        <time>2019-03-30T13:24:26Z</time>
      </trkpt>
      <trkpt lat="45.26518" lon="6.19664">
        <ele>1425.8</ele>
        <time>2019-03-30T13:24:31Z</time>
      </trkpt>
      <trkpt lat="45.26536" lon="6.19644">
        <ele>1426.6</ele>
        <time>2019-03-30T13:24:36Z</time>
      </trkpt>
      <trkpt lat="45.26543" lon="6.19629">
        <ele>1423.4</ele>
        <time>2019-03-30T13:24:41Z</time>
      </trkpt>
      <trkpt lat="45.26547" lon="6.19621">
        <ele>1426</ele>
        <time>2019-03-30T13:24:46Z</time>
      </trkpt>
      <trkpt lat="45.26551" lon="6.19612">
        <ele>1421.8</ele>
        <time>2019-03-30T13:24:51Z</time>
      </trkpt>
      <trkpt lat="45.26557" lon="6.19605">
        <ele>1424.8</ele>
        <time>2019-03-30T13:24:56Z</time>
      </trkpt>
      <trkpt lat="45.26563" lon="6.19604">
        <ele>1420.8</ele>
        <time>2019-03-30T13:25:01Z</time>
      </trkpt>
      <trkpt lat="45.26575" lon="6.19607">
        <ele>1420</ele>
        <time>2019-03-30T13:25:06Z</time>
      </trkpt>
      <trkpt lat="45.2659" lon="6.19615">
        <ele>1422.2</ele>
        <time>2019-03-30T13:25:11Z</time>
      </trkpt>
      <trkpt lat="45.26606" lon="6.19621">
        <ele>1419.4</ele>
        <time>2019-03-30T13:25:16Z</time>
      </trkpt>
      <trkpt lat="45.26628" lon="6.19629">
        <ele>1417.6</ele>
        <time>2019-03-30T13:25:21Z</time>
      </trkpt>
      <trkpt lat="45.26651" lon="6.19642">
        <ele>1419.4</ele>
        <time>2019-03-30T13:25:26Z</time>
      </trkpt>
      <trkpt lat="45.26675" lon="6.19657">
        <ele>1414.6</ele>
        <time>2019-03-30T13:25:31Z</time>
      </trkpt>
      <trkpt lat="45.26689" lon="6.19689">
        <ele>1409</ele>
        <time>2019-03-30T13:25:36Z</time>
      </trkpt>
      <trkpt lat="45.26716" lon="6.19714">
        <ele>1406.2</ele>
        <time>2019-03-30T13:25:41Z</time>
      </trkpt>
      <trkpt lat="45.26744" lon="6.19724">
        <ele>1402</ele>
        <time>2019-03-30T13:25:46Z</time>
      </trkpt>
      <trkpt lat="45.26763" lon="6.19735">
        <ele>1400.6</ele>
        <time>2019-03-30T13:25:51Z</time>
      </trkpt>
      <trkpt lat="45.2678" lon="6.19753">
        <ele>1397.6</ele>
        <time>2019-03-30T13:25:56Z</time>
      </trkpt>
      <trkpt lat="45.2679" lon="6.19779">
        <ele>1396</ele>
        <time>2019-03-30T13:26:01Z</time>
      </trkpt>
      <trkpt lat="45.26809" lon="6.19802">
        <ele>1391</ele>
        <time>2019-03-30T13:26:06Z</time>
      </trkpt>
      <trkpt lat="45.26832" lon="6.19803">
        <ele>1393.4</ele>
        <time>2019-03-30T13:26:11Z</time>
      </trkpt>
      <trkpt lat="45.26855" lon="6.19794">
        <ele>1392.2</ele>
        <time>2019-03-30T13:26:16Z</time>
      </trkpt>
      <trkpt lat="45.26876" lon="6.19795">
        <ele>1389.6</ele>
        <time>2019-03-30T13:26:21Z</time>
      </trkpt>
      <trkpt lat="45.26898" lon="6.19794">
        <ele>1387</ele>
        <time>2019-03-30T13:26:26Z</time>
      </trkpt>
      <trkpt lat="45.26921" lon="6.19805">
        <ele>1386</ele>
        <time>2019-03-30T13:26:31Z</time>
      </trkpt>
      <trkpt lat="45.2693" lon="6.19843">
        <ele>1381.2</ele>
        <time>2019-03-30T13:26:36Z</time>
      </trkpt>
      <trkpt lat="45.26944" lon="6.19876">
        <ele>1378.2</ele>
        <time>2019-03-30T13:26:41Z</time>
      </trkpt>
      <trkpt lat="45.26953" lon="6.1991">
        <ele>1375.6</ele>
        <time>2019-03-30T13:26:46Z</time>
      </trkpt>
      <trkpt lat="45.26965" lon="6.19938">
        <ele>1374.8</ele>
        <time>2019-03-30T13:26:51Z</time>
      </trkpt>
      <trkpt lat="45.2696" lon="6.19966">
        <ele>1376</ele>
        <time>2019-03-30T13:26:56Z</time>
      </trkpt>
      <trkpt lat="45.26963" lon="6.19997">
        <ele>1371.8</ele>
        <time>2019-03-30T13:27:01Z</time>
      </trkpt>
      <trkpt lat="45.26987" lon="6.20003">
        <ele>1368.6</ele>
        <time>2019-03-30T13:27:06Z</time>
      </trkpt>
      <trkpt lat="45.27009" lon="6.20006">
        <ele>1366.6</ele>
        <time>2019-03-30T13:27:11Z</time>
      </trkpt>
      <trkpt lat="45.2703" lon="6.2001">
        <ele>1362</ele>
        <time>2019-03-30T13:27:16Z</time>
      </trkpt>
      <trkpt lat="45.27049" lon="6.20015">
        <ele>1357.4</ele>
        <time>2019-03-30T13:27:21Z</time>
      </trkpt>
      <trkpt lat="45.27068" lon="6.20026">
        <ele>1351.8</ele>
        <time>2019-03-30T13:27:26Z</time>
      </trkpt>
      <trkpt lat="45.27084" lon="6.20045">
        <ele>1350</ele>
        <time>2019-03-30T13:27:31Z</time>
      </trkpt>
      <trkpt lat="45.27098" lon="6.20064">
        <ele>1344</ele>
        <time>2019-03-30T13:27:36Z</time>
      </trkpt>
      <trkpt lat="45.27113" lon="6.20081">
        <ele>1344.2</ele>
        <time>2019-03-30T13:27:41Z</time>
      </trkpt>
      <trkpt lat="45.27132" lon="6.20083">
        <ele>1341</ele>
        <time>2019-03-30T13:27:46Z</time>
      </trkpt>
      <trkpt lat="45.27148" lon="6.20064">
        <ele>1338.6</ele>
        <time>2019-03-30T13:27:51Z</time>
      </trkpt>
      <trkpt lat="45.27162" lon="6.20045">
        <ele>1334.8</ele>
        <time>2019-03-30T13:27:56Z</time>
      </trkpt>
      <trkpt lat="45.27182" lon="6.20039">
        <ele>1331.4</ele>
        <time>2019-03-30T13:28:01Z</time>
      </trkpt>
      <trkpt lat="45.27203" lon="6.20051">
        <ele>1331.2</ele>
        <time>2019-03-30T13:28:06Z</time>
      </trkpt>
      <trkpt lat="45.2722" lon="6.20071">
        <ele>1328</ele>
        <time>2019-03-30T13:28:11Z</time>
      </trkpt>
      <trkpt lat="45.27235" lon="6.20096">
        <ele>1331.6</ele>
        <time>2019-03-30T13:28:16Z</time>
      </trkpt>
      <trkpt lat="45.27249" lon="6.20126">
        <ele>1328.4</ele>
        <time>2019-03-30T13:28:21Z</time>
      </trkpt>
      <trkpt lat="45.27263" lon="6.20158">
        <ele>1326</ele>
        <time>2019-03-30T13:28:26Z</time>
      </trkpt>
      <trkpt lat="45.27281" lon="6.20179">
        <ele>1320.4</ele>
        <time>2019-03-30T13:28:31Z</time>
      </trkpt>
      <trkpt lat="45.27301" lon="6.20189">
        <ele>1320.2</ele>
        <time>2019-03-30T13:28:36Z</time>
      </trkpt>
      <trkpt lat="45.27323" lon="6.20187">
        <ele>1314.6</ele>
        <time>2019-03-30T13:28:41Z</time>
      </trkpt>
      <trkpt lat="45.27342" lon="6.20193">
        <ele>1312</ele>
        <time>2019-03-30T13:28:46Z</time>
      </trkpt>
      <trkpt lat="45.27352" lon="6.20204">
        <ele>1310.4</ele>
        <time>2019-03-30T13:28:51Z</time>
      </trkpt>
      <trkpt lat="45.27354" lon="6.20207">
        <ele>1310.6</ele>
        <time>2019-03-30T13:28:56Z</time>
      </trkpt>
      <trkpt lat="45.27355" lon="6.20207">
        <ele>1315.8</ele>
        <time>2019-03-30T13:29:01Z</time>
      </trkpt>
      <trkpt lat="45.27356" lon="6.20207">
        <ele>1318.6</ele>
        <time>2019-03-30T13:29:11Z</time>
      </trkpt>
      <trkpt lat="45.27357" lon="6.20208">
        <ele>1313</ele>
        <time>2019-03-30T13:29:16Z</time>
      </trkpt>
      <trkpt lat="45.27363" lon="6.20212">
        <ele>1315.2</ele>
        <time>2019-03-30T13:29:21Z</time>
      </trkpt>
      <trkpt lat="45.27371" lon="6.2022">
        <ele>1314.4</ele>
        <time>2019-03-30T13:29:26Z</time>
      </trkpt>
      <trkpt lat="45.2738" lon="6.20227">
        <ele>1320</ele>
        <time>2019-03-30T13:29:31Z</time>
      </trkpt>
      <trkpt lat="45.27392" lon="6.20234">
        <ele>1320.6</ele>
        <time>2019-03-30T13:29:36Z</time>
      </trkpt>
      <trkpt lat="45.27396" lon="6.20233">
        <ele>1318.4</ele>
        <time>2019-03-30T13:29:41Z</time>
      </trkpt>
      <trkpt lat="45.27396" lon="6.20233">
        <ele>1309.8</ele>
        <time>2019-03-30T13:30:18Z</time>
      </trkpt>
      <trkpt lat="45.27398" lon="6.20239">
        <ele>1308.4</ele>
        <time>2019-03-30T13:30:23Z</time>
      </trkpt>
      <trkpt lat="45.27401" lon="6.20246">
        <ele>1309.6</ele>
        <time>2019-03-30T13:30:28Z</time>
      </trkpt>
      <trkpt lat="45.27408" lon="6.20259">
        <ele>1310.2</ele>
        <time>2019-03-30T13:30:33Z</time>
      </trkpt>
      <trkpt lat="45.27418" lon="6.20271">
        <ele>1310</ele>
        <time>2019-03-30T13:30:38Z</time>
      </trkpt>
      <trkpt lat="45.27429" lon="6.20281">
        <ele>1310.2</ele>
        <time>2019-03-30T13:30:43Z</time>
      </trkpt>
      <trkpt lat="45.2744" lon="6.20293">
        <ele>1308.8</ele>
        <time>2019-03-30T13:30:48Z</time>
      </trkpt>
      <trkpt lat="45.27448" lon="6.20311">
        <ele>1308.4</ele>
        <time>2019-03-30T13:30:53Z</time>
      </trkpt>
      <trkpt lat="45.27458" lon="6.20329">
        <ele>1307</ele>
        <time>2019-03-30T13:30:58Z</time>
      </trkpt>
      <trkpt lat="45.27467" lon="6.20346">
        <ele>1304.6</ele>
        <time>2019-03-30T13:31:03Z</time>
      </trkpt>
      <trkpt lat="45.27474" lon="6.2036">
        <ele>1303.4</ele>
        <time>2019-03-30T13:31:08Z</time>
      </trkpt>
      <trkpt lat="45.27481" lon="6.20383">
        <ele>1301.8</ele>
        <time>2019-03-30T13:31:13Z</time>
      </trkpt>
      <trkpt lat="45.27493" lon="6.20406">
        <ele>1297.6</ele>
        <time>2019-03-30T13:31:18Z</time>
      </trkpt>
      <trkpt lat="45.27504" lon="6.20417">
        <ele>1295.4</ele>
        <time>2019-03-30T13:31:23Z</time>
      </trkpt>
      <trkpt lat="45.27509" lon="6.20424">
        <ele>1290.8</ele>
        <time>2019-03-30T13:31:28Z</time>
      </trkpt>
      <trkpt lat="45.27512" lon="6.20431">
        <ele>1291.4</ele>
        <time>2019-03-30T13:31:33Z</time>
      </trkpt>
      <trkpt lat="45.27517" lon="6.2044">
        <ele>1290.2</ele>
        <time>2019-03-30T13:31:38Z</time>
      </trkpt>
      <trkpt lat="45.27524" lon="6.20456">
        <ele>1290.4</ele>
        <time>2019-03-30T13:31:43Z</time>
      </trkpt>
      <trkpt lat="45.27532" lon="6.20471">
        <ele>1291.2</ele>
        <time>2019-03-30T13:31:48Z</time>
      </trkpt>
      <trkpt lat="45.2754" lon="6.20489">
        <ele>1292.6</ele>
        <time>2019-03-30T13:31:53Z</time>
      </trkpt>
      <trkpt lat="45.27549" lon="6.20507">
        <ele>1293.8</ele>
        <time>2019-03-30T13:31:58Z</time>
      </trkpt>
      <trkpt lat="45.27558" lon="6.20527">
        <ele>1291</ele>
        <time>2019-03-30T13:32:03Z</time>
      </trkpt>
      <trkpt lat="45.27569" lon="6.20548">
        <ele>1292</ele>
        <time>2019-03-30T13:32:08Z</time>
      </trkpt>
      <trkpt lat="45.27578" lon="6.20574">
        <ele>1289.8</ele>
        <time>2019-03-30T13:32:13Z</time>
      </trkpt>
      <trkpt lat="45.2758" lon="6.20606">
        <ele>1289.8</ele>
        <time>2019-03-30T13:32:18Z</time>
      </trkpt>
      <trkpt lat="45.27582" lon="6.20636">
        <ele>1287.4</ele>
        <time>2019-03-30T13:32:23Z</time>
      </trkpt>
      <trkpt lat="45.27583" lon="6.20663">
        <ele>1287.8</ele>
        <time>2019-03-30T13:32:28Z</time>
      </trkpt>
      <trkpt lat="45.2759" lon="6.20689">
        <ele>1286.8</ele>
        <time>2019-03-30T13:32:33Z</time>
      </trkpt>
      <trkpt lat="45.27597" lon="6.20717">
        <ele>1280.8</ele>
        <time>2019-03-30T13:32:38Z</time>
      </trkpt>
      <trkpt lat="45.27612" lon="6.20733">
        <ele>1277.8</ele>
        <time>2019-03-30T13:32:43Z</time>
      </trkpt>
      <trkpt lat="45.27623" lon="6.2074">
        <ele>1276</ele>
        <time>2019-03-30T13:32:48Z</time>
      </trkpt>
      <trkpt lat="45.27635" lon="6.20751">
        <ele>1269.6</ele>
        <time>2019-03-30T13:32:53Z</time>
      </trkpt>
      <trkpt lat="45.27646" lon="6.20763">
        <ele>1266.2</ele>
        <time>2019-03-30T13:32:58Z</time>
      </trkpt>
      <trkpt lat="45.27658" lon="6.20777">
        <ele>1264.4</ele>
        <time>2019-03-30T13:33:03Z</time>
      </trkpt>
      <trkpt lat="45.27669" lon="6.20793">
        <ele>1261.4</ele>
        <time>2019-03-30T13:33:08Z</time>
      </trkpt>
      <trkpt lat="45.27684" lon="6.2081">
        <ele>1259.8</ele>
        <time>2019-03-30T13:33:13Z</time>
      </trkpt>
      <trkpt lat="45.27702" lon="6.20827">
        <ele>1259.4</ele>
        <time>2019-03-30T13:33:18Z</time>
      </trkpt>
      <trkpt lat="45.27721" lon="6.20844">
        <ele>1255.6</ele>
        <time>2019-03-30T13:33:23Z</time>
      </trkpt>
      <trkpt lat="45.27741" lon="6.20865">
        <ele>1255.4</ele>
        <time>2019-03-30T13:33:28Z</time>
      </trkpt>
      <trkpt lat="45.27758" lon="6.20889">
        <ele>1254.2</ele>
        <time>2019-03-30T13:33:33Z</time>
      </trkpt>
      <trkpt lat="45.27777" lon="6.20914">
        <ele>1252.6</ele>
        <time>2019-03-30T13:33:38Z</time>
      </trkpt>
      <trkpt lat="45.27795" lon="6.20938">
        <ele>1250.2</ele>
        <time>2019-03-30T13:33:43Z</time>
      </trkpt>
      <trkpt lat="45.27811" lon="6.20959">
        <ele>1252.8</ele>
        <time>2019-03-30T13:33:48Z</time>
      </trkpt>
      <trkpt lat="45.27828" lon="6.20978">
        <ele>1251.8</ele>
        <time>2019-03-30T13:33:53Z</time>
      </trkpt>
      <trkpt lat="45.27846" lon="6.20993">
        <ele>1250.2</ele>
        <time>2019-03-30T13:33:58Z</time>
      </trkpt>
      <trkpt lat="45.27864" lon="6.21006">
        <ele>1249.8</ele>
        <time>2019-03-30T13:34:03Z</time>
      </trkpt>
      <trkpt lat="45.27879" lon="6.21016">
        <ele>1247</ele>
        <time>2019-03-30T13:34:08Z</time>
      </trkpt>
      <trkpt lat="45.27891" lon="6.21025">
        <ele>1246.6</ele>
        <time>2019-03-30T13:34:13Z</time>
      </trkpt>
      <trkpt lat="45.27906" lon="6.21032">
        <ele>1241.2</ele>
        <time>2019-03-30T13:34:18Z</time>
      </trkpt>
      <trkpt lat="45.27921" lon="6.21036">
        <ele>1239.6</ele>
        <time>2019-03-30T13:34:23Z</time>
      </trkpt>
      <trkpt lat="45.27935" lon="6.21043">
        <ele>1238</ele>
        <time>2019-03-30T13:34:28Z</time>
      </trkpt>
      <trkpt lat="45.27942" lon="6.21045">
        <ele>1238.2</ele>
        <time>2019-03-30T13:34:33Z</time>
      </trkpt>
      <trkpt lat="45.27949" lon="6.21049">
        <ele>1239.2</ele>
        <time>2019-03-30T13:34:38Z</time>
      </trkpt>
      <trkpt lat="45.2795" lon="6.21051">
        <ele>1238.4</ele>
        <time>2019-03-30T13:34:43Z</time>
      </trkpt>
      <trkpt lat="45.27951" lon="6.21051">
        <ele>1237.6</ele>
        <time>2019-03-30T13:34:53Z</time>
      </trkpt>
      <trkpt lat="45.27951" lon="6.21051">
        <ele>1236.6</ele>
        <time>2019-03-30T13:34:58Z</time>
      </trkpt>
      <trkpt lat="45.27952" lon="6.21051">
        <ele>1235.6</ele>
        <time>2019-03-30T13:35:03Z</time>
      </trkpt>
      <trkpt lat="45.27952" lon="6.21052">
        <ele>1234.8</ele>
        <time>2019-03-30T13:35:08Z</time>
      </trkpt>
      <trkpt lat="45.27954" lon="6.21054">
        <ele>1233.8</ele>
        <time>2019-03-30T13:35:13Z</time>
      </trkpt>
      <trkpt lat="45.27955" lon="6.21053">
        <ele>1232.8</ele>
        <time>2019-03-30T13:35:18Z</time>
      </trkpt>
      <trkpt lat="45.27955" lon="6.21053">
        <ele>1232.2</ele>
        <time>2019-03-30T13:35:28Z</time>
      </trkpt>
      <trkpt lat="45.27956" lon="6.2105">
        <ele>1232.2</ele>
        <time>2019-03-30T13:35:33Z</time>
      </trkpt>
      <trkpt lat="45.2796" lon="6.21047">
        <ele>1231.8</ele>
        <time>2019-03-30T13:35:43Z</time>
      </trkpt>
      <trkpt lat="45.2796" lon="6.21048">
        <ele>1229.6</ele>
        <time>2019-03-30T13:35:48Z</time>
      </trkpt>
      <trkpt lat="45.27961" lon="6.21047">
        <ele>1231.8</ele>
        <time>2019-03-30T13:35:58Z</time>
      </trkpt>
      <trkpt lat="45.27963" lon="6.21047">
        <ele>1232.2</ele>
        <time>2019-03-30T13:36:03Z</time>
      </trkpt>
      <trkpt lat="45.27968" lon="6.21053">
        <ele>1234.2</ele>
        <time>2019-03-30T13:36:08Z</time>
      </trkpt>
      <trkpt lat="45.27973" lon="6.21059">
        <ele>1234</ele>
        <time>2019-03-30T13:36:13Z</time>
      </trkpt>
      <trkpt lat="45.27975" lon="6.21061">
        <ele>1230.6</ele>
        <time>2019-03-30T13:36:18Z</time>
      </trkpt>
      <trkpt lat="45.27975" lon="6.21061">
        <ele>1235.8</ele>
        <time>2019-03-30T13:36:33Z</time>
      </trkpt>
      <trkpt lat="45.27976" lon="6.21064">
        <ele>1234</ele>
        <time>2019-03-30T13:36:38Z</time>
      </trkpt>
      <trkpt lat="45.2798" lon="6.21067">
        <ele>1236</ele>
        <time>2019-03-30T13:36:43Z</time>
      </trkpt>
      <trkpt lat="45.27981" lon="6.21071">
        <ele>1236</ele>
        <time>2019-03-30T13:36:48Z</time>
      </trkpt>
      <trkpt lat="45.27984" lon="6.21078">
        <ele>1237.6</ele>
        <time>2019-03-30T13:36:53Z</time>
      </trkpt>
      <trkpt lat="45.27986" lon="6.21085">
        <ele>1239.4</ele>
        <time>2019-03-30T13:36:58Z</time>
      </trkpt>
      <trkpt lat="45.27989" lon="6.21092">
        <ele>1236</ele>
        <time>2019-03-30T13:37:03Z</time>
      </trkpt>
      <trkpt lat="45.27993" lon="6.21096">
        <ele>1239.8</ele>
        <time>2019-03-30T13:37:08Z</time>
      </trkpt>
      <trkpt lat="45.27999" lon="6.21097">
        <ele>1242.2</ele>
        <time>2019-03-30T13:37:13Z</time>
      </trkpt>
      <trkpt lat="45.28003" lon="6.21098">
        <ele>1241</ele>
        <time>2019-03-30T13:37:18Z</time>
      </trkpt>
      <trkpt lat="45.28007" lon="6.21102">
        <ele>1237.4</ele>
        <time>2019-03-30T13:37:23Z</time>
      </trkpt>
      <trkpt lat="45.28012" lon="6.21105">
        <ele>1239</ele>
        <time>2019-03-30T13:37:28Z</time>
      </trkpt>
      <trkpt lat="45.28017" lon="6.21104">
        <ele>1238.2</ele>
        <time>2019-03-30T13:37:33Z</time>
      </trkpt>
      <trkpt lat="45.28023" lon="6.21105">
        <ele>1236</ele>
        <time>2019-03-30T13:37:38Z</time>
      </trkpt>
      <trkpt lat="45.28027" lon="6.21107">
        <ele>1235.2</ele>
        <time>2019-03-30T13:37:43Z</time>
      </trkpt>
      <trkpt lat="45.2803" lon="6.21107">
        <ele>1233.8</ele>
        <time>2019-03-30T13:37:48Z</time>
      </trkpt>
      <trkpt lat="45.28036" lon="6.21108">
        <ele>1234.6</ele>
        <time>2019-03-30T13:37:53Z</time>
      </trkpt>
      <trkpt lat="45.28041" lon="6.21108">
        <ele>1231.2</ele>
        <time>2019-03-30T13:37:58Z</time>
      </trkpt>
      <trkpt lat="45.28046" lon="6.21111">
        <ele>1230.6</ele>
        <time>2019-03-30T13:38:03Z</time>
      </trkpt>
      <trkpt lat="45.28051" lon="6.21115">
        <ele>1228.2</ele>
        <time>2019-03-30T13:38:08Z</time>
      </trkpt>
      <trkpt lat="45.28056" lon="6.21118">
        <ele>1227</ele>
        <time>2019-03-30T13:38:13Z</time>
      </trkpt>
      <trkpt lat="45.28062" lon="6.21121">
        <ele>1228.6</ele>
        <time>2019-03-30T13:38:18Z</time>
      </trkpt>
      <trkpt lat="45.28067" lon="6.21123">
        <ele>1227.4</ele>
        <time>2019-03-30T13:38:23Z</time>
      </trkpt>
      <trkpt lat="45.28072" lon="6.21126">
        <ele>1225.6</ele>
        <time>2019-03-30T13:38:28Z</time>
      </trkpt>
      <trkpt lat="45.28077" lon="6.21131">
        <ele>1224.8</ele>
        <time>2019-03-30T13:38:33Z</time>
      </trkpt>
      <trkpt lat="45.28083" lon="6.21133">
        <ele>1221.6</ele>
        <time>2019-03-30T13:38:38Z</time>
      </trkpt>
      <trkpt lat="45.28089" lon="6.21136">
        <ele>1221.6</ele>
        <time>2019-03-30T13:38:43Z</time>
      </trkpt>
      <trkpt lat="45.28093" lon="6.2114">
        <ele>1220.2</ele>
        <time>2019-03-30T13:38:48Z</time>
      </trkpt>
      <trkpt lat="45.28094" lon="6.2114">
        <ele>1218.6</ele>
        <time>2019-03-30T13:38:53Z</time>
      </trkpt>
      <trkpt lat="45.28095" lon="6.21143">
        <ele>1215.2</ele>
        <time>2019-03-30T13:38:58Z</time>
      </trkpt>
      <trkpt lat="45.28096" lon="6.21143">
        <ele>1214.6</ele>
        <time>2019-03-30T13:39:03Z</time>
      </trkpt>
      <trkpt lat="45.28097" lon="6.21147">
        <ele>1214.6</ele>
        <time>2019-03-30T13:39:08Z</time>
      </trkpt>
      <trkpt lat="45.281" lon="6.21151">
        <ele>1209.2</ele>
        <time>2019-03-30T13:39:13Z</time>
      </trkpt>
      <trkpt lat="45.28104" lon="6.21158">
        <ele>1213.2</ele>
        <time>2019-03-30T13:39:18Z</time>
      </trkpt>
      <trkpt lat="45.28107" lon="6.21164">
        <ele>1210.2</ele>
        <time>2019-03-30T13:39:23Z</time>
      </trkpt>
      <trkpt lat="45.2811" lon="6.21168">
        <ele>1211</ele>
        <time>2019-03-30T13:39:28Z</time>
      </trkpt>
      <trkpt lat="45.28113" lon="6.21174">
        <ele>1210.8</ele>
        <time>2019-03-30T13:39:33Z</time>
      </trkpt>
      <trkpt lat="45.28117" lon="6.2118">
        <ele>1210.6</ele>
        <time>2019-03-30T13:39:38Z</time>
      </trkpt>
      <trkpt lat="45.28122" lon="6.21183">
        <ele>1210</ele>
        <time>2019-03-30T13:39:43Z</time>
      </trkpt>
      <trkpt lat="45.28129" lon="6.21184">
        <ele>1209.4</ele>
        <time>2019-03-30T13:39:48Z</time>
      </trkpt>
      <trkpt lat="45.28135" lon="6.21187">
        <ele>1207.2</ele>
        <time>2019-03-30T13:39:53Z</time>
      </trkpt>
      <trkpt lat="45.28139" lon="6.21192">
        <ele>1207.2</ele>
        <time>2019-03-30T13:39:58Z</time>
      </trkpt>
      <trkpt lat="45.28145" lon="6.21198">
        <ele>1206.6</ele>
        <time>2019-03-30T13:40:04Z</time>
      </trkpt>
      <trkpt lat="45.28151" lon="6.21202">
        <ele>1207</ele>
        <time>2019-03-30T13:40:10Z</time>
      </trkpt>
      <trkpt lat="45.28155" lon="6.21206">
        <ele>1208</ele>
        <time>2019-03-30T13:40:15Z</time>
      </trkpt>
      <trkpt lat="45.28159" lon="6.21207">
        <ele>1205</ele>
        <time>2019-03-30T13:40:20Z</time>
      </trkpt>
      <trkpt lat="45.28161" lon="6.21199">
        <ele>1204.2</ele>
        <time>2019-03-30T13:40:25Z</time>
      </trkpt>
      <trkpt lat="45.28163" lon="6.21191">
        <ele>1203.4</ele>
        <time>2019-03-30T13:40:30Z</time>
      </trkpt>
      <trkpt lat="45.28169" lon="6.21181">
        <ele>1203</ele>
        <time>2019-03-30T13:40:35Z</time>
      </trkpt>
      <trkpt lat="45.2817" lon="6.21173">
        <ele>1200.4</ele>
        <time>2019-03-30T13:40:40Z</time>
      </trkpt>
      <trkpt lat="45.28168" lon="6.21164">
        <ele>1201.2</ele>
        <time>2019-03-30T13:40:45Z</time>
      </trkpt>
      <trkpt lat="45.28168" lon="6.21156">
        <ele>1196.8</ele>
        <time>2019-03-30T13:40:50Z</time>
      </trkpt>
      <trkpt lat="45.28169" lon="6.21148">
        <ele>1197.2</ele>
        <time>2019-03-30T13:40:55Z</time>
      </trkpt>
      <trkpt lat="45.28171" lon="6.2114">
        <ele>1196.6</ele>
        <time>2019-03-30T13:41:00Z</time>
      </trkpt>
      <trkpt lat="45.28174" lon="6.21134">
        <ele>1196.6</ele>
        <time>2019-03-30T13:41:05Z</time>
      </trkpt>
      <trkpt lat="45.28177" lon="6.21129">
        <ele>1195.4</ele>
        <time>2019-03-30T13:41:10Z</time>
      </trkpt>
      <trkpt lat="45.28182" lon="6.21129">
        <ele>1194</ele>
        <time>2019-03-30T13:41:15Z</time>
      </trkpt>
      <trkpt lat="45.28188" lon="6.21128">
        <ele>1195.2</ele>
        <time>2019-03-30T13:41:20Z</time>
      </trkpt>
      <trkpt lat="45.28194" lon="6.21127">
        <ele>1195.2</ele>
        <time>2019-03-30T13:41:25Z</time>
      </trkpt>
      <trkpt lat="45.28199" lon="6.21126">
        <ele>1195</ele>
        <time>2019-03-30T13:41:30Z</time>
      </trkpt>
      <trkpt lat="45.28203" lon="6.21128">
        <ele>1195.8</ele>
        <time>2019-03-30T13:41:35Z</time>
      </trkpt>
      <trkpt lat="45.28209" lon="6.21128">
        <ele>1194.8</ele>
        <time>2019-03-30T13:41:40Z</time>
      </trkpt>
      <trkpt lat="45.28214" lon="6.21127">
        <ele>1197.4</ele>
        <time>2019-03-30T13:41:45Z</time>
      </trkpt>
      <trkpt lat="45.2822" lon="6.21128">
        <ele>1196.6</ele>
        <time>2019-03-30T13:41:50Z</time>
      </trkpt>
      <trkpt lat="45.28221" lon="6.21128">
        <ele>1194.8</ele>
        <time>2019-03-30T13:41:55Z</time>
      </trkpt>
      <trkpt lat="45.28221" lon="6.21128">
        <ele>1197</ele>
        <time>2019-03-30T13:42:15Z</time>
      </trkpt>
    </trkseg>
  </trk>
</gpx>